<?xml version='1.0' encoding='UTF-8'?><gpx version="1.1" creator="JPX - https://github.com/jenetics/jpx" xmlns="http://www.topografix.com/GPX/1/1"><trk><trkseg><trkpt lat="53.76487012165767" lon="11.097863853840295"><ele>50.0</ele><time>2026-03-22T12:10:22.983Z</time></trkpt><trkpt lat="53.765025540329525" lon="11.097720559009954"><ele>50.0</ele><time>2026-03-22T12:11:52.983Z</time></trkpt><trkpt lat="53.76515108994634" lon="11.097722599478212"><ele>50.0</ele><time>2026-03-22T12:11:54.983Z</time></trkpt><trkpt lat="53.765221137985584" lon="11.097729949612441"><ele>50.0</ele><time>2026-03-22T12:11:55.983Z</time></trkpt><trkpt lat="53.76530049436602" lon="11.097730563895672"><ele>49.4</ele><time>2026-03-22T12:11:56.983Z</time></trkpt><trkpt lat="53.76538636798146" lon="11.09772285229466"><ele>48.8</ele><time>2026-03-22T12:11:57.983Z</time></trkpt><trkpt lat="53.765469780425605" lon="11.097676189863723"><ele>48.2</ele><time>2026-03-22T12:11:58.983Z</time></trkpt><trkpt lat="53.76555800461966" lon="11.097561964144598"><ele>47.6</ele><time>2026-03-22T12:11:59.983Z</time></trkpt><trkpt lat="53.76559356941957" lon="11.09741051521049"><ele>47.0</ele><time>2026-03-22T12:12:00.983Z</time></trkpt><trkpt lat="53.76558340934654" lon="11.09725535431718"><ele>47.0</ele><time>2026-03-22T12:12:01.983Z</time></trkpt><trkpt lat="53.76549463661785" lon="11.09712003281426"><ele>47.0</ele><time>2026-03-22T12:12:02.983Z</time></trkpt><trkpt lat="53.76545704392796" lon="11.096932745504981"><ele>47.0</ele><time>2026-03-22T12:12:03.983Z</time></trkpt><trkpt lat="53.765420966060205" lon="11.096753005060577"><ele>47.0</ele><time>2026-03-22T12:12:04.983Z</time></trkpt><trkpt lat="53.76538605505737" lon="11.096582880738591"><ele>47.0</ele><time>2026-03-22T12:12:05.983Z</time></trkpt><trkpt lat="53.765364824830414" lon="11.096451212633584"><ele>47.0</ele><time>2026-03-22T12:12:06.983Z</time></trkpt><trkpt lat="53.765315371071175" lon="11.096327999367656"><ele>47.0</ele><time>2026-03-22T12:12:07.983Z</time></trkpt><trkpt lat="53.765218576397004" lon="11.096299624163063"><ele>47.0</ele><time>2026-03-22T12:12:08.983Z</time></trkpt><trkpt lat="53.76511478728147" lon="11.09630360663484"><ele>47.0</ele><time>2026-03-22T12:12:09.983Z</time></trkpt><trkpt lat="53.76499678990218" lon="11.096335647415309"><ele>47.400000000000006</ele><time>2026-03-22T12:12:10.983Z</time></trkpt><trkpt lat="53.76489365424924" lon="11.096295220356168"><ele>47.800000000000004</ele><time>2026-03-22T12:12:11.983Z</time></trkpt><trkpt lat="53.76479556155328" lon="11.096281588277224"><ele>48.2</ele><time>2026-03-22T12:12:12.983Z</time></trkpt><trkpt lat="53.76472487788172" lon="11.096267150009842"><ele>48.6</ele><time>2026-03-22T12:12:13.983Z</time></trkpt><trkpt lat="53.76465858523134" lon="11.096271041611205"><ele>49.0</ele><time>2026-03-22T12:12:14.983Z</time></trkpt><trkpt lat="53.76458755860486" lon="11.09613354007961"><ele>49.0</ele><time>2026-03-22T12:12:16.983Z</time></trkpt><trkpt lat="53.764547114220555" lon="11.096008585679021"><ele>49.0</ele><time>2026-03-22T12:12:18.983Z</time></trkpt><trkpt lat="53.764640801816824" lon="11.096005382143563"><ele>49.0</ele><time>2026-03-22T12:12:19.983Z</time></trkpt><trkpt lat="53.764742881796224" lon="11.095889452187196"><ele>49.0</ele><time>2026-03-22T12:12:21.983Z</time></trkpt><trkpt lat="53.76482061581134" lon="11.095800926755732"><ele>49.0</ele><time>2026-03-22T12:12:22.983Z</time></trkpt><trkpt lat="53.764905944902964" lon="11.09570375186243"><ele>48.666666666666664</ele><time>2026-03-22T12:12:23.984Z</time></trkpt><trkpt lat="53.764994682339704" lon="11.0956026954602"><ele>48.33333333333333</ele><time>2026-03-22T12:12:24.984Z</time></trkpt><trkpt lat="53.76507962585363" lon="11.095505070099499"><ele>48.0</ele><time>2026-03-22T12:12:25.984Z</time></trkpt><trkpt lat="53.76515877057298" lon="11.095411870641454"><ele>47.666666666666664</ele><time>2026-03-22T12:12:26.984Z</time></trkpt><trkpt lat="53.76522358049384" lon="11.095334898440168"><ele>47.33333333333333</ele><time>2026-03-22T12:12:27.984Z</time></trkpt><trkpt lat="53.765275385347586" lon="11.095272626129763"><ele>47.0</ele><time>2026-03-22T12:12:28.984Z</time></trkpt><trkpt lat="53.76536650584872" lon="11.095160513306192"><ele>46.8</ele><time>2026-03-22T12:12:30.984Z</time></trkpt><trkpt lat="53.765423273641964" lon="11.095100431167262"><ele>46.6</ele><time>2026-03-22T12:12:31.984Z</time></trkpt><trkpt lat="53.76552569372003" lon="11.094931083505323"><ele>46.4</ele><time>2026-03-22T12:12:32.984Z</time></trkpt><trkpt lat="53.76553645483451" lon="11.094774323072356"><ele>46.199999999999996</ele><time>2026-03-22T12:12:33.984Z</time></trkpt><trkpt lat="53.765575404300925" lon="11.094613388608359"><ele>46.0</ele><time>2026-03-22T12:12:34.984Z</time></trkpt><trkpt lat="53.76563050588707" lon="11.094464306032696"><ele>46.0</ele><time>2026-03-22T12:12:35.984Z</time></trkpt><trkpt lat="53.76571289031039" lon="11.09431381309753"><ele>46.0</ele><time>2026-03-22T12:12:36.984Z</time></trkpt><trkpt lat="53.76582034219684" lon="11.09415363958112"><ele>46.0</ele><time>2026-03-22T12:12:37.984Z</time></trkpt><trkpt lat="53.765936782643244" lon="11.093985594609594"><ele>46.0</ele><time>2026-03-22T12:12:38.984Z</time></trkpt><trkpt lat="53.76605550841492" lon="11.093807203409732"><ele>45.0</ele><time>2026-03-22T12:12:39.984Z</time></trkpt><trkpt lat="53.76617463227503" lon="11.09362790491628"><ele>44.0</ele><time>2026-03-22T12:12:40.984Z</time></trkpt><trkpt lat="53.76629746097885" lon="11.093448489252284"><ele>43.0</ele><time>2026-03-22T12:12:41.984Z</time></trkpt><trkpt lat="53.766429303774" lon="11.093246062107061"><ele>43.0</ele><time>2026-03-22T12:12:42.984Z</time></trkpt><trkpt lat="53.76657019753862" lon="11.092958251011634"><ele>43.0</ele><time>2026-03-22T12:12:43.984Z</time></trkpt><trkpt lat="53.766674874882725" lon="11.092638350605199"><ele>43.0</ele><time>2026-03-22T12:12:44.984Z</time></trkpt><trkpt lat="53.76673378806487" lon="11.092327665704524"><ele>42.66666666666667</ele><time>2026-03-22T12:12:45.984Z</time></trkpt><trkpt lat="53.76676889808253" lon="11.092004688504609"><ele>42.333333333333336</ele><time>2026-03-22T12:12:46.984Z</time></trkpt><trkpt lat="53.76680644523068" lon="11.091695524283566"><ele>42.0</ele><time>2026-03-22T12:12:47.984Z</time></trkpt><trkpt lat="53.766812588620375" lon="11.09136493407852"><ele>42.0</ele><time>2026-03-22T12:12:48.984Z</time></trkpt><trkpt lat="53.766835884821255" lon="11.091046893432155"><ele>42.0</ele><time>2026-03-22T12:12:49.984Z</time></trkpt><trkpt lat="53.76685859830142" lon="11.090712051304038"><ele>42.0</ele><time>2026-03-22T12:12:50.984Z</time></trkpt><trkpt lat="53.76685868478483" lon="11.090377857244729"><ele>40.333333333333336</ele><time>2026-03-22T12:12:51.984Z</time></trkpt><trkpt lat="53.76688763300619" lon="11.090040818405265"><ele>38.66666666666667</ele><time>2026-03-22T12:12:52.984Z</time></trkpt><trkpt lat="53.766919793133944" lon="11.08971386909486"><ele>37.0</ele><time>2026-03-22T12:12:53.984Z</time></trkpt><trkpt lat="53.766960667340115" lon="11.089384936422606"><ele>37.333333333333336</ele><time>2026-03-22T12:12:54.984Z</time></trkpt><trkpt lat="53.766986950028475" lon="11.08907525962957"><ele>37.666666666666664</ele><time>2026-03-22T12:12:55.984Z</time></trkpt><trkpt lat="53.76707387411861" lon="11.088778183225646"><ele>38.0</ele><time>2026-03-22T12:12:56.984Z</time></trkpt><trkpt lat="53.767178530921086" lon="11.088529960722157"><ele>38.0</ele><time>2026-03-22T12:12:57.984Z</time></trkpt><trkpt lat="53.767309335640576" lon="11.08832704693373"><ele>38.0</ele><time>2026-03-22T12:12:58.984Z</time></trkpt><trkpt lat="53.76745474235736" lon="11.088136633839655"><ele>38.0</ele><time>2026-03-22T12:12:59.984Z</time></trkpt><trkpt lat="53.76760529551762" lon="11.087952830989984"><ele>37.666666666666664</ele><time>2026-03-22T12:13:00.984Z</time></trkpt><trkpt lat="53.76776440164729" lon="11.087761908802861"><ele>37.333333333333336</ele><time>2026-03-22T12:13:01.984Z</time></trkpt><trkpt lat="53.767922266226975" lon="11.087563371605434"><ele>37.0</ele><time>2026-03-22T12:13:02.984Z</time></trkpt><trkpt lat="53.76807773563727" lon="11.087366558504696"><ele>37.0</ele><time>2026-03-22T12:13:03.984Z</time></trkpt><trkpt lat="53.76823383637291" lon="11.087169130794676"><ele>37.0</ele><time>2026-03-22T12:13:04.984Z</time></trkpt><trkpt lat="53.76839088191423" lon="11.086970633313623"><ele>37.0</ele><time>2026-03-22T12:13:05.984Z</time></trkpt><trkpt lat="53.768548528079954" lon="11.086772713644947"><ele>36.66666666666667</ele><time>2026-03-22T12:13:06.984Z</time></trkpt><trkpt lat="53.76870427259009" lon="11.086578938079843"><ele>36.333333333333336</ele><time>2026-03-22T12:13:07.984Z</time></trkpt><trkpt lat="53.76885845788528" lon="11.08638972452473"><ele>36.0</ele><time>2026-03-22T12:13:08.984Z</time></trkpt><trkpt lat="53.769016040246846" lon="11.086199141350846"><ele>36.0</ele><time>2026-03-22T12:13:09.984Z</time></trkpt><trkpt lat="53.76916924604264" lon="11.086018819433935"><ele>36.0</ele><time>2026-03-22T12:13:10.984Z</time></trkpt><trkpt lat="53.769324007734504" lon="11.085840164721814"><ele>36.0</ele><time>2026-03-22T12:13:11.984Z</time></trkpt><trkpt lat="53.76947840554879" lon="11.085657358612812"><ele>35.0</ele><time>2026-03-22T12:13:12.984Z</time></trkpt><trkpt lat="53.76963369674619" lon="11.085470541757822"><ele>34.0</ele><time>2026-03-22T12:13:13.984Z</time></trkpt><trkpt lat="53.769792683132" lon="11.085279279680305"><ele>33.0</ele><time>2026-03-22T12:13:14.984Z</time></trkpt><trkpt lat="53.76995265401827" lon="11.08508660176701"><ele>32.666666666666664</ele><time>2026-03-22T12:13:15.984Z</time></trkpt><trkpt lat="53.770113462954356" lon="11.084892502830472"><ele>32.33333333333333</ele><time>2026-03-22T12:13:16.984Z</time></trkpt><trkpt lat="53.77027033538155" lon="11.084705962867627"><ele>32.0</ele><time>2026-03-22T12:13:17.984Z</time></trkpt><trkpt lat="53.77042906803795" lon="11.084517208242342"><ele>32.0</ele><time>2026-03-22T12:13:18.984Z</time></trkpt><trkpt lat="53.77058824483752" lon="11.084327925460991"><ele>32.0</ele><time>2026-03-22T12:13:19.984Z</time></trkpt><trkpt lat="53.7707536050169" lon="11.084130613248313"><ele>32.0</ele><time>2026-03-22T12:13:20.984Z</time></trkpt><trkpt lat="53.77092210635881" lon="11.083923663274843"><ele>31.666666666666664</ele><time>2026-03-22T12:13:21.984Z</time></trkpt><trkpt lat="53.771071501410496" lon="11.083686074835112"><ele>31.333333333333336</ele><time>2026-03-22T12:13:22.984Z</time></trkpt><trkpt lat="53.77122343823518" lon="11.083473100732757"><ele>31.0</ele><time>2026-03-22T12:13:23.984Z</time></trkpt><trkpt lat="53.77134558308021" lon="11.083247465946487"><ele>31.0</ele><time>2026-03-22T12:13:24.984Z</time></trkpt><trkpt lat="53.7714425984785" lon="11.08300962419789"><ele>31.0</ele><time>2026-03-22T12:13:25.984Z</time></trkpt><trkpt lat="53.77152405413857" lon="11.0827510107664"><ele>31.0</ele><time>2026-03-22T12:13:26.984Z</time></trkpt><trkpt lat="53.77161699127073" lon="11.08250000706401"><ele>31.333333333333336</ele><time>2026-03-22T12:13:27.984Z</time></trkpt><trkpt lat="53.77170660507869" lon="11.08222041767525"><ele>31.666666666666664</ele><time>2026-03-22T12:13:28.984Z</time></trkpt><trkpt lat="53.771783369852756" lon="11.081923796022641"><ele>32.0</ele><time>2026-03-22T12:13:29.984Z</time></trkpt><trkpt lat="53.77186585749837" lon="11.081623435317445"><ele>33.666666666666664</ele><time>2026-03-22T12:13:30.984Z</time></trkpt><trkpt lat="53.77195791078032" lon="11.08133669225807"><ele>35.333333333333336</ele><time>2026-03-22T12:13:31.984Z</time></trkpt><trkpt lat="53.77204766890275" lon="11.081062301388103"><ele>37.0</ele><time>2026-03-22T12:13:32.984Z</time></trkpt><trkpt lat="53.77213101495773" lon="11.080772152649953"><ele>37.333333333333336</ele><time>2026-03-22T12:13:33.984Z</time></trkpt><trkpt lat="53.77221524333775" lon="11.08048999832081"><ele>37.666666666666664</ele><time>2026-03-22T12:13:34.984Z</time></trkpt><trkpt lat="53.77230520909527" lon="11.080204745569231"><ele>38.0</ele><time>2026-03-22T12:13:35.984Z</time></trkpt><trkpt lat="53.772395067796126" lon="11.079921931882552"><ele>38.0</ele><time>2026-03-22T12:13:36.984Z</time></trkpt><trkpt lat="53.77249019495491" lon="11.079637089261098"><ele>38.0</ele><time>2026-03-22T12:13:37.984Z</time></trkpt><trkpt lat="53.77257900707431" lon="11.079360384429283"><ele>38.0</ele><time>2026-03-22T12:13:38.984Z</time></trkpt><trkpt lat="53.772659088920236" lon="11.079084381505677"><ele>38.0</ele><time>2026-03-22T12:13:39.984Z</time></trkpt><trkpt lat="53.77273080361487" lon="11.078789342858737"><ele>38.0</ele><time>2026-03-22T12:13:40.984Z</time></trkpt><trkpt lat="53.77278656618012" lon="11.078468371151887"><ele>38.0</ele><time>2026-03-22T12:13:41.984Z</time></trkpt><trkpt lat="53.772822899578706" lon="11.078145013082406"><ele>36.666666666666664</ele><time>2026-03-22T12:13:42.984Z</time></trkpt><trkpt lat="53.77286408325278" lon="11.077824513922184"><ele>35.333333333333336</ele><time>2026-03-22T12:13:43.984Z</time></trkpt><trkpt lat="53.772899510759885" lon="11.077502900804376"><ele>34.0</ele><time>2026-03-22T12:13:44.984Z</time></trkpt><trkpt lat="53.7729325180307" lon="11.07719137333419"><ele>32.66666666666667</ele><time>2026-03-22T12:13:45.984Z</time></trkpt><trkpt lat="53.77297230150171" lon="11.076841649945125"><ele>31.333333333333336</ele><time>2026-03-22T12:13:46.984Z</time></trkpt><trkpt lat="53.77300714236357" lon="11.07653086538142"><ele>30.0</ele><time>2026-03-22T12:13:47.984Z</time></trkpt><trkpt lat="53.77302961116073" lon="11.076215965882925"><ele>28.666666666666664</ele><time>2026-03-22T12:13:48.984Z</time></trkpt><trkpt lat="53.7730650806299" lon="11.075872055666885"><ele>27.333333333333332</ele><time>2026-03-22T12:13:49.984Z</time></trkpt><trkpt lat="53.77310198099337" lon="11.075514271465698"><ele>26.0</ele><time>2026-03-22T12:13:50.984Z</time></trkpt><trkpt lat="53.773135954801354" lon="11.075171054912596"><ele>25.333333333333332</ele><time>2026-03-22T12:13:51.984Z</time></trkpt><trkpt lat="53.77316910394144" lon="11.074820030984165"><ele>24.666666666666664</ele><time>2026-03-22T12:13:52.984Z</time></trkpt><trkpt lat="53.773202840543554" lon="11.074465043737087"><ele>24.0</ele><time>2026-03-22T12:13:53.984Z</time></trkpt><trkpt lat="53.773240208902365" lon="11.074141005581357"><ele>24.333333333333336</ele><time>2026-03-22T12:13:54.984Z</time></trkpt><trkpt lat="53.77326671506258" lon="11.073815027749493"><ele>24.666666666666668</ele><time>2026-03-22T12:13:55.984Z</time></trkpt><trkpt lat="53.77330487985878" lon="11.073474114281694"><ele>25.0</ele><time>2026-03-22T12:13:56.984Z</time></trkpt><trkpt lat="53.7733252850979" lon="11.073153764316844"><ele>25.0</ele><time>2026-03-22T12:13:57.984Z</time></trkpt><trkpt lat="53.773355351359065" lon="11.07284308783309"><ele>25.0</ele><time>2026-03-22T12:13:58.984Z</time></trkpt><trkpt lat="53.773379001053385" lon="11.072540528299488"><ele>25.0</ele><time>2026-03-22T12:13:59.984Z</time></trkpt><trkpt lat="53.773403736476794" lon="11.072218805206846"><ele>25.666666666666668</ele><time>2026-03-22T12:14:00.984Z</time></trkpt><trkpt lat="53.77343325799921" lon="11.0718973005747"><ele>26.333333333333336</ele><time>2026-03-22T12:14:01.984Z</time></trkpt><trkpt lat="53.77346866314001" lon="11.071591151481517"><ele>27.0</ele><time>2026-03-22T12:14:02.984Z</time></trkpt><trkpt lat="53.77349146957913" lon="11.071278736865674"><ele>27.666666666666664</ele><time>2026-03-22T12:14:03.984Z</time></trkpt><trkpt lat="53.7735160139749" lon="11.070973422116419"><ele>28.333333333333332</ele><time>2026-03-22T12:14:04.984Z</time></trkpt><trkpt lat="53.77353858077283" lon="11.070665475044335"><ele>29.0</ele><time>2026-03-22T12:14:05.984Z</time></trkpt><trkpt lat="53.7735826688253" lon="11.070352118414696"><ele>29.666666666666664</ele><time>2026-03-22T12:14:06.984Z</time></trkpt><trkpt lat="53.77359982816828" lon="11.07004602988529"><ele>30.333333333333336</ele><time>2026-03-22T12:14:07.984Z</time></trkpt><trkpt lat="53.77363296982343" lon="11.069730705531894"><ele>31.0</ele><time>2026-03-22T12:14:08.984Z</time></trkpt><trkpt lat="53.77365332784528" lon="11.069421494922059"><ele>29.666666666666668</ele><time>2026-03-22T12:14:09.984Z</time></trkpt><trkpt lat="53.77369865824454" lon="11.06910418358594"><ele>28.333333333333336</ele><time>2026-03-22T12:14:10.984Z</time></trkpt><trkpt lat="53.773734213233695" lon="11.068805803118297"><ele>27.0</ele><time>2026-03-22T12:14:11.984Z</time></trkpt><trkpt lat="53.77378164886325" lon="11.068488227327606"><ele>26.666666666666664</ele><time>2026-03-22T12:14:12.984Z</time></trkpt><trkpt lat="53.77383392876638" lon="11.06818090051229"><ele>26.333333333333332</ele><time>2026-03-22T12:14:13.984Z</time></trkpt><trkpt lat="53.77389348644317" lon="11.06788227197073"><ele>26.0</ele><time>2026-03-22T12:14:14.984Z</time></trkpt><trkpt lat="53.77396348110029" lon="11.067592133451296"><ele>26.0</ele><time>2026-03-22T12:14:15.984Z</time></trkpt><trkpt lat="53.77404122135029" lon="11.067302425336846"><ele>26.0</ele><time>2026-03-22T12:14:16.984Z</time></trkpt><trkpt lat="53.77412274704891" lon="11.067022210350736"><ele>26.0</ele><time>2026-03-22T12:14:17.984Z</time></trkpt><trkpt lat="53.774214815232064" lon="11.066738528258254"><ele>26.0</ele><time>2026-03-22T12:14:18.984Z</time></trkpt><trkpt lat="53.774308655001064" lon="11.066475882748168"><ele>26.0</ele><time>2026-03-22T12:14:19.984Z</time></trkpt><trkpt lat="53.77440644219949" lon="11.066203347003512"><ele>26.0</ele><time>2026-03-22T12:14:20.984Z</time></trkpt><trkpt lat="53.77451094853335" lon="11.065920972757311"><ele>26.0</ele><time>2026-03-22T12:14:21.984Z</time></trkpt><trkpt lat="53.77461557681477" lon="11.065638268801454"><ele>26.0</ele><time>2026-03-22T12:14:22.984Z</time></trkpt><trkpt lat="53.77471841348273" lon="11.065359094144867"><ele>26.0</ele><time>2026-03-22T12:14:23.984Z</time></trkpt><trkpt lat="53.77482478005347" lon="11.065068482851292"><ele>26.666666666666664</ele><time>2026-03-22T12:14:24.984Z</time></trkpt><trkpt lat="53.774930109858126" lon="11.064782588069832"><ele>27.333333333333336</ele><time>2026-03-22T12:14:25.984Z</time></trkpt><trkpt lat="53.77503327298865" lon="11.064508412071891"><ele>28.0</ele><time>2026-03-22T12:14:26.984Z</time></trkpt><trkpt lat="53.7751368673925" lon="11.06427798052837"><ele>27.333333333333336</ele><time>2026-03-22T12:14:27.984Z</time></trkpt><trkpt lat="53.77525334281791" lon="11.064068679245167"><ele>26.666666666666664</ele><time>2026-03-22T12:14:28.984Z</time></trkpt><trkpt lat="53.77537399960046" lon="11.063888265539298"><ele>26.0</ele><time>2026-03-22T12:14:29.984Z</time></trkpt><trkpt lat="53.775493820702394" lon="11.063714115260412"><ele>26.0</ele><time>2026-03-22T12:14:30.984Z</time></trkpt><trkpt lat="53.77560940374336" lon="11.063544545691554"><ele>26.0</ele><time>2026-03-22T12:14:31.984Z</time></trkpt><trkpt lat="53.775717265604584" lon="11.063386968391182"><ele>26.0</ele><time>2026-03-22T12:14:32.984Z</time></trkpt><trkpt lat="53.77581508051537" lon="11.0632377571043"><ele>26.0</ele><time>2026-03-22T12:14:33.984Z</time></trkpt><trkpt lat="53.775908844045084" lon="11.063108697415599"><ele>26.5</ele><time>2026-03-22T12:14:34.984Z</time></trkpt><trkpt lat="53.776009472479345" lon="11.062962244326828"><ele>27.0</ele><time>2026-03-22T12:14:35.984Z</time></trkpt><trkpt lat="53.776105759506535" lon="11.06282007756994"><ele>27.5</ele><time>2026-03-22T12:14:36.984Z</time></trkpt><trkpt lat="53.77620136064001" lon="11.06267892352769"><ele>28.0</ele><time>2026-03-22T12:14:37.984Z</time></trkpt><trkpt lat="53.776238248528536" lon="11.062417911264744"><ele>28.5</ele><time>2026-03-22T12:14:38.984Z</time></trkpt><trkpt lat="53.77633231706785" lon="11.06228225618047"><ele>29.0</ele><time>2026-03-22T12:14:39.984Z</time></trkpt><trkpt lat="53.7764248159765" lon="11.062124216206264"><ele>29.5</ele><time>2026-03-22T12:14:40.984Z</time></trkpt><trkpt lat="53.776514380577495" lon="11.061966823239636"><ele>30.0</ele><time>2026-03-22T12:14:41.984Z</time></trkpt><trkpt lat="53.776691376900295" lon="11.06196561251351"><ele>30.0</ele><time>2026-03-22T12:14:42.984Z</time></trkpt><trkpt lat="53.77679167672829" lon="11.061819665108048"><ele>30.0</ele><time>2026-03-22T12:14:43.984Z</time></trkpt><trkpt lat="53.7768943912956" lon="11.061670204014618"><ele>30.0</ele><time>2026-03-22T12:14:44.984Z</time></trkpt><trkpt lat="53.77699800072917" lon="11.061517924313923"><ele>30.0</ele><time>2026-03-22T12:14:45.984Z</time></trkpt><trkpt lat="53.77710209605729" lon="11.061352220815422"><ele>30.0</ele><time>2026-03-22T12:14:46.984Z</time></trkpt><trkpt lat="53.77720051840922" lon="11.061185533314324"><ele>30.0</ele><time>2026-03-22T12:14:47.984Z</time></trkpt><trkpt lat="53.77729517149062" lon="11.061013670967224"><ele>30.0</ele><time>2026-03-22T12:14:48.984Z</time></trkpt><trkpt lat="53.77738420495199" lon="11.060837134567342"><ele>30.0</ele><time>2026-03-22T12:14:49.984Z</time></trkpt><trkpt lat="53.77746689453553" lon="11.06064898670322"><ele>30.0</ele><time>2026-03-22T12:14:50.984Z</time></trkpt><trkpt lat="53.777561613984346" lon="11.060487566288321"><ele>30.0</ele><time>2026-03-22T12:14:51.984Z</time></trkpt><trkpt lat="53.777648728106854" lon="11.060310654961178"><ele>30.0</ele><time>2026-03-22T12:14:52.984Z</time></trkpt><trkpt lat="53.77772687438331" lon="11.060116691106176"><ele>30.0</ele><time>2026-03-22T12:14:53.984Z</time></trkpt><trkpt lat="53.77780035126765" lon="11.05991673610711"><ele>30.25</ele><time>2026-03-22T12:14:54.984Z</time></trkpt><trkpt lat="53.77787339965794" lon="11.059708809194818"><ele>30.5</ele><time>2026-03-22T12:14:55.984Z</time></trkpt><trkpt lat="53.777933577200585" lon="11.05950190205551"><ele>30.75</ele><time>2026-03-22T12:14:56.984Z</time></trkpt><trkpt lat="53.77800744574969" lon="11.059293160475038"><ele>31.0</ele><time>2026-03-22T12:14:57.984Z</time></trkpt><trkpt lat="53.77809412361339" lon="11.059096543332792"><ele>31.5</ele><time>2026-03-22T12:14:58.984Z</time></trkpt><trkpt lat="53.77816022476609" lon="11.058894067610762"><ele>32.0</ele><time>2026-03-22T12:14:59.984Z</time></trkpt><trkpt lat="53.77822480197635" lon="11.058685759352189"><ele>32.5</ele><time>2026-03-22T12:15:00.984Z</time></trkpt><trkpt lat="53.77828644516901" lon="11.058488945808092"><ele>33.0</ele><time>2026-03-22T12:15:01.984Z</time></trkpt><trkpt lat="53.77833429338105" lon="11.058270271665068"><ele>33.0</ele><time>2026-03-22T12:15:02.984Z</time></trkpt><trkpt lat="53.778325989864676" lon="11.058033202644456"><ele>33.0</ele><time>2026-03-22T12:15:03.984Z</time></trkpt><trkpt lat="53.77833093362791" lon="11.05780945273199"><ele>33.0</ele><time>2026-03-22T12:15:04.984Z</time></trkpt><trkpt lat="53.7783035451005" lon="11.057594745047282"><ele>33.0</ele><time>2026-03-22T12:15:05.984Z</time></trkpt><trkpt lat="53.77822409066869" lon="11.057414302561728"><ele>32.6</ele><time>2026-03-22T12:15:06.984Z</time></trkpt><trkpt lat="53.778184677216835" lon="11.057236059545986"><ele>32.199999999999996</ele><time>2026-03-22T12:15:07.984Z</time></trkpt><trkpt lat="53.77815079810098" lon="11.05708002780327"><ele>31.8</ele><time>2026-03-22T12:15:08.984Z</time></trkpt><trkpt lat="53.77811604353565" lon="11.056929224922426"><ele>31.4</ele><time>2026-03-22T12:15:09.984Z</time></trkpt><trkpt lat="53.77809307182455" lon="11.056811962238234"><ele>31.0</ele><time>2026-03-22T12:15:10.984Z</time></trkpt><trkpt lat="53.77809889622651" lon="11.056623303336004"><ele>31.0</ele><time>2026-03-22T12:15:12.984Z</time></trkpt><trkpt lat="53.778173739007805" lon="11.056560191126119"><ele>31.0</ele><time>2026-03-22T12:15:13.984Z</time></trkpt><trkpt lat="53.77828254343382" lon="11.05653114518155"><ele>31.0</ele><time>2026-03-22T12:15:14.984Z</time></trkpt><trkpt lat="53.77836700321987" lon="11.056433089563498"><ele>31.0</ele><time>2026-03-22T12:15:15.984Z</time></trkpt><trkpt lat="53.77845714100414" lon="11.056325096807127"><ele>31.0</ele><time>2026-03-22T12:15:16.984Z</time></trkpt><trkpt lat="53.778551816577945" lon="11.05625826531712"><ele>31.0</ele><time>2026-03-22T12:15:17.984Z</time></trkpt><trkpt lat="53.7786421811461" lon="11.056181707751083"><ele>31.0</ele><time>2026-03-22T12:15:18.984Z</time></trkpt><trkpt lat="53.77873827488123" lon="11.05612585940208"><ele>31.0</ele><time>2026-03-22T12:15:19.984Z</time></trkpt><trkpt lat="53.77881769032166" lon="11.056059186111378"><ele>31.0</ele><time>2026-03-22T12:15:20.984Z</time></trkpt><trkpt lat="53.77890098721562" lon="11.055974801235212"><ele>31.0</ele><time>2026-03-22T12:15:21.984Z</time></trkpt><trkpt lat="53.77899421909664" lon="11.055911914891885"><ele>31.000000000000004</ele><time>2026-03-22T12:15:22.984Z</time></trkpt><trkpt lat="53.77908647187609" lon="11.055849223589483"><ele>31.0</ele><time>2026-03-22T12:15:23.984Z</time></trkpt><trkpt lat="53.77916819305857" lon="11.05578348879922"><ele>31.0</ele><time>2026-03-22T12:15:24.984Z</time></trkpt><trkpt lat="53.77925544491912" lon="11.05572608666383"><ele>31.0</ele><time>2026-03-22T12:15:25.984Z</time></trkpt><trkpt lat="53.779343313009" lon="11.055703805824736"><ele>31.000000000000004</ele><time>2026-03-22T12:15:26.984Z</time></trkpt><trkpt lat="53.77940841123386" lon="11.055697227010828"><ele>31.0</ele><time>2026-03-22T12:15:27.984Z</time></trkpt><trkpt lat="53.77950687178422" lon="11.055685623233476"><ele>30.0</ele><time>2026-03-22T12:15:28.985Z</time></trkpt><trkpt lat="53.77959164163008" lon="11.0556756329218"><ele>29.0</ele><time>2026-03-22T12:15:29.985Z</time></trkpt><trkpt lat="53.77964402731813" lon="11.055611117184839"><ele>28.0</ele><time>2026-03-22T12:15:30.985Z</time></trkpt><trkpt lat="53.779870847845665" lon="11.05565504374937"><ele>27.0</ele><time>2026-03-22T12:15:47.995Z</time></trkpt><trkpt lat="53.7799337635859" lon="11.055665736740956"><ele>26.0</ele><time>2026-03-22T12:15:48.996Z</time></trkpt><trkpt lat="53.77999709085248" lon="11.055653530744516"><ele>26.0</ele><time>2026-03-22T12:15:49.996Z</time></trkpt><trkpt lat="53.78010102706865" lon="11.055592709686296"><ele>26.0</ele><time>2026-03-22T12:15:51.997Z</time></trkpt><trkpt lat="53.780175903563105" lon="11.05553979193554"><ele>26.0</ele><time>2026-03-22T12:15:53.997Z</time></trkpt><trkpt lat="53.78026423592079" lon="11.055504585826053"><ele>26.0</ele><time>2026-03-22T12:15:55.997Z</time></trkpt><trkpt lat="53.780347980906235" lon="11.055495473192531"><ele>26.0</ele><time>2026-03-22T12:15:57.998Z</time></trkpt><trkpt lat="53.78044274182838" lon="11.055465816909555"><ele>25.5</ele><time>2026-03-22T12:15:59.998Z</time></trkpt><trkpt lat="53.78055566834162" lon="11.055439319653694"><ele>25.0</ele><time>2026-03-22T12:16:18Z</time></trkpt><trkpt lat="53.780623819261734" lon="11.055407657898488"><ele>24.5</ele><time>2026-03-22T12:16:20Z</time></trkpt><trkpt lat="53.78068368512837" lon="11.05534938267108"><ele>24.0</ele><time>2026-03-22T12:16:43Z</time></trkpt><trkpt lat="53.78105152739897" lon="11.05506813520606"><ele>23.0</ele><time>2026-03-22T12:16:57.001Z</time></trkpt><trkpt lat="53.78044010688421" lon="11.054668231610918"><ele>23.0</ele><time>2026-03-22T12:16:58.001Z</time></trkpt><trkpt lat="53.78035620222742" lon="11.054781921762372"><ele>23.0</ele><time>2026-03-22T12:16:59.001Z</time></trkpt><trkpt lat="53.780287015924735" lon="11.054839643170384"><ele>23.0</ele><time>2026-03-22T12:17:01.001Z</time></trkpt><trkpt lat="53.7802094751583" lon="11.05490773602469"><ele>23.0</ele><time>2026-03-22T12:17:03.001Z</time></trkpt><trkpt lat="53.78013433319512" lon="11.054976667158893"><ele>23.0</ele><time>2026-03-22T12:17:05.001Z</time></trkpt><trkpt lat="53.78007831881435" lon="11.055029107837115"><ele>23.0</ele><time>2026-03-22T12:17:08.001Z</time></trkpt><trkpt lat="53.78001990892621" lon="11.055077544680923"><ele>23.599999999999998</ele><time>2026-03-22T12:17:11.001Z</time></trkpt><trkpt lat="53.77995187882137" lon="11.055085294568036"><ele>24.2</ele><time>2026-03-22T12:17:14.001Z</time></trkpt><trkpt lat="53.77989341633884" lon="11.055129799057998"><ele>24.8</ele><time>2026-03-22T12:17:17.001Z</time></trkpt><trkpt lat="53.779819258301984" lon="11.055186251681038"><ele>25.4</ele><time>2026-03-22T12:17:20.001Z</time></trkpt><trkpt lat="53.77975148255647" lon="11.055237845572329"><ele>26.0</ele><time>2026-03-22T12:17:22.001Z</time></trkpt><trkpt lat="53.77974312856363" lon="11.05562987487263"><ele>26.0</ele><time>2026-03-22T12:17:24.001Z</time></trkpt><trkpt lat="53.779655822361626" lon="11.05565455469054"><ele>26.0</ele><time>2026-03-22T12:17:26.001Z</time></trkpt><trkpt lat="53.77961222198117" lon="11.055421558242822"><ele>26.0</ele><time>2026-03-22T12:17:28.001Z</time></trkpt><trkpt lat="53.779619667300494" lon="11.055667684923565"><ele>26.0</ele><time>2026-03-22T12:17:37.001Z</time></trkpt><trkpt lat="53.77955760069352" lon="11.055580609517534"><ele>26.0</ele><time>2026-03-22T12:18:07.001Z</time></trkpt><trkpt lat="53.779484189048624" lon="11.055592403508896"><ele>26.0</ele><time>2026-03-22T12:18:11.001Z</time></trkpt><trkpt lat="53.77939293880528" lon="11.055599351152196"><ele>26.0</ele><time>2026-03-22T12:18:14.001Z</time></trkpt><trkpt lat="53.77932156117367" lon="11.055620726415286"><ele>26.0</ele><time>2026-03-22T12:18:16.001Z</time></trkpt><trkpt lat="53.77925700589782" lon="11.055643875508961"><ele>26.0</ele><time>2026-03-22T12:18:18.001Z</time></trkpt><trkpt lat="53.77919052239524" lon="11.055677574708017"><ele>26.0</ele><time>2026-03-22T12:18:20.001Z</time></trkpt><trkpt lat="53.77912657789997" lon="11.055705087901412"><ele>26.0</ele><time>2026-03-22T12:18:22.001Z</time></trkpt><trkpt lat="53.77904838229133" lon="11.055766155575888"><ele>26.833333333333332</ele><time>2026-03-22T12:18:24.001Z</time></trkpt><trkpt lat="53.77898602113786" lon="11.055830879037194"><ele>27.666666666666664</ele><time>2026-03-22T12:18:26.001Z</time></trkpt><trkpt lat="53.77894127994856" lon="11.055920370139397"><ele>28.5</ele><time>2026-03-22T12:18:28.001Z</time></trkpt><trkpt lat="53.77886809369602" lon="11.055954189116106"><ele>29.333333333333336</ele><time>2026-03-22T12:18:31.001Z</time></trkpt><trkpt lat="53.77880814495251" lon="11.05600451915467"><ele>30.166666666666668</ele><time>2026-03-22T12:18:38.001Z</time></trkpt><trkpt lat="53.778688383052184" lon="11.056176248547489"><ele>31.0</ele><time>2026-03-22T12:19:36.002Z</time></trkpt><trkpt lat="53.77873852473904" lon="11.056248917729079"><ele>31.0</ele><time>2026-03-22T12:20:27.003Z</time></trkpt><trkpt lat="53.77879846019325" lon="11.056309390743873"><ele>31.000000000000004</ele><time>2026-03-22T12:20:33.003Z</time></trkpt><trkpt lat="53.77880075785507" lon="11.056201048553"><ele>31.0</ele><time>2026-03-22T12:21:13.003Z</time></trkpt><trkpt lat="53.77880271526696" lon="11.056085485639692"><ele>31.0</ele><time>2026-03-22T12:21:27.003Z</time></trkpt><trkpt lat="53.778702081314265" lon="11.056073512915317"><ele>31.000000000000004</ele><time>2026-03-22T12:22:31.003Z</time></trkpt><trkpt lat="53.77874079381163" lon="11.055975191801712"><ele>31.0</ele><time>2026-03-22T12:23:06.001Z</time></trkpt><trkpt lat="53.77878829289633" lon="11.055898237843547"><ele>31.0</ele><time>2026-03-22T12:23:15.001Z</time></trkpt><trkpt lat="53.77872315212548" lon="11.055883077588579"><ele>31.0</ele><time>2026-03-22T12:23:34Z</time></trkpt><trkpt lat="53.77865553384053" lon="11.055933336660011"><ele>31.000000000000004</ele><time>2026-03-22T12:24:32Z</time></trkpt><trkpt lat="53.77859184855399" lon="11.056019394971488"><ele>31.0</ele><time>2026-03-22T12:24:34Z</time></trkpt><trkpt lat="53.77865855352246" lon="11.056032658602453"><ele>31.0</ele><time>2026-03-22T12:24:44Z</time></trkpt><trkpt lat="53.77873578194556" lon="11.05595238756992"><ele>31.000000000000004</ele><time>2026-03-22T12:25:39Z</time></trkpt><trkpt lat="53.77879796759066" lon="11.055928683228887"><ele>31.0</ele><time>2026-03-22T12:25:46Z</time></trkpt><trkpt lat="53.77881875887373" lon="11.05603562042256"><ele>31.0</ele><time>2026-03-22T12:26:18.999Z</time></trkpt><trkpt lat="53.77875918239004" lon="11.056070811011402"><ele>31.000000000000004</ele><time>2026-03-22T12:27:18.999Z</time></trkpt><trkpt lat="53.778691469801096" lon="11.056099216168464"><ele>31.0</ele><time>2026-03-22T12:27:27.999Z</time></trkpt><trkpt lat="53.77866046616045" lon="11.056005489842779"><ele>31.0</ele><time>2026-03-22T12:27:35.999Z</time></trkpt><trkpt lat="53.778762115647766" lon="11.05600067285229"><ele>31.0</ele><time>2026-03-22T12:28:57.999Z</time></trkpt><trkpt lat="53.77879424121169" lon="11.056095592565608"><ele>31.000000000000004</ele><time>2026-03-22T12:29:20.999Z</time></trkpt><trkpt lat="53.778837853548325" lon="11.056178048672217"><ele>31.0</ele><time>2026-03-22T12:30:10Z</time></trkpt><trkpt lat="53.77873920199578" lon="11.056019313884661"><ele>31.000000000000004</ele><time>2026-03-22T12:31:46.999Z</time></trkpt><trkpt lat="53.778803374324724" lon="11.055958298565383"><ele>31.0</ele><time>2026-03-22T12:31:49.999Z</time></trkpt><trkpt lat="53.7788744656754" lon="11.05592936361553"><ele>31.0</ele><time>2026-03-22T12:32:06.999Z</time></trkpt><trkpt lat="53.7789930721512" lon="11.055844282568223"><ele>31.0</ele><time>2026-03-22T12:32:13.999Z</time></trkpt><trkpt lat="53.77907138258176" lon="11.055760102622916"><ele>31.000000000000004</ele><time>2026-03-22T12:32:15.999Z</time></trkpt><trkpt lat="53.7791438101553" lon="11.055724055929568"><ele>31.0</ele><time>2026-03-22T12:32:16.999Z</time></trkpt><trkpt lat="53.779224537809796" lon="11.055688510934674"><ele>30.200000000000003</ele><time>2026-03-22T12:32:17.999Z</time></trkpt><trkpt lat="53.779306560050046" lon="11.05565733374615"><ele>29.400000000000002</ele><time>2026-03-22T12:32:18.999Z</time></trkpt><trkpt lat="53.77939863435325" lon="11.055630002823204"><ele>28.6</ele><time>2026-03-22T12:32:19.999Z</time></trkpt><trkpt lat="53.77950274534979" lon="11.05560267843966"><ele>27.8</ele><time>2026-03-22T12:32:20.999Z</time></trkpt><trkpt lat="53.779613217624544" lon="11.0555580728645"><ele>27.0</ele><time>2026-03-22T12:32:21.999Z</time></trkpt><trkpt lat="53.77971868760166" lon="11.05553030955625"><ele>26.8</ele><time>2026-03-22T12:32:22.999Z</time></trkpt><trkpt lat="53.779824902789045" lon="11.055500288474043"><ele>26.6</ele><time>2026-03-22T12:32:23.999Z</time></trkpt><trkpt lat="53.77992753187669" lon="11.05545465148697"><ele>26.400000000000002</ele><time>2026-03-22T12:32:24.999Z</time></trkpt><trkpt lat="53.78002034249215" lon="11.055411760425907"><ele>26.200000000000003</ele><time>2026-03-22T12:32:25.999Z</time></trkpt><trkpt lat="53.780096799012924" lon="11.055354177732355"><ele>26.0</ele><time>2026-03-22T12:32:26.999Z</time></trkpt><trkpt lat="53.78019238550209" lon="11.055547260245605"><ele>25.6</ele><time>2026-03-22T12:32:27.999Z</time></trkpt><trkpt lat="53.78028460812592" lon="11.055518016499354"><ele>25.200000000000003</ele><time>2026-03-22T12:32:28.999Z</time></trkpt><trkpt lat="53.780370489835434" lon="11.055487466208861"><ele>24.799999999999997</ele><time>2026-03-22T12:32:29.999Z</time></trkpt><trkpt lat="53.780463969670585" lon="11.055454213893604"><ele>24.4</ele><time>2026-03-22T12:32:30.999Z</time></trkpt><trkpt lat="53.78056875197391" lon="11.05540455654451"><ele>24.0</ele><time>2026-03-22T12:32:31.999Z</time></trkpt><trkpt lat="53.78068927531376" lon="11.055346667821622"><ele>24.0</ele><time>2026-03-22T12:32:32.999Z</time></trkpt><trkpt lat="53.78083150759691" lon="11.055327376123355"><ele>24.0</ele><time>2026-03-22T12:32:33.999Z</time></trkpt><trkpt lat="53.78098644338568" lon="11.055358864597663"><ele>24.0</ele><time>2026-03-22T12:32:34.999Z</time></trkpt><trkpt lat="53.78112368099531" lon="11.05537868561801"><ele>24.0</ele><time>2026-03-22T12:32:35.999Z</time></trkpt><trkpt lat="53.78126566127939" lon="11.055384743006138"><ele>24.0</ele><time>2026-03-22T12:32:36.999Z</time></trkpt><trkpt lat="53.78140598230003" lon="11.055369483525613"><ele>24.0</ele><time>2026-03-22T12:32:37.999Z</time></trkpt><trkpt lat="53.78153923911693" lon="11.055273184880274"><ele>24.0</ele><time>2026-03-22T12:32:38.999Z</time></trkpt><trkpt lat="53.78164420219532" lon="11.055278495769617"><ele>24.0</ele><time>2026-03-22T12:32:39.999Z</time></trkpt><trkpt lat="53.78174964279359" lon="11.055263949646099"><ele>24.0</ele><time>2026-03-22T12:32:40.999Z</time></trkpt><trkpt lat="53.78184621347325" lon="11.055230807604648"><ele>24.0</ele><time>2026-03-22T12:32:41.999Z</time></trkpt><trkpt lat="53.78192854554839" lon="11.055216553260266"><ele>24.0</ele><time>2026-03-22T12:32:42.999Z</time></trkpt><trkpt lat="53.78200918218744" lon="11.055212479290303"><ele>24.0</ele><time>2026-03-22T12:32:43.999Z</time></trkpt><trkpt lat="53.78208507390088" lon="11.055191381402313"><ele>24.0</ele><time>2026-03-22T12:32:44.999Z</time></trkpt><trkpt lat="53.78217119396984" lon="11.055197256022291"><ele>24.0</ele><time>2026-03-22T12:32:45.999Z</time></trkpt><trkpt lat="53.78226736102767" lon="11.055170184546066"><ele>24.0</ele><time>2026-03-22T12:32:46.999Z</time></trkpt><trkpt lat="53.78237865003195" lon="11.055135270375477"><ele>24.0</ele><time>2026-03-22T12:32:47.999Z</time></trkpt><trkpt lat="53.78249391444686" lon="11.055096477128625"><ele>24.0</ele><time>2026-03-22T12:32:48.999Z</time></trkpt><trkpt lat="53.7826214219912" lon="11.055051318207163"><ele>24.0</ele><time>2026-03-22T12:32:49.999Z</time></trkpt><trkpt lat="53.78274833634125" lon="11.055004274206365"><ele>23.75</ele><time>2026-03-22T12:32:50.999Z</time></trkpt><trkpt lat="53.782866657164114" lon="11.05495789907099"><ele>23.5</ele><time>2026-03-22T12:32:51.999Z</time></trkpt><trkpt lat="53.78300080252652" lon="11.054904830014193"><ele>23.25</ele><time>2026-03-22T12:32:52.999Z</time></trkpt><trkpt lat="53.78313053958831" lon="11.05485271654817"><ele>23.0</ele><time>2026-03-22T12:32:53.999Z</time></trkpt><trkpt lat="53.783263840657966" lon="11.054799359213058"><ele>23.0</ele><time>2026-03-22T12:32:54.999Z</time></trkpt><trkpt lat="53.78340367564581" lon="11.054718169955425"><ele>23.0</ele><time>2026-03-22T12:32:55.999Z</time></trkpt><trkpt lat="53.78352597998528" lon="11.054668318507014"><ele>23.0</ele><time>2026-03-22T12:32:56.999Z</time></trkpt><trkpt lat="53.783634127836166" lon="11.054623459770225"><ele>23.0</ele><time>2026-03-22T12:32:57.999Z</time></trkpt><trkpt lat="53.78373438061344" lon="11.054608762285008"><ele>23.0</ele><time>2026-03-22T12:32:58.999Z</time></trkpt><trkpt lat="53.78382803306671" lon="11.05455705128868"><ele>23.0</ele><time>2026-03-22T12:32:59.999Z</time></trkpt><trkpt lat="53.7839111814189" lon="11.054568520328836"><ele>23.0</ele><time>2026-03-22T12:33:00.999Z</time></trkpt><trkpt lat="53.78398760172092" lon="11.054728604896992"><ele>23.0</ele><time>2026-03-22T12:33:01.999Z</time></trkpt><trkpt lat="53.78402944875709" lon="11.054834436794192"><ele>23.0</ele><time>2026-03-22T12:33:02.999Z</time></trkpt><trkpt lat="53.784051236567336" lon="11.054951317315728"><ele>23.599999999999998</ele><time>2026-03-22T12:33:03.999Z</time></trkpt><trkpt lat="53.7840609015104" lon="11.055071830093496"><ele>24.2</ele><time>2026-03-22T12:33:04.999Z</time></trkpt><trkpt lat="53.78404630931552" lon="11.055227138251588"><ele>24.8</ele><time>2026-03-22T12:33:06.999Z</time></trkpt><trkpt lat="53.784121812761214" lon="11.05543881263288"><ele>25.4</ele><time>2026-03-22T12:33:08.999Z</time></trkpt><trkpt lat="53.78422604962779" lon="11.055403957344511"><ele>26.0</ele><time>2026-03-22T12:33:10.999Z</time></trkpt><trkpt lat="53.784328804991766" lon="11.055373429132338"><ele>25.666666666666664</ele><time>2026-03-22T12:33:12.999Z</time></trkpt><trkpt lat="53.78439499106503" lon="11.055423559725646"><ele>25.333333333333332</ele><time>2026-03-22T12:33:16.999Z</time></trkpt><trkpt lat="53.78439504197156" lon="11.055549181892733"><ele>25.0</ele><time>2026-03-22T12:33:18.999Z</time></trkpt><trkpt lat="53.78450479473252" lon="11.055558275388057"><ele>24.666666666666664</ele><time>2026-03-22T12:33:19.999Z</time></trkpt><trkpt lat="53.78451429442461" lon="11.055670520527736"><ele>24.333333333333332</ele><time>2026-03-22T12:33:34.999Z</time></trkpt><trkpt lat="53.78443545090735" lon="11.055686689954504"><ele>24.0</ele><time>2026-03-22T12:33:53.999Z</time></trkpt><trkpt lat="53.78436564405363" lon="11.055680116192288"><ele>24.0</ele><time>2026-03-22T12:34:32.998Z</time></trkpt><trkpt lat="53.784367095723944" lon="11.055566708966508"><ele>24.0</ele><time>2026-03-22T12:35:35.998Z</time></trkpt><trkpt lat="53.78436070442585" lon="11.055448291659891"><ele>24.0</ele><time>2026-03-22T12:35:37.998Z</time></trkpt><trkpt lat="53.78430116021819" lon="11.055391666333339"><ele>24.0</ele><time>2026-03-22T12:35:39.999Z</time></trkpt><trkpt lat="53.784213236368394" lon="11.055411593345022"><ele>24.0</ele><time>2026-03-22T12:35:41.999Z</time></trkpt><trkpt lat="53.78412373637935" lon="11.055408255002869"><ele>24.0</ele><time>2026-03-22T12:35:43.999Z</time></trkpt><trkpt lat="53.784052367539395" lon="11.05532049817614"><ele>23.799999999999997</ele><time>2026-03-22T12:35:45.999Z</time></trkpt><trkpt lat="53.78405692752814" lon="11.055140856041037"><ele>23.599999999999998</ele><time>2026-03-22T12:35:47.999Z</time></trkpt><trkpt lat="53.78405945893451" lon="11.054933131523965"><ele>23.4</ele><time>2026-03-22T12:35:49.999Z</time></trkpt><trkpt lat="53.78405068465736" lon="11.05481949529599"><ele>23.2</ele><time>2026-03-22T12:35:50.999Z</time></trkpt><trkpt lat="53.78404091295413" lon="11.054703542865779"><ele>23.0</ele><time>2026-03-22T12:35:51.999Z</time></trkpt><trkpt lat="53.784023628394884" lon="11.054519332113957"><ele>23.0</ele><time>2026-03-22T12:35:53.999Z</time></trkpt><trkpt lat="53.78408097274697" lon="11.054445544459288"><ele>23.0</ele><time>2026-03-22T12:35:54.999Z</time></trkpt><trkpt lat="53.784146577935836" lon="11.054406857914815"><ele>23.0</ele><time>2026-03-22T12:35:55.999Z</time></trkpt><trkpt lat="53.78422142918758" lon="11.05437907217471"><ele>23.0</ele><time>2026-03-22T12:35:56.999Z</time></trkpt><trkpt lat="53.784314982845956" lon="11.054366003094419"><ele>23.0</ele><time>2026-03-22T12:35:57.999Z</time></trkpt><trkpt lat="53.78442381210088" lon="11.054322367566586"><ele>23.0</ele><time>2026-03-22T12:35:58.999Z</time></trkpt><trkpt lat="53.78453764158391" lon="11.0542773404846"><ele>23.0</ele><time>2026-03-22T12:35:59.999Z</time></trkpt><trkpt lat="53.78465679681874" lon="11.05422612463965"><ele>23.0</ele><time>2026-03-22T12:36:00.999Z</time></trkpt><trkpt lat="53.78478697678424" lon="11.05417127894833"><ele>23.0</ele><time>2026-03-22T12:36:01.999Z</time></trkpt><trkpt lat="53.784927113376256" lon="11.054112777241095"><ele>23.0</ele><time>2026-03-22T12:36:02.999Z</time></trkpt><trkpt lat="53.78506584265673" lon="11.054054862939568"><ele>22.25</ele><time>2026-03-22T12:36:03.999Z</time></trkpt><trkpt lat="53.785206215449776" lon="11.05399592401992"><ele>21.5</ele><time>2026-03-22T12:36:04.999Z</time></trkpt><trkpt lat="53.785351091240685" lon="11.053934109484935"><ele>20.75</ele><time>2026-03-22T12:36:05.999Z</time></trkpt><trkpt lat="53.78549319898162" lon="11.05387347597522"><ele>20.0</ele><time>2026-03-22T12:36:06.999Z</time></trkpt><trkpt lat="53.7856304325336" lon="11.053816011961018"><ele>20.0</ele><time>2026-03-22T12:36:07.999Z</time></trkpt><trkpt lat="53.785768336547164" lon="11.05375903622613"><ele>20.0</ele><time>2026-03-22T12:36:08.999Z</time></trkpt><trkpt lat="53.78590732146023" lon="11.053701613888157"><ele>20.0</ele><time>2026-03-22T12:36:09.999Z</time></trkpt><trkpt lat="53.78605298214294" lon="11.053641435608174"><ele>20.0</ele><time>2026-03-22T12:36:10.999Z</time></trkpt><trkpt lat="53.786206582001405" lon="11.053583432476927"><ele>19.666666666666668</ele><time>2026-03-22T12:36:11.999Z</time></trkpt><trkpt lat="53.786368830481265" lon="11.053553616395924"><ele>19.333333333333332</ele><time>2026-03-22T12:36:12.999Z</time></trkpt><trkpt lat="53.78653848478192" lon="11.053558480436557"><ele>19.0</ele><time>2026-03-22T12:36:13.999Z</time></trkpt><trkpt lat="53.78671342169566" lon="11.053576745707902"><ele>19.0</ele><time>2026-03-22T12:36:14.999Z</time></trkpt><trkpt lat="53.786889303758855" lon="11.053596349653404"><ele>19.0</ele><time>2026-03-22T12:36:15.999Z</time></trkpt><trkpt lat="53.78707004306016" lon="11.05360760134051"><ele>19.0</ele><time>2026-03-22T12:36:16.999Z</time></trkpt><trkpt lat="53.787243914407036" lon="11.053588504372412"><ele>19.0</ele><time>2026-03-22T12:36:17.999Z</time></trkpt><trkpt lat="53.78741517738488" lon="11.05353944976868"><ele>19.0</ele><time>2026-03-22T12:36:18.999Z</time></trkpt><trkpt lat="53.787577001074304" lon="11.053454961541268"><ele>19.0</ele><time>2026-03-22T12:36:19.999Z</time></trkpt><trkpt lat="53.78773044743358" lon="11.05340548060959"><ele>18.75</ele><time>2026-03-22T12:36:20.999Z</time></trkpt><trkpt lat="53.7878657905722" lon="11.053353731540295"><ele>18.5</ele><time>2026-03-22T12:36:21.999Z</time></trkpt><trkpt lat="53.78800302988073" lon="11.053334656307559"><ele>18.25</ele><time>2026-03-22T12:36:22.999Z</time></trkpt><trkpt lat="53.78814237976043" lon="11.053381600313555"><ele>18.0</ele><time>2026-03-22T12:36:23.999Z</time></trkpt><trkpt lat="53.788261395829245" lon="11.053464777386358"><ele>18.0</ele><time>2026-03-22T12:36:24.999Z</time></trkpt><trkpt lat="53.78837584259686" lon="11.053596861174473"><ele>18.0</ele><time>2026-03-22T12:36:25.999Z</time></trkpt><trkpt lat="53.788479522330825" lon="11.053816549805743"><ele>18.0</ele><time>2026-03-22T12:36:26.999Z</time></trkpt><trkpt lat="53.78856578841571" lon="11.054081592461285"><ele>17.0</ele><time>2026-03-22T12:36:27.999Z</time></trkpt><trkpt lat="53.78865910920155" lon="11.054374800495799"><ele>16.0</ele><time>2026-03-22T12:36:28.999Z</time></trkpt><trkpt lat="53.78871478146509" lon="11.05466864488446"><ele>15.0</ele><time>2026-03-22T12:36:29.999Z</time></trkpt><trkpt lat="53.7887851690361" lon="11.05494639098183"><ele>15.6</ele><time>2026-03-22T12:36:30.999Z</time></trkpt><trkpt lat="53.78884308944448" lon="11.055180567564133"><ele>16.2</ele><time>2026-03-22T12:36:31.999Z</time></trkpt><trkpt lat="53.788883122485764" lon="11.055363385728473"><ele>16.8</ele><time>2026-03-22T12:36:32.999Z</time></trkpt><trkpt lat="53.788908136901235" lon="11.055514018917062"><ele>17.4</ele><time>2026-03-22T12:36:33.999Z</time></trkpt><trkpt lat="53.78891542030361" lon="11.05566641382285"><ele>18.0</ele><time>2026-03-22T12:36:35.999Z</time></trkpt><trkpt lat="53.789141122053714" lon="11.055482586422611"><ele>18.0</ele><time>2026-03-22T12:36:37.999Z</time></trkpt><trkpt lat="53.78924687070746" lon="11.055456889820588"><ele>18.0</ele><time>2026-03-22T12:36:38.999Z</time></trkpt><trkpt lat="53.78938284186968" lon="11.055371648452086"><ele>18.0</ele><time>2026-03-22T12:36:39.999Z</time></trkpt><trkpt lat="53.78952709534123" lon="11.055348488960215"><ele>18.0</ele><time>2026-03-22T12:36:40.999Z</time></trkpt><trkpt lat="53.78967477428401" lon="11.05532344731911"><ele>18.333333333333332</ele><time>2026-03-22T12:36:41.999Z</time></trkpt><trkpt lat="53.78984385233427" lon="11.055295049618454"><ele>18.666666666666664</ele><time>2026-03-22T12:36:42.999Z</time></trkpt><trkpt lat="53.790038501053125" lon="11.055285845402219"><ele>19.0</ele><time>2026-03-22T12:36:43.999Z</time></trkpt><trkpt lat="53.79023488530944" lon="11.055253540594036"><ele>19.666666666666664</ele><time>2026-03-22T12:36:44.999Z</time></trkpt><trkpt lat="53.79042558196786" lon="11.055211284616856"><ele>20.333333333333332</ele><time>2026-03-22T12:36:45.999Z</time></trkpt><trkpt lat="53.79061262984614" lon="11.055166907799652"><ele>21.0</ele><time>2026-03-22T12:36:47.001Z</time></trkpt><trkpt lat="53.79080274482358" lon="11.055117682815423"><ele>21.0</ele><time>2026-03-22T12:36:48.001Z</time></trkpt><trkpt lat="53.79098207791072" lon="11.055068690514052"><ele>21.0</ele><time>2026-03-22T12:36:49.001Z</time></trkpt><trkpt lat="53.79115344063491" lon="11.055019954152508"><ele>21.0</ele><time>2026-03-22T12:36:50.001Z</time></trkpt><trkpt lat="53.79131959767242" lon="11.054970082800024"><ele>20.666666666666668</ele><time>2026-03-22T12:36:51.001Z</time></trkpt><trkpt lat="53.79147611889988" lon="11.054926260095872"><ele>20.333333333333336</ele><time>2026-03-22T12:36:52.001Z</time></trkpt><trkpt lat="53.79163514000285" lon="11.05487776271628"><ele>20.0</ele><time>2026-03-22T12:36:53.001Z</time></trkpt><trkpt lat="53.79178015531108" lon="11.054805362525256"><ele>21.333333333333336</ele><time>2026-03-22T12:36:54.001Z</time></trkpt><trkpt lat="53.79192626693033" lon="11.054685679407063"><ele>22.666666666666668</ele><time>2026-03-22T12:36:55.001Z</time></trkpt><trkpt lat="53.79206032329478" lon="11.054524962586044"><ele>24.0</ele><time>2026-03-22T12:36:56.001Z</time></trkpt><trkpt lat="53.79222163809035" lon="11.05432185108523"><ele>24.0</ele><time>2026-03-22T12:36:57.001Z</time></trkpt><trkpt lat="53.79238439676901" lon="11.054144137998792"><ele>24.0</ele><time>2026-03-22T12:36:58.001Z</time></trkpt><trkpt lat="53.792536913455564" lon="11.053989194994408"><ele>24.0</ele><time>2026-03-22T12:36:59.001Z</time></trkpt><trkpt lat="53.79267914951858" lon="11.053852613386216"><ele>24.666666666666664</ele><time>2026-03-22T12:37:00.001Z</time></trkpt><trkpt lat="53.792823208344764" lon="11.053732179513823"><ele>25.333333333333332</ele><time>2026-03-22T12:37:01.001Z</time></trkpt><trkpt lat="53.79297324614717" lon="11.053645768145838"><ele>26.0</ele><time>2026-03-22T12:37:02.001Z</time></trkpt><trkpt lat="53.79312395047508" lon="11.053520400855989"><ele>26.0</ele><time>2026-03-22T12:37:03.001Z</time></trkpt><trkpt lat="53.793284079768824" lon="11.053421537439062"><ele>26.0</ele><time>2026-03-22T12:37:04.001Z</time></trkpt><trkpt lat="53.793441197374484" lon="11.053358909416879"><ele>26.0</ele><time>2026-03-22T12:37:05.001Z</time></trkpt><trkpt lat="53.793587087513096" lon="11.053258837946087"><ele>25.666666666666664</ele><time>2026-03-22T12:37:06.001Z</time></trkpt><trkpt lat="53.79372547074039" lon="11.053163128616967"><ele>25.333333333333336</ele><time>2026-03-22T12:37:07.001Z</time></trkpt><trkpt lat="53.79387995823511" lon="11.05306743349653"><ele>25.0</ele><time>2026-03-22T12:37:08.001Z</time></trkpt><trkpt lat="53.79404824371146" lon="11.052962621445415"><ele>25.0</ele><time>2026-03-22T12:37:09.001Z</time></trkpt><trkpt lat="53.79420475599" lon="11.052846710407435"><ele>25.0</ele><time>2026-03-22T12:37:10.001Z</time></trkpt><trkpt lat="53.79437224700091" lon="11.052703447395764"><ele>25.0</ele><time>2026-03-22T12:37:11.001Z</time></trkpt><trkpt lat="53.794535085909786" lon="11.052536843059839"><ele>24.666666666666668</ele><time>2026-03-22T12:37:12.001Z</time></trkpt><trkpt lat="53.79470427813377" lon="11.052370555275722"><ele>24.333333333333336</ele><time>2026-03-22T12:37:13.001Z</time></trkpt><trkpt lat="53.79486224055984" lon="11.052221338735674"><ele>24.0</ele><time>2026-03-22T12:37:14.001Z</time></trkpt><trkpt lat="53.79502583869199" lon="11.052085624288587"><ele>23.666666666666668</ele><time>2026-03-22T12:37:15.001Z</time></trkpt><trkpt lat="53.795176647394136" lon="11.051948139624171"><ele>23.333333333333336</ele><time>2026-03-22T12:37:16.001Z</time></trkpt><trkpt lat="53.795342956132224" lon="11.051868517960484"><ele>23.0</ele><time>2026-03-22T12:37:17.001Z</time></trkpt><trkpt lat="53.79552308918183" lon="11.051826550770679"><ele>23.0</ele><time>2026-03-22T12:37:18.001Z</time></trkpt><trkpt lat="53.79569065423069" lon="11.051831548834363"><ele>23.0</ele><time>2026-03-22T12:37:19.001Z</time></trkpt><trkpt lat="53.79587875756107" lon="11.051872974627468"><ele>23.0</ele><time>2026-03-22T12:37:20Z</time></trkpt><trkpt lat="53.79605455309077" lon="11.051907872027614"><ele>23.666666666666668</ele><time>2026-03-22T12:37:21Z</time></trkpt><trkpt lat="53.796232917468224" lon="11.051950840855804"><ele>24.333333333333336</ele><time>2026-03-22T12:37:22Z</time></trkpt><trkpt lat="53.796416518975676" lon="11.051995071354966"><ele>25.0</ele><time>2026-03-22T12:37:23Z</time></trkpt><trkpt lat="53.796606167508095" lon="11.05204991231867"><ele>25.0</ele><time>2026-03-22T12:37:24Z</time></trkpt><trkpt lat="53.796794467202645" lon="11.052140547284626"><ele>25.0</ele><time>2026-03-22T12:37:25Z</time></trkpt><trkpt lat="53.79699250318551" lon="11.052193216368154"><ele>25.0</ele><time>2026-03-22T12:37:26Z</time></trkpt><trkpt lat="53.79717611082792" lon="11.052330476943395"><ele>24.666666666666668</ele><time>2026-03-22T12:37:27Z</time></trkpt><trkpt lat="53.797351954258104" lon="11.052440875887815"><ele>24.333333333333336</ele><time>2026-03-22T12:37:28Z</time></trkpt><trkpt lat="53.797529293677556" lon="11.052546707711395"><ele>24.0</ele><time>2026-03-22T12:37:29Z</time></trkpt><trkpt lat="53.7977102566681" lon="11.052648594197242"><ele>24.0</ele><time>2026-03-22T12:37:30Z</time></trkpt><trkpt lat="53.79789083349198" lon="11.05275250964693"><ele>24.0</ele><time>2026-03-22T12:37:31Z</time></trkpt><trkpt lat="53.79807097228623" lon="11.052853842693677"><ele>24.0</ele><time>2026-03-22T12:37:32Z</time></trkpt><trkpt lat="53.79824279796015" lon="11.052951540881315"><ele>24.0</ele><time>2026-03-22T12:37:33Z</time></trkpt><trkpt lat="53.79841977319979" lon="11.053055830668612"><ele>24.0</ele><time>2026-03-22T12:37:34Z</time></trkpt><trkpt lat="53.798606508236105" lon="11.053171810762786"><ele>24.0</ele><time>2026-03-22T12:37:35Z</time></trkpt><trkpt lat="53.79879089262192" lon="11.053275872719052"><ele>24.333333333333336</ele><time>2026-03-22T12:37:36Z</time></trkpt><trkpt lat="53.798982262027984" lon="11.053383877163649"><ele>24.666666666666668</ele><time>2026-03-22T12:37:37Z</time></trkpt><trkpt lat="53.79916675894665" lon="11.053491525241753"><ele>25.0</ele><time>2026-03-22T12:37:38Z</time></trkpt><trkpt lat="53.79934154741448" lon="11.053593664518802"><ele>25.0</ele><time>2026-03-22T12:37:39Z</time></trkpt><trkpt lat="53.79951361814007" lon="11.053690662021069"><ele>25.0</ele><time>2026-03-22T12:37:40Z</time></trkpt><trkpt lat="53.79969160569399" lon="11.053761668657849"><ele>25.0</ele><time>2026-03-22T12:37:41Z</time></trkpt><trkpt lat="53.79985665953112" lon="11.053883677249415"><ele>25.0</ele><time>2026-03-22T12:37:42Z</time></trkpt><trkpt lat="53.800040148308504" lon="11.053986904155781"><ele>25.0</ele><time>2026-03-22T12:37:43Z</time></trkpt><trkpt lat="53.8002343604292" lon="11.054095814362107"><ele>25.0</ele><time>2026-03-22T12:37:44Z</time></trkpt><trkpt lat="53.80042667532342" lon="11.054201703511607"><ele>23.666666666666668</ele><time>2026-03-22T12:37:45Z</time></trkpt><trkpt lat="53.80061887157866" lon="11.054321461044117"><ele>22.333333333333336</ele><time>2026-03-22T12:37:46Z</time></trkpt><trkpt lat="53.80080348848071" lon="11.054436903390094"><ele>21.0</ele><time>2026-03-22T12:37:47Z</time></trkpt><trkpt lat="53.80099434146141" lon="11.054519394099742"><ele>21.0</ele><time>2026-03-22T12:37:48Z</time></trkpt><trkpt lat="53.801178452351415" lon="11.054641488136053"><ele>21.0</ele><time>2026-03-22T12:37:49Z</time></trkpt><trkpt lat="53.80134558899052" lon="11.054739162395672"><ele>21.0</ele><time>2026-03-22T12:37:50Z</time></trkpt><trkpt lat="53.801500533042905" lon="11.054830246287258"><ele>21.0</ele><time>2026-03-22T12:37:51Z</time></trkpt><trkpt lat="53.801661463139695" lon="11.054914398153256"><ele>21.0</ele><time>2026-03-22T12:37:52Z</time></trkpt><trkpt lat="53.8018260800082" lon="11.05502183130404"><ele>21.0</ele><time>2026-03-22T12:37:53Z</time></trkpt><trkpt lat="53.80198700141467" lon="11.055112947553994"><ele>21.666666666666668</ele><time>2026-03-22T12:37:54Z</time></trkpt><trkpt lat="53.80215834153309" lon="11.055210935554665"><ele>22.333333333333336</ele><time>2026-03-22T12:37:55Z</time></trkpt><trkpt lat="53.80231503947469" lon="11.055310548766363"><ele>23.0</ele><time>2026-03-22T12:37:56Z</time></trkpt><trkpt lat="53.80246985475905" lon="11.055401615874068"><ele>23.0</ele><time>2026-03-22T12:37:57Z</time></trkpt><trkpt lat="53.80262973065575" lon="11.055510159193506"><ele>23.0</ele><time>2026-03-22T12:37:58Z</time></trkpt><trkpt lat="53.8027876765104" lon="11.055616624893664"><ele>23.0</ele><time>2026-03-22T12:37:59Z</time></trkpt><trkpt lat="53.80294768335897" lon="11.055724990642855"><ele>23.666666666666668</ele><time>2026-03-22T12:38:00Z</time></trkpt><trkpt lat="53.80310597579869" lon="11.055793333575627"><ele>24.333333333333336</ele><time>2026-03-22T12:38:01Z</time></trkpt><trkpt lat="53.803258535366446" lon="11.05587912753789"><ele>25.0</ele><time>2026-03-22T12:38:02Z</time></trkpt><trkpt lat="53.80339128505998" lon="11.055953781114708"><ele>24.0</ele><time>2026-03-22T12:38:03Z</time></trkpt><trkpt lat="53.80355294690575" lon="11.056044693766292"><ele>23.0</ele><time>2026-03-22T12:38:04Z</time></trkpt><trkpt lat="53.80369663384074" lon="11.056149909604327"><ele>22.0</ele><time>2026-03-22T12:38:05Z</time></trkpt><trkpt lat="53.80384985790154" lon="11.056207377220582"><ele>22.0</ele><time>2026-03-22T12:38:06Z</time></trkpt><trkpt lat="53.803993121440556" lon="11.056288357023842"><ele>22.0</ele><time>2026-03-22T12:38:07Z</time></trkpt><trkpt lat="53.80413546317155" lon="11.056373784248725"><ele>22.0</ele><time>2026-03-22T12:38:08Z</time></trkpt><trkpt lat="53.80426159564978" lon="11.056442788723873"><ele>22.0</ele><time>2026-03-22T12:38:09Z</time></trkpt><trkpt lat="53.804375408759014" lon="11.056515083733267"><ele>22.400000000000002</ele><time>2026-03-22T12:38:10Z</time></trkpt><trkpt lat="53.80445753847208" lon="11.056565652202867"><ele>22.8</ele><time>2026-03-22T12:38:11Z</time></trkpt><trkpt lat="53.80452995837311" lon="11.056571760921566"><ele>23.2</ele><time>2026-03-22T12:38:12Z</time></trkpt><trkpt lat="53.80461408986571" lon="11.056412582765565"><ele>23.6</ele><time>2026-03-22T12:38:14Z</time></trkpt><trkpt lat="53.80462539076217" lon="11.056282137789015"><ele>24.0</ele><time>2026-03-22T12:38:15Z</time></trkpt><trkpt lat="53.80464197668859" lon="11.056123251194984"><ele>24.0</ele><time>2026-03-22T12:38:16Z</time></trkpt><trkpt lat="53.80466573673704" lon="11.05596768932265"><ele>24.0</ele><time>2026-03-22T12:38:17Z</time></trkpt><trkpt lat="53.804708706531784" lon="11.055821023679753"><ele>24.0</ele><time>2026-03-22T12:38:18Z</time></trkpt><trkpt lat="53.804787369114756" lon="11.055699938609058"><ele>24.0</ele><time>2026-03-22T12:38:19Z</time></trkpt><trkpt lat="53.804880982138165" lon="11.055595674456644"><ele>24.0</ele><time>2026-03-22T12:38:20Z</time></trkpt><trkpt lat="53.804971354809744" lon="11.055503534224151"><ele>23.75</ele><time>2026-03-22T12:38:21Z</time></trkpt><trkpt lat="53.80507689238546" lon="11.055440106923129"><ele>23.5</ele><time>2026-03-22T12:38:22Z</time></trkpt><trkpt lat="53.80518739875507" lon="11.055404056289774"><ele>23.25</ele><time>2026-03-22T12:38:23Z</time></trkpt><trkpt lat="53.80531411691101" lon="11.055381586438623"><ele>23.0</ele><time>2026-03-22T12:38:24Z</time></trkpt><trkpt lat="53.80544370690193" lon="11.05535380607066"><ele>23.0</ele><time>2026-03-22T12:38:25Z</time></trkpt><trkpt lat="53.80556239965873" lon="11.055328681908954"><ele>23.0</ele><time>2026-03-22T12:38:26Z</time></trkpt><trkpt lat="53.80569068891499" lon="11.055305957562533"><ele>23.0</ele><time>2026-03-22T12:38:27Z</time></trkpt><trkpt lat="53.80581701881997" lon="11.055281757582698"><ele>23.0</ele><time>2026-03-22T12:38:28Z</time></trkpt><trkpt lat="53.805939882167486" lon="11.055262440559915"><ele>23.0</ele><time>2026-03-22T12:38:29Z</time></trkpt><trkpt lat="53.806072688632874" lon="11.055236127782218"><ele>23.0</ele><time>2026-03-22T12:38:30Z</time></trkpt><trkpt lat="53.806199504982054" lon="11.055213104417511"><ele>23.0</ele><time>2026-03-22T12:38:31Z</time></trkpt><trkpt lat="53.80632928533185" lon="11.055190703281866"><ele>23.0</ele><time>2026-03-22T12:38:32Z</time></trkpt><trkpt lat="53.806466099730386" lon="11.055164791077042"><ele>23.0</ele><time>2026-03-22T12:38:33Z</time></trkpt><trkpt lat="53.806597774161254" lon="11.055137624008557"><ele>23.0</ele><time>2026-03-22T12:38:34Z</time></trkpt><trkpt lat="53.806730775847655" lon="11.055080009661001"><ele>23.0</ele><time>2026-03-22T12:38:35Z</time></trkpt><trkpt lat="53.80684948982993" lon="11.05499536607194"><ele>23.0</ele><time>2026-03-22T12:38:36Z</time></trkpt><trkpt lat="53.806962224045215" lon="11.054882540604344"><ele>23.0</ele><time>2026-03-22T12:38:37Z</time></trkpt><trkpt lat="53.80707708905742" lon="11.054768956228271"><ele>23.0</ele><time>2026-03-22T12:38:38Z</time></trkpt><trkpt lat="53.80718540647432" lon="11.054636575388642"><ele>23.0</ele><time>2026-03-22T12:38:39Z</time></trkpt><trkpt lat="53.807272892130534" lon="11.054483691244933"><ele>23.0</ele><time>2026-03-22T12:38:40Z</time></trkpt><trkpt lat="53.80735564084431" lon="11.05431761516953"><ele>23.0</ele><time>2026-03-22T12:38:41Z</time></trkpt><trkpt lat="53.807437834557845" lon="11.054167343781018"><ele>23.0</ele><time>2026-03-22T12:38:42Z</time></trkpt><trkpt lat="53.80752290589023" lon="11.053999401602507"><ele>23.0</ele><time>2026-03-22T12:38:43Z</time></trkpt><trkpt lat="53.807611721607906" lon="11.053821225859922"><ele>23.0</ele><time>2026-03-22T12:38:44Z</time></trkpt><trkpt lat="53.8077043986674" lon="11.053640020565503"><ele>22.75</ele><time>2026-03-22T12:38:45Z</time></trkpt><trkpt lat="53.80778407701784" lon="11.053445457769712"><ele>22.5</ele><time>2026-03-22T12:38:46Z</time></trkpt><trkpt lat="53.80785929397301" lon="11.053304071324725"><ele>22.25</ele><time>2026-03-22T12:38:47Z</time></trkpt><trkpt lat="53.80795359575748" lon="11.05318522891682"><ele>22.0</ele><time>2026-03-22T12:38:48Z</time></trkpt><trkpt lat="53.808057314382204" lon="11.053059774365893"><ele>22.0</ele><time>2026-03-22T12:38:49Z</time></trkpt><trkpt lat="53.80816953296796" lon="11.052966168404273"><ele>22.0</ele><time>2026-03-22T12:38:50Z</time></trkpt><trkpt lat="53.808279756275425" lon="11.052894639527326"><ele>22.0</ele><time>2026-03-22T12:38:51Z</time></trkpt><trkpt lat="53.808399335685614" lon="11.052815907969455"><ele>22.0</ele><time>2026-03-22T12:38:52Z</time></trkpt><trkpt lat="53.808515727558564" lon="11.052712199790207"><ele>21.25</ele><time>2026-03-22T12:38:53Z</time></trkpt><trkpt lat="53.80861220485868" lon="11.052576032215262"><ele>20.5</ele><time>2026-03-22T12:38:54Z</time></trkpt><trkpt lat="53.808700451439584" lon="11.05238382808475"><ele>19.75</ele><time>2026-03-22T12:38:55Z</time></trkpt><trkpt lat="53.808756198120456" lon="11.05217115401953"><ele>19.0</ele><time>2026-03-22T12:38:56Z</time></trkpt><trkpt lat="53.808805944490345" lon="11.051955677978947"><ele>18.333333333333332</ele><time>2026-03-22T12:38:57Z</time></trkpt><trkpt lat="53.8088471028722" lon="11.051714806163359"><ele>17.666666666666668</ele><time>2026-03-22T12:38:58Z</time></trkpt><trkpt lat="53.808896902068525" lon="11.051454856802312"><ele>17.0</ele><time>2026-03-22T12:38:59Z</time></trkpt><trkpt lat="53.8089329859339" lon="11.051194077080986"><ele>17.0</ele><time>2026-03-22T12:39:00Z</time></trkpt><trkpt lat="53.80899170730915" lon="11.050922044981178"><ele>17.0</ele><time>2026-03-22T12:39:01Z</time></trkpt><trkpt lat="53.80902969359139" lon="11.050637943165631"><ele>17.0</ele><time>2026-03-22T12:39:02Z</time></trkpt><trkpt lat="53.80907492008336" lon="11.050377192094425"><ele>18.666666666666668</ele><time>2026-03-22T12:39:03Z</time></trkpt><trkpt lat="53.80909253851674" lon="11.050101911530664"><ele>20.333333333333332</ele><time>2026-03-22T12:39:04Z</time></trkpt><trkpt lat="53.80908527397567" lon="11.049835476326678"><ele>22.0</ele><time>2026-03-22T12:39:05Z</time></trkpt><trkpt lat="53.80905137031438" lon="11.04960088872004"><ele>23.25</ele><time>2026-03-22T12:39:06Z</time></trkpt><trkpt lat="53.80901038136876" lon="11.049382277355956"><ele>24.5</ele><time>2026-03-22T12:39:07Z</time></trkpt><trkpt lat="53.80896815013542" lon="11.04914599548511"><ele>25.75</ele><time>2026-03-22T12:39:08Z</time></trkpt><trkpt lat="53.808930152536604" lon="11.048933401233697"><ele>27.0</ele><time>2026-03-22T12:39:09Z</time></trkpt><trkpt lat="53.80890073491393" lon="11.048743167783265"><ele>27.6</ele><time>2026-03-22T12:39:10Z</time></trkpt><trkpt lat="53.80885790193311" lon="11.048597612585214"><ele>28.200000000000003</ele><time>2026-03-22T12:39:11Z</time></trkpt><trkpt lat="53.80884644668187" lon="11.04843909587164"><ele>28.8</ele><time>2026-03-22T12:39:12Z</time></trkpt><trkpt lat="53.8088174517369" lon="11.048287272502408"><ele>29.4</ele><time>2026-03-22T12:39:13Z</time></trkpt><trkpt lat="53.808803442899105" lon="11.048145875102923"><ele>30.0</ele><time>2026-03-22T12:39:14Z</time></trkpt><trkpt lat="53.80880544665809" lon="11.048007424440346"><ele>30.5</ele><time>2026-03-22T12:39:15Z</time></trkpt><trkpt lat="53.808970885720925" lon="11.047820886940682"><ele>31.0</ele><time>2026-03-22T12:39:18Z</time></trkpt><trkpt lat="53.80903482348249" lon="11.047775409786793"><ele>31.5</ele><time>2026-03-22T12:39:19Z</time></trkpt><trkpt lat="53.80911009642273" lon="11.047719633720408"><ele>32.0</ele><time>2026-03-22T12:39:20Z</time></trkpt><trkpt lat="53.80920387361068" lon="11.047650813481802"><ele>32.75</ele><time>2026-03-22T12:39:21Z</time></trkpt><trkpt lat="53.80932842546887" lon="11.047552469640417"><ele>33.5</ele><time>2026-03-22T12:39:22Z</time></trkpt><trkpt lat="53.80943910551307" lon="11.047445572514112"><ele>34.25</ele><time>2026-03-22T12:39:23Z</time></trkpt><trkpt lat="53.80954899122795" lon="11.047358455258227"><ele>35.0</ele><time>2026-03-22T12:39:24Z</time></trkpt><trkpt lat="53.80967764256771" lon="11.04726227732693"><ele>35.0</ele><time>2026-03-22T12:39:25Z</time></trkpt><trkpt lat="53.809808730399126" lon="11.04718207665879"><ele>35.0</ele><time>2026-03-22T12:39:26Z</time></trkpt><trkpt lat="53.80993366840099" lon="11.04708821264185"><ele>35.0</ele><time>2026-03-22T12:39:27Z</time></trkpt><trkpt lat="53.81007159151026" lon="11.047009927168656"><ele>35.0</ele><time>2026-03-22T12:39:28Z</time></trkpt><trkpt lat="53.81020000324649" lon="11.046894869848531"><ele>35.0</ele><time>2026-03-22T12:39:29Z</time></trkpt><trkpt lat="53.81032445725959" lon="11.046747744500438"><ele>35.0</ele><time>2026-03-22T12:39:30Z</time></trkpt><trkpt lat="53.810483232816516" lon="11.046614267194265"><ele>35.0</ele><time>2026-03-22T12:39:31Z</time></trkpt><trkpt lat="53.810670995704776" lon="11.046487590358913"><ele>36.666666666666664</ele><time>2026-03-22T12:39:32Z</time></trkpt><trkpt lat="53.81084279446831" lon="11.046369059119806"><ele>38.333333333333336</ele><time>2026-03-22T12:39:33Z</time></trkpt><trkpt lat="53.81101998912677" lon="11.046267168984231"><ele>40.0</ele><time>2026-03-22T12:39:34Z</time></trkpt><trkpt lat="53.81119224543955" lon="11.046141863035723"><ele>36.66666666666667</ele><time>2026-03-22T12:39:35Z</time></trkpt><trkpt lat="53.8113783168482" lon="11.0460178501678"><ele>33.333333333333336</ele><time>2026-03-22T12:39:36Z</time></trkpt><trkpt lat="53.81155626252869" lon="11.045883133187104"><ele>30.0</ele><time>2026-03-22T12:39:37Z</time></trkpt><trkpt lat="53.811730761350425" lon="11.045804629798358"><ele>29.333333333333336</ele><time>2026-03-22T12:39:38Z</time></trkpt><trkpt lat="53.811892982733994" lon="11.045705773771962"><ele>28.666666666666668</ele><time>2026-03-22T12:39:39Z</time></trkpt><trkpt lat="53.81205563501202" lon="11.045573182035447"><ele>28.0</ele><time>2026-03-22T12:39:40Z</time></trkpt><trkpt lat="53.81221596267019" lon="11.045389957406147"><ele>28.0</ele><time>2026-03-22T12:39:41Z</time></trkpt><trkpt lat="53.81237236872611" lon="11.045205272780008"><ele>28.0</ele><time>2026-03-22T12:39:42Z</time></trkpt><trkpt lat="53.81251705474154" lon="11.045008637355066"><ele>28.0</ele><time>2026-03-22T12:39:43Z</time></trkpt><trkpt lat="53.812646248533866" lon="11.044806160545576"><ele>27.0</ele><time>2026-03-22T12:39:44Z</time></trkpt><trkpt lat="53.812780674738235" lon="11.044612360688621"><ele>26.0</ele><time>2026-03-22T12:39:45Z</time></trkpt><trkpt lat="53.81287549278952" lon="11.04437514475107"><ele>25.0</ele><time>2026-03-22T12:39:46Z</time></trkpt><trkpt lat="53.812955813564805" lon="11.044110512995914"><ele>25.0</ele><time>2026-03-22T12:39:47Z</time></trkpt><trkpt lat="53.81296789387649" lon="11.043836863999685"><ele>25.0</ele><time>2026-03-22T12:39:47.999Z</time></trkpt><trkpt lat="53.8129665532402" lon="11.043575061975243"><ele>25.0</ele><time>2026-03-22T12:39:48.999Z</time></trkpt><trkpt lat="53.81295955873964" lon="11.043314900864395"><ele>25.0</ele><time>2026-03-22T12:39:49.999Z</time></trkpt><trkpt lat="53.812949328864676" lon="11.043025014386272"><ele>25.0</ele><time>2026-03-22T12:39:50.999Z</time></trkpt><trkpt lat="53.8129375279609" lon="11.042700356678129"><ele>25.0</ele><time>2026-03-22T12:39:51.999Z</time></trkpt><trkpt lat="53.81292577252159" lon="11.042373396905884"><ele>25.0</ele><time>2026-03-22T12:39:52.999Z</time></trkpt><trkpt lat="53.81293893400916" lon="11.042083963897728"><ele>25.0</ele><time>2026-03-22T12:39:53.999Z</time></trkpt><trkpt lat="53.81294696252499" lon="11.041787918443132"><ele>25.0</ele><time>2026-03-22T12:39:54.999Z</time></trkpt><trkpt lat="53.81298791256049" lon="11.041517800748112"><ele>25.75</ele><time>2026-03-22T12:39:55.999Z</time></trkpt><trkpt lat="53.81303872626106" lon="11.041279445074245"><ele>26.5</ele><time>2026-03-22T12:39:56.999Z</time></trkpt><trkpt lat="53.81315938541919" lon="11.041157700066163"><ele>27.25</ele><time>2026-03-22T12:39:57.999Z</time></trkpt><trkpt lat="53.81330404184746" lon="11.041072818564736"><ele>28.0</ele><time>2026-03-22T12:39:58.999Z</time></trkpt><trkpt lat="53.81345970244445" lon="11.041024216399151"><ele>27.0</ele><time>2026-03-22T12:39:59.999Z</time></trkpt><trkpt lat="53.813624498285996" lon="11.040973261603439"><ele>26.0</ele><time>2026-03-22T12:40:00.999Z</time></trkpt><trkpt lat="53.813801633333455" lon="11.040923257662765"><ele>25.0</ele><time>2026-03-22T12:40:01.999Z</time></trkpt><trkpt lat="53.813978984986356" lon="11.040901628737428"><ele>25.0</ele><time>2026-03-22T12:40:02.999Z</time></trkpt><trkpt lat="53.81415590665881" lon="11.040856003605219"><ele>25.0</ele><time>2026-03-22T12:40:03.999Z</time></trkpt><trkpt lat="53.814341003255954" lon="11.040796554010605"><ele>25.0</ele><time>2026-03-22T12:40:04.999Z</time></trkpt><trkpt lat="53.81452283483989" lon="11.040701461579237"><ele>24.0</ele><time>2026-03-22T12:40:05.999Z</time></trkpt><trkpt lat="53.81471845700694" lon="11.040594764194623"><ele>23.0</ele><time>2026-03-22T12:40:06.999Z</time></trkpt><trkpt lat="53.814911919335074" lon="11.040486846251284"><ele>22.0</ele><time>2026-03-22T12:40:07.999Z</time></trkpt><trkpt lat="53.81510641112782" lon="11.040376772801176"><ele>22.0</ele><time>2026-03-22T12:40:08.999Z</time></trkpt><trkpt lat="53.8152869719799" lon="11.04025319912997"><ele>22.0</ele><time>2026-03-22T12:40:09.999Z</time></trkpt><trkpt lat="53.81547537302046" lon="11.040132307825326"><ele>22.0</ele><time>2026-03-22T12:40:10.999Z</time></trkpt><trkpt lat="53.81565892573469" lon="11.039977014977525"><ele>22.333333333333332</ele><time>2026-03-22T12:40:11.999Z</time></trkpt><trkpt lat="53.815824202062494" lon="11.039824384834292"><ele>22.666666666666668</ele><time>2026-03-22T12:40:12.999Z</time></trkpt><trkpt lat="53.81599847114994" lon="11.03968875420572"><ele>23.0</ele><time>2026-03-22T12:40:13.999Z</time></trkpt><trkpt lat="53.81615867120029" lon="11.039519526796077"><ele>23.333333333333336</ele><time>2026-03-22T12:40:14.999Z</time></trkpt><trkpt lat="53.81631244456019" lon="11.039304163484552"><ele>23.666666666666668</ele><time>2026-03-22T12:40:15.999Z</time></trkpt><trkpt lat="53.816452133083345" lon="11.03909228097511"><ele>24.0</ele><time>2026-03-22T12:40:16.999Z</time></trkpt><trkpt lat="53.81658335812993" lon="11.038849042355741"><ele>24.0</ele><time>2026-03-22T12:40:17.999Z</time></trkpt><trkpt lat="53.816699581063496" lon="11.038614076075591"><ele>24.0</ele><time>2026-03-22T12:40:18.999Z</time></trkpt><trkpt lat="53.816835798702" lon="11.038386597866333"><ele>24.0</ele><time>2026-03-22T12:40:19.999Z</time></trkpt><trkpt lat="53.81697177042439" lon="11.038143243696924"><ele>23.666666666666668</ele><time>2026-03-22T12:40:20.999Z</time></trkpt><trkpt lat="53.81710684563474" lon="11.037917270018852"><ele>23.333333333333336</ele><time>2026-03-22T12:40:21.999Z</time></trkpt><trkpt lat="53.81724690397816" lon="11.037675619410978"><ele>23.0</ele><time>2026-03-22T12:40:22.999Z</time></trkpt><trkpt lat="53.81739500994447" lon="11.03745797994553"><ele>23.666666666666668</ele><time>2026-03-22T12:40:23.999Z</time></trkpt><trkpt lat="53.81756375252724" lon="11.037301029574555"><ele>24.333333333333336</ele><time>2026-03-22T12:40:24.999Z</time></trkpt><trkpt lat="53.81773903815995" lon="11.037196812010977"><ele>25.0</ele><time>2026-03-22T12:40:25.999Z</time></trkpt><trkpt lat="53.81792245386656" lon="11.037111725987046"><ele>25.0</ele><time>2026-03-22T12:40:26.999Z</time></trkpt><trkpt lat="53.81810642286467" lon="11.037026855538963"><ele>25.0</ele><time>2026-03-22T12:40:27.999Z</time></trkpt><trkpt lat="53.81826749372853" lon="11.036938145591934"><ele>25.0</ele><time>2026-03-22T12:40:28.999Z</time></trkpt><trkpt lat="53.81841544077884" lon="11.036858210820212"><ele>24.0</ele><time>2026-03-22T12:40:29.999Z</time></trkpt><trkpt lat="53.818567880514394" lon="11.036810511171973"><ele>23.0</ele><time>2026-03-22T12:40:30.999Z</time></trkpt><trkpt lat="53.8187247396157" lon="11.036765306956012"><ele>22.0</ele><time>2026-03-22T12:40:31.999Z</time></trkpt><trkpt lat="53.818866447622334" lon="11.03673243929952"><ele>22.0</ele><time>2026-03-22T12:40:32.999Z</time></trkpt><trkpt lat="53.819008906281255" lon="11.036720033500593"><ele>22.0</ele><time>2026-03-22T12:40:33.999Z</time></trkpt><trkpt lat="53.81915697111065" lon="11.03668718555824"><ele>22.0</ele><time>2026-03-22T12:40:34.999Z</time></trkpt><trkpt lat="53.819312068119956" lon="11.036647414431885"><ele>22.0</ele><time>2026-03-22T12:40:35.999Z</time></trkpt><trkpt lat="53.81946727200325" lon="11.036579576296184"><ele>21.333333333333332</ele><time>2026-03-22T12:40:36.999Z</time></trkpt><trkpt lat="53.819650151454184" lon="11.036533745243606"><ele>20.666666666666668</ele><time>2026-03-22T12:40:37.999Z</time></trkpt><trkpt lat="53.81982411793011" lon="11.036461063387772"><ele>20.0</ele><time>2026-03-22T12:40:38.999Z</time></trkpt><trkpt lat="53.820010663235735" lon="11.036398974405472"><ele>18.666666666666668</ele><time>2026-03-22T12:40:39.999Z</time></trkpt><trkpt lat="53.82019526953119" lon="11.03636207250408"><ele>17.333333333333332</ele><time>2026-03-22T12:40:40.999Z</time></trkpt><trkpt lat="53.82038580245092" lon="11.036343495304369"><ele>16.0</ele><time>2026-03-22T12:40:41.999Z</time></trkpt><trkpt lat="53.82056604800637" lon="11.03633299400855"><ele>16.0</ele><time>2026-03-22T12:40:42.999Z</time></trkpt><trkpt lat="53.82073530574778" lon="11.036325206296445"><ele>16.0</ele><time>2026-03-22T12:40:43.999Z</time></trkpt><trkpt lat="53.82088514831487" lon="11.036320325094483"><ele>16.0</ele><time>2026-03-22T12:40:44.999Z</time></trkpt><trkpt lat="53.821036914864116" lon="11.036307132617686"><ele>16.25</ele><time>2026-03-22T12:40:45.999Z</time></trkpt><trkpt lat="53.821171097685294" lon="11.036262683713112"><ele>16.5</ele><time>2026-03-22T12:40:46.999Z</time></trkpt><trkpt lat="53.821293507671726" lon="11.036194792266414"><ele>16.75</ele><time>2026-03-22T12:40:47.999Z</time></trkpt><trkpt lat="53.82140463615622" lon="11.036104573600614"><ele>17.0</ele><time>2026-03-22T12:40:48.999Z</time></trkpt><trkpt lat="53.821523211477434" lon="11.036016183028517"><ele>17.0</ele><time>2026-03-22T12:40:49.999Z</time></trkpt><trkpt lat="53.82163758618581" lon="11.035916117108766"><ele>17.0</ele><time>2026-03-22T12:40:50.999Z</time></trkpt><trkpt lat="53.82173726968984" lon="11.035822542701467"><ele>17.0</ele><time>2026-03-22T12:40:51.999Z</time></trkpt><trkpt lat="53.82183059847662" lon="11.035696124286472"><ele>17.0</ele><time>2026-03-22T12:40:52.999Z</time></trkpt><trkpt lat="53.82192665163357" lon="11.035598644740947"><ele>17.4</ele><time>2026-03-22T12:40:53.999Z</time></trkpt><trkpt lat="53.8219955037852" lon="11.035456661242026"><ele>17.799999999999997</ele><time>2026-03-22T12:40:54.999Z</time></trkpt><trkpt lat="53.822007851527836" lon="11.035283547807436"><ele>18.2</ele><time>2026-03-22T12:40:55.999Z</time></trkpt><trkpt lat="53.82202462774691" lon="11.03510896845603"><ele>18.599999999999998</ele><time>2026-03-22T12:40:56.999Z</time></trkpt><trkpt lat="53.822034471325054" lon="11.034929358847865"><ele>19.0</ele><time>2026-03-22T12:40:57.999Z</time></trkpt><trkpt lat="53.822058474989525" lon="11.034748166743611"><ele>19.4</ele><time>2026-03-22T12:40:58.999Z</time></trkpt><trkpt lat="53.822059079212735" lon="11.03456421012012"><ele>19.799999999999997</ele><time>2026-03-22T12:40:59.999Z</time></trkpt><trkpt lat="53.82205283131851" lon="11.03438994781465"><ele>20.200000000000003</ele><time>2026-03-22T12:41:00.999Z</time></trkpt><trkpt lat="53.82205843396432" lon="11.034264232310354"><ele>20.6</ele><time>2026-03-22T12:41:01.999Z</time></trkpt><trkpt lat="53.82207744364876" lon="11.034118492431212"><ele>21.0</ele><time>2026-03-22T12:41:03.999Z</time></trkpt><trkpt lat="53.822127214433024" lon="11.033946747910024"><ele>21.0</ele><time>2026-03-22T12:41:47.999Z</time></trkpt><trkpt lat="53.822190663112735" lon="11.033934368342068"><ele>21.0</ele><time>2026-03-22T12:41:48.999Z</time></trkpt><trkpt lat="53.82226109109469" lon="11.033909977891849"><ele>21.0</ele><time>2026-03-22T12:41:49.999Z</time></trkpt><trkpt lat="53.82232722593955" lon="11.033895982388769"><ele>21.0</ele><time>2026-03-22T12:41:50.999Z</time></trkpt><trkpt lat="53.822401868889315" lon="11.033863512761194"><ele>21.0</ele><time>2026-03-22T12:41:51.999Z</time></trkpt><trkpt lat="53.82249217755457" lon="11.033847102719257"><ele>21.0</ele><time>2026-03-22T12:41:52.999Z</time></trkpt><trkpt lat="53.82259367344247" lon="11.03384374747809"><ele>21.6</ele><time>2026-03-22T12:41:53.999Z</time></trkpt><trkpt lat="53.822688633329534" lon="11.03379958751975"><ele>22.200000000000003</ele><time>2026-03-22T12:41:54.999Z</time></trkpt><trkpt lat="53.822797780328166" lon="11.033788743797707"><ele>22.799999999999997</ele><time>2026-03-22T12:41:55.999Z</time></trkpt><trkpt lat="53.82291513828155" lon="11.0337585337646"><ele>23.4</ele><time>2026-03-22T12:41:56.999Z</time></trkpt><trkpt lat="53.82302825419579" lon="11.033734671044165"><ele>24.0</ele><time>2026-03-22T12:41:57.999Z</time></trkpt><trkpt lat="53.82315567295513" lon="11.033696239843646"><ele>24.0</ele><time>2026-03-22T12:41:58.999Z</time></trkpt><trkpt lat="53.823289986894075" lon="11.033645930979562"><ele>24.0</ele><time>2026-03-22T12:41:59.999Z</time></trkpt><trkpt lat="53.82342660489946" lon="11.033549353502956"><ele>24.0</ele><time>2026-03-22T12:42:00.999Z</time></trkpt><trkpt lat="53.823545163556076" lon="11.033428828250006"><ele>24.0</ele><time>2026-03-22T12:42:01.999Z</time></trkpt><trkpt lat="53.82365956197514" lon="11.033302072760538"><ele>24.25</ele><time>2026-03-22T12:42:02.999Z</time></trkpt><trkpt lat="53.82376897741361" lon="11.033135244538888"><ele>24.5</ele><time>2026-03-22T12:42:03.999Z</time></trkpt><trkpt lat="53.82387091072381" lon="11.032982696215225"><ele>24.75</ele><time>2026-03-22T12:42:04.999Z</time></trkpt><trkpt lat="53.823969525008074" lon="11.03280233826999"><ele>25.0</ele><time>2026-03-22T12:42:05.999Z</time></trkpt><trkpt lat="53.82406697821005" lon="11.032665254598726"><ele>25.0</ele><time>2026-03-22T12:42:06.999Z</time></trkpt><trkpt lat="53.82417853462551" lon="11.032535563984757"><ele>25.0</ele><time>2026-03-22T12:42:07.999Z</time></trkpt><trkpt lat="53.82426695063205" lon="11.03242924506813"><ele>25.0</ele><time>2026-03-22T12:42:08.999Z</time></trkpt><trkpt lat="53.82434844700166" lon="11.032381758930207"><ele>25.0</ele><time>2026-03-22T12:42:09.999Z</time></trkpt><trkpt lat="53.824509155898504" lon="11.032457401604196"><ele>25.25</ele><time>2026-03-22T12:42:11.999Z</time></trkpt><trkpt lat="53.824611619508964" lon="11.032530707723167"><ele>25.5</ele><time>2026-03-22T12:42:12.999Z</time></trkpt><trkpt lat="53.824727262178406" lon="11.032600549952042"><ele>25.75</ele><time>2026-03-22T12:42:13.999Z</time></trkpt><trkpt lat="53.82484861609194" lon="11.032692183998233"><ele>26.0</ele><time>2026-03-22T12:42:14.999Z</time></trkpt><trkpt lat="53.82496884514695" lon="11.032803809398319"><ele>26.0</ele><time>2026-03-22T12:42:15.999Z</time></trkpt><trkpt lat="53.8251055086464" lon="11.032892152488126"><ele>26.0</ele><time>2026-03-22T12:42:16.999Z</time></trkpt><trkpt lat="53.825237760100514" lon="11.033004268202234"><ele>26.0</ele><time>2026-03-22T12:42:17.999Z</time></trkpt><trkpt lat="53.82536501462858" lon="11.033121987567453"><ele>26.0</ele><time>2026-03-22T12:42:18.999Z</time></trkpt><trkpt lat="53.82549794988194" lon="11.033253123836628"><ele>27.25</ele><time>2026-03-22T12:42:19.999Z</time></trkpt><trkpt lat="53.825635727417904" lon="11.033378225004807"><ele>28.5</ele><time>2026-03-22T12:42:20.999Z</time></trkpt><trkpt lat="53.82576027339658" lon="11.033490937769985"><ele>29.75</ele><time>2026-03-22T12:42:21.999Z</time></trkpt><trkpt lat="53.825887419398974" lon="11.033594055109955"><ele>31.0</ele><time>2026-03-22T12:42:22.999Z</time></trkpt><trkpt lat="53.826007136758065" lon="11.033692945121185"><ele>31.0</ele><time>2026-03-22T12:42:23.999Z</time></trkpt><trkpt lat="53.82611853651404" lon="11.033781047426572"><ele>31.0</ele><time>2026-03-22T12:42:24.999Z</time></trkpt><trkpt lat="53.82624530091294" lon="11.033884411004765"><ele>31.0</ele><time>2026-03-22T12:42:25.998Z</time></trkpt><trkpt lat="53.82639060629935" lon="11.033958970861079"><ele>31.0</ele><time>2026-03-22T12:42:26.998Z</time></trkpt><trkpt lat="53.82653789044824" lon="11.034027536334495"><ele>31.0</ele><time>2026-03-22T12:42:27.998Z</time></trkpt><trkpt lat="53.82668403531868" lon="11.034096792599469"><ele>31.0</ele><time>2026-03-22T12:42:28.998Z</time></trkpt><trkpt lat="53.826831070661285" lon="11.034163854642776"><ele>31.0</ele><time>2026-03-22T12:42:29.998Z</time></trkpt><trkpt lat="53.826976482972356" lon="11.034265887246578"><ele>31.0</ele><time>2026-03-22T12:42:30.998Z</time></trkpt><trkpt lat="53.82712331533754" lon="11.034348307116185"><ele>31.0</ele><time>2026-03-22T12:42:31.998Z</time></trkpt><trkpt lat="53.82727102586201" lon="11.034418442204336"><ele>31.0</ele><time>2026-03-22T12:42:32.998Z</time></trkpt><trkpt lat="53.827412135684185" lon="11.03451105884905"><ele>31.0</ele><time>2026-03-22T12:42:33.998Z</time></trkpt><trkpt lat="53.82755077948392" lon="11.034588709197214"><ele>31.0</ele><time>2026-03-22T12:42:34.998Z</time></trkpt><trkpt lat="53.82770213473345" lon="11.034671582865236"><ele>31.0</ele><time>2026-03-22T12:42:35.998Z</time></trkpt><trkpt lat="53.82784894676461" lon="11.034722949576402"><ele>30.666666666666668</ele><time>2026-03-22T12:42:36.998Z</time></trkpt><trkpt lat="53.82799191263098" lon="11.03480465417549"><ele>30.333333333333336</ele><time>2026-03-22T12:42:37.998Z</time></trkpt><trkpt lat="53.828130923373685" lon="11.034888220476123"><ele>30.0</ele><time>2026-03-22T12:42:38.998Z</time></trkpt><trkpt lat="53.82828441924523" lon="11.034982208420626"><ele>29.666666666666664</ele><time>2026-03-22T12:42:39.998Z</time></trkpt><trkpt lat="53.82843985532912" lon="11.035063031828875"><ele>29.333333333333332</ele><time>2026-03-22T12:42:40.998Z</time></trkpt><trkpt lat="53.828596479571026" lon="11.035149945591575"><ele>29.0</ele><time>2026-03-22T12:42:41.998Z</time></trkpt><trkpt lat="53.828743494033645" lon="11.035264279759993"><ele>29.0</ele><time>2026-03-22T12:42:42.998Z</time></trkpt><trkpt lat="53.82888769971946" lon="11.035389887038036"><ele>29.0</ele><time>2026-03-22T12:42:43.998Z</time></trkpt><trkpt lat="53.82901812961997" lon="11.035525606846537"><ele>29.0</ele><time>2026-03-22T12:42:44.998Z</time></trkpt><trkpt lat="53.829186926132714" lon="11.035612231686757"><ele>29.666666666666664</ele><time>2026-03-22T12:42:45.998Z</time></trkpt><trkpt lat="53.8293464216679" lon="11.035717630879375"><ele>30.333333333333336</ele><time>2026-03-22T12:42:46.998Z</time></trkpt><trkpt lat="53.829510772067955" lon="11.035846400768959"><ele>31.0</ele><time>2026-03-22T12:42:47.998Z</time></trkpt><trkpt lat="53.829678770130855" lon="11.035957582763336"><ele>31.0</ele><time>2026-03-22T12:42:48.998Z</time></trkpt><trkpt lat="53.82983674337903" lon="11.036063224003808"><ele>31.0</ele><time>2026-03-22T12:42:49.998Z</time></trkpt><trkpt lat="53.83000806762578" lon="11.036180248947293"><ele>31.0</ele><time>2026-03-22T12:42:50.998Z</time></trkpt><trkpt lat="53.8301668384002" lon="11.036311259767743"><ele>31.333333333333336</ele><time>2026-03-22T12:42:51.998Z</time></trkpt><trkpt lat="53.83033518286967" lon="11.036413464856212"><ele>31.666666666666664</ele><time>2026-03-22T12:42:52.998Z</time></trkpt><trkpt lat="53.83049206349653" lon="11.036570150691146"><ele>32.0</ele><time>2026-03-22T12:42:53.998Z</time></trkpt><trkpt lat="53.83064751850188" lon="11.036737312931878"><ele>32.0</ele><time>2026-03-22T12:42:54.998Z</time></trkpt><trkpt lat="53.83079949457072" lon="11.036890007801045"><ele>32.0</ele><time>2026-03-22T12:42:55.998Z</time></trkpt><trkpt lat="53.830935809701344" lon="11.037065484461976"><ele>32.0</ele><time>2026-03-22T12:42:56.998Z</time></trkpt><trkpt lat="53.83106233105185" lon="11.03724615912368"><ele>32.666666666666664</ele><time>2026-03-22T12:42:57.998Z</time></trkpt><trkpt lat="53.831182973922765" lon="11.037473784204982"><ele>33.333333333333336</ele><time>2026-03-22T12:42:58.998Z</time></trkpt><trkpt lat="53.831298925781184" lon="11.03770177289546"><ele>34.0</ele><time>2026-03-22T12:42:59.998Z</time></trkpt><trkpt lat="53.83141441984107" lon="11.037942308881966"><ele>34.0</ele><time>2026-03-22T12:43:00.998Z</time></trkpt><trkpt lat="53.83152641123543" lon="11.03818130304584"><ele>34.0</ele><time>2026-03-22T12:43:01.998Z</time></trkpt><trkpt lat="53.831643261989385" lon="11.038410623657287"><ele>34.0</ele><time>2026-03-22T12:43:02.998Z</time></trkpt><trkpt lat="53.83173844699858" lon="11.03868160720034"><ele>33.66666666666667</ele><time>2026-03-22T12:43:03.998Z</time></trkpt><trkpt lat="53.83185467989118" lon="11.038923619773644"><ele>33.333333333333336</ele><time>2026-03-22T12:43:04.998Z</time></trkpt><trkpt lat="53.83196245845733" lon="11.039177277217371"><ele>33.0</ele><time>2026-03-22T12:43:05.998Z</time></trkpt><trkpt lat="53.83207852799536" lon="11.039421715856555"><ele>32.0</ele><time>2026-03-22T12:43:06.998Z</time></trkpt><trkpt lat="53.832204251217576" lon="11.039652427484866"><ele>31.0</ele><time>2026-03-22T12:43:07.998Z</time></trkpt><trkpt lat="53.83233747344851" lon="11.039883773920698"><ele>30.0</ele><time>2026-03-22T12:43:08.998Z</time></trkpt><trkpt lat="53.83246217504615" lon="11.040136592242638"><ele>29.333333333333336</ele><time>2026-03-22T12:43:09.998Z</time></trkpt><trkpt lat="53.832585602138195" lon="11.040398198907507"><ele>28.666666666666668</ele><time>2026-03-22T12:43:10.998Z</time></trkpt><trkpt lat="53.832712244250764" lon="11.040650380726102"><ele>28.0</ele><time>2026-03-22T12:43:11.998Z</time></trkpt><trkpt lat="53.8328321017935" lon="11.040915208490755"><ele>27.0</ele><time>2026-03-22T12:43:12.998Z</time></trkpt><trkpt lat="53.832957933915296" lon="11.041153558917223"><ele>26.0</ele><time>2026-03-22T12:43:13.998Z</time></trkpt><trkpt lat="53.83309189186388" lon="11.041383447268622"><ele>25.0</ele><time>2026-03-22T12:43:14.998Z</time></trkpt><trkpt lat="53.833219828479585" lon="11.041632916756392"><ele>24.666666666666668</ele><time>2026-03-22T12:43:15.998Z</time></trkpt><trkpt lat="53.83334384965963" lon="11.041879698843605"><ele>24.333333333333336</ele><time>2026-03-22T12:43:16.998Z</time></trkpt><trkpt lat="53.833480944300376" lon="11.04212397955003"><ele>24.0</ele><time>2026-03-22T12:43:17.998Z</time></trkpt><trkpt lat="53.8335979094527" lon="11.042390876228575"><ele>24.0</ele><time>2026-03-22T12:43:18.998Z</time></trkpt><trkpt lat="53.83372410966335" lon="11.042643233920044"><ele>24.0</ele><time>2026-03-22T12:43:19.998Z</time></trkpt><trkpt lat="53.83385746299852" lon="11.042877418471978"><ele>24.0</ele><time>2026-03-22T12:43:20.998Z</time></trkpt><trkpt lat="53.83397715307854" lon="11.04311165254895"><ele>24.333333333333336</ele><time>2026-03-22T12:43:21.998Z</time></trkpt><trkpt lat="53.83410016758646" lon="11.043352194800798"><ele>24.666666666666668</ele><time>2026-03-22T12:43:22.998Z</time></trkpt><trkpt lat="53.834220520567584" lon="11.043579877275606"><ele>25.0</ele><time>2026-03-22T12:43:23.998Z</time></trkpt><trkpt lat="53.83434101800149" lon="11.043750317376878"><ele>26.25</ele><time>2026-03-22T12:43:24.998Z</time></trkpt><trkpt lat="53.834465554830636" lon="11.043874232329289"><ele>27.5</ele><time>2026-03-22T12:43:25.998Z</time></trkpt><trkpt lat="53.834576723566585" lon="11.043987836122245"><ele>28.75</ele><time>2026-03-22T12:43:26.998Z</time></trkpt><trkpt lat="53.83466482959872" lon="11.044116623704966"><ele>30.0</ele><time>2026-03-22T12:43:27.998Z</time></trkpt><trkpt lat="53.834780335869524" lon="11.044182346569656"><ele>30.0</ele><time>2026-03-22T12:43:28.998Z</time></trkpt><trkpt lat="53.83487018661085" lon="11.044287962587731"><ele>30.0</ele><time>2026-03-22T12:43:29.998Z</time></trkpt><trkpt lat="53.834973254834395" lon="11.044321558445846"><ele>30.0</ele><time>2026-03-22T12:43:30.998Z</time></trkpt><trkpt lat="53.83508052154206" lon="11.0443622812627"><ele>30.0</ele><time>2026-03-22T12:43:31.998Z</time></trkpt><trkpt lat="53.83518341873753" lon="11.044388187944255"><ele>30.0</ele><time>2026-03-22T12:43:32.998Z</time></trkpt><trkpt lat="53.835266390337665" lon="11.04440024535754"><ele>29.6</ele><time>2026-03-22T12:43:33.998Z</time></trkpt><trkpt lat="53.835334777927706" lon="11.044403094042003"><ele>29.2</ele><time>2026-03-22T12:43:34.998Z</time></trkpt><trkpt lat="53.83544656579933" lon="11.044399893113408"><ele>28.799999999999997</ele><time>2026-03-22T12:43:36.998Z</time></trkpt><trkpt lat="53.83552746960845" lon="11.044318559479024"><ele>28.4</ele><time>2026-03-22T12:43:37.998Z</time></trkpt><trkpt lat="53.83555703179344" lon="11.044103239490628"><ele>28.0</ele><time>2026-03-22T12:43:39.998Z</time></trkpt><trkpt lat="53.835583374226765" lon="11.043996693553353"><ele>28.666666666666668</ele><time>2026-03-22T12:43:40.998Z</time></trkpt><trkpt lat="53.83560342119792" lon="11.043888393881485"><ele>29.333333333333336</ele><time>2026-03-22T12:43:41.998Z</time></trkpt><trkpt lat="53.83561975329682" lon="11.043764477846924"><ele>30.0</ele><time>2026-03-22T12:43:42.998Z</time></trkpt><trkpt lat="53.83564813850727" lon="11.043647766712983"><ele>30.666666666666664</ele><time>2026-03-22T12:43:43.998Z</time></trkpt><trkpt lat="53.83567250684875" lon="11.043517851254238"><ele>31.333333333333332</ele><time>2026-03-22T12:43:44.998Z</time></trkpt><trkpt lat="53.83571026505908" lon="11.043364076988414"><ele>32.0</ele><time>2026-03-22T12:43:45.998Z</time></trkpt><trkpt lat="53.835753023104715" lon="11.043193596536362"><ele>32.5</ele><time>2026-03-22T12:43:46.998Z</time></trkpt><trkpt lat="53.835805562368726" lon="11.043030508011388"><ele>33.0</ele><time>2026-03-22T12:43:47.998Z</time></trkpt><trkpt lat="53.83584630334656" lon="11.042867999887564"><ele>33.5</ele><time>2026-03-22T12:43:48.998Z</time></trkpt><trkpt lat="53.8359099710815" lon="11.04269510325415"><ele>34.0</ele><time>2026-03-22T12:43:49.998Z</time></trkpt><trkpt lat="53.83596718824618" lon="11.042508086302515"><ele>34.0</ele><time>2026-03-22T12:43:50.998Z</time></trkpt><trkpt lat="53.83601397966513" lon="11.042328273173032"><ele>34.0</ele><time>2026-03-22T12:43:52.001Z</time></trkpt><trkpt lat="53.8360802275185" lon="11.04216461524847"><ele>34.0</ele><time>2026-03-22T12:43:53.001Z</time></trkpt><trkpt lat="53.8361443914718" lon="11.041987908978223"><ele>34.0</ele><time>2026-03-22T12:43:54.001Z</time></trkpt><trkpt lat="53.83621652066342" lon="11.041789063911766"><ele>34.0</ele><time>2026-03-22T12:43:55.001Z</time></trkpt><trkpt lat="53.836270029894145" lon="11.041603198563184"><ele>34.0</ele><time>2026-03-22T12:43:56.001Z</time></trkpt><trkpt lat="53.83633379165289" lon="11.041406321915053"><ele>34.0</ele><time>2026-03-22T12:43:57.001Z</time></trkpt><trkpt lat="53.83640997325897" lon="11.041210130304254"><ele>34.0</ele><time>2026-03-22T12:43:58.001Z</time></trkpt><trkpt lat="53.836485741842466" lon="11.041021465270477"><ele>34.0</ele><time>2026-03-22T12:43:59.001Z</time></trkpt><trkpt lat="53.83656330944647" lon="11.040808482960275"><ele>34.0</ele><time>2026-03-22T12:44:00Z</time></trkpt><trkpt lat="53.836638200988304" lon="11.04056728912779"><ele>34.0</ele><time>2026-03-22T12:44:01Z</time></trkpt><trkpt lat="53.836708377407035" lon="11.04033222255931"><ele>33.333333333333336</ele><time>2026-03-22T12:44:02Z</time></trkpt><trkpt lat="53.83677559224338" lon="11.040082031841964"><ele>32.666666666666664</ele><time>2026-03-22T12:44:03Z</time></trkpt><trkpt lat="53.8368376991863" lon="11.03983326506656"><ele>32.0</ele><time>2026-03-22T12:44:04Z</time></trkpt><trkpt lat="53.836901276364806" lon="11.039575717117177"><ele>31.0</ele><time>2026-03-22T12:44:05Z</time></trkpt><trkpt lat="53.836961090612704" lon="11.039322932535784"><ele>30.0</ele><time>2026-03-22T12:44:06Z</time></trkpt><trkpt lat="53.837023190653355" lon="11.03905781113386"><ele>29.0</ele><time>2026-03-22T12:44:07Z</time></trkpt><trkpt lat="53.83709156035319" lon="11.038808118899327"><ele>29.0</ele><time>2026-03-22T12:44:08Z</time></trkpt><trkpt lat="53.8371542853057" lon="11.038537554257873"><ele>29.0</ele><time>2026-03-22T12:44:09Z</time></trkpt><trkpt lat="53.837209561950004" lon="11.038254157155924"><ele>29.0</ele><time>2026-03-22T12:44:10Z</time></trkpt><trkpt lat="53.83724524151194" lon="11.037975531446746"><ele>29.0</ele><time>2026-03-22T12:44:11Z</time></trkpt><trkpt lat="53.837321726704765" lon="11.037706507825957"><ele>29.0</ele><time>2026-03-22T12:44:12Z</time></trkpt><trkpt lat="53.83738731991398" lon="11.03744847864889"><ele>29.0</ele><time>2026-03-22T12:44:13Z</time></trkpt><trkpt lat="53.83743624922632" lon="11.037170648427736"><ele>29.0</ele><time>2026-03-22T12:44:14Z</time></trkpt><trkpt lat="53.83749434409549" lon="11.036912123645116"><ele>29.0</ele><time>2026-03-22T12:44:15Z</time></trkpt><trkpt lat="53.837566587561554" lon="11.036653447516967"><ele>29.0</ele><time>2026-03-22T12:44:16Z</time></trkpt><trkpt lat="53.837616785968045" lon="11.036376568074932"><ele>29.666666666666664</ele><time>2026-03-22T12:44:17Z</time></trkpt><trkpt lat="53.837689189363665" lon="11.036099038351459"><ele>30.333333333333336</ele><time>2026-03-22T12:44:18Z</time></trkpt><trkpt lat="53.83773443465132" lon="11.03580353891069"><ele>31.0</ele><time>2026-03-22T12:44:19Z</time></trkpt><trkpt lat="53.83779821716944" lon="11.03552188204854"><ele>31.0</ele><time>2026-03-22T12:44:20Z</time></trkpt><trkpt lat="53.837860147662894" lon="11.03522815122541"><ele>31.0</ele><time>2026-03-22T12:44:21Z</time></trkpt><trkpt lat="53.83791573556453" lon="11.034937332258025"><ele>31.0</ele><time>2026-03-22T12:44:22Z</time></trkpt><trkpt lat="53.83798609271348" lon="11.034646094369547"><ele>30.666666666666668</ele><time>2026-03-22T12:44:23Z</time></trkpt><trkpt lat="53.83804595051183" lon="11.034354520126703"><ele>30.333333333333336</ele><time>2026-03-22T12:44:24Z</time></trkpt><trkpt lat="53.83809692294734" lon="11.03406522957336"><ele>30.0</ele><time>2026-03-22T12:44:25Z</time></trkpt><trkpt lat="53.838156522045544" lon="11.033781455047567"><ele>29.666666666666664</ele><time>2026-03-22T12:44:26Z</time></trkpt><trkpt lat="53.83822813514055" lon="11.033500625647209"><ele>29.333333333333332</ele><time>2026-03-22T12:44:27Z</time></trkpt><trkpt lat="53.83829362909038" lon="11.033216156106803"><ele>29.0</ele><time>2026-03-22T12:44:28Z</time></trkpt><trkpt lat="53.83835484077804" lon="11.032931902383963"><ele>29.0</ele><time>2026-03-22T12:44:29Z</time></trkpt><trkpt lat="53.83842003784789" lon="11.032648270599525"><ele>29.0</ele><time>2026-03-22T12:44:30Z</time></trkpt><trkpt lat="53.838480215987275" lon="11.032362870722828"><ele>29.0</ele><time>2026-03-22T12:44:31Z</time></trkpt><trkpt lat="53.83854106181899" lon="11.032085896100847"><ele>30.333333333333332</ele><time>2026-03-22T12:44:32Z</time></trkpt><trkpt lat="53.838595090918616" lon="11.03180055303199"><ele>31.666666666666664</ele><time>2026-03-22T12:44:33Z</time></trkpt><trkpt lat="53.83865860190669" lon="11.031512522537263"><ele>33.0</ele><time>2026-03-22T12:44:34Z</time></trkpt><trkpt lat="53.83873110573551" lon="11.031235692421264"><ele>33.0</ele><time>2026-03-22T12:44:35Z</time></trkpt><trkpt lat="53.838784359570866" lon="11.030955709886168"><ele>33.0</ele><time>2026-03-22T12:44:36Z</time></trkpt><trkpt lat="53.83885166519256" lon="11.030680579563263"><ele>33.0</ele><time>2026-03-22T12:44:37Z</time></trkpt><trkpt lat="53.83891497106911" lon="11.030416142133976"><ele>33.333333333333336</ele><time>2026-03-22T12:44:38Z</time></trkpt><trkpt lat="53.838987202469674" lon="11.030137243742523"><ele>33.66666666666667</ele><time>2026-03-22T12:44:39Z</time></trkpt><trkpt lat="53.839050497332885" lon="11.029874859828682"><ele>34.0</ele><time>2026-03-22T12:44:40Z</time></trkpt><trkpt lat="53.83910951081031" lon="11.029601142573492"><ele>34.333333333333336</ele><time>2026-03-22T12:44:41Z</time></trkpt><trkpt lat="53.83916740685344" lon="11.029336612413363"><ele>34.666666666666664</ele><time>2026-03-22T12:44:42Z</time></trkpt><trkpt lat="53.83922871260307" lon="11.029059532113504"><ele>35.0</ele><time>2026-03-22T12:44:43Z</time></trkpt><trkpt lat="53.83928547448191" lon="11.028791473159954"><ele>35.0</ele><time>2026-03-22T12:44:44Z</time></trkpt><trkpt lat="53.83935247154893" lon="11.028509412198341"><ele>35.0</ele><time>2026-03-22T12:44:45Z</time></trkpt><trkpt lat="53.839429086908126" lon="11.028228518553066"><ele>35.0</ele><time>2026-03-22T12:44:46Z</time></trkpt><trkpt lat="53.83950003558631" lon="11.027957897786697"><ele>35.0</ele><time>2026-03-22T12:44:47Z</time></trkpt><trkpt lat="53.83959809979678" lon="11.027719969685466"><ele>35.0</ele><time>2026-03-22T12:44:48Z</time></trkpt><trkpt lat="53.83967984653779" lon="11.027437527896398"><ele>35.0</ele><time>2026-03-22T12:44:49Z</time></trkpt><trkpt lat="53.83977655797076" lon="11.027190412124131"><ele>35.0</ele><time>2026-03-22T12:44:50Z</time></trkpt><trkpt lat="53.839879549507394" lon="11.026930020501695"><ele>35.0</ele><time>2026-03-22T12:44:51Z</time></trkpt><trkpt lat="53.83996888185559" lon="11.026654494789144"><ele>35.0</ele><time>2026-03-22T12:44:52Z</time></trkpt><trkpt lat="53.84005466121576" lon="11.026383903233043"><ele>35.0</ele><time>2026-03-22T12:44:53Z</time></trkpt><trkpt lat="53.84013960397435" lon="11.026108276778286"><ele>35.0</ele><time>2026-03-22T12:44:54Z</time></trkpt><trkpt lat="53.84024403323143" lon="11.025846037556308"><ele>35.0</ele><time>2026-03-22T12:44:55Z</time></trkpt><trkpt lat="53.84033162859446" lon="11.025580792445066"><ele>35.0</ele><time>2026-03-22T12:44:56Z</time></trkpt><trkpt lat="53.840435470390446" lon="11.025333967198145"><ele>35.0</ele><time>2026-03-22T12:44:57Z</time></trkpt><trkpt lat="53.840520909073305" lon="11.025063925242653"><ele>35.0</ele><time>2026-03-22T12:44:58Z</time></trkpt><trkpt lat="53.84060647406014" lon="11.024802751546167"><ele>35.33333333333333</ele><time>2026-03-22T12:44:59Z</time></trkpt><trkpt lat="53.84070847139652" lon="11.024533665712973"><ele>35.666666666666664</ele><time>2026-03-22T12:45:00Z</time></trkpt><trkpt lat="53.84079614375553" lon="11.02426224454304"><ele>36.0</ele><time>2026-03-22T12:45:01Z</time></trkpt><trkpt lat="53.84087342348198" lon="11.023993115673665"><ele>36.0</ele><time>2026-03-22T12:45:02Z</time></trkpt><trkpt lat="53.84095826026357" lon="11.02372365013747"><ele>36.0</ele><time>2026-03-22T12:45:03Z</time></trkpt><trkpt lat="53.841051105984434" lon="11.023467520395421"><ele>36.0</ele><time>2026-03-22T12:45:04Z</time></trkpt><trkpt lat="53.84113824748257" lon="11.023209036952695"><ele>36.0</ele><time>2026-03-22T12:45:05Z</time></trkpt><trkpt lat="53.84122506975881" lon="11.02293542720938"><ele>36.0</ele><time>2026-03-22T12:45:06Z</time></trkpt><trkpt lat="53.84131249516294" lon="11.022669563434869"><ele>36.0</ele><time>2026-03-22T12:45:07Z</time></trkpt><trkpt lat="53.841409528512884" lon="11.02240751815864"><ele>35.666666666666664</ele><time>2026-03-22T12:45:08Z</time></trkpt><trkpt lat="53.84150341101875" lon="11.022153136166295"><ele>35.33333333333333</ele><time>2026-03-22T12:45:09Z</time></trkpt><trkpt lat="53.841590805837136" lon="11.021893889482431"><ele>35.0</ele><time>2026-03-22T12:45:10Z</time></trkpt><trkpt lat="53.84168799319947" lon="11.021636967145009"><ele>34.666666666666664</ele><time>2026-03-22T12:45:11Z</time></trkpt><trkpt lat="53.841754321504" lon="11.021368323181965"><ele>34.333333333333336</ele><time>2026-03-22T12:45:12Z</time></trkpt><trkpt lat="53.84183395224695" lon="11.021114904656825"><ele>34.0</ele><time>2026-03-22T12:45:13Z</time></trkpt><trkpt lat="53.841919342543164" lon="11.020884492051835"><ele>33.0</ele><time>2026-03-22T12:45:14Z</time></trkpt><trkpt lat="53.842014292069365" lon="11.020661585995132"><ele>32.0</ele><time>2026-03-22T12:45:15Z</time></trkpt><trkpt lat="53.84211310982893" lon="11.02042370948378"><ele>31.0</ele><time>2026-03-22T12:45:16Z</time></trkpt><trkpt lat="53.84221324233561" lon="11.020213657948831"><ele>31.0</ele><time>2026-03-22T12:45:17Z</time></trkpt><trkpt lat="53.84231700488273" lon="11.020017178771207"><ele>31.0</ele><time>2026-03-22T12:45:18Z</time></trkpt><trkpt lat="53.84241852588901" lon="11.019852577359943"><ele>31.0</ele><time>2026-03-22T12:45:18.999Z</time></trkpt><trkpt lat="53.84251837806041" lon="11.01970166756355"><ele>31.0</ele><time>2026-03-22T12:45:19.999Z</time></trkpt><trkpt lat="53.84261915855206" lon="11.019560650775542"><ele>30.333333333333336</ele><time>2026-03-22T12:45:20.999Z</time></trkpt><trkpt lat="53.84273578340032" lon="11.019404322850255"><ele>29.666666666666664</ele><time>2026-03-22T12:45:21.999Z</time></trkpt><trkpt lat="53.842860584466735" lon="11.019241200223528"><ele>29.0</ele><time>2026-03-22T12:45:22.999Z</time></trkpt><trkpt lat="53.84298967381038" lon="11.01905890909541"><ele>28.0</ele><time>2026-03-22T12:45:23.999Z</time></trkpt><trkpt lat="53.84313424648861" lon="11.018912899354751"><ele>27.0</ele><time>2026-03-22T12:45:24.999Z</time></trkpt><trkpt lat="53.84327553225824" lon="11.018762338157108"><ele>26.0</ele><time>2026-03-22T12:45:25.999Z</time></trkpt><trkpt lat="53.84343484780267" lon="11.018665115416908"><ele>26.666666666666664</ele><time>2026-03-22T12:45:26.999Z</time></trkpt><trkpt lat="53.843587677255144" lon="11.018539023720177"><ele>27.333333333333336</ele><time>2026-03-22T12:45:27.999Z</time></trkpt><trkpt lat="53.843735544853054" lon="11.018419793224023"><ele>28.0</ele><time>2026-03-22T12:45:28.999Z</time></trkpt><trkpt lat="53.84388597882383" lon="11.018295698085598"><ele>28.0</ele><time>2026-03-22T12:45:29.999Z</time></trkpt><trkpt lat="53.84403048739782" lon="11.018152894579924"><ele>28.0</ele><time>2026-03-22T12:45:30.999Z</time></trkpt><trkpt lat="53.844165806583376" lon="11.017996935273054"><ele>28.0</ele><time>2026-03-22T12:45:31.999Z</time></trkpt><trkpt lat="53.844291176246294" lon="11.017836907564508"><ele>28.666666666666668</ele><time>2026-03-22T12:45:32.999Z</time></trkpt><trkpt lat="53.84441805527498" lon="11.017665489870717"><ele>29.333333333333336</ele><time>2026-03-22T12:45:33.999Z</time></trkpt><trkpt lat="53.84454127211567" lon="11.017488446155568"><ele>30.0</ele><time>2026-03-22T12:45:34.999Z</time></trkpt><trkpt lat="53.844662048457685" lon="11.017332849133556"><ele>30.333333333333336</ele><time>2026-03-22T12:45:35.999Z</time></trkpt><trkpt lat="53.844767659422054" lon="11.017127412824"><ele>30.666666666666668</ele><time>2026-03-22T12:45:36.999Z</time></trkpt><trkpt lat="53.84487182664573" lon="11.016891530298459"><ele>31.0</ele><time>2026-03-22T12:45:37.999Z</time></trkpt><trkpt lat="53.84497865714267" lon="11.01665714816664"><ele>31.666666666666668</ele><time>2026-03-22T12:45:38.999Z</time></trkpt><trkpt lat="53.84505671207813" lon="11.016397943314962"><ele>32.333333333333336</ele><time>2026-03-22T12:45:39.999Z</time></trkpt><trkpt lat="53.84512852249794" lon="11.016152550132277"><ele>33.0</ele><time>2026-03-22T12:45:40.999Z</time></trkpt><trkpt lat="53.84518053530905" lon="11.015916442021707"><ele>32.0</ele><time>2026-03-22T12:45:41.999Z</time></trkpt><trkpt lat="53.84521337780979" lon="11.015693280206289"><ele>31.0</ele><time>2026-03-22T12:45:42.999Z</time></trkpt><trkpt lat="53.845232520514415" lon="11.015463684803217"><ele>30.0</ele><time>2026-03-22T12:45:43.999Z</time></trkpt><trkpt lat="53.845245213989905" lon="11.015239102435249"><ele>29.0</ele><time>2026-03-22T12:45:44.999Z</time></trkpt><trkpt lat="53.845257247248114" lon="11.01499877523017"><ele>29.0</ele><time>2026-03-22T12:45:45.999Z</time></trkpt><trkpt lat="53.84526755229918" lon="11.014767152928501"><ele>29.0</ele><time>2026-03-22T12:45:46.999Z</time></trkpt><trkpt lat="53.84527782798016" lon="11.014520241220687"><ele>29.0</ele><time>2026-03-22T12:45:47.999Z</time></trkpt><trkpt lat="53.84528395190992" lon="11.014285813469598"><ele>29.0</ele><time>2026-03-22T12:45:48.999Z</time></trkpt><trkpt lat="53.84528773678425" lon="11.014029202486894"><ele>29.0</ele><time>2026-03-22T12:45:49.999Z</time></trkpt><trkpt lat="53.845290041785375" lon="11.013785179831636"><ele>29.0</ele><time>2026-03-22T12:45:50.999Z</time></trkpt><trkpt lat="53.84528487612161" lon="11.013560517415245"><ele>29.0</ele><time>2026-03-22T12:45:51.999Z</time></trkpt><trkpt lat="53.845276371677386" lon="11.01331295573358"><ele>29.0</ele><time>2026-03-22T12:45:52.999Z</time></trkpt><trkpt lat="53.84525886367723" lon="11.013097705376307"><ele>28.799999999999997</ele><time>2026-03-22T12:45:53.999Z</time></trkpt><trkpt lat="53.84521624836322" lon="11.012891861834513"><ele>28.599999999999998</ele><time>2026-03-22T12:45:54.999Z</time></trkpt><trkpt lat="53.84517719499748" lon="11.01272995486155"><ele>28.4</ele><time>2026-03-22T12:45:55.999Z</time></trkpt><trkpt lat="53.84515259517724" lon="11.01258686453935"><ele>28.2</ele><time>2026-03-22T12:45:56.999Z</time></trkpt><trkpt lat="53.84514440052802" lon="11.01244900643056"><ele>28.0</ele><time>2026-03-22T12:45:57.999Z</time></trkpt><trkpt lat="53.845152700640476" lon="11.012320384763223"><ele>28.0</ele><time>2026-03-22T12:45:58.999Z</time></trkpt><trkpt lat="53.845128059215696" lon="11.012216999715378"><ele>28.0</ele><time>2026-03-22T12:46:01.999Z</time></trkpt><trkpt lat="53.84515633904348" lon="11.012114095720728"><ele>28.0</ele><time>2026-03-22T12:46:02.999Z</time></trkpt><trkpt lat="53.845424727779296" lon="11.012287788705756"><ele>28.0</ele><time>2026-03-22T12:46:03.999Z</time></trkpt><trkpt lat="53.84559478496981" lon="11.01208520361334"><ele>28.0</ele><time>2026-03-22T12:46:04.999Z</time></trkpt><trkpt lat="53.84562314352045" lon="11.011867878112085"><ele>28.0</ele><time>2026-03-22T12:46:05.999Z</time></trkpt><trkpt lat="53.84564601617572" lon="11.011672952694767"><ele>28.0</ele><time>2026-03-22T12:46:06.999Z</time></trkpt><trkpt lat="53.84566731228853" lon="11.011487100453893"><ele>28.0</ele><time>2026-03-22T12:46:07.999Z</time></trkpt><trkpt lat="53.845687235530725" lon="11.011313558315369"><ele>28.25</ele><time>2026-03-22T12:46:08.999Z</time></trkpt><trkpt lat="53.84571102737985" lon="11.011125588983605"><ele>28.5</ele><time>2026-03-22T12:46:09.999Z</time></trkpt><trkpt lat="53.84574189181135" lon="11.01093655373493"><ele>28.75</ele><time>2026-03-22T12:46:10.999Z</time></trkpt><trkpt lat="53.845788020063665" lon="11.010760783029598"><ele>29.0</ele><time>2026-03-22T12:46:11.999Z</time></trkpt><trkpt lat="53.84584894359329" lon="11.010600963349559"><ele>29.25</ele><time>2026-03-22T12:46:12.999Z</time></trkpt><trkpt lat="53.84591271001633" lon="11.010444837625474"><ele>29.5</ele><time>2026-03-22T12:46:13.999Z</time></trkpt><trkpt lat="53.845978293992786" lon="11.010266429967952"><ele>29.75</ele><time>2026-03-22T12:46:14.999Z</time></trkpt><trkpt lat="53.846039709054196" lon="11.010091489071527"><ele>30.0</ele><time>2026-03-22T12:46:15.999Z</time></trkpt><trkpt lat="53.84610753305117" lon="11.009938483715175"><ele>30.0</ele><time>2026-03-22T12:46:16.999Z</time></trkpt><trkpt lat="53.84618529370688" lon="11.00976541669518"><ele>30.0</ele><time>2026-03-22T12:46:17.999Z</time></trkpt><trkpt lat="53.846259889379944" lon="11.009595117024135"><ele>30.0</ele><time>2026-03-22T12:46:18.999Z</time></trkpt><trkpt lat="53.84633531514152" lon="11.009422832893446"><ele>30.0</ele><time>2026-03-22T12:46:19.999Z</time></trkpt><trkpt lat="53.84641629575623" lon="11.009237860522328"><ele>29.5</ele><time>2026-03-22T12:46:20.999Z</time></trkpt><trkpt lat="53.846491490983645" lon="11.00906610297995"><ele>29.0</ele><time>2026-03-22T12:46:21.999Z</time></trkpt><trkpt lat="53.84657422108692" lon="11.008877134546719"><ele>28.5</ele><time>2026-03-22T12:46:22.999Z</time></trkpt><trkpt lat="53.846654808669484" lon="11.008693059990732"><ele>28.0</ele><time>2026-03-22T12:46:23.999Z</time></trkpt><trkpt lat="53.84674138663718" lon="11.008504465015491"><ele>28.25</ele><time>2026-03-22T12:46:24.999Z</time></trkpt><trkpt lat="53.846829474145416" lon="11.008332378560977"><ele>28.5</ele><time>2026-03-22T12:46:25.999Z</time></trkpt><trkpt lat="53.84693162798316" lon="11.008152942805985"><ele>28.75</ele><time>2026-03-22T12:46:26.999Z</time></trkpt><trkpt lat="53.84702940770589" lon="11.007971609240546"><ele>29.0</ele><time>2026-03-22T12:46:27.999Z</time></trkpt><trkpt lat="53.847125724658945" lon="11.007795530328014"><ele>29.5</ele><time>2026-03-22T12:46:28.999Z</time></trkpt><trkpt lat="53.84722390819688" lon="11.00761800729844"><ele>30.0</ele><time>2026-03-22T12:46:29.999Z</time></trkpt><trkpt lat="53.84731353195237" lon="11.0074302090665"><ele>30.5</ele><time>2026-03-22T12:46:30.999Z</time></trkpt><trkpt lat="53.847404256272696" lon="11.007250957803523"><ele>31.0</ele><time>2026-03-22T12:46:31.999Z</time></trkpt><trkpt lat="53.8475086806725" lon="11.007093247348267"><ele>31.0</ele><time>2026-03-22T12:46:32.999Z</time></trkpt><trkpt lat="53.847592189734264" lon="11.006936831405632"><ele>31.0</ele><time>2026-03-22T12:46:33.999Z</time></trkpt><trkpt lat="53.84767369971754" lon="11.00680638738348"><ele>31.0</ele><time>2026-03-22T12:46:34.999Z</time></trkpt><trkpt lat="53.84777482694208" lon="11.006723291184917"><ele>31.0</ele><time>2026-03-22T12:46:35.999Z</time></trkpt><trkpt lat="53.84786842539696" lon="11.00669836054946"><ele>31.0</ele><time>2026-03-22T12:46:36.999Z</time></trkpt><trkpt lat="53.84797591888939" lon="11.006662610811826"><ele>31.000000000000004</ele><time>2026-03-22T12:46:37.999Z</time></trkpt><trkpt lat="53.84807102757061" lon="11.006627435277654"><ele>31.0</ele><time>2026-03-22T12:46:38.999Z</time></trkpt><trkpt lat="53.84815313692573" lon="11.006591345110744"><ele>31.0</ele><time>2026-03-22T12:46:39.999Z</time></trkpt><trkpt lat="53.848232123892736" lon="11.00652604800035"><ele>31.0</ele><time>2026-03-22T12:46:40.999Z</time></trkpt><trkpt lat="53.84829855810764" lon="11.006507912634751"><ele>31.000000000000004</ele><time>2026-03-22T12:46:41.999Z</time></trkpt><trkpt lat="53.848362855216806" lon="11.00649468755"><ele>31.0</ele><time>2026-03-22T12:46:42.999Z</time></trkpt><trkpt lat="53.84848099504774" lon="11.00643928160935"><ele>31.500000000000004</ele><time>2026-03-22T12:46:44.999Z</time></trkpt><trkpt lat="53.848558328532285" lon="11.00641923870168"><ele>32.0</ele><time>2026-03-22T12:46:45.999Z</time></trkpt><trkpt lat="53.848631005102426" lon="11.006400876497128"><ele>32.5</ele><time>2026-03-22T12:46:46.999Z</time></trkpt><trkpt lat="53.84871225055225" lon="11.006369019434631"><ele>33.0</ele><time>2026-03-22T12:46:47.999Z</time></trkpt><trkpt lat="53.848801974552174" lon="11.006333837856955"><ele>33.5</ele><time>2026-03-22T12:46:48.999Z</time></trkpt><trkpt lat="53.848902014936485" lon="11.006276832752311"><ele>34.0</ele><time>2026-03-22T12:46:49.999Z</time></trkpt><trkpt lat="53.849026240065" lon="11.006234882628554"><ele>34.0</ele><time>2026-03-22T12:46:50.999Z</time></trkpt><trkpt lat="53.84914974770786" lon="11.00620587771449"><ele>34.0</ele><time>2026-03-22T12:46:51.999Z</time></trkpt><trkpt lat="53.84925765414981" lon="11.006126460272526"><ele>34.0</ele><time>2026-03-22T12:46:52.999Z</time></trkpt><trkpt lat="53.84937703453596" lon="11.00610835173219"><ele>34.0</ele><time>2026-03-22T12:46:53.999Z</time></trkpt><trkpt lat="53.84949662484712" lon="11.006035556749078"><ele>35.0</ele><time>2026-03-22T12:46:54.999Z</time></trkpt><trkpt lat="53.849603746166686" lon="11.005990892103451"><ele>36.0</ele><time>2026-03-22T12:46:55.999Z</time></trkpt><trkpt lat="53.84971930653301" lon="11.005944113352381"><ele>37.0</ele><time>2026-03-22T12:46:56.999Z</time></trkpt><trkpt lat="53.84983467028652" lon="11.005927261216625"><ele>38.0</ele><time>2026-03-22T12:46:57.999Z</time></trkpt><trkpt lat="53.84993766755273" lon="11.005866504564976"><ele>38.33333333333333</ele><time>2026-03-22T12:46:58.999Z</time></trkpt><trkpt lat="53.85002646926087" lon="11.005828022633786"><ele>38.666666666666664</ele><time>2026-03-22T12:46:59.999Z</time></trkpt><trkpt lat="53.85010002917892" lon="11.0057426350741"><ele>39.0</ele><time>2026-03-22T12:47:00.999Z</time></trkpt><trkpt lat="53.850120468251156" lon="11.005636871057517"><ele>39.333333333333336</ele><time>2026-03-22T12:47:01.999Z</time></trkpt><trkpt lat="53.85016072290502" lon="11.005533972429976"><ele>39.66666666666667</ele><time>2026-03-22T12:47:02.999Z</time></trkpt><trkpt lat="53.850261992260656" lon="11.005458530662812"><ele>40.0</ele><time>2026-03-22T12:47:04.999Z</time></trkpt><trkpt lat="53.85039492743216" lon="11.005493009821304"><ele>40.2</ele><time>2026-03-22T12:47:06.999Z</time></trkpt><trkpt lat="53.850476079740744" lon="11.005501850595104"><ele>40.4</ele><time>2026-03-22T12:47:07.999Z</time></trkpt><trkpt lat="53.850570666995075" lon="11.005495139287177"><ele>40.599999999999994</ele><time>2026-03-22T12:47:08.999Z</time></trkpt><trkpt lat="53.85067047153755" lon="11.00547096126719"><ele>40.8</ele><time>2026-03-22T12:47:09.999Z</time></trkpt><trkpt lat="53.85077660638502" lon="11.00544187568251"><ele>41.0</ele><time>2026-03-22T12:47:10.999Z</time></trkpt><trkpt lat="53.850891029572615" lon="11.005409873357268"><ele>40.5</ele><time>2026-03-22T12:47:11.999Z</time></trkpt><trkpt lat="53.85101690504801" lon="11.005366124070674"><ele>40.0</ele><time>2026-03-22T12:47:12.999Z</time></trkpt><trkpt lat="53.85114724767817" lon="11.005318095991976"><ele>39.5</ele><time>2026-03-22T12:47:13.999Z</time></trkpt><trkpt lat="53.85128406774249" lon="11.005267387559664"><ele>39.0</ele><time>2026-03-22T12:47:14.999Z</time></trkpt><trkpt lat="53.851423857920174" lon="11.005189937380884"><ele>39.0</ele><time>2026-03-22T12:47:15.999Z</time></trkpt><trkpt lat="53.85156602447863" lon="11.005134498258906"><ele>39.0</ele><time>2026-03-22T12:47:16.999Z</time></trkpt><trkpt lat="53.851715422601394" lon="11.005077873108572"><ele>39.0</ele><time>2026-03-22T12:47:17.999Z</time></trkpt><trkpt lat="53.851867834165446" lon="11.005020701711159"><ele>38.333333333333336</ele><time>2026-03-22T12:47:18.999Z</time></trkpt><trkpt lat="53.85202889334496" lon="11.004956402071626"><ele>37.66666666666667</ele><time>2026-03-22T12:47:19.999Z</time></trkpt><trkpt lat="53.852189614768236" lon="11.004897908092735"><ele>37.0</ele><time>2026-03-22T12:47:20.999Z</time></trkpt><trkpt lat="53.85235987572507" lon="11.004831478765123"><ele>37.0</ele><time>2026-03-22T12:47:21.999Z</time></trkpt><trkpt lat="53.8525369607139" lon="11.004760032725537"><ele>37.0</ele><time>2026-03-22T12:47:22.999Z</time></trkpt><trkpt lat="53.852709065144715" lon="11.004702139281537"><ele>37.0</ele><time>2026-03-22T12:47:23.999Z</time></trkpt><trkpt lat="53.85289210703878" lon="11.004627772803296"><ele>36.66666666666667</ele><time>2026-03-22T12:47:24.999Z</time></trkpt><trkpt lat="53.85307681612922" lon="11.00457149985108"><ele>36.333333333333336</ele><time>2026-03-22T12:47:25.999Z</time></trkpt><trkpt lat="53.85325311656136" lon="11.004503687437577"><ele>36.0</ele><time>2026-03-22T12:47:26.999Z</time></trkpt><trkpt lat="53.85342470404929" lon="11.00443768779746"><ele>36.0</ele><time>2026-03-22T12:47:27.999Z</time></trkpt><trkpt lat="53.85359949391044" lon="11.004344954357343"><ele>36.0</ele><time>2026-03-22T12:47:28.999Z</time></trkpt><trkpt lat="53.85378284735511" lon="11.004273960916793"><ele>36.0</ele><time>2026-03-22T12:47:29.999Z</time></trkpt><trkpt lat="53.85397332632266" lon="11.004224562271322"><ele>35.666666666666664</ele><time>2026-03-22T12:47:30.999Z</time></trkpt><trkpt lat="53.85414885165309" lon="11.004133979354798"><ele>35.33333333333333</ele><time>2026-03-22T12:47:31.999Z</time></trkpt><trkpt lat="53.8543466726144" lon="11.00405417806707"><ele>35.0</ele><time>2026-03-22T12:47:32.999Z</time></trkpt><trkpt lat="53.85453937639657" lon="11.003980879677464"><ele>34.666666666666664</ele><time>2026-03-22T12:47:33.999Z</time></trkpt><trkpt lat="53.85472824408895" lon="11.003922983882845"><ele>34.333333333333336</ele><time>2026-03-22T12:47:34.999Z</time></trkpt><trkpt lat="53.85491907223206" lon="11.003858069291297"><ele>34.0</ele><time>2026-03-22T12:47:35.998Z</time></trkpt><trkpt lat="53.85510660291538" lon="11.003780103347923"><ele>33.66666666666667</ele><time>2026-03-22T12:47:36.998Z</time></trkpt><trkpt lat="53.8552953213229" lon="11.00370052303126"><ele>33.333333333333336</ele><time>2026-03-22T12:47:37.998Z</time></trkpt><trkpt lat="53.85547876599821" lon="11.003632636015732"><ele>33.0</ele><time>2026-03-22T12:47:38.998Z</time></trkpt><trkpt lat="53.85566959944752" lon="11.003548823067502"><ele>33.0</ele><time>2026-03-22T12:47:39.998Z</time></trkpt><trkpt lat="53.85585573258575" lon="11.00347928360742"><ele>33.0</ele><time>2026-03-22T12:47:40.998Z</time></trkpt><trkpt lat="53.85605406511096" lon="11.003400416321604"><ele>33.0</ele><time>2026-03-22T12:47:41.998Z</time></trkpt><trkpt lat="53.85625565127079" lon="11.003316234623387"><ele>32.666666666666664</ele><time>2026-03-22T12:47:42.998Z</time></trkpt><trkpt lat="53.856441127832746" lon="11.00322902408981"><ele>32.33333333333333</ele><time>2026-03-22T12:47:43.998Z</time></trkpt><trkpt lat="53.856634888679935" lon="11.00315076054319"><ele>32.0</ele><time>2026-03-22T12:47:44.998Z</time></trkpt><trkpt lat="53.856821456720155" lon="11.003091535921689"><ele>30.666666666666664</ele><time>2026-03-22T12:47:45.998Z</time></trkpt><trkpt lat="53.85700265503662" lon="11.003008258596711"><ele>29.333333333333336</ele><time>2026-03-22T12:47:46.998Z</time></trkpt><trkpt lat="53.85717641559022" lon="11.002906436337133"><ele>28.0</ele><time>2026-03-22T12:47:47.998Z</time></trkpt><trkpt lat="53.857347276774526" lon="11.00280012287836"><ele>28.0</ele><time>2026-03-22T12:47:48.998Z</time></trkpt><trkpt lat="53.8575024994058" lon="11.002693736206592"><ele>28.0</ele><time>2026-03-22T12:47:49.998Z</time></trkpt><trkpt lat="53.8576551553036" lon="11.002582834883714"><ele>28.0</ele><time>2026-03-22T12:47:50.998Z</time></trkpt><trkpt lat="53.857806577048386" lon="11.002473015616387"><ele>28.0</ele><time>2026-03-22T12:47:51.998Z</time></trkpt><trkpt lat="53.85796708236243" lon="11.002356264738825"><ele>28.0</ele><time>2026-03-22T12:47:52.998Z</time></trkpt><trkpt lat="53.858105077410244" lon="11.002219915904401"><ele>28.0</ele><time>2026-03-22T12:47:53.998Z</time></trkpt><trkpt lat="53.85826348587941" lon="11.002138359273543"><ele>28.0</ele><time>2026-03-22T12:47:54.998Z</time></trkpt><trkpt lat="53.858406541298464" lon="11.002044801530102"><ele>28.0</ele><time>2026-03-22T12:47:55.998Z</time></trkpt><trkpt lat="53.85853665111457" lon="11.001996115845625"><ele>28.0</ele><time>2026-03-22T12:47:56.998Z</time></trkpt><trkpt lat="53.85866018387696" lon="11.001980295254917"><ele>28.0</ele><time>2026-03-22T12:47:57.998Z</time></trkpt><trkpt lat="53.85879339192501" lon="11.002018828344543"><ele>29.0</ele><time>2026-03-22T12:47:58.998Z</time></trkpt><trkpt lat="53.85892740650294" lon="11.002114406081374"><ele>30.0</ele><time>2026-03-22T12:47:59.998Z</time></trkpt><trkpt lat="53.85904979278205" lon="11.002245854797344"><ele>31.0</ele><time>2026-03-22T12:48:00.998Z</time></trkpt><trkpt lat="53.85917268225113" lon="11.002368707835371"><ele>32.0</ele><time>2026-03-22T12:48:01.998Z</time></trkpt><trkpt lat="53.859306770295206" lon="11.00245804691149"><ele>32.33333333333333</ele><time>2026-03-22T12:48:02.998Z</time></trkpt><trkpt lat="53.85945352030284" lon="11.002522313917327"><ele>32.666666666666664</ele><time>2026-03-22T12:48:03.998Z</time></trkpt><trkpt lat="53.85959960094668" lon="11.002572964435359"><ele>33.0</ele><time>2026-03-22T12:48:04.998Z</time></trkpt><trkpt lat="53.85974659339742" lon="11.002635022205014"><ele>33.0</ele><time>2026-03-22T12:48:05.998Z</time></trkpt><trkpt lat="53.859892803349204" lon="11.002725112885734"><ele>33.0</ele><time>2026-03-22T12:48:06.998Z</time></trkpt><trkpt lat="53.86003664854" lon="11.002806354507372"><ele>33.0</ele><time>2026-03-22T12:48:07.998Z</time></trkpt><trkpt lat="53.860176213155256" lon="11.002945322643772"><ele>33.666666666666664</ele><time>2026-03-22T12:48:08.998Z</time></trkpt><trkpt lat="53.86020058206521" lon="11.003339843791288"><ele>34.33333333333333</ele><time>2026-03-22T12:48:09.998Z</time></trkpt><trkpt lat="53.86033219677484" lon="11.003527653931057"><ele>35.0</ele><time>2026-03-22T12:48:10.998Z</time></trkpt><trkpt lat="53.86054631203706" lon="11.003566175503392"><ele>35.0</ele><time>2026-03-22T12:48:11.998Z</time></trkpt><trkpt lat="53.860651038709754" lon="11.00381128289207"><ele>35.0</ele><time>2026-03-22T12:48:12.998Z</time></trkpt><trkpt lat="53.860757214780264" lon="11.0040493604817"><ele>35.0</ele><time>2026-03-22T12:48:13.998Z</time></trkpt><trkpt lat="53.86088233761249" lon="11.004269606980458"><ele>35.0</ele><time>2026-03-22T12:48:14.998Z</time></trkpt><trkpt lat="53.86091816001908" lon="11.00456507463643"><ele>35.0</ele><time>2026-03-22T12:48:15.998Z</time></trkpt><trkpt lat="53.8609967386056" lon="11.004833425757745"><ele>35.0</ele><time>2026-03-22T12:48:16.998Z</time></trkpt><trkpt lat="53.86104851781931" lon="11.005111074754167"><ele>35.0</ele><time>2026-03-22T12:48:17.998Z</time></trkpt><trkpt lat="53.86107620177817" lon="11.005398316961749"><ele>35.0</ele><time>2026-03-22T12:48:18.998Z</time></trkpt><trkpt lat="53.86108344725681" lon="11.005710056433303"><ele>35.0</ele><time>2026-03-22T12:48:19.998Z</time></trkpt><trkpt lat="53.86108215829569" lon="11.005997284962579"><ele>35.0</ele><time>2026-03-22T12:48:20.998Z</time></trkpt><trkpt lat="53.86105556786044" lon="11.006285031545035"><ele>35.0</ele><time>2026-03-22T12:48:21.998Z</time></trkpt><trkpt lat="53.86101056888478" lon="11.006575497983548"><ele>35.0</ele><time>2026-03-22T12:48:22.998Z</time></trkpt><trkpt lat="53.8609558797529" lon="11.006856386195645"><ele>35.0</ele><time>2026-03-22T12:48:23.998Z</time></trkpt><trkpt lat="53.86090066457682" lon="11.007151943877375"><ele>35.0</ele><time>2026-03-22T12:48:24.998Z</time></trkpt><trkpt lat="53.86086886222277" lon="11.007440092434045"><ele>35.0</ele><time>2026-03-22T12:48:25.998Z</time></trkpt><trkpt lat="53.860827017652326" lon="11.007716313342613"><ele>34.666666666666664</ele><time>2026-03-22T12:48:26.998Z</time></trkpt><trkpt lat="53.860788084214214" lon="11.008014601639234"><ele>34.333333333333336</ele><time>2026-03-22T12:48:27.998Z</time></trkpt><trkpt lat="53.86077549998683" lon="11.008303624736335"><ele>34.0</ele><time>2026-03-22T12:48:28.998Z</time></trkpt><trkpt lat="53.86076109273474" lon="11.008588132007564"><ele>34.0</ele><time>2026-03-22T12:48:29.998Z</time></trkpt><trkpt lat="53.86074742249594" lon="11.008877097824227"><ele>34.0</ele><time>2026-03-22T12:48:30.998Z</time></trkpt><trkpt lat="53.860736383875995" lon="11.009174992179313"><ele>34.0</ele><time>2026-03-22T12:48:31.998Z</time></trkpt><trkpt lat="53.8607271124284" lon="11.009473612768602"><ele>34.0</ele><time>2026-03-22T12:48:32.998Z</time></trkpt><trkpt lat="53.8607162937093" lon="11.009760186867204"><ele>34.0</ele><time>2026-03-22T12:48:33.998Z</time></trkpt><trkpt lat="53.86066925915983" lon="11.010034844422377"><ele>34.0</ele><time>2026-03-22T12:48:34.998Z</time></trkpt><trkpt lat="53.86063822276664" lon="11.010309515358099"><ele>34.0</ele><time>2026-03-22T12:48:35.998Z</time></trkpt><trkpt lat="53.86056730183211" lon="11.010585209840102"><ele>34.0</ele><time>2026-03-22T12:48:36.998Z</time></trkpt><trkpt lat="53.86050196896013" lon="11.010873180071384"><ele>34.0</ele><time>2026-03-22T12:48:37.998Z</time></trkpt><trkpt lat="53.860464145479995" lon="11.01115397487325"><ele>34.0</ele><time>2026-03-22T12:48:38.998Z</time></trkpt><trkpt lat="53.86044524078944" lon="11.01143974956656"><ele>34.0</ele><time>2026-03-22T12:48:39.998Z</time></trkpt><trkpt lat="53.860415999028284" lon="11.011740883757703"><ele>34.0</ele><time>2026-03-22T12:48:40.998Z</time></trkpt><trkpt lat="53.86039943628639" lon="11.012049227550072"><ele>34.0</ele><time>2026-03-22T12:48:41.998Z</time></trkpt><trkpt lat="53.860383421077245" lon="11.012353686959191"><ele>34.0</ele><time>2026-03-22T12:48:42.998Z</time></trkpt><trkpt lat="53.8603497243624" lon="11.012640389220296"><ele>34.0</ele><time>2026-03-22T12:48:43.998Z</time></trkpt><trkpt lat="53.860316871371545" lon="11.012922202385468"><ele>34.0</ele><time>2026-03-22T12:48:44.998Z</time></trkpt><trkpt lat="53.86028014936311" lon="11.01321731605266"><ele>34.0</ele><time>2026-03-22T12:48:45.998Z</time></trkpt><trkpt lat="53.860254183986115" lon="11.01348568955056"><ele>34.0</ele><time>2026-03-22T12:48:46.998Z</time></trkpt><trkpt lat="53.8602287199186" lon="11.013789370592344"><ele>34.0</ele><time>2026-03-22T12:48:47.998Z</time></trkpt><trkpt lat="53.860181090034224" lon="11.014069673024569"><ele>34.0</ele><time>2026-03-22T12:48:48.998Z</time></trkpt><trkpt lat="53.86013271900039" lon="11.014367282260535"><ele>34.0</ele><time>2026-03-22T12:48:49.998Z</time></trkpt><trkpt lat="53.86010518672959" lon="11.01465933033397"><ele>34.0</ele><time>2026-03-22T12:48:50.998Z</time></trkpt><trkpt lat="53.860074883147455" lon="11.01495137325829"><ele>34.0</ele><time>2026-03-22T12:48:51.998Z</time></trkpt><trkpt lat="53.860073977676336" lon="11.015264580333827"><ele>34.0</ele><time>2026-03-22T12:48:52.998Z</time></trkpt><trkpt lat="53.860083238227375" lon="11.015566340576035"><ele>33.333333333333336</ele><time>2026-03-22T12:48:53.998Z</time></trkpt><trkpt lat="53.86010017429867" lon="11.015871037693922"><ele>32.666666666666664</ele><time>2026-03-22T12:48:54.998Z</time></trkpt><trkpt lat="53.86010335667255" lon="11.016182625032387"><ele>32.0</ele><time>2026-03-22T12:48:55.998Z</time></trkpt><trkpt lat="53.86010341945996" lon="11.01647935245617"><ele>31.0</ele><time>2026-03-22T12:48:56.998Z</time></trkpt><trkpt lat="53.86011720356936" lon="11.01678270231479"><ele>30.0</ele><time>2026-03-22T12:48:57.998Z</time></trkpt><trkpt lat="53.86013050622771" lon="11.017118645919751"><ele>29.0</ele><time>2026-03-22T12:48:58.998Z</time></trkpt><trkpt lat="53.86015083076284" lon="11.017432077180217"><ele>28.333333333333332</ele><time>2026-03-22T12:48:59.998Z</time></trkpt><trkpt lat="53.86017250768152" lon="11.0177449048364"><ele>27.666666666666664</ele><time>2026-03-22T12:49:00.998Z</time></trkpt><trkpt lat="53.86019899900416" lon="11.018036438293814"><ele>27.0</ele><time>2026-03-22T12:49:01.998Z</time></trkpt><trkpt lat="53.860245559847755" lon="11.018309510263228"><ele>26.666666666666664</ele><time>2026-03-22T12:49:02.998Z</time></trkpt><trkpt lat="53.86028183292919" lon="11.018615119806487"><ele>26.333333333333332</ele><time>2026-03-22T12:49:03.998Z</time></trkpt><trkpt lat="53.86031852542089" lon="11.018926093921488"><ele>26.0</ele><time>2026-03-22T12:49:04.998Z</time></trkpt><trkpt lat="53.86031483842777" lon="11.019235525052135"><ele>25.333333333333332</ele><time>2026-03-22T12:49:05.998Z</time></trkpt><trkpt lat="53.860310195936684" lon="11.019553754060926"><ele>24.666666666666664</ele><time>2026-03-22T12:49:06.998Z</time></trkpt><trkpt lat="53.86027636011556" lon="11.019849079014271"><ele>24.0</ele><time>2026-03-22T12:49:07.998Z</time></trkpt><trkpt lat="53.86022514720935" lon="11.020147030434742"><ele>24.0</ele><time>2026-03-22T12:49:08.998Z</time></trkpt><trkpt lat="53.86015702456234" lon="11.020441149657108"><ele>24.0</ele><time>2026-03-22T12:49:09.998Z</time></trkpt><trkpt lat="53.860104281018685" lon="11.020729608024745"><ele>24.0</ele><time>2026-03-22T12:49:10.998Z</time></trkpt><trkpt lat="53.8600280067811" lon="11.021023101920479"><ele>24.666666666666664</ele><time>2026-03-22T12:49:11.998Z</time></trkpt><trkpt lat="53.85995842856497" lon="11.021296979318755"><ele>25.333333333333332</ele><time>2026-03-22T12:49:12.998Z</time></trkpt><trkpt lat="53.85989542970948" lon="11.021590831174127"><ele>26.0</ele><time>2026-03-22T12:49:13.998Z</time></trkpt><trkpt lat="53.859834546443906" lon="11.021871775705666"><ele>26.0</ele><time>2026-03-22T12:49:14.998Z</time></trkpt><trkpt lat="53.859785345650046" lon="11.022148998965504"><ele>26.0</ele><time>2026-03-22T12:49:15.998Z</time></trkpt><trkpt lat="53.85976405143515" lon="11.022449541187845"><ele>26.0</ele><time>2026-03-22T12:49:16.998Z</time></trkpt><trkpt lat="53.859739340400026" lon="11.022764412867307"><ele>25.333333333333332</ele><time>2026-03-22T12:49:17.998Z</time></trkpt><trkpt lat="53.85972048743924" lon="11.023077138394589"><ele>24.666666666666664</ele><time>2026-03-22T12:49:18.998Z</time></trkpt><trkpt lat="53.8597037586918" lon="11.023390855857157"><ele>24.0</ele><time>2026-03-22T12:49:19.998Z</time></trkpt><trkpt lat="53.85968491369232" lon="11.023703449662493"><ele>24.0</ele><time>2026-03-22T12:49:20.998Z</time></trkpt><trkpt lat="53.859666601972" lon="11.024023856056065"><ele>24.0</ele><time>2026-03-22T12:49:21.998Z</time></trkpt><trkpt lat="53.85965409855078" lon="11.024335198878052"><ele>24.0</ele><time>2026-03-22T12:49:22.998Z</time></trkpt><trkpt lat="53.85963115295809" lon="11.024634308882996"><ele>24.0</ele><time>2026-03-22T12:49:23.998Z</time></trkpt><trkpt lat="53.85960933544706" lon="11.024913068479755"><ele>24.0</ele><time>2026-03-22T12:49:24.998Z</time></trkpt><trkpt lat="53.85959596745501" lon="11.025209932503127"><ele>24.0</ele><time>2026-03-22T12:49:25.998Z</time></trkpt><trkpt lat="53.85957508483351" lon="11.025508963113086"><ele>24.0</ele><time>2026-03-22T12:49:26.998Z</time></trkpt><trkpt lat="53.85955013601393" lon="11.02580785371664"><ele>24.0</ele><time>2026-03-22T12:49:27.998Z</time></trkpt><trkpt lat="53.85953099231694" lon="11.026104510418996"><ele>24.0</ele><time>2026-03-22T12:49:28.998Z</time></trkpt><trkpt lat="53.85950269446681" lon="11.026405916449646"><ele>23.666666666666668</ele><time>2026-03-22T12:49:29.998Z</time></trkpt><trkpt lat="53.85947952804279" lon="11.02670101871795"><ele>23.333333333333336</ele><time>2026-03-22T12:49:30.998Z</time></trkpt><trkpt lat="53.859465333129684" lon="11.026990338787654"><ele>23.0</ele><time>2026-03-22T12:49:31.998Z</time></trkpt><trkpt lat="53.85945777052393" lon="11.027275578757308"><ele>23.0</ele><time>2026-03-22T12:49:32.998Z</time></trkpt><trkpt lat="53.85943860386476" lon="11.027566775746784"><ele>23.0</ele><time>2026-03-22T12:49:33.998Z</time></trkpt><trkpt lat="53.85942085204216" lon="11.027883138195692"><ele>23.0</ele><time>2026-03-22T12:49:34.998Z</time></trkpt><trkpt lat="53.85940851677554" lon="11.028206333176712"><ele>23.0</ele><time>2026-03-22T12:49:35.998Z</time></trkpt><trkpt lat="53.85939244997175" lon="11.028525768930068"><ele>23.0</ele><time>2026-03-22T12:49:36.998Z</time></trkpt><trkpt lat="53.85937788738897" lon="11.028831597947388"><ele>23.0</ele><time>2026-03-22T12:49:37.998Z</time></trkpt><trkpt lat="53.859362508020304" lon="11.029132112096768"><ele>23.666666666666668</ele><time>2026-03-22T12:49:38.998Z</time></trkpt><trkpt lat="53.85934264794059" lon="11.029425028421134"><ele>24.333333333333336</ele><time>2026-03-22T12:49:39.998Z</time></trkpt><trkpt lat="53.85933342036399" lon="11.029720329305688"><ele>25.0</ele><time>2026-03-22T12:49:40.998Z</time></trkpt><trkpt lat="53.85932975781713" lon="11.029996772988824"><ele>25.25</ele><time>2026-03-22T12:49:41.998Z</time></trkpt><trkpt lat="53.85933006398787" lon="11.030231616108171"><ele>25.5</ele><time>2026-03-22T12:49:42.998Z</time></trkpt><trkpt lat="53.859375009965234" lon="11.030459343760123"><ele>25.75</ele><time>2026-03-22T12:49:43.998Z</time></trkpt><trkpt lat="53.85941105611343" lon="11.030695757671566"><ele>26.0</ele><time>2026-03-22T12:49:44.998Z</time></trkpt><trkpt lat="53.859455306767195" lon="11.030942743400281"><ele>26.0</ele><time>2026-03-22T12:49:45.998Z</time></trkpt><trkpt lat="53.85955678878973" lon="11.031109533301288"><ele>26.0</ele><time>2026-03-22T12:49:46.998Z</time></trkpt><trkpt lat="53.85967109363406" lon="11.031289104844586"><ele>26.0</ele><time>2026-03-22T12:49:47.998Z</time></trkpt><trkpt lat="53.85979846580403" lon="11.03147782519343"><ele>26.0</ele><time>2026-03-22T12:49:48.998Z</time></trkpt><trkpt lat="53.85992393781585" lon="11.031673754771584"><ele>26.0</ele><time>2026-03-22T12:49:49.998Z</time></trkpt><trkpt lat="53.860059105513244" lon="11.031855518132513"><ele>26.0</ele><time>2026-03-22T12:49:50.998Z</time></trkpt><trkpt lat="53.860204207574775" lon="11.032057794582014"><ele>26.0</ele><time>2026-03-22T12:49:51.998Z</time></trkpt><trkpt lat="53.860352613173646" lon="11.032269573439805"><ele>26.0</ele><time>2026-03-22T12:49:52.998Z</time></trkpt><trkpt lat="53.860495810005816" lon="11.032483047369238"><ele>26.0</ele><time>2026-03-22T12:49:53.997Z</time></trkpt><trkpt lat="53.86064006942951" lon="11.032689086379287"><ele>26.0</ele><time>2026-03-22T12:49:54.997Z</time></trkpt><trkpt lat="53.86077653711967" lon="11.032871943589434"><ele>26.0</ele><time>2026-03-22T12:49:55.997Z</time></trkpt><trkpt lat="53.86090391531972" lon="11.033071543448154"><ele>26.0</ele><time>2026-03-22T12:49:56.997Z</time></trkpt><trkpt lat="53.861042339697036" lon="11.033260535276177"><ele>25.333333333333332</ele><time>2026-03-22T12:49:57.997Z</time></trkpt><trkpt lat="53.861174615826215" lon="11.033460676441397"><ele>24.666666666666664</ele><time>2026-03-22T12:49:58.997Z</time></trkpt><trkpt lat="53.86130878712745" lon="11.033662302753712"><ele>24.0</ele><time>2026-03-22T12:49:59.997Z</time></trkpt><trkpt lat="53.861440318590766" lon="11.033869209064534"><ele>24.0</ele><time>2026-03-22T12:50:00.997Z</time></trkpt><trkpt lat="53.86158184434896" lon="11.034074264787707"><ele>24.0</ele><time>2026-03-22T12:50:01.997Z</time></trkpt><trkpt lat="53.86171259342059" lon="11.034306783385626"><ele>24.0</ele><time>2026-03-22T12:50:02.997Z</time></trkpt><trkpt lat="53.86185775624841" lon="11.034522432109263"><ele>23.0</ele><time>2026-03-22T12:50:03.997Z</time></trkpt><trkpt lat="53.86201198403173" lon="11.034716268602443"><ele>22.0</ele><time>2026-03-22T12:50:04.997Z</time></trkpt><trkpt lat="53.86213968531966" lon="11.034922879514456"><ele>21.0</ele><time>2026-03-22T12:50:05.997Z</time></trkpt><trkpt lat="53.86228457091931" lon="11.035031179132236"><ele>21.0</ele><time>2026-03-22T12:50:06.997Z</time></trkpt><trkpt lat="53.86243548890781" lon="11.035078986611115"><ele>21.0</ele><time>2026-03-22T12:50:07.997Z</time></trkpt><trkpt lat="53.862613248013716" lon="11.035126563648022"><ele>21.0</ele><time>2026-03-22T12:50:08.997Z</time></trkpt><trkpt lat="53.86280117133335" lon="11.03519339705374"><ele>20.666666666666668</ele><time>2026-03-22T12:50:09.997Z</time></trkpt><trkpt lat="53.862973821867705" lon="11.035245876041724"><ele>20.333333333333336</ele><time>2026-03-22T12:50:10.997Z</time></trkpt><trkpt lat="53.86311906634015" lon="11.0353365122772"><ele>20.0</ele><time>2026-03-22T12:50:11.997Z</time></trkpt><trkpt lat="53.86324068760944" lon="11.035490709425437"><ele>20.0</ele><time>2026-03-22T12:50:12.997Z</time></trkpt><trkpt lat="53.86335700502404" lon="11.03563902485923"><ele>20.0</ele><time>2026-03-22T12:50:13.997Z</time></trkpt><trkpt lat="53.86344147141254" lon="11.035787482989054"><ele>20.0</ele><time>2026-03-22T12:50:14.997Z</time></trkpt><trkpt lat="53.86352602205522" lon="11.035903622595338"><ele>20.0</ele><time>2026-03-22T12:50:15.997Z</time></trkpt><trkpt lat="53.86358890135012" lon="11.036058285918699"><ele>20.0</ele><time>2026-03-22T12:50:16.997Z</time></trkpt><trkpt lat="53.86366153386109" lon="11.036167993021886"><ele>20.0</ele><time>2026-03-22T12:50:17.997Z</time></trkpt><trkpt lat="53.86372668857455" lon="11.036259508518645"><ele>20.0</ele><time>2026-03-22T12:50:18.997Z</time></trkpt><trkpt lat="53.86379315752442" lon="11.036322858225294"><ele>20.0</ele><time>2026-03-22T12:50:19.997Z</time></trkpt><trkpt lat="53.86368704898709" lon="11.036537125882472"><ele>20.0</ele><time>2026-03-22T12:50:22.997Z</time></trkpt><trkpt lat="53.863618086281086" lon="11.03665190414444"><ele>20.0</ele><time>2026-03-22T12:50:23.997Z</time></trkpt><trkpt lat="53.86354104000965" lon="11.03678077166279"><ele>20.0</ele><time>2026-03-22T12:50:24.997Z</time></trkpt><trkpt lat="53.86345855009348" lon="11.036920158562756"><ele>20.0</ele><time>2026-03-22T12:50:25.997Z</time></trkpt><trkpt lat="53.86339197654556" lon="11.037069400982702"><ele>20.0</ele><time>2026-03-22T12:50:26.997Z</time></trkpt><trkpt lat="53.86331267003786" lon="11.037189877947606"><ele>20.0</ele><time>2026-03-22T12:50:27.997Z</time></trkpt><trkpt lat="53.863227249270224" lon="11.03732925096265"><ele>20.0</ele><time>2026-03-22T12:50:28.997Z</time></trkpt><trkpt lat="53.86313499160378" lon="11.037463731521814"><ele>20.0</ele><time>2026-03-22T12:50:29.997Z</time></trkpt><trkpt lat="53.863042743700646" lon="11.037609554343751"><ele>20.0</ele><time>2026-03-22T12:50:30.997Z</time></trkpt><trkpt lat="53.86294904551299" lon="11.03775998071064"><ele>20.0</ele><time>2026-03-22T12:50:31.997Z</time></trkpt><trkpt lat="53.86284397999627" lon="11.037898183310327"><ele>20.0</ele><time>2026-03-22T12:50:32.997Z</time></trkpt><trkpt lat="53.86275453308439" lon="11.03811584237765"><ele>20.0</ele><time>2026-03-22T12:50:33.997Z</time></trkpt><trkpt lat="53.86263819200693" lon="11.038282509226008"><ele>20.0</ele><time>2026-03-22T12:50:34.997Z</time></trkpt><trkpt lat="53.86253373363604" lon="11.03845630728353"><ele>20.0</ele><time>2026-03-22T12:50:35.997Z</time></trkpt><trkpt lat="53.86242663930863" lon="11.038634486905774"><ele>20.0</ele><time>2026-03-22T12:50:36.997Z</time></trkpt><trkpt lat="53.862319019635876" lon="11.038813014740144"><ele>20.0</ele><time>2026-03-22T12:50:37.997Z</time></trkpt><trkpt lat="53.86221422754068" lon="11.038986989386038"><ele>20.0</ele><time>2026-03-22T12:50:38.997Z</time></trkpt><trkpt lat="53.86211456551078" lon="11.039151288437838"><ele>20.5</ele><time>2026-03-22T12:50:39.997Z</time></trkpt><trkpt lat="53.862019572726496" lon="11.03930679256351"><ele>21.0</ele><time>2026-03-22T12:50:40.997Z</time></trkpt><trkpt lat="53.86192788865333" lon="11.039456880371477"><ele>21.5</ele><time>2026-03-22T12:50:41.997Z</time></trkpt><trkpt lat="53.861836620379925" lon="11.039606287624116"><ele>22.0</ele><time>2026-03-22T12:50:42.997Z</time></trkpt><trkpt lat="53.861744215955376" lon="11.039757554644016"><ele>22.5</ele><time>2026-03-22T12:50:43.997Z</time></trkpt><trkpt lat="53.86165027633218" lon="11.039912107092277"><ele>23.0</ele><time>2026-03-22T12:50:44.997Z</time></trkpt><trkpt lat="53.86156874665396" lon="11.040067506115705"><ele>23.5</ele><time>2026-03-22T12:50:45.997Z</time></trkpt><trkpt lat="53.861476493578046" lon="11.040198888124085"><ele>24.0</ele><time>2026-03-22T12:50:46.997Z</time></trkpt><trkpt lat="53.86139763002225" lon="11.040357390574956"><ele>24.25</ele><time>2026-03-22T12:50:47.997Z</time></trkpt><trkpt lat="53.86131070517567" lon="11.040503249472899"><ele>24.5</ele><time>2026-03-22T12:50:48.997Z</time></trkpt><trkpt lat="53.86122026280667" lon="11.040633830720648"><ele>24.75</ele><time>2026-03-22T12:50:49.997Z</time></trkpt><trkpt lat="53.861135262542085" lon="11.040762856776198"><ele>25.0</ele><time>2026-03-22T12:50:50.997Z</time></trkpt><trkpt lat="53.8610434819726" lon="11.040904092164997"><ele>25.25</ele><time>2026-03-22T12:50:51.997Z</time></trkpt><trkpt lat="53.86095641744497" lon="11.041062488745535"><ele>25.5</ele><time>2026-03-22T12:50:52.997Z</time></trkpt><trkpt lat="53.86086285492657" lon="11.041211656348262"><ele>25.75</ele><time>2026-03-22T12:50:53.997Z</time></trkpt><trkpt lat="53.86076971520071" lon="11.04137021962385"><ele>26.0</ele><time>2026-03-22T12:50:54.997Z</time></trkpt><trkpt lat="53.860673467912214" lon="11.041528767153238"><ele>26.25</ele><time>2026-03-22T12:50:55.997Z</time></trkpt><trkpt lat="53.860575515669076" lon="11.04168089745126"><ele>26.5</ele><time>2026-03-22T12:50:56.997Z</time></trkpt><trkpt lat="53.86047811406868" lon="11.041840445789566"><ele>26.75</ele><time>2026-03-22T12:50:58Z</time></trkpt><trkpt lat="53.860379182912006" lon="11.042011562072153"><ele>27.0</ele><time>2026-03-22T12:50:59Z</time></trkpt><trkpt lat="53.86027487858512" lon="11.042182495206697"><ele>27.0</ele><time>2026-03-22T12:51:00Z</time></trkpt><trkpt lat="53.86016656274841" lon="11.042376898648913"><ele>27.0</ele><time>2026-03-22T12:51:01Z</time></trkpt><trkpt lat="53.86003715257655" lon="11.042551901290823"><ele>27.0</ele><time>2026-03-22T12:51:02Z</time></trkpt><trkpt lat="53.859912171134106" lon="11.042753206162194"><ele>26.333333333333336</ele><time>2026-03-22T12:51:03Z</time></trkpt><trkpt lat="53.85977883586132" lon="11.04297127046622"><ele>25.666666666666668</ele><time>2026-03-22T12:51:04Z</time></trkpt><trkpt lat="53.85965325090557" lon="11.043200550003784"><ele>25.0</ele><time>2026-03-22T12:51:05Z</time></trkpt><trkpt lat="53.859518496190425" lon="11.043412292668371"><ele>25.0</ele><time>2026-03-22T12:51:06Z</time></trkpt><trkpt lat="53.85938939535384" lon="11.043623843088106"><ele>25.0</ele><time>2026-03-22T12:51:07Z</time></trkpt><trkpt lat="53.85926434682907" lon="11.043833629324954"><ele>25.0</ele><time>2026-03-22T12:51:08Z</time></trkpt><trkpt lat="53.859132574952525" lon="11.04401917188865"><ele>23.666666666666668</ele><time>2026-03-22T12:51:09Z</time></trkpt><trkpt lat="53.85900393559549" lon="11.044196639955665"><ele>22.333333333333336</ele><time>2026-03-22T12:51:10Z</time></trkpt><trkpt lat="53.858888734217246" lon="11.044364485899322"><ele>21.0</ele><time>2026-03-22T12:51:11Z</time></trkpt><trkpt lat="53.858786643298465" lon="11.044522463122595"><ele>21.0</ele><time>2026-03-22T12:51:12Z</time></trkpt><trkpt lat="53.8586954335508" lon="11.04468088901689"><ele>21.0</ele><time>2026-03-22T12:51:13Z</time></trkpt><trkpt lat="53.858626110028425" lon="11.04485598993412"><ele>21.0</ele><time>2026-03-22T12:51:14Z</time></trkpt><trkpt lat="53.85857816529924" lon="11.045054120546139"><ele>21.0</ele><time>2026-03-22T12:51:15Z</time></trkpt><trkpt lat="53.85855138119486" lon="11.045260942158148"><ele>21.0</ele><time>2026-03-22T12:51:16Z</time></trkpt><trkpt lat="53.85857298719573" lon="11.045454869701057"><ele>21.0</ele><time>2026-03-22T12:51:17Z</time></trkpt><trkpt lat="53.85858811522486" lon="11.045665514891496"><ele>21.0</ele><time>2026-03-22T12:51:18Z</time></trkpt><trkpt lat="53.85859425866379" lon="11.045882406118693"><ele>21.0</ele><time>2026-03-22T12:51:19Z</time></trkpt><trkpt lat="53.85859859776907" lon="11.04609217543614"><ele>21.0</ele><time>2026-03-22T12:51:20Z</time></trkpt><trkpt lat="53.85860169229129" lon="11.046308080763652"><ele>21.0</ele><time>2026-03-22T12:51:21Z</time></trkpt><trkpt lat="53.85860572654455" lon="11.04652717733498"><ele>21.0</ele><time>2026-03-22T12:51:22Z</time></trkpt><trkpt lat="53.85860397398742" lon="11.046761672665799"><ele>21.0</ele><time>2026-03-22T12:51:23Z</time></trkpt><trkpt lat="53.85860672277009" lon="11.047003045520215"><ele>21.0</ele><time>2026-03-22T12:51:24Z</time></trkpt><trkpt lat="53.85860618828845" lon="11.047234325234065"><ele>21.0</ele><time>2026-03-22T12:51:25Z</time></trkpt><trkpt lat="53.85860911494012" lon="11.047458796063156"><ele>21.0</ele><time>2026-03-22T12:51:26Z</time></trkpt><trkpt lat="53.858615995529775" lon="11.047698575988793"><ele>21.0</ele><time>2026-03-22T12:51:27Z</time></trkpt><trkpt lat="53.858619995083124" lon="11.047944993739742"><ele>21.25</ele><time>2026-03-22T12:51:28Z</time></trkpt><trkpt lat="53.85861990926255" lon="11.048179248795229"><ele>21.5</ele><time>2026-03-22T12:51:29Z</time></trkpt><trkpt lat="53.85861992045689" lon="11.048420688730982"><ele>21.75</ele><time>2026-03-22T12:51:30Z</time></trkpt><trkpt lat="53.858619032759535" lon="11.048666676963089"><ele>22.0</ele><time>2026-03-22T12:51:31Z</time></trkpt><trkpt lat="53.858618611978194" lon="11.04891557668026"><ele>22.0</ele><time>2026-03-22T12:51:31.999Z</time></trkpt><trkpt lat="53.85861928892066" lon="11.04916724636547"><ele>22.0</ele><time>2026-03-22T12:51:32.999Z</time></trkpt><trkpt lat="53.85861726478419" lon="11.049420164756492"><ele>22.0</ele><time>2026-03-22T12:51:33.999Z</time></trkpt><trkpt lat="53.858616415627004" lon="11.04967655701338"><ele>22.0</ele><time>2026-03-22T12:51:34.999Z</time></trkpt><trkpt lat="53.85861506440625" lon="11.049940283562806"><ele>21.666666666666664</ele><time>2026-03-22T12:51:35.999Z</time></trkpt><trkpt lat="53.85861004708227" lon="11.050211381133412"><ele>21.333333333333332</ele><time>2026-03-22T12:51:36.999Z</time></trkpt><trkpt lat="53.858604517046146" lon="11.050483206017846"><ele>21.0</ele><time>2026-03-22T12:51:37.999Z</time></trkpt><trkpt lat="53.85860465929574" lon="11.050756928786889"><ele>20.666666666666668</ele><time>2026-03-22T12:51:38.999Z</time></trkpt><trkpt lat="53.858609287759585" lon="11.051035067417532"><ele>20.333333333333336</ele><time>2026-03-22T12:51:39.999Z</time></trkpt><trkpt lat="53.858604910668966" lon="11.051326137552758"><ele>20.0</ele><time>2026-03-22T12:51:40.999Z</time></trkpt><trkpt lat="53.85859953795493" lon="11.051622852705972"><ele>20.0</ele><time>2026-03-22T12:51:41.999Z</time></trkpt><trkpt lat="53.85859109070353" lon="11.051919100831938"><ele>20.0</ele><time>2026-03-22T12:51:42.999Z</time></trkpt><trkpt lat="53.858587093936634" lon="11.052212729881964"><ele>20.0</ele><time>2026-03-22T12:51:43.999Z</time></trkpt><trkpt lat="53.85858497052302" lon="11.052507137945902"><ele>20.0</ele><time>2026-03-22T12:51:44.999Z</time></trkpt><trkpt lat="53.85858275594723" lon="11.052796613207496"><ele>20.0</ele><time>2026-03-22T12:51:45.999Z</time></trkpt><trkpt lat="53.85858283733807" lon="11.05305153522407"><ele>20.0</ele><time>2026-03-22T12:51:46.999Z</time></trkpt><trkpt lat="53.858580440182344" lon="11.053290545639756"><ele>20.0</ele><time>2026-03-22T12:51:47.999Z</time></trkpt><trkpt lat="53.858575399623845" lon="11.05351329787932"><ele>20.0</ele><time>2026-03-22T12:51:48.999Z</time></trkpt><trkpt lat="53.858572938997696" lon="11.053709642126387"><ele>20.0</ele><time>2026-03-22T12:51:49.999Z</time></trkpt><trkpt lat="53.8585718213699" lon="11.053908818828477"><ele>20.0</ele><time>2026-03-22T12:51:50.999Z</time></trkpt><trkpt lat="53.85857049877861" lon="11.054094070737083"><ele>20.166666666666668</ele><time>2026-03-22T12:51:51.999Z</time></trkpt><trkpt lat="53.8585700470307" lon="11.054265290762407"><ele>20.333333333333336</ele><time>2026-03-22T12:51:52.999Z</time></trkpt><trkpt lat="53.85856714562831" lon="11.054425602531104"><ele>20.5</ele><time>2026-03-22T12:51:53.999Z</time></trkpt><trkpt lat="53.85856642056912" lon="11.0545585123994"><ele>20.666666666666668</ele><time>2026-03-22T12:51:54.999Z</time></trkpt><trkpt lat="53.8585628375299" lon="11.054676913681877"><ele>20.833333333333332</ele><time>2026-03-22T12:51:55.999Z</time></trkpt><trkpt lat="53.85854964654128" lon="11.054851339136958"><ele>21.0</ele><time>2026-03-22T12:51:57.999Z</time></trkpt><trkpt lat="53.85853955297237" lon="11.05507756962995"><ele>21.0</ele><time>2026-03-22T12:51:59.999Z</time></trkpt><trkpt lat="53.85853351686479" lon="11.055210542842618"><ele>21.0</ele><time>2026-03-22T12:52:00.999Z</time></trkpt><trkpt lat="53.858526917862626" lon="11.055357006719063"><ele>21.0</ele><time>2026-03-22T12:52:01.999Z</time></trkpt><trkpt lat="53.85852337103548" lon="11.055497374627764"><ele>21.0</ele><time>2026-03-22T12:52:02.999Z</time></trkpt><trkpt lat="53.85852180856774" lon="11.055638540261787"><ele>21.0</ele><time>2026-03-22T12:52:03.999Z</time></trkpt><trkpt lat="53.8585181258372" lon="11.055781100492974"><ele>21.0</ele><time>2026-03-22T12:52:04.999Z</time></trkpt><trkpt lat="53.8585148424476" lon="11.05594868643022"><ele>20.8</ele><time>2026-03-22T12:52:05.999Z</time></trkpt><trkpt lat="53.85850798045324" lon="11.056130876275743"><ele>20.6</ele><time>2026-03-22T12:52:06.999Z</time></trkpt><trkpt lat="53.85850010731315" lon="11.056322010892554"><ele>20.4</ele><time>2026-03-22T12:52:07.999Z</time></trkpt><trkpt lat="53.85849424601849" lon="11.056509871868654"><ele>20.2</ele><time>2026-03-22T12:52:08.999Z</time></trkpt><trkpt lat="53.858484994333764" lon="11.05669227555355"><ele>20.0</ele><time>2026-03-22T12:52:09.999Z</time></trkpt><trkpt lat="53.858479285837475" lon="11.056871075723576"><ele>20.0</ele><time>2026-03-22T12:52:10.999Z</time></trkpt><trkpt lat="53.85848065308715" lon="11.057028141769337"><ele>20.0</ele><time>2026-03-22T12:52:11.999Z</time></trkpt><trkpt lat="53.85847887158293" lon="11.057160507519182"><ele>20.0</ele><time>2026-03-22T12:52:12.999Z</time></trkpt><trkpt lat="53.858473221829435" lon="11.057325452279642"><ele>20.0</ele><time>2026-03-22T12:52:14.999Z</time></trkpt><trkpt lat="53.858464910346925" lon="11.057445295028616"><ele>20.0</ele><time>2026-03-22T12:52:17.999Z</time></trkpt><trkpt lat="53.85849124332811" lon="11.05756671747238"><ele>20.0</ele><time>2026-03-22T12:54:17.999Z</time></trkpt><trkpt lat="53.85844209453841" lon="11.057639768736225"><ele>20.0</ele><time>2026-03-22T12:54:41.999Z</time></trkpt><trkpt lat="53.85837628278158" lon="11.057675940893551"><ele>20.0</ele><time>2026-03-22T12:54:46.999Z</time></trkpt><trkpt lat="53.858450236331265" lon="11.0576337119634"><ele>20.0</ele><time>2026-03-22T12:54:49.999Z</time></trkpt><trkpt lat="53.858510664441724" lon="11.057599348984157"><ele>20.0</ele><time>2026-03-22T12:54:53.999Z</time></trkpt><trkpt lat="53.8585276772034" lon="11.057739560458486"><ele>20.0</ele><time>2026-03-22T12:55:49.998Z</time></trkpt><trkpt lat="53.85850906813081" lon="11.057885302786548"><ele>20.0</ele><time>2026-03-22T12:55:51.998Z</time></trkpt><trkpt lat="53.85848931862607" lon="11.05805482943853"><ele>19.8</ele><time>2026-03-22T12:55:53.998Z</time></trkpt><trkpt lat="53.8584930452734" lon="11.058166020941394"><ele>19.6</ele><time>2026-03-22T12:55:54.998Z</time></trkpt><trkpt lat="53.858480948931565" lon="11.05830876889378"><ele>19.4</ele><time>2026-03-22T12:55:55.998Z</time></trkpt><trkpt lat="53.85847525630731" lon="11.058464463161231"><ele>19.2</ele><time>2026-03-22T12:55:56.998Z</time></trkpt><trkpt lat="53.85846312278236" lon="11.058643954221901"><ele>19.0</ele><time>2026-03-22T12:55:57.998Z</time></trkpt><trkpt lat="53.858448213521854" lon="11.05883235236047"><ele>19.0</ele><time>2026-03-22T12:55:58.998Z</time></trkpt><trkpt lat="53.85843587953589" lon="11.059032366734165"><ele>19.0</ele><time>2026-03-22T12:55:59.998Z</time></trkpt><trkpt lat="53.85843129161337" lon="11.059243750687582"><ele>19.0</ele><time>2026-03-22T12:56:00.998Z</time></trkpt><trkpt lat="53.85842804544153" lon="11.05946930551063"><ele>19.0</ele><time>2026-03-22T12:56:01.998Z</time></trkpt><trkpt lat="53.85843180398493" lon="11.059705363998914"><ele>19.0</ele><time>2026-03-22T12:56:02.998Z</time></trkpt><trkpt lat="53.858448103397514" lon="11.05994757099728"><ele>19.0</ele><time>2026-03-22T12:56:03.998Z</time></trkpt><trkpt lat="53.8584445680417" lon="11.0602095606117"><ele>19.0</ele><time>2026-03-22T12:56:04.998Z</time></trkpt><trkpt lat="53.85843598221468" lon="11.060468847050757"><ele>19.0</ele><time>2026-03-22T12:56:05.998Z</time></trkpt><trkpt lat="53.85843011453689" lon="11.060727440750751"><ele>19.0</ele><time>2026-03-22T12:56:06.998Z</time></trkpt><trkpt lat="53.858420131559186" lon="11.06098920930841"><ele>19.0</ele><time>2026-03-22T12:56:07.998Z</time></trkpt><trkpt lat="53.85841270729557" lon="11.061251566770691"><ele>18.666666666666664</ele><time>2026-03-22T12:56:08.998Z</time></trkpt><trkpt lat="53.85840597032643" lon="11.061519743341563"><ele>18.333333333333332</ele><time>2026-03-22T12:56:09.998Z</time></trkpt><trkpt lat="53.85840029651737" lon="11.061788879929379"><ele>18.0</ele><time>2026-03-22T12:56:10.998Z</time></trkpt><trkpt lat="53.85839673455143" lon="11.062065697841064"><ele>17.666666666666668</ele><time>2026-03-22T12:56:11.998Z</time></trkpt><trkpt lat="53.85839469761679" lon="11.062336329340312"><ele>17.333333333333336</ele><time>2026-03-22T12:56:12.998Z</time></trkpt><trkpt lat="53.85839289810647" lon="11.062605805711947"><ele>17.0</ele><time>2026-03-22T12:56:13.998Z</time></trkpt><trkpt lat="53.85839047103161" lon="11.062866240188264"><ele>16.75</ele><time>2026-03-22T12:56:14.998Z</time></trkpt><trkpt lat="53.85838074242936" lon="11.063126122785867"><ele>16.5</ele><time>2026-03-22T12:56:15.998Z</time></trkpt><trkpt lat="53.85837740530459" lon="11.06338618768643"><ele>16.25</ele><time>2026-03-22T12:56:16.998Z</time></trkpt><trkpt lat="53.85836992702558" lon="11.063624151107922"><ele>16.0</ele><time>2026-03-22T12:56:17.998Z</time></trkpt><trkpt lat="53.85836413702325" lon="11.06385778840051"><ele>16.0</ele><time>2026-03-22T12:56:18.998Z</time></trkpt><trkpt lat="53.858361661107736" lon="11.064086976007712"><ele>16.0</ele><time>2026-03-22T12:56:19.998Z</time></trkpt><trkpt lat="53.85836646859725" lon="11.06433951725984"><ele>16.0</ele><time>2026-03-22T12:56:20.998Z</time></trkpt><trkpt lat="53.85836576334858" lon="11.064588919468626"><ele>16.0</ele><time>2026-03-22T12:56:21.998Z</time></trkpt><trkpt lat="53.85836436205138" lon="11.064805783051442"><ele>15.25</ele><time>2026-03-22T12:56:22.998Z</time></trkpt><trkpt lat="53.85836251361593" lon="11.065035444097525"><ele>14.5</ele><time>2026-03-22T12:56:23.998Z</time></trkpt><trkpt lat="53.85836120751879" lon="11.065275015471274"><ele>13.75</ele><time>2026-03-22T12:56:24.998Z</time></trkpt><trkpt lat="53.85835683397032" lon="11.0655309621391"><ele>13.0</ele><time>2026-03-22T12:56:25.998Z</time></trkpt><trkpt lat="53.85834626040181" lon="11.065807090753133"><ele>12.333333333333332</ele><time>2026-03-22T12:56:26.998Z</time></trkpt><trkpt lat="53.85833588475716" lon="11.066063498734797"><ele>11.666666666666666</ele><time>2026-03-22T12:56:27.998Z</time></trkpt><trkpt lat="53.8583186171976" lon="11.066334116962079"><ele>11.0</ele><time>2026-03-22T12:56:28.998Z</time></trkpt><trkpt lat="53.858294494601324" lon="11.066597684951905"><ele>11.25</ele><time>2026-03-22T12:56:29.998Z</time></trkpt><trkpt lat="53.85826420214445" lon="11.066835832191103"><ele>11.5</ele><time>2026-03-22T12:56:30.998Z</time></trkpt><trkpt lat="53.85823062718735" lon="11.067075364516127"><ele>11.75</ele><time>2026-03-22T12:56:31.998Z</time></trkpt><trkpt lat="53.85819889215355" lon="11.067303323082383"><ele>12.0</ele><time>2026-03-22T12:56:32.998Z</time></trkpt><trkpt lat="53.85817588078369" lon="11.067552408893198"><ele>12.333333333333332</ele><time>2026-03-22T12:56:33.998Z</time></trkpt><trkpt lat="53.858148153323526" lon="11.067811190691879"><ele>12.666666666666666</ele><time>2026-03-22T12:56:34.998Z</time></trkpt><trkpt lat="53.85810222883674" lon="11.068069755026828"><ele>13.0</ele><time>2026-03-22T12:56:35.998Z</time></trkpt><trkpt lat="53.85808754540939" lon="11.068344935265213"><ele>13.0</ele><time>2026-03-22T12:56:36.998Z</time></trkpt><trkpt lat="53.85805070042283" lon="11.068613102405438"><ele>13.0</ele><time>2026-03-22T12:56:37.998Z</time></trkpt><trkpt lat="53.85802670246026" lon="11.068880678106034"><ele>13.0</ele><time>2026-03-22T12:56:38.998Z</time></trkpt><trkpt lat="53.85801090020602" lon="11.069157622304731"><ele>13.0</ele><time>2026-03-22T12:56:39.998Z</time></trkpt><trkpt lat="53.85798193909281" lon="11.069448349793044"><ele>13.0</ele><time>2026-03-22T12:56:40.998Z</time></trkpt><trkpt lat="53.8579555129582" lon="11.069713629945428"><ele>13.0</ele><time>2026-03-22T12:56:41.998Z</time></trkpt><trkpt lat="53.85793062297463" lon="11.0699634905049"><ele>13.25</ele><time>2026-03-22T12:56:42.998Z</time></trkpt><trkpt lat="53.857907451732316" lon="11.070198779850845"><ele>13.5</ele><time>2026-03-22T12:56:43.998Z</time></trkpt><trkpt lat="53.857885175828976" lon="11.070428227754656"><ele>13.75</ele><time>2026-03-22T12:56:44.998Z</time></trkpt><trkpt lat="53.85786371473233" lon="11.070649283077778"><ele>14.0</ele><time>2026-03-22T12:56:45.998Z</time></trkpt><trkpt lat="53.85782496074506" lon="11.07085838301091"><ele>14.399999999999999</ele><time>2026-03-22T12:56:46.998Z</time></trkpt><trkpt lat="53.85780892699721" lon="11.071070058291934"><ele>14.799999999999999</ele><time>2026-03-22T12:56:47.998Z</time></trkpt><trkpt lat="53.85779764598914" lon="11.071265614889088"><ele>15.200000000000001</ele><time>2026-03-22T12:56:48.998Z</time></trkpt><trkpt lat="53.8577831187859" lon="11.071436697816576"><ele>15.600000000000001</ele><time>2026-03-22T12:56:49.998Z</time></trkpt><trkpt lat="53.85776961921075" lon="11.071578484710406"><ele>16.0</ele><time>2026-03-22T12:56:50.998Z</time></trkpt><trkpt lat="53.857758837063585" lon="11.071695445703877"><ele>15.999999999999998</ele><time>2026-03-22T12:56:51.998Z</time></trkpt><trkpt lat="53.85774556245565" lon="11.07187302034242"><ele>16.0</ele><time>2026-03-22T12:56:53.998Z</time></trkpt><trkpt lat="53.85773938855665" lon="11.072024922046355"><ele>16.0</ele><time>2026-03-22T12:56:55.998Z</time></trkpt><trkpt lat="53.857778090427296" lon="11.072113756428513"><ele>16.0</ele><time>2026-03-22T12:56:56.998Z</time></trkpt><trkpt lat="53.85782731773264" lon="11.072205709469385"><ele>15.999999999999998</ele><time>2026-03-22T12:56:57.998Z</time></trkpt><trkpt lat="53.85787647123269" lon="11.0723121508847"><ele>16.0</ele><time>2026-03-22T12:56:58.998Z</time></trkpt><trkpt lat="53.85793624051653" lon="11.072432477589237"><ele>16.25</ele><time>2026-03-22T12:56:59.998Z</time></trkpt><trkpt lat="53.85800663041449" lon="11.072570702943846"><ele>16.5</ele><time>2026-03-22T12:57:00.998Z</time></trkpt><trkpt lat="53.85807979321324" lon="11.07272955517526"><ele>16.75</ele><time>2026-03-22T12:57:01.998Z</time></trkpt><trkpt lat="53.85814753417377" lon="11.072894987006146"><ele>17.0</ele><time>2026-03-22T12:57:02.998Z</time></trkpt><trkpt lat="53.85822262392853" lon="11.07307724823429"><ele>17.0</ele><time>2026-03-22T12:57:03.998Z</time></trkpt><trkpt lat="53.858298497904805" lon="11.073266030035047"><ele>17.0</ele><time>2026-03-22T12:57:04.998Z</time></trkpt><trkpt lat="53.858382080624" lon="11.073476976282311"><ele>17.0</ele><time>2026-03-22T12:57:05.998Z</time></trkpt><trkpt lat="53.85847189767381" lon="11.073693495130344"><ele>17.0</ele><time>2026-03-22T12:57:06.998Z</time></trkpt><trkpt lat="53.85855716600455" lon="11.073896520176872"><ele>17.0</ele><time>2026-03-22T12:57:07.998Z</time></trkpt><trkpt lat="53.85863955315966" lon="11.074103673559604"><ele>17.0</ele><time>2026-03-22T12:57:08.998Z</time></trkpt><trkpt lat="53.8587281668207" lon="11.074310795170712"><ele>17.0</ele><time>2026-03-22T12:57:09.998Z</time></trkpt><trkpt lat="53.85881471035594" lon="11.07452155900259"><ele>17.0</ele><time>2026-03-22T12:57:10.998Z</time></trkpt><trkpt lat="53.85890071079007" lon="11.07473104754464"><ele>17.0</ele><time>2026-03-22T12:57:11.998Z</time></trkpt><trkpt lat="53.858990540476746" lon="11.074942907313861"><ele>17.0</ele><time>2026-03-22T12:57:12.998Z</time></trkpt><trkpt lat="53.859081867745424" lon="11.075156806018235"><ele>17.0</ele><time>2026-03-22T12:57:13.998Z</time></trkpt><trkpt lat="53.85916800742577" lon="11.075366607424572"><ele>17.0</ele><time>2026-03-22T12:57:14.998Z</time></trkpt><trkpt lat="53.85925513782412" lon="11.075573973343351"><ele>17.0</ele><time>2026-03-22T12:57:15.998Z</time></trkpt><trkpt lat="53.85934419515238" lon="11.075789743217946"><ele>17.666666666666668</ele><time>2026-03-22T12:57:16.998Z</time></trkpt><trkpt lat="53.859431444776874" lon="11.075998301168237"><ele>18.333333333333332</ele><time>2026-03-22T12:57:17.998Z</time></trkpt><trkpt lat="53.85952292391726" lon="11.076202285363028"><ele>19.0</ele><time>2026-03-22T12:57:18.998Z</time></trkpt><trkpt lat="53.859612638293555" lon="11.076441968711958"><ele>18.666666666666664</ele><time>2026-03-22T12:57:19.998Z</time></trkpt><trkpt lat="53.85970339622769" lon="11.076696388166301"><ele>18.333333333333332</ele><time>2026-03-22T12:57:20.998Z</time></trkpt><trkpt lat="53.85980486107772" lon="11.076926431588673"><ele>18.0</ele><time>2026-03-22T12:57:21.998Z</time></trkpt><trkpt lat="53.85989570016328" lon="11.07717924516352"><ele>18.0</ele><time>2026-03-22T12:57:22.998Z</time></trkpt><trkpt lat="53.85999764412249" lon="11.077417040870072"><ele>18.0</ele><time>2026-03-22T12:57:23.998Z</time></trkpt><trkpt lat="53.86009455524716" lon="11.077691939199935"><ele>18.0</ele><time>2026-03-22T12:57:24.998Z</time></trkpt><trkpt lat="53.86020871116986" lon="11.077966281014907"><ele>17.0</ele><time>2026-03-22T12:57:25.998Z</time></trkpt><trkpt lat="53.86032927956632" lon="11.078232770261367"><ele>16.0</ele><time>2026-03-22T12:57:26.998Z</time></trkpt><trkpt lat="53.86044458590922" lon="11.078492990038894"><ele>15.0</ele><time>2026-03-22T12:57:27.998Z</time></trkpt><trkpt lat="53.86054748766625" lon="11.078752781152474"><ele>15.0</ele><time>2026-03-22T12:57:28.998Z</time></trkpt><trkpt lat="53.86062836275594" lon="11.079020183604808"><ele>15.0</ele><time>2026-03-22T12:57:29.998Z</time></trkpt><trkpt lat="53.86072158867395" lon="11.079300802620628"><ele>15.0</ele><time>2026-03-22T12:57:30.998Z</time></trkpt><trkpt lat="53.86084424283207" lon="11.079504370481004"><ele>15.0</ele><time>2026-03-22T12:57:31.998Z</time></trkpt><trkpt lat="53.860949785552044" lon="11.079769278980741"><ele>15.0</ele><time>2026-03-22T12:57:32.998Z</time></trkpt><trkpt lat="53.86104556681148" lon="11.080029284322064"><ele>15.0</ele><time>2026-03-22T12:57:33.998Z</time></trkpt><trkpt lat="53.86114324816746" lon="11.080247745209656"><ele>14.75</ele><time>2026-03-22T12:57:34.998Z</time></trkpt><trkpt lat="53.86122346147753" lon="11.08045746227257"><ele>14.5</ele><time>2026-03-22T12:57:35.998Z</time></trkpt><trkpt lat="53.86130217801191" lon="11.080649044720161"><ele>14.25</ele><time>2026-03-22T12:57:36.998Z</time></trkpt><trkpt lat="53.86139078003524" lon="11.08082010687936"><ele>14.0</ele><time>2026-03-22T12:57:37.998Z</time></trkpt><trkpt lat="53.861446807863786" lon="11.080994741869748"><ele>14.000000000000002</ele><time>2026-03-22T12:57:38.998Z</time></trkpt><trkpt lat="53.86149149237944" lon="11.081136391561582"><ele>14.0</ele><time>2026-03-22T12:57:39.998Z</time></trkpt><trkpt lat="53.86151873067643" lon="11.08123564607575"><ele>14.0</ele><time>2026-03-22T12:57:40.998Z</time></trkpt><trkpt lat="53.86156646809879" lon="11.081370558595427"><ele>14.0</ele><time>2026-03-22T12:57:42.998Z</time></trkpt><trkpt lat="53.861607943919786" lon="11.081485437037518"><ele>14.000000000000002</ele><time>2026-03-22T12:57:44.998Z</time></trkpt><trkpt lat="53.86156650756945" lon="11.081593908741064"><ele>14.0</ele><time>2026-03-22T12:57:45.998Z</time></trkpt><trkpt lat="53.86151841522486" lon="11.081710172273125"><ele>14.0</ele><time>2026-03-22T12:57:46.997Z</time></trkpt><trkpt lat="53.86146373458139" lon="11.081829002996862"><ele>13.999999999999998</ele><time>2026-03-22T12:57:47.997Z</time></trkpt><trkpt lat="53.86140763259298" lon="11.081950454480335"><ele>13.999999999999998</ele><time>2026-03-22T12:57:48.997Z</time></trkpt><trkpt lat="53.86135586734638" lon="11.082094500589982"><ele>14.0</ele><time>2026-03-22T12:57:49.997Z</time></trkpt><trkpt lat="53.861306002989195" lon="11.082265328240464"><ele>14.0</ele><time>2026-03-22T12:57:50.997Z</time></trkpt><trkpt lat="53.86123484036307" lon="11.082421320988411"><ele>14.25</ele><time>2026-03-22T12:57:51.997Z</time></trkpt><trkpt lat="53.86115223650453" lon="11.082578033816654"><ele>14.5</ele><time>2026-03-22T12:57:52.997Z</time></trkpt><trkpt lat="53.861060182614274" lon="11.082711394055123"><ele>14.75</ele><time>2026-03-22T12:57:53.997Z</time></trkpt><trkpt lat="53.86096869465747" lon="11.082857942277839"><ele>15.0</ele><time>2026-03-22T12:57:54.997Z</time></trkpt><trkpt lat="53.86086855051826" lon="11.083011009221675"><ele>16.0</ele><time>2026-03-22T12:57:55.997Z</time></trkpt><trkpt lat="53.86078081072543" lon="11.083176564701482"><ele>17.0</ele><time>2026-03-22T12:57:56.997Z</time></trkpt><trkpt lat="53.860678616266696" lon="11.083340262776447"><ele>18.0</ele><time>2026-03-22T12:57:57.997Z</time></trkpt><trkpt lat="53.860587583663886" lon="11.083508387041816"><ele>19.0</ele><time>2026-03-22T12:57:58.997Z</time></trkpt><trkpt lat="53.86051092213089" lon="11.083684214160918"><ele>19.0</ele><time>2026-03-22T12:57:59.997Z</time></trkpt><trkpt lat="53.86043685825025" lon="11.083898476407901"><ele>19.0</ele><time>2026-03-22T12:58:00.997Z</time></trkpt><trkpt lat="53.86036174457434" lon="11.084132981174722"><ele>19.0</ele><time>2026-03-22T12:58:01.997Z</time></trkpt><trkpt lat="53.86028698215709" lon="11.08438598485235"><ele>18.666666666666664</ele><time>2026-03-22T12:58:02.997Z</time></trkpt><trkpt lat="53.86021250686793" lon="11.08463794676404"><ele>18.333333333333332</ele><time>2026-03-22T12:58:04Z</time></trkpt><trkpt lat="53.86014586666772" lon="11.084887521854558"><ele>18.0</ele><time>2026-03-22T12:58:05Z</time></trkpt><trkpt lat="53.86007056095456" lon="11.085102604460003"><ele>18.666666666666668</ele><time>2026-03-22T12:58:06Z</time></trkpt><trkpt lat="53.859989751858365" lon="11.085343417149689"><ele>19.333333333333336</ele><time>2026-03-22T12:58:07Z</time></trkpt><trkpt lat="53.85990743850129" lon="11.085593231957095"><ele>20.0</ele><time>2026-03-22T12:58:08Z</time></trkpt><trkpt lat="53.85983901276165" lon="11.085839780336606"><ele>21.333333333333336</ele><time>2026-03-22T12:58:09Z</time></trkpt><trkpt lat="53.85977255101284" lon="11.086093975655066"><ele>22.666666666666668</ele><time>2026-03-22T12:58:10Z</time></trkpt><trkpt lat="53.85971458565222" lon="11.086350452462375"><ele>24.0</ele><time>2026-03-22T12:58:11Z</time></trkpt><trkpt lat="53.85964950334371" lon="11.086618247667419"><ele>26.0</ele><time>2026-03-22T12:58:12Z</time></trkpt><trkpt lat="53.85956049578874" lon="11.086854500612223"><ele>28.0</ele><time>2026-03-22T12:58:13Z</time></trkpt><trkpt lat="53.85948895748256" lon="11.08710480028599"><ele>30.0</ele><time>2026-03-22T12:58:14Z</time></trkpt><trkpt lat="53.85941476588649" lon="11.087364383502148"><ele>29.666666666666664</ele><time>2026-03-22T12:58:15Z</time></trkpt><trkpt lat="53.859337050982646" lon="11.087639858972155"><ele>29.333333333333332</ele><time>2026-03-22T12:58:16Z</time></trkpt><trkpt lat="53.859270838996444" lon="11.087914666957762"><ele>29.0</ele><time>2026-03-22T12:58:17Z</time></trkpt><trkpt lat="53.859200427455264" lon="11.088173663610958"><ele>29.0</ele><time>2026-03-22T12:58:18Z</time></trkpt><trkpt lat="53.85912464296584" lon="11.088424478700805"><ele>29.0</ele><time>2026-03-22T12:58:19Z</time></trkpt><trkpt lat="53.85906875994591" lon="11.08868086219254"><ele>29.0</ele><time>2026-03-22T12:58:20Z</time></trkpt><trkpt lat="53.85902443463337" lon="11.08895160657477"><ele>29.666666666666664</ele><time>2026-03-22T12:58:21Z</time></trkpt><trkpt lat="53.85898732379735" lon="11.089225187724283"><ele>30.333333333333336</ele><time>2026-03-22T12:58:22Z</time></trkpt><trkpt lat="53.85894871989836" lon="11.089491082580368"><ele>31.0</ele><time>2026-03-22T12:58:23Z</time></trkpt><trkpt lat="53.85889226093757" lon="11.089753932764188"><ele>30.666666666666668</ele><time>2026-03-22T12:58:24Z</time></trkpt><trkpt lat="53.8588322645847" lon="11.090003969858149"><ele>30.333333333333336</ele><time>2026-03-22T12:58:25Z</time></trkpt><trkpt lat="53.858792387479966" lon="11.090250891371019"><ele>30.0</ele><time>2026-03-22T12:58:26Z</time></trkpt><trkpt lat="53.858745329293036" lon="11.09049077781626"><ele>30.0</ele><time>2026-03-22T12:58:27Z</time></trkpt><trkpt lat="53.858690042553555" lon="11.09072058222768"><ele>30.0</ele><time>2026-03-22T12:58:28Z</time></trkpt><trkpt lat="53.85864268451488" lon="11.090954180584724"><ele>30.0</ele><time>2026-03-22T12:58:29Z</time></trkpt><trkpt lat="53.85858050923387" lon="11.091192221741938"><ele>30.0</ele><time>2026-03-22T12:58:30Z</time></trkpt><trkpt lat="53.85851866252886" lon="11.09145031948275"><ele>28.666666666666664</ele><time>2026-03-22T12:58:31Z</time></trkpt><trkpt lat="53.858453868678474" lon="11.091695513112807"><ele>27.333333333333332</ele><time>2026-03-22T12:58:32Z</time></trkpt><trkpt lat="53.858388551192526" lon="11.091920683834745"><ele>26.0</ele><time>2026-03-22T12:58:33Z</time></trkpt><trkpt lat="53.85832933739664" lon="11.09215376610321"><ele>26.0</ele><time>2026-03-22T12:58:34Z</time></trkpt><trkpt lat="53.85827334875126" lon="11.092400938129087"><ele>26.0</ele><time>2026-03-22T12:58:35Z</time></trkpt><trkpt lat="53.8582132110243" lon="11.092640886685475"><ele>26.0</ele><time>2026-03-22T12:58:36Z</time></trkpt><trkpt lat="53.858153824811346" lon="11.092898770680314"><ele>26.333333333333332</ele><time>2026-03-22T12:58:37Z</time></trkpt><trkpt lat="53.858102575517044" lon="11.093155168656494"><ele>26.666666666666664</ele><time>2026-03-22T12:58:38Z</time></trkpt><trkpt lat="53.8580491467442" lon="11.0934102093758"><ele>27.0</ele><time>2026-03-22T12:58:39Z</time></trkpt><trkpt lat="53.857989076659955" lon="11.093661739459572"><ele>27.333333333333336</ele><time>2026-03-22T12:58:40Z</time></trkpt><trkpt lat="53.8579335494119" lon="11.093909393352943"><ele>27.666666666666668</ele><time>2026-03-22T12:58:41Z</time></trkpt><trkpt lat="53.8578752727263" lon="11.094159927829251"><ele>28.0</ele><time>2026-03-22T12:58:42Z</time></trkpt><trkpt lat="53.857807937436384" lon="11.094403737024535"><ele>28.333333333333336</ele><time>2026-03-22T12:58:43Z</time></trkpt><trkpt lat="53.85775177695021" lon="11.094646396861396"><ele>28.666666666666664</ele><time>2026-03-22T12:58:44Z</time></trkpt><trkpt lat="53.85769067516996" lon="11.094897645913477"><ele>29.0</ele><time>2026-03-22T12:58:45Z</time></trkpt><trkpt lat="53.85763423839195" lon="11.095155888494165"><ele>29.0</ele><time>2026-03-22T12:58:46Z</time></trkpt><trkpt lat="53.857558275938715" lon="11.09539739568611"><ele>29.0</ele><time>2026-03-22T12:58:47Z</time></trkpt><trkpt lat="53.857498350985225" lon="11.095670858694982"><ele>29.0</ele><time>2026-03-22T12:58:48Z</time></trkpt><trkpt lat="53.857423676684675" lon="11.095949700445704"><ele>29.0</ele><time>2026-03-22T12:58:49Z</time></trkpt><trkpt lat="53.85735083310989" lon="11.096226730101806"><ele>29.0</ele><time>2026-03-22T12:58:50Z</time></trkpt><trkpt lat="53.85731895209291" lon="11.096513285741558"><ele>29.0</ele><time>2026-03-22T12:58:51Z</time></trkpt><trkpt lat="53.857290114883426" lon="11.096808180704238"><ele>28.666666666666664</ele><time>2026-03-22T12:58:52Z</time></trkpt><trkpt lat="53.857268217060444" lon="11.097124817430249"><ele>28.333333333333336</ele><time>2026-03-22T12:58:53Z</time></trkpt><trkpt lat="53.85727181791556" lon="11.097451409385005"><ele>28.0</ele><time>2026-03-22T12:58:54Z</time></trkpt><trkpt lat="53.857252627430825" lon="11.097759910369643"><ele>27.666666666666668</ele><time>2026-03-22T12:58:55Z</time></trkpt><trkpt lat="53.85723645235945" lon="11.09807093465978"><ele>27.333333333333336</ele><time>2026-03-22T12:58:56Z</time></trkpt><trkpt lat="53.85722129782041" lon="11.098371444413342"><ele>27.0</ele><time>2026-03-22T12:58:57Z</time></trkpt><trkpt lat="53.85720039412568" lon="11.098673650261912"><ele>27.0</ele><time>2026-03-22T12:58:58Z</time></trkpt><trkpt lat="53.85718551418585" lon="11.098971875239862"><ele>27.0</ele><time>2026-03-22T12:58:59Z</time></trkpt><trkpt lat="53.85716289343856" lon="11.099279483441268"><ele>27.0</ele><time>2026-03-22T12:59:00Z</time></trkpt><trkpt lat="53.857139450771754" lon="11.099577855873044"><ele>27.0</ele><time>2026-03-22T12:59:01Z</time></trkpt><trkpt lat="53.85712046095601" lon="11.099884164891153"><ele>27.0</ele><time>2026-03-22T12:59:02Z</time></trkpt><trkpt lat="53.85710978685724" lon="11.100188676096211"><ele>27.0</ele><time>2026-03-22T12:59:03Z</time></trkpt><trkpt lat="53.857100231099245" lon="11.100498609163779"><ele>26.666666666666664</ele><time>2026-03-22T12:59:04Z</time></trkpt><trkpt lat="53.8570911368018" lon="11.100796005826766"><ele>26.333333333333332</ele><time>2026-03-22T12:59:05Z</time></trkpt><trkpt lat="53.857071687964925" lon="11.10110707979635"><ele>26.0</ele><time>2026-03-22T12:59:06Z</time></trkpt><trkpt lat="53.857039389348465" lon="11.101400455738421"><ele>25.666666666666664</ele><time>2026-03-22T12:59:07Z</time></trkpt><trkpt lat="53.85703412338611" lon="11.101714950549324"><ele>25.333333333333336</ele><time>2026-03-22T12:59:08Z</time></trkpt><trkpt lat="53.8570120720918" lon="11.102019378201152"><ele>25.0</ele><time>2026-03-22T12:59:09Z</time></trkpt><trkpt lat="53.85698075088588" lon="11.102337269879008"><ele>25.0</ele><time>2026-03-22T12:59:10Z</time></trkpt><trkpt lat="53.856968674654375" lon="11.102656024794747"><ele>25.0</ele><time>2026-03-22T12:59:11Z</time></trkpt><trkpt lat="53.85694817912977" lon="11.102979781605196"><ele>25.0</ele><time>2026-03-22T12:59:12Z</time></trkpt><trkpt lat="53.85693575855447" lon="11.10328870185556"><ele>24.666666666666668</ele><time>2026-03-22T12:59:13Z</time></trkpt><trkpt lat="53.85691694765332" lon="11.103605016880369"><ele>24.333333333333336</ele><time>2026-03-22T12:59:14Z</time></trkpt><trkpt lat="53.85689804900373" lon="11.103923535052775"><ele>24.0</ele><time>2026-03-22T12:59:15Z</time></trkpt><trkpt lat="53.85686012658382" lon="11.10421213309182"><ele>23.666666666666668</ele><time>2026-03-22T12:59:16Z</time></trkpt><trkpt lat="53.85682795745771" lon="11.10451287661623"><ele>23.333333333333336</ele><time>2026-03-22T12:59:17Z</time></trkpt><trkpt lat="53.85681433238048" lon="11.104820932813743"><ele>23.0</ele><time>2026-03-22T12:59:18Z</time></trkpt><trkpt lat="53.85679670117362" lon="11.105117167849125"><ele>23.0</ele><time>2026-03-22T12:59:19Z</time></trkpt><trkpt lat="53.856778437294594" lon="11.105423585570987"><ele>23.0</ele><time>2026-03-22T12:59:20Z</time></trkpt><trkpt lat="53.856759769819526" lon="11.105736774911508"><ele>23.0</ele><time>2026-03-22T12:59:21Z</time></trkpt><trkpt lat="53.856741299442646" lon="11.106046657301919"><ele>23.0</ele><time>2026-03-22T12:59:22Z</time></trkpt><trkpt lat="53.85670942781185" lon="11.106366302142064"><ele>23.0</ele><time>2026-03-22T12:59:23Z</time></trkpt><trkpt lat="53.856707602656556" lon="11.106717808162749"><ele>23.0</ele><time>2026-03-22T12:59:24Z</time></trkpt><trkpt lat="53.85670004669863" lon="11.107063201912789"><ele>22.333333333333336</ele><time>2026-03-22T12:59:25Z</time></trkpt><trkpt lat="53.85668743839536" lon="11.107387951136873"><ele>21.666666666666668</ele><time>2026-03-22T12:59:26Z</time></trkpt><trkpt lat="53.85666337108688" lon="11.107710845535323"><ele>21.0</ele><time>2026-03-22T12:59:27Z</time></trkpt><trkpt lat="53.856641623757326" lon="11.10802763515911"><ele>19.666666666666668</ele><time>2026-03-22T12:59:28Z</time></trkpt><trkpt lat="53.85660521520714" lon="11.108343971718035"><ele>18.333333333333336</ele><time>2026-03-22T12:59:29Z</time></trkpt><trkpt lat="53.85657683081534" lon="11.10866754005675"><ele>17.0</ele><time>2026-03-22T12:59:30Z</time></trkpt><trkpt lat="53.8565444826713" lon="11.108994419316259"><ele>16.333333333333336</ele><time>2026-03-22T12:59:31Z</time></trkpt><trkpt lat="53.856525336567444" lon="11.109312897004616"><ele>15.666666666666668</ele><time>2026-03-22T12:59:32Z</time></trkpt><trkpt lat="53.85652708007408" lon="11.109635081250044"><ele>15.0</ele><time>2026-03-22T12:59:33Z</time></trkpt><trkpt lat="53.85651721838313" lon="11.109962769430691"><ele>14.333333333333332</ele><time>2026-03-22T12:59:34Z</time></trkpt><trkpt lat="53.85654421616628" lon="11.110311940356583"><ele>13.666666666666666</ele><time>2026-03-22T12:59:35Z</time></trkpt><trkpt lat="53.85658074948129" lon="11.110629462617366"><ele>13.0</ele><time>2026-03-22T12:59:36Z</time></trkpt><trkpt lat="53.856624684884586" lon="11.1109263593356"><ele>12.0</ele><time>2026-03-22T12:59:37Z</time></trkpt><trkpt lat="53.85666782869631" lon="11.111198177961061"><ele>11.0</ele><time>2026-03-22T12:59:38Z</time></trkpt><trkpt lat="53.85670272059864" lon="11.111460234109112"><ele>10.0</ele><time>2026-03-22T12:59:39Z</time></trkpt><trkpt lat="53.85673444340277" lon="11.111707548466509"><ele>9.5</ele><time>2026-03-22T12:59:40Z</time></trkpt><trkpt lat="53.85677092849342" lon="11.111923997077213"><ele>9.0</ele><time>2026-03-22T12:59:41Z</time></trkpt><trkpt lat="53.856818201317004" lon="11.112123113984632"><ele>8.5</ele><time>2026-03-22T12:59:42Z</time></trkpt><trkpt lat="53.8568119889003" lon="11.112304258102894"><ele>8.0</ele><time>2026-03-22T12:59:43Z</time></trkpt><trkpt lat="53.85676996849163" lon="11.112455287657747"><ele>7.75</ele><time>2026-03-22T12:59:44Z</time></trkpt><trkpt lat="53.856713223298655" lon="11.112607194442546"><ele>7.5</ele><time>2026-03-22T12:59:45Z</time></trkpt><trkpt lat="53.85664235974757" lon="11.112778468665816"><ele>7.25</ele><time>2026-03-22T12:59:46Z</time></trkpt><trkpt lat="53.85658014975555" lon="11.112954477238898"><ele>7.0</ele><time>2026-03-22T12:59:47Z</time></trkpt><trkpt lat="53.85653793723859" lon="11.113118616973765"><ele>7.000000000000001</ele><time>2026-03-22T12:59:48Z</time></trkpt><trkpt lat="53.85648742363533" lon="11.113252179711692"><ele>7.0</ele><time>2026-03-22T12:59:49Z</time></trkpt><trkpt lat="53.856451076634066" lon="11.113367910951782"><ele>7.0</ele><time>2026-03-22T12:59:50Z</time></trkpt><trkpt lat="53.85647210170202" lon="11.11351743646771"><ele>7.0</ele><time>2026-03-22T12:59:52Z</time></trkpt><trkpt lat="53.85652664768158" lon="11.113585056299655"><ele>7.000000000000001</ele><time>2026-03-22T12:59:52.999Z</time></trkpt><trkpt lat="53.85659270717444" lon="11.113666168915532"><ele>7.0</ele><time>2026-03-22T12:59:53.999Z</time></trkpt><trkpt lat="53.85667203873949" lon="11.11376311111699"><ele>7.0</ele><time>2026-03-22T12:59:54.999Z</time></trkpt><trkpt lat="53.8567624063156" lon="11.113870834439657"><ele>7.0</ele><time>2026-03-22T12:59:55.999Z</time></trkpt><trkpt lat="53.85686119548975" lon="11.113988596785306"><ele>7.0</ele><time>2026-03-22T12:59:56.999Z</time></trkpt><trkpt lat="53.85696188003291" lon="11.114110779536398"><ele>7.0</ele><time>2026-03-22T12:59:57.999Z</time></trkpt><trkpt lat="53.857067986210545" lon="11.114247891184982"><ele>6.75</ele><time>2026-03-22T12:59:58.999Z</time></trkpt><trkpt lat="53.85717127816497" lon="11.114393094828303"><ele>6.5</ele><time>2026-03-22T12:59:59.999Z</time></trkpt><trkpt lat="53.857280717418405" lon="11.114563566632004"><ele>6.25</ele><time>2026-03-22T13:00:00.999Z</time></trkpt><trkpt lat="53.857382057580075" lon="11.114732037774845"><ele>6.0</ele><time>2026-03-22T13:00:01.999Z</time></trkpt><trkpt lat="53.857484099048555" lon="11.114903729119638"><ele>6.0</ele><time>2026-03-22T13:00:02.999Z</time></trkpt><trkpt lat="53.85759389881392" lon="11.115062822026825"><ele>6.0</ele><time>2026-03-22T13:00:03.999Z</time></trkpt><trkpt lat="53.85769051773747" lon="11.115255836724462"><ele>6.0</ele><time>2026-03-22T13:00:04.999Z</time></trkpt><trkpt lat="53.85780020180175" lon="11.115436498839683"><ele>6.0</ele><time>2026-03-22T13:00:05.999Z</time></trkpt><trkpt lat="53.857903096311055" lon="11.11565239582729"><ele>6.75</ele><time>2026-03-22T13:00:06.999Z</time></trkpt><trkpt lat="53.857969028794386" lon="11.115846469941998"><ele>7.5</ele><time>2026-03-22T13:00:07.999Z</time></trkpt><trkpt lat="53.85805237523025" lon="11.11602253559561"><ele>8.25</ele><time>2026-03-22T13:00:08.999Z</time></trkpt><trkpt lat="53.858119581049586" lon="11.116185328433795"><ele>9.0</ele><time>2026-03-22T13:00:09.999Z</time></trkpt><trkpt lat="53.85818952302283" lon="11.116345165380064"><ele>9.0</ele><time>2026-03-22T13:00:10.999Z</time></trkpt><trkpt lat="53.85825412777915" lon="11.11649280385407"><ele>9.0</ele><time>2026-03-22T13:00:11.999Z</time></trkpt><trkpt lat="53.85831416053648" lon="11.116625339942615"><ele>9.0</ele><time>2026-03-22T13:00:12.999Z</time></trkpt><trkpt lat="53.85835991521604" lon="11.116761197588565"><ele>9.0</ele><time>2026-03-22T13:00:13.999Z</time></trkpt><trkpt lat="53.858419662297955" lon="11.116876211904"><ele>9.0</ele><time>2026-03-22T13:00:14.999Z</time></trkpt><trkpt lat="53.85848220897089" lon="11.116970998670515"><ele>9.6</ele><time>2026-03-22T13:00:15.999Z</time></trkpt><trkpt lat="53.858545153172116" lon="11.117077641441888"><ele>10.2</ele><time>2026-03-22T13:00:16.999Z</time></trkpt><trkpt lat="53.85862391595211" lon="11.117193319739432"><ele>10.799999999999999</ele><time>2026-03-22T13:00:17.999Z</time></trkpt><trkpt lat="53.85869560096257" lon="11.11734419567919"><ele>11.4</ele><time>2026-03-22T13:00:18.999Z</time></trkpt><trkpt lat="53.85874041405371" lon="11.11750782153085"><ele>12.0</ele><time>2026-03-22T13:00:19.999Z</time></trkpt><trkpt lat="53.85877702242041" lon="11.117685795515596"><ele>12.0</ele><time>2026-03-22T13:00:20.999Z</time></trkpt><trkpt lat="53.85883646930987" lon="11.117810158760868"><ele>12.0</ele><time>2026-03-22T13:00:21.999Z</time></trkpt><trkpt lat="53.85888240632048" lon="11.117942234308883"><ele>12.0</ele><time>2026-03-22T13:00:22.999Z</time></trkpt><trkpt lat="53.85889408695896" lon="11.118092712385653"><ele>12.0</ele><time>2026-03-22T13:00:23.999Z</time></trkpt><trkpt lat="53.85888112713694" lon="11.118237064227285"><ele>12.0</ele><time>2026-03-22T13:00:24.999Z</time></trkpt><trkpt lat="53.85880732885507" lon="11.11833311430404"><ele>12.0</ele><time>2026-03-22T13:00:25.999Z</time></trkpt><trkpt lat="53.85874096723378" lon="11.118426529850801"><ele>12.0</ele><time>2026-03-22T13:00:26.999Z</time></trkpt><trkpt lat="53.85867103663991" lon="11.118510661926026"><ele>12.0</ele><time>2026-03-22T13:00:27.999Z</time></trkpt><trkpt lat="53.858601337841996" lon="11.11858996201139"><ele>12.0</ele><time>2026-03-22T13:00:28.999Z</time></trkpt><trkpt lat="53.85853536040952" lon="11.1186587461011"><ele>12.0</ele><time>2026-03-22T13:00:29.999Z</time></trkpt><trkpt lat="53.85846617740677" lon="11.118730676968323"><ele>12.0</ele><time>2026-03-22T13:00:30.999Z</time></trkpt><trkpt lat="53.858378663612655" lon="11.118796230059157"><ele>12.0</ele><time>2026-03-22T13:00:31.999Z</time></trkpt><trkpt lat="53.85829872609261" lon="11.11885423816853"><ele>12.0</ele><time>2026-03-22T13:00:32.999Z</time></trkpt><trkpt lat="53.858218946165685" lon="11.118923088211812"><ele>12.0</ele><time>2026-03-22T13:00:33.999Z</time></trkpt><trkpt lat="53.85815296587772" lon="11.118969833829182"><ele>12.0</ele><time>2026-03-22T13:00:34.999Z</time></trkpt><trkpt lat="53.85807770061206" lon="11.119022435366606"><ele>12.0</ele><time>2026-03-22T13:00:35.999Z</time></trkpt><trkpt lat="53.857999493019385" lon="11.119091427685923"><ele>12.0</ele><time>2026-03-22T13:00:36.999Z</time></trkpt><trkpt lat="53.857936700768086" lon="11.119140292224614"><ele>12.0</ele><time>2026-03-22T13:00:37.999Z</time></trkpt><trkpt lat="53.85787005517725" lon="11.119193438252333"><ele>12.0</ele><time>2026-03-22T13:00:38.999Z</time></trkpt><trkpt lat="53.85779861000266" lon="11.119226031977574"><ele>12.0</ele><time>2026-03-22T13:00:39.999Z</time></trkpt><trkpt lat="53.85773879260191" lon="11.11927975787314"><ele>12.0</ele><time>2026-03-22T13:00:40.999Z</time></trkpt><trkpt lat="53.857677307622744" lon="11.1193349809339"><ele>12.0</ele><time>2026-03-22T13:00:41.999Z</time></trkpt><trkpt lat="53.85761748167768" lon="11.119380992299275"><ele>12.0</ele><time>2026-03-22T13:00:42.999Z</time></trkpt><trkpt lat="53.85750499317395" lon="11.11947602728343"><ele>12.0</ele><time>2026-03-22T13:00:44.999Z</time></trkpt><trkpt lat="53.85746135541955" lon="11.119559803898134"><ele>12.0</ele><time>2026-03-22T13:00:45.999Z</time></trkpt><trkpt lat="53.857399005283746" lon="11.119595505113805"><ele>12.0</ele><time>2026-03-22T13:00:46.999Z</time></trkpt><trkpt lat="53.85738249050265" lon="11.119749913483064"><ele>12.0</ele><time>2026-03-22T13:00:48.999Z</time></trkpt><trkpt lat="53.857415672165125" lon="11.11993428635075"><ele>12.0</ele><time>2026-03-22T13:00:50.999Z</time></trkpt><trkpt lat="53.857426698126375" lon="11.120053937337456"><ele>12.0</ele><time>2026-03-22T13:00:51.999Z</time></trkpt><trkpt lat="53.857459758001006" lon="11.12015968031961"><ele>12.0</ele><time>2026-03-22T13:00:52.999Z</time></trkpt><trkpt lat="53.85751000999067" lon="11.120337056600603"><ele>12.0</ele><time>2026-03-22T13:00:54.999Z</time></trkpt><trkpt lat="53.85754217057857" lon="11.120432444922569"><ele>12.0</ele><time>2026-03-22T13:00:55.999Z</time></trkpt><trkpt lat="53.85756820710807" lon="11.120534196615164"><ele>12.0</ele><time>2026-03-22T13:00:56.999Z</time></trkpt><trkpt lat="53.85758926277492" lon="11.120661824194158"><ele>12.0</ele><time>2026-03-22T13:00:57.999Z</time></trkpt><trkpt lat="53.8576188901742" lon="11.12077921058039"><ele>12.0</ele><time>2026-03-22T13:00:58.999Z</time></trkpt><trkpt lat="53.857647993905104" lon="11.120894195069791"><ele>12.333333333333334</ele><time>2026-03-22T13:00:59.999Z</time></trkpt><trkpt lat="53.85768458008966" lon="11.121034703198392"><ele>12.666666666666668</ele><time>2026-03-22T13:01:00.999Z</time></trkpt><trkpt lat="53.857725005889726" lon="11.121174126202321"><ele>13.0</ele><time>2026-03-22T13:01:01.999Z</time></trkpt><trkpt lat="53.85776345344554" lon="11.121300535283103"><ele>13.333333333333334</ele><time>2026-03-22T13:01:02.999Z</time></trkpt><trkpt lat="53.85779735877299" lon="11.121412010341619"><ele>13.666666666666668</ele><time>2026-03-22T13:01:03.999Z</time></trkpt><trkpt lat="53.85783120955257" lon="11.121521032272183"><ele>14.0</ele><time>2026-03-22T13:01:04.999Z</time></trkpt><trkpt lat="53.85787036145522" lon="11.121645601126989"><ele>14.166666666666668</ele><time>2026-03-22T13:01:05.999Z</time></trkpt><trkpt lat="53.857915726489146" lon="11.12175776723862"><ele>14.333333333333334</ele><time>2026-03-22T13:01:06.999Z</time></trkpt><trkpt lat="53.85795920766603" lon="11.12188434836709"><ele>14.5</ele><time>2026-03-22T13:01:07.999Z</time></trkpt><trkpt lat="53.85801961445651" lon="11.122012825272192"><ele>14.666666666666668</ele><time>2026-03-22T13:01:08.999Z</time></trkpt><trkpt lat="53.858071665164104" lon="11.122100547715508"><ele>14.833333333333334</ele><time>2026-03-22T13:01:09.999Z</time></trkpt><trkpt lat="53.858099054687074" lon="11.122268272224082"><ele>15.0</ele><time>2026-03-22T13:01:10.999Z</time></trkpt><trkpt lat="53.85815744946386" lon="11.122389346926886"><ele>14.833333333333334</ele><time>2026-03-22T13:01:11.999Z</time></trkpt><trkpt lat="53.85819520043174" lon="11.122507311107595"><ele>14.666666666666668</ele><time>2026-03-22T13:01:12.999Z</time></trkpt><trkpt lat="53.85824028226204" lon="11.122632375764582"><ele>14.5</ele><time>2026-03-22T13:01:13.999Z</time></trkpt><trkpt lat="53.858295803915674" lon="11.12272026701552"><ele>14.333333333333334</ele><time>2026-03-22T13:01:14.999Z</time></trkpt><trkpt lat="53.85834612723543" lon="11.12284141621787"><ele>14.166666666666668</ele><time>2026-03-22T13:01:15.999Z</time></trkpt><trkpt lat="53.85839417736409" lon="11.12295752830031"><ele>14.0</ele><time>2026-03-22T13:01:16.999Z</time></trkpt><trkpt lat="53.85843832605489" lon="11.12306222932561"><ele>14.166666666666668</ele><time>2026-03-22T13:01:17.999Z</time></trkpt><trkpt lat="53.85848066125893" lon="11.123161096552586"><ele>14.333333333333334</ele><time>2026-03-22T13:01:18.999Z</time></trkpt><trkpt lat="53.858536949058596" lon="11.123276894435591"><ele>14.5</ele><time>2026-03-22T13:01:19.999Z</time></trkpt><trkpt lat="53.85859601423333" lon="11.123393379976"><ele>14.666666666666668</ele><time>2026-03-22T13:01:20.999Z</time></trkpt><trkpt lat="53.858655476734356" lon="11.123513131413413"><ele>14.833333333333334</ele><time>2026-03-22T13:01:21.999Z</time></trkpt><trkpt lat="53.85872641135897" lon="11.12357704497733"><ele>15.0</ele><time>2026-03-22T13:01:22.999Z</time></trkpt><trkpt lat="53.85880040262939" lon="11.12364487578508"><ele>15.0</ele><time>2026-03-22T13:01:23.999Z</time></trkpt><trkpt lat="53.85887551313506" lon="11.123732160536706"><ele>15.0</ele><time>2026-03-22T13:01:24.999Z</time></trkpt><trkpt lat="53.85896547723513" lon="11.123760284474573"><ele>15.0</ele><time>2026-03-22T13:01:25.999Z</time></trkpt><trkpt lat="53.859050510668254" lon="11.123808041370616"><ele>15.0</ele><time>2026-03-22T13:01:26.999Z</time></trkpt><trkpt lat="53.859145304158474" lon="11.123859788014073"><ele>15.0</ele><time>2026-03-22T13:01:27.999Z</time></trkpt><trkpt lat="53.85923913275183" lon="11.123929959816392"><ele>14.8</ele><time>2026-03-22T13:01:28.999Z</time></trkpt><trkpt lat="53.85933291411255" lon="11.123950888015514"><ele>14.6</ele><time>2026-03-22T13:01:29.999Z</time></trkpt><trkpt lat="53.859425056671775" lon="11.12401740936135"><ele>14.399999999999999</ele><time>2026-03-22T13:01:30.999Z</time></trkpt><trkpt lat="53.85952166890018" lon="11.124065313417539"><ele>14.2</ele><time>2026-03-22T13:01:31.999Z</time></trkpt><trkpt lat="53.85960722740803" lon="11.124167120395535"><ele>14.0</ele><time>2026-03-22T13:01:32.999Z</time></trkpt><trkpt lat="53.85968675564612" lon="11.124267030803361"><ele>14.000000000000002</ele><time>2026-03-22T13:01:33.999Z</time></trkpt><trkpt lat="53.859757346668744" lon="11.124364171282187"><ele>14.0</ele><time>2026-03-22T13:01:34.999Z</time></trkpt><trkpt lat="53.85982709756461" lon="11.124476376395629"><ele>14.0</ele><time>2026-03-22T13:01:35.999Z</time></trkpt><trkpt lat="53.85988581757334" lon="11.12458369694856"><ele>14.0</ele><time>2026-03-22T13:01:36.999Z</time></trkpt><trkpt lat="53.85993497103425" lon="11.124705156944659"><ele>14.000000000000002</ele><time>2026-03-22T13:01:37.999Z</time></trkpt><trkpt lat="53.859965827182414" lon="11.124834520743352"><ele>14.0</ele><time>2026-03-22T13:01:38.999Z</time></trkpt><trkpt lat="53.85997237674575" lon="11.12498024467182"><ele>14.500000000000002</ele><time>2026-03-22T13:01:39.999Z</time></trkpt><trkpt lat="53.85996598926899" lon="11.125115036343711"><ele>15.0</ele><time>2026-03-22T13:01:40.999Z</time></trkpt><trkpt lat="53.85995300762582" lon="11.12524220700913"><ele>15.5</ele><time>2026-03-22T13:01:41.999Z</time></trkpt><trkpt lat="53.85993314207631" lon="11.125380579716374"><ele>16.0</ele><time>2026-03-22T13:01:42.999Z</time></trkpt><trkpt lat="53.85992363627218" lon="11.125524850642837"><ele>16.5</ele><time>2026-03-22T13:01:43.999Z</time></trkpt><trkpt lat="53.859899797763056" lon="11.12566191222493"><ele>17.0</ele><time>2026-03-22T13:01:44.999Z</time></trkpt><trkpt lat="53.85988274105991" lon="11.125799068685682"><ele>17.166666666666668</ele><time>2026-03-22T13:01:45.999Z</time></trkpt><trkpt lat="53.85985111252382" lon="11.125934125538269"><ele>17.333333333333336</ele><time>2026-03-22T13:01:46.999Z</time></trkpt><trkpt lat="53.859825929167236" lon="11.126075542927477"><ele>17.5</ele><time>2026-03-22T13:01:47.999Z</time></trkpt><trkpt lat="53.85980117806932" lon="11.126212757140987"><ele>17.666666666666668</ele><time>2026-03-22T13:01:48.999Z</time></trkpt><trkpt lat="53.85977875320929" lon="11.126349025899565"><ele>17.833333333333332</ele><time>2026-03-22T13:01:49.999Z</time></trkpt><trkpt lat="53.85975353032008" lon="11.126493155623459"><ele>18.0</ele><time>2026-03-22T13:01:50.999Z</time></trkpt><trkpt lat="53.85973439938391" lon="11.126642078116106"><ele>18.4</ele><time>2026-03-22T13:01:51.999Z</time></trkpt><trkpt lat="53.85973529111224" lon="11.126802014371398"><ele>18.8</ele><time>2026-03-22T13:01:52.999Z</time></trkpt><trkpt lat="53.85972301635462" lon="11.126966337264799"><ele>19.2</ele><time>2026-03-22T13:01:53.999Z</time></trkpt><trkpt lat="53.85970974401058" lon="11.127144015027978"><ele>19.6</ele><time>2026-03-22T13:01:54.999Z</time></trkpt><trkpt lat="53.859680680932115" lon="11.127325042928073"><ele>20.0</ele><time>2026-03-22T13:01:55.999Z</time></trkpt><trkpt lat="53.85967098023132" lon="11.127518359689114"><ele>20.0</ele><time>2026-03-22T13:01:56.999Z</time></trkpt><trkpt lat="53.85965502358344" lon="11.127722831418723"><ele>20.0</ele><time>2026-03-22T13:01:57.999Z</time></trkpt><trkpt lat="53.85963806595618" lon="11.127948079348263"><ele>20.0</ele><time>2026-03-22T13:01:58.999Z</time></trkpt><trkpt lat="53.8596174021939" lon="11.128179144646722"><ele>20.0</ele><time>2026-03-22T13:01:59.999Z</time></trkpt><trkpt lat="53.85961335321238" lon="11.12841785045289"><ele>20.0</ele><time>2026-03-22T13:02:00.999Z</time></trkpt><trkpt lat="53.859596151803" lon="11.128664353456726"><ele>20.0</ele><time>2026-03-22T13:02:01.999Z</time></trkpt><trkpt lat="53.8595772444696" lon="11.128920037017412"><ele>20.0</ele><time>2026-03-22T13:02:02.999Z</time></trkpt><trkpt lat="53.85955780084936" lon="11.129180095929598"><ele>19.666666666666668</ele><time>2026-03-22T13:02:03.999Z</time></trkpt><trkpt lat="53.85953767590324" lon="11.129449625026187"><ele>19.333333333333332</ele><time>2026-03-22T13:02:04.999Z</time></trkpt><trkpt lat="53.85950497165912" lon="11.129724484729126"><ele>19.0</ele><time>2026-03-22T13:02:05.998Z</time></trkpt><trkpt lat="53.85949218157648" lon="11.1300072615198"><ele>20.0</ele><time>2026-03-22T13:02:06.998Z</time></trkpt><trkpt lat="53.85947315961312" lon="11.130294020909513"><ele>21.0</ele><time>2026-03-22T13:02:07.998Z</time></trkpt><trkpt lat="53.85945377581554" lon="11.130569830497357"><ele>22.0</ele><time>2026-03-22T13:02:08.998Z</time></trkpt><trkpt lat="53.85943604851158" lon="11.130852977934653"><ele>24.333333333333332</ele><time>2026-03-22T13:02:09.998Z</time></trkpt><trkpt lat="53.859407812243695" lon="11.131133390589676"><ele>26.666666666666664</ele><time>2026-03-22T13:02:10.998Z</time></trkpt><trkpt lat="53.85938882077414" lon="11.131428301407816"><ele>29.0</ele><time>2026-03-22T13:02:11.998Z</time></trkpt><trkpt lat="53.85936299436985" lon="11.131751903898094"><ele>30.0</ele><time>2026-03-22T13:02:12.998Z</time></trkpt><trkpt lat="53.859336379924144" lon="11.132057912490616"><ele>31.0</ele><time>2026-03-22T13:02:13.998Z</time></trkpt><trkpt lat="53.85931792381953" lon="11.132373947109462"><ele>32.0</ele><time>2026-03-22T13:02:14.998Z</time></trkpt><trkpt lat="53.85929436156779" lon="11.132686686396774"><ele>32.33333333333333</ele><time>2026-03-22T13:02:15.998Z</time></trkpt><trkpt lat="53.85925431906025" lon="11.133003870018117"><ele>32.666666666666664</ele><time>2026-03-22T13:02:16.998Z</time></trkpt><trkpt lat="53.85924922661225" lon="11.133326846377175"><ele>33.0</ele><time>2026-03-22T13:02:17.998Z</time></trkpt><trkpt lat="53.859226086339234" lon="11.133597746337555"><ele>33.0</ele><time>2026-03-22T13:02:18.998Z</time></trkpt><trkpt lat="53.85919698000276" lon="11.133887255572867"><ele>33.0</ele><time>2026-03-22T13:02:19.998Z</time></trkpt><trkpt lat="53.859182954470995" lon="11.13416784328797"><ele>33.0</ele><time>2026-03-22T13:02:20.998Z</time></trkpt><trkpt lat="53.859173778690376" lon="11.134416684063881"><ele>33.333333333333336</ele><time>2026-03-22T13:02:21.998Z</time></trkpt><trkpt lat="53.859152687344206" lon="11.134699583022282"><ele>33.66666666666667</ele><time>2026-03-22T13:02:22.998Z</time></trkpt><trkpt lat="53.859133599706645" lon="11.13497653094045"><ele>34.0</ele><time>2026-03-22T13:02:23.998Z</time></trkpt><trkpt lat="53.859105433765784" lon="11.135268002061597"><ele>34.333333333333336</ele><time>2026-03-22T13:02:24.998Z</time></trkpt><trkpt lat="53.8590967804456" lon="11.13554546289238"><ele>34.666666666666664</ele><time>2026-03-22T13:02:25.998Z</time></trkpt><trkpt lat="53.859089983592064" lon="11.135810697476213"><ele>35.0</ele><time>2026-03-22T13:02:26.998Z</time></trkpt><trkpt lat="53.85906976935979" lon="11.13609673764968"><ele>35.33333333333333</ele><time>2026-03-22T13:02:27.998Z</time></trkpt><trkpt lat="53.85904548513178" lon="11.136390102950147"><ele>35.666666666666664</ele><time>2026-03-22T13:02:28.998Z</time></trkpt><trkpt lat="53.85901362188934" lon="11.136690866992721"><ele>36.0</ele><time>2026-03-22T13:02:29.998Z</time></trkpt><trkpt lat="53.85900939676928" lon="11.137003295130377"><ele>36.0</ele><time>2026-03-22T13:02:30.998Z</time></trkpt><trkpt lat="53.85899682791987" lon="11.137295622801322"><ele>36.0</ele><time>2026-03-22T13:02:31.998Z</time></trkpt><trkpt lat="53.85898320712897" lon="11.137594221503923"><ele>36.0</ele><time>2026-03-22T13:02:32.998Z</time></trkpt><trkpt lat="53.858969140228" lon="11.137881052564497"><ele>36.0</ele><time>2026-03-22T13:02:33.998Z</time></trkpt><trkpt lat="53.85895380182294" lon="11.138186863043597"><ele>36.0</ele><time>2026-03-22T13:02:34.998Z</time></trkpt><trkpt lat="53.85893935760106" lon="11.138491713144562"><ele>36.0</ele><time>2026-03-22T13:02:35.998Z</time></trkpt><trkpt lat="53.85892533111418" lon="11.138792631096669"><ele>36.0</ele><time>2026-03-22T13:02:36.998Z</time></trkpt><trkpt lat="53.85891271672399" lon="11.1390632546697"><ele>36.0</ele><time>2026-03-22T13:02:37.998Z</time></trkpt><trkpt lat="53.858900288910206" lon="11.139329875526402"><ele>36.0</ele><time>2026-03-22T13:02:38.998Z</time></trkpt><trkpt lat="53.858888243858246" lon="11.139577009920972"><ele>36.0</ele><time>2026-03-22T13:02:39.998Z</time></trkpt><trkpt lat="53.85887624902474" lon="11.139808767460096"><ele>36.0</ele><time>2026-03-22T13:02:40.998Z</time></trkpt><trkpt lat="53.8588619765821" lon="11.140084531767362"><ele>36.0</ele><time>2026-03-22T13:02:41.998Z</time></trkpt><trkpt lat="53.858867048134606" lon="11.14034132192017"><ele>36.0</ele><time>2026-03-22T13:02:42.998Z</time></trkpt><trkpt lat="53.858857987499846" lon="11.14057330077534"><ele>36.0</ele><time>2026-03-22T13:02:43.998Z</time></trkpt><trkpt lat="53.85885586111408" lon="11.140788787465286"><ele>36.0</ele><time>2026-03-22T13:02:44.998Z</time></trkpt><trkpt lat="53.858821725527775" lon="11.140998658252123"><ele>36.0</ele><time>2026-03-22T13:02:45.998Z</time></trkpt><trkpt lat="53.85881896015909" lon="11.141207609802748"><ele>36.0</ele><time>2026-03-22T13:02:46.998Z</time></trkpt><trkpt lat="53.858810155207834" lon="11.141426883784986"><ele>36.0</ele><time>2026-03-22T13:02:47.998Z</time></trkpt><trkpt lat="53.858799271941535" lon="11.141673179773997"><ele>36.0</ele><time>2026-03-22T13:02:48.998Z</time></trkpt><trkpt lat="53.85878772446199" lon="11.141921186182481"><ele>36.0</ele><time>2026-03-22T13:02:49.998Z</time></trkpt><trkpt lat="53.85877632757813" lon="11.142165958138914"><ele>36.333333333333336</ele><time>2026-03-22T13:02:50.998Z</time></trkpt><trkpt lat="53.85876354558259" lon="11.14244047801136"><ele>36.66666666666667</ele><time>2026-03-22T13:02:51.998Z</time></trkpt><trkpt lat="53.85875179631193" lon="11.142705922673148"><ele>37.0</ele><time>2026-03-22T13:02:52.998Z</time></trkpt><trkpt lat="53.85874164908053" lon="11.142974429708543"><ele>36.66666666666667</ele><time>2026-03-22T13:02:53.998Z</time></trkpt><trkpt lat="53.85873384455523" lon="11.14325493377058"><ele>36.333333333333336</ele><time>2026-03-22T13:02:54.998Z</time></trkpt><trkpt lat="53.8587270480369" lon="11.143538132685064"><ele>36.0</ele><time>2026-03-22T13:02:55.998Z</time></trkpt><trkpt lat="53.85872019613843" lon="11.14384517538704"><ele>36.666666666666664</ele><time>2026-03-22T13:02:56.998Z</time></trkpt><trkpt lat="53.85871324568269" lon="11.144156634560522"><ele>37.33333333333333</ele><time>2026-03-22T13:02:57.998Z</time></trkpt><trkpt lat="53.85870540985013" lon="11.144478424433451"><ele>38.0</ele><time>2026-03-22T13:02:58.998Z</time></trkpt><trkpt lat="53.85869720956391" lon="11.144808685867645"><ele>38.33333333333333</ele><time>2026-03-22T13:02:59.998Z</time></trkpt><trkpt lat="53.858689436315636" lon="11.145140577513478"><ele>38.666666666666664</ele><time>2026-03-22T13:03:00.998Z</time></trkpt><trkpt lat="53.858687939695216" lon="11.145450348383115"><ele>39.0</ele><time>2026-03-22T13:03:01.998Z</time></trkpt><trkpt lat="53.85869049858564" lon="11.145779693585373"><ele>39.0</ele><time>2026-03-22T13:03:02.998Z</time></trkpt><trkpt lat="53.85869744743781" lon="11.146087242730289"><ele>39.0</ele><time>2026-03-22T13:03:03.998Z</time></trkpt><trkpt lat="53.85870651423399" lon="11.14641276223821"><ele>39.0</ele><time>2026-03-22T13:03:04.998Z</time></trkpt><trkpt lat="53.85872024445535" lon="11.146733683940415"><ele>38.666666666666664</ele><time>2026-03-22T13:03:05.998Z</time></trkpt><trkpt lat="53.8587321468327" lon="11.147063421932163"><ele>38.33333333333333</ele><time>2026-03-22T13:03:06.998Z</time></trkpt><trkpt lat="53.85874413745477" lon="11.147389445784519"><ele>38.0</ele><time>2026-03-22T13:03:07.998Z</time></trkpt><trkpt lat="53.858756810633075" lon="11.14772052070938"><ele>38.0</ele><time>2026-03-22T13:03:08.998Z</time></trkpt><trkpt lat="53.85876974952147" lon="11.148033509077466"><ele>38.0</ele><time>2026-03-22T13:03:09.998Z</time></trkpt><trkpt lat="53.85878125011551" lon="11.148333063705577"><ele>38.0</ele><time>2026-03-22T13:03:10.998Z</time></trkpt><trkpt lat="53.85879194914953" lon="11.148639095962233"><ele>38.666666666666664</ele><time>2026-03-22T13:03:11.998Z</time></trkpt><trkpt lat="53.85880367193627" lon="11.148954093728868"><ele>39.333333333333336</ele><time>2026-03-22T13:03:12.998Z</time></trkpt><trkpt lat="53.85881641771449" lon="11.149290125979807"><ele>40.0</ele><time>2026-03-22T13:03:13.998Z</time></trkpt><trkpt lat="53.85882907323118" lon="11.149623778725243"><ele>39.0</ele><time>2026-03-22T13:03:14.998Z</time></trkpt><trkpt lat="53.85884017146171" lon="11.14994279565536"><ele>38.0</ele><time>2026-03-22T13:03:15.998Z</time></trkpt><trkpt lat="53.858849705549005" lon="11.15024228336127"><ele>37.0</ele><time>2026-03-22T13:03:16.998Z</time></trkpt><trkpt lat="53.858861132487505" lon="11.150551130173069"><ele>35.333333333333336</ele><time>2026-03-22T13:03:17.998Z</time></trkpt><trkpt lat="53.858872033650584" lon="11.150841478330799"><ele>33.666666666666664</ele><time>2026-03-22T13:03:18.998Z</time></trkpt><trkpt lat="53.8588833799167" lon="11.151130827185046"><ele>32.0</ele><time>2026-03-22T13:03:19.998Z</time></trkpt><trkpt lat="53.85889582818874" lon="11.151421799095328"><ele>32.0</ele><time>2026-03-22T13:03:20.998Z</time></trkpt><trkpt lat="53.85890810695208" lon="11.151701458354973"><ele>32.0</ele><time>2026-03-22T13:03:21.998Z</time></trkpt><trkpt lat="53.8589217458355" lon="11.151983474546798"><ele>32.0</ele><time>2026-03-22T13:03:22.998Z</time></trkpt><trkpt lat="53.85893554368952" lon="11.15226877824532"><ele>33.33333333333333</ele><time>2026-03-22T13:03:23.998Z</time></trkpt><trkpt lat="53.85895110964205" lon="11.152546286064092"><ele>34.666666666666664</ele><time>2026-03-22T13:03:24.998Z</time></trkpt><trkpt lat="53.85897122332826" lon="11.152842179254092"><ele>36.0</ele><time>2026-03-22T13:03:25.998Z</time></trkpt><trkpt lat="53.858991206950776" lon="11.153127947184046"><ele>36.333333333333336</ele><time>2026-03-22T13:03:26.998Z</time></trkpt><trkpt lat="53.859010913669394" lon="11.153406958467114"><ele>36.66666666666667</ele><time>2026-03-22T13:03:27.998Z</time></trkpt><trkpt lat="53.85903333294071" lon="11.153676555144807"><ele>37.0</ele><time>2026-03-22T13:03:28.998Z</time></trkpt><trkpt lat="53.85905496841091" lon="11.153936726042192"><ele>36.333333333333336</ele><time>2026-03-22T13:03:29.998Z</time></trkpt><trkpt lat="53.85907753765643" lon="11.154201638560952"><ele>35.666666666666664</ele><time>2026-03-22T13:03:30.998Z</time></trkpt><trkpt lat="53.85910180882014" lon="11.154472132540212"><ele>35.0</ele><time>2026-03-22T13:03:31.998Z</time></trkpt><trkpt lat="53.85912546662404" lon="11.154735790248255"><ele>33.666666666666664</ele><time>2026-03-22T13:03:32.998Z</time></trkpt><trkpt lat="53.859149855561235" lon="11.155007596429748"><ele>32.333333333333336</ele><time>2026-03-22T13:03:33.998Z</time></trkpt><trkpt lat="53.859174571511346" lon="11.155249357572718"><ele>31.0</ele><time>2026-03-22T13:03:34.998Z</time></trkpt><trkpt lat="53.85920316546702" lon="11.155491116231238"><ele>30.0</ele><time>2026-03-22T13:03:35.998Z</time></trkpt><trkpt lat="53.85923120227504" lon="11.15574946624325"><ele>29.0</ele><time>2026-03-22T13:03:36.998Z</time></trkpt><trkpt lat="53.859254814379206" lon="11.156033210615156"><ele>28.0</ele><time>2026-03-22T13:03:37.998Z</time></trkpt><trkpt lat="53.859276425652226" lon="11.156340325997853"><ele>27.666666666666668</ele><time>2026-03-22T13:03:38.998Z</time></trkpt><trkpt lat="53.85930674313643" lon="11.156642382987474"><ele>27.333333333333336</ele><time>2026-03-22T13:03:39.998Z</time></trkpt><trkpt lat="53.85933765242435" lon="11.156931058632848"><ele>27.0</ele><time>2026-03-22T13:03:40.998Z</time></trkpt><trkpt lat="53.85937883060007" lon="11.157219742113051"><ele>27.333333333333336</ele><time>2026-03-22T13:03:41.998Z</time></trkpt><trkpt lat="53.85940843857901" lon="11.157516152731636"><ele>27.666666666666668</ele><time>2026-03-22T13:03:42.998Z</time></trkpt><trkpt lat="53.85946619053369" lon="11.157794641400262"><ele>28.0</ele><time>2026-03-22T13:03:43.998Z</time></trkpt><trkpt lat="53.85951060789031" lon="11.158073445261612"><ele>28.333333333333336</ele><time>2026-03-22T13:03:44.998Z</time></trkpt><trkpt lat="53.85955417025027" lon="11.158344237300314"><ele>28.666666666666664</ele><time>2026-03-22T13:03:45.998Z</time></trkpt><trkpt lat="53.85959939313385" lon="11.1586199652999"><ele>29.0</ele><time>2026-03-22T13:03:46.998Z</time></trkpt><trkpt lat="53.85964901181802" lon="11.15890072799199"><ele>29.0</ele><time>2026-03-22T13:03:47.998Z</time></trkpt><trkpt lat="53.8596938895567" lon="11.15917760172884"><ele>29.0</ele><time>2026-03-22T13:03:48.998Z</time></trkpt><trkpt lat="53.85974133036888" lon="11.159451919128486"><ele>29.0</ele><time>2026-03-22T13:03:49.998Z</time></trkpt><trkpt lat="53.85978551632839" lon="11.159711253990945"><ele>29.0</ele><time>2026-03-22T13:03:50.998Z</time></trkpt><trkpt lat="53.85982882654075" lon="11.159982595019398"><ele>29.0</ele><time>2026-03-22T13:03:51.998Z</time></trkpt><trkpt lat="53.859872886982345" lon="11.160244538977391"><ele>29.0</ele><time>2026-03-22T13:03:52.998Z</time></trkpt><trkpt lat="53.85991291999539" lon="11.160511744623097"><ele>29.333333333333332</ele><time>2026-03-22T13:03:53.998Z</time></trkpt><trkpt lat="53.859953166236814" lon="11.16080882552022"><ele>29.666666666666664</ele><time>2026-03-22T13:03:54.998Z</time></trkpt><trkpt lat="53.859987264618375" lon="11.161094012588256"><ele>30.0</ele><time>2026-03-22T13:03:55.998Z</time></trkpt><trkpt lat="53.86002154280024" lon="11.161380981722392"><ele>30.0</ele><time>2026-03-22T13:03:56.998Z</time></trkpt><trkpt lat="53.86005352967197" lon="11.161656974766245"><ele>30.0</ele><time>2026-03-22T13:03:57.998Z</time></trkpt><trkpt lat="53.860083484571724" lon="11.161915434828764"><ele>30.0</ele><time>2026-03-22T13:03:58.998Z</time></trkpt><trkpt lat="53.860117069848144" lon="11.162178787492465"><ele>31.0</ele><time>2026-03-22T13:03:59.998Z</time></trkpt><trkpt lat="53.860131344192894" lon="11.162440555121545"><ele>32.0</ele><time>2026-03-22T13:04:00.998Z</time></trkpt><trkpt lat="53.860161701392684" lon="11.162681444574075"><ele>33.0</ele><time>2026-03-22T13:04:01.998Z</time></trkpt><trkpt lat="53.86018822024559" lon="11.16292436077622"><ele>34.0</ele><time>2026-03-22T13:04:02.998Z</time></trkpt><trkpt lat="53.86021512961182" lon="11.163151198670365"><ele>33.25</ele><time>2026-03-22T13:04:03.998Z</time></trkpt><trkpt lat="53.86022962680441" lon="11.163370202959364"><ele>32.5</ele><time>2026-03-22T13:04:04.998Z</time></trkpt><trkpt lat="53.86023838296225" lon="11.163584250496083"><ele>31.75</ele><time>2026-03-22T13:04:05.998Z</time></trkpt><trkpt lat="53.860244342750526" lon="11.163802383461853"><ele>31.0</ele><time>2026-03-22T13:04:06.998Z</time></trkpt><trkpt lat="53.86024766997955" lon="11.164015033854392"><ele>31.0</ele><time>2026-03-22T13:04:07.998Z</time></trkpt><trkpt lat="53.86025062093521" lon="11.164203636116053"><ele>31.0</ele><time>2026-03-22T13:04:08.998Z</time></trkpt><trkpt lat="53.860240438945176" lon="11.164387923844997"><ele>31.0</ele><time>2026-03-22T13:04:09.998Z</time></trkpt><trkpt lat="53.86025314661641" lon="11.164566324499507"><ele>31.0</ele><time>2026-03-22T13:04:10.998Z</time></trkpt><trkpt lat="53.860264931319435" lon="11.164739547445311"><ele>31.0</ele><time>2026-03-22T13:04:11.998Z</time></trkpt><trkpt lat="53.860261728520484" lon="11.164927523189013"><ele>31.0</ele><time>2026-03-22T13:04:12.998Z</time></trkpt><trkpt lat="53.86026630741742" lon="11.165102426372892"><ele>31.0</ele><time>2026-03-22T13:04:13.998Z</time></trkpt><trkpt lat="53.86027825318958" lon="11.16527178376995"><ele>31.0</ele><time>2026-03-22T13:04:14.998Z</time></trkpt><trkpt lat="53.86030563055099" lon="11.165460262092061"><ele>31.0</ele><time>2026-03-22T13:04:15.998Z</time></trkpt><trkpt lat="53.86032144959411" lon="11.165642432607445"><ele>31.0</ele><time>2026-03-22T13:04:16.998Z</time></trkpt><trkpt lat="53.860337149627775" lon="11.165824405680246"><ele>30.8</ele><time>2026-03-22T13:04:17.998Z</time></trkpt><trkpt lat="53.860335002788815" lon="11.16598317893681"><ele>30.6</ele><time>2026-03-22T13:04:18.998Z</time></trkpt><trkpt lat="53.86036572995172" lon="11.166155669226516"><ele>30.4</ele><time>2026-03-22T13:04:19.997Z</time></trkpt><trkpt lat="53.86038151313103" lon="11.166328774616224"><ele>30.2</ele><time>2026-03-22T13:04:20.997Z</time></trkpt><trkpt lat="53.86039940416377" lon="11.166524877857983"><ele>30.0</ele><time>2026-03-22T13:04:21.997Z</time></trkpt><trkpt lat="53.860415975782594" lon="11.166702007811653"><ele>30.0</ele><time>2026-03-22T13:04:22.997Z</time></trkpt><trkpt lat="53.86043815621254" lon="11.166897194548541"><ele>30.0</ele><time>2026-03-22T13:04:23.997Z</time></trkpt><trkpt lat="53.86046298251702" lon="11.167076657780493"><ele>30.0</ele><time>2026-03-22T13:04:24.997Z</time></trkpt><trkpt lat="53.860490512986345" lon="11.167256770769246"><ele>30.0</ele><time>2026-03-22T13:04:25.997Z</time></trkpt><trkpt lat="53.86050563490646" lon="11.167454025892686"><ele>30.0</ele><time>2026-03-22T13:04:26.997Z</time></trkpt><trkpt lat="53.86055270695603" lon="11.167633686629774"><ele>30.0</ele><time>2026-03-22T13:04:27.997Z</time></trkpt><trkpt lat="53.860581326719" lon="11.16781996931813"><ele>30.0</ele><time>2026-03-22T13:04:28.997Z</time></trkpt><trkpt lat="53.860603475980824" lon="11.167996667561654"><ele>30.0</ele><time>2026-03-22T13:04:29.997Z</time></trkpt><trkpt lat="53.8606452522615" lon="11.168179138252668"><ele>30.25</ele><time>2026-03-22T13:04:30.997Z</time></trkpt><trkpt lat="53.86065893245983" lon="11.16836406505876"><ele>30.5</ele><time>2026-03-22T13:04:31.997Z</time></trkpt><trkpt lat="53.86070282774047" lon="11.168548063573178"><ele>30.75</ele><time>2026-03-22T13:04:32.997Z</time></trkpt><trkpt lat="53.86073812553513" lon="11.168733756976986"><ele>31.0</ele><time>2026-03-22T13:04:33.997Z</time></trkpt><trkpt lat="53.86075529126312" lon="11.168919063185362"><ele>31.0</ele><time>2026-03-22T13:04:34.997Z</time></trkpt><trkpt lat="53.860786915750474" lon="11.169088488819677"><ele>31.0</ele><time>2026-03-22T13:04:35.997Z</time></trkpt><trkpt lat="53.86082936448457" lon="11.169269898989976"><ele>31.0</ele><time>2026-03-22T13:04:36.997Z</time></trkpt><trkpt lat="53.860861140917386" lon="11.169452801882743"><ele>31.0</ele><time>2026-03-22T13:04:37.997Z</time></trkpt><trkpt lat="53.86089442318362" lon="11.169645457201534"><ele>31.0</ele><time>2026-03-22T13:04:38.997Z</time></trkpt><trkpt lat="53.86092587731256" lon="11.169832796090297"><ele>31.0</ele><time>2026-03-22T13:04:39.997Z</time></trkpt><trkpt lat="53.86095801103675" lon="11.170022660778141"><ele>31.0</ele><time>2026-03-22T13:04:40.997Z</time></trkpt><trkpt lat="53.86098290317211" lon="11.17020227935813"><ele>31.0</ele><time>2026-03-22T13:04:41.997Z</time></trkpt><trkpt lat="53.86102055644222" lon="11.170382418111435"><ele>31.200000000000003</ele><time>2026-03-22T13:04:42.997Z</time></trkpt><trkpt lat="53.86107080498128" lon="11.17054455038999"><ele>31.400000000000002</ele><time>2026-03-22T13:04:43.997Z</time></trkpt><trkpt lat="53.861101403319765" lon="11.170700467276943"><ele>31.6</ele><time>2026-03-22T13:04:44.997Z</time></trkpt><trkpt lat="53.861120404814066" lon="11.170874762411815"><ele>31.8</ele><time>2026-03-22T13:04:45.997Z</time></trkpt><trkpt lat="53.86114573323536" lon="11.171032211433486"><ele>32.0</ele><time>2026-03-22T13:04:46.997Z</time></trkpt><trkpt lat="53.86118443330266" lon="11.171185473690473"><ele>32.0</ele><time>2026-03-22T13:04:47.997Z</time></trkpt><trkpt lat="53.86123431048537" lon="11.171328959286488"><ele>32.0</ele><time>2026-03-22T13:04:48.997Z</time></trkpt><trkpt lat="53.86127235709184" lon="11.171472187259578"><ele>32.0</ele><time>2026-03-22T13:04:49.997Z</time></trkpt><trkpt lat="53.86131327305588" lon="11.171617012664516"><ele>32.0</ele><time>2026-03-22T13:04:50.997Z</time></trkpt><trkpt lat="53.8613603199267" lon="11.171779479455639"><ele>32.0</ele><time>2026-03-22T13:04:51.997Z</time></trkpt><trkpt lat="53.86141150649749" lon="11.17194933369971"><ele>32.0</ele><time>2026-03-22T13:04:52.997Z</time></trkpt><trkpt lat="53.86146047574052" lon="11.172113087197323"><ele>32.0</ele><time>2026-03-22T13:04:53.997Z</time></trkpt><trkpt lat="53.86151034028173" lon="11.172279834407716"><ele>32.0</ele><time>2026-03-22T13:04:54.997Z</time></trkpt><trkpt lat="53.861559074995796" lon="11.172449543540122"><ele>32.0</ele><time>2026-03-22T13:04:55.997Z</time></trkpt><trkpt lat="53.86160454727999" lon="11.172609120199732"><ele>32.0</ele><time>2026-03-22T13:04:56.997Z</time></trkpt><trkpt lat="53.86164764083157" lon="11.172754768801813"><ele>32.0</ele><time>2026-03-22T13:04:57.997Z</time></trkpt><trkpt lat="53.86170006947481" lon="11.172927834090952"><ele>32.0</ele><time>2026-03-22T13:04:58.997Z</time></trkpt><trkpt lat="53.86175471422834" lon="11.173107316833821"><ele>32.0</ele><time>2026-03-22T13:04:59.997Z</time></trkpt><trkpt lat="53.86181261013617" lon="11.173300733930743"><ele>32.0</ele><time>2026-03-22T13:05:00.997Z</time></trkpt><trkpt lat="53.86186592793165" lon="11.17347909388825"><ele>32.0</ele><time>2026-03-22T13:05:01.997Z</time></trkpt><trkpt lat="53.861916052440684" lon="11.173651093262745"><ele>32.0</ele><time>2026-03-22T13:05:02.997Z</time></trkpt><trkpt lat="53.86196961868273" lon="11.173835935018904"><ele>32.0</ele><time>2026-03-22T13:05:03.997Z</time></trkpt><trkpt lat="53.86202453512094" lon="11.174025436052595"><ele>32.0</ele><time>2026-03-22T13:05:04.997Z</time></trkpt><trkpt lat="53.86208045720745" lon="11.174228187393199"><ele>32.0</ele><time>2026-03-22T13:05:05.997Z</time></trkpt><trkpt lat="53.86212798064054" lon="11.174411255712"><ele>32.0</ele><time>2026-03-22T13:05:06.997Z</time></trkpt><trkpt lat="53.86217411084802" lon="11.174596637691144"><ele>32.0</ele><time>2026-03-22T13:05:07.997Z</time></trkpt><trkpt lat="53.86221808535463" lon="11.174779327637516"><ele>32.0</ele><time>2026-03-22T13:05:08.997Z</time></trkpt><trkpt lat="53.862261196762695" lon="11.174967639974485"><ele>32.0</ele><time>2026-03-22T13:05:10Z</time></trkpt><trkpt lat="53.86230080002153" lon="11.175142989974942"><ele>32.0</ele><time>2026-03-22T13:05:11Z</time></trkpt><trkpt lat="53.862335255203135" lon="11.175297240986275"><ele>32.0</ele><time>2026-03-22T13:05:12Z</time></trkpt><trkpt lat="53.86237343465298" lon="11.175474070430289"><ele>32.0</ele><time>2026-03-22T13:05:13Z</time></trkpt><trkpt lat="53.86240647953922" lon="11.175654969854257"><ele>32.0</ele><time>2026-03-22T13:05:14Z</time></trkpt><trkpt lat="53.862440298277825" lon="11.175845554467017"><ele>32.2</ele><time>2026-03-22T13:05:15Z</time></trkpt><trkpt lat="53.862475358479344" lon="11.176018005781417"><ele>32.400000000000006</ele><time>2026-03-22T13:05:16Z</time></trkpt><trkpt lat="53.8625010000366" lon="11.176179753445593"><ele>32.599999999999994</ele><time>2026-03-22T13:05:17Z</time></trkpt><trkpt lat="53.86252596289058" lon="11.176323774830362"><ele>32.8</ele><time>2026-03-22T13:05:18Z</time></trkpt><trkpt lat="53.86256551375234" lon="11.176466090509512"><ele>33.0</ele><time>2026-03-22T13:05:19Z</time></trkpt><trkpt lat="53.86260021437897" lon="11.176603809631226"><ele>33.0</ele><time>2026-03-22T13:05:20Z</time></trkpt><trkpt lat="53.86260582600204" lon="11.176731413226676"><ele>33.0</ele><time>2026-03-22T13:05:21Z</time></trkpt><trkpt lat="53.862635614797995" lon="11.176831280525061"><ele>33.0</ele><time>2026-03-22T13:05:22Z</time></trkpt><trkpt lat="53.86267381536304" lon="11.176959414721178"><ele>33.0</ele><time>2026-03-22T13:05:23Z</time></trkpt><trkpt lat="53.86271155079073" lon="11.177058402099272"><ele>33.0</ele><time>2026-03-22T13:05:24Z</time></trkpt><trkpt lat="53.862746863419886" lon="11.177165565024325"><ele>33.0</ele><time>2026-03-22T13:05:25Z</time></trkpt><trkpt lat="53.86280908237317" lon="11.177262488256572"><ele>33.166666666666664</ele><time>2026-03-22T13:05:26Z</time></trkpt><trkpt lat="53.862848400219036" lon="11.177374881466637"><ele>33.333333333333336</ele><time>2026-03-22T13:05:27Z</time></trkpt><trkpt lat="53.86288358208138" lon="11.17747802811692"><ele>33.5</ele><time>2026-03-22T13:05:28Z</time></trkpt><trkpt lat="53.86293840019733" lon="11.177583333236123"><ele>33.66666666666667</ele><time>2026-03-22T13:05:29Z</time></trkpt><trkpt lat="53.86298588751722" lon="11.177663644662072"><ele>33.833333333333336</ele><time>2026-03-22T13:05:30Z</time></trkpt><trkpt lat="53.86306258739231" lon="11.17778857734913"><ele>34.0</ele><time>2026-03-22T13:05:32Z</time></trkpt><trkpt lat="53.863108893835765" lon="11.177895543511669"><ele>34.0</ele><time>2026-03-22T13:05:34Z</time></trkpt><trkpt lat="53.86313162661081" lon="11.178003816582759"><ele>34.0</ele><time>2026-03-22T13:05:37Z</time></trkpt><trkpt lat="53.86319280817088" lon="11.178109162587798"><ele>34.0</ele><time>2026-03-22T13:05:39Z</time></trkpt><trkpt lat="53.863147188375926" lon="11.178274012904287"><ele>34.0</ele><time>2026-03-22T13:05:40Z</time></trkpt><trkpt lat="53.86312311382571" lon="11.178382674832575"><ele>34.0</ele><time>2026-03-22T13:05:41Z</time></trkpt><trkpt lat="53.86307953133145" lon="11.178482617780022"><ele>34.0</ele><time>2026-03-22T13:05:42Z</time></trkpt><trkpt lat="53.863023425875426" lon="11.178591052234456"><ele>33.6</ele><time>2026-03-22T13:05:43Z</time></trkpt><trkpt lat="53.862964338107204" lon="11.178713119208776"><ele>33.2</ele><time>2026-03-22T13:05:44Z</time></trkpt><trkpt lat="53.862906037178846" lon="11.178854980886797"><ele>32.800000000000004</ele><time>2026-03-22T13:05:45Z</time></trkpt><trkpt lat="53.86285334444281" lon="11.178996914029195"><ele>32.4</ele><time>2026-03-22T13:05:46Z</time></trkpt><trkpt lat="53.86282093094416" lon="11.17913877756081"><ele>32.0</ele><time>2026-03-22T13:05:47Z</time></trkpt><trkpt lat="53.86278461282086" lon="11.179240367372925"><ele>31.833333333333332</ele><time>2026-03-22T13:05:48Z</time></trkpt><trkpt lat="53.862755732753" lon="11.179348695186299"><ele>31.666666666666664</ele><time>2026-03-22T13:05:49Z</time></trkpt><trkpt lat="53.86271540158078" lon="11.179442596578362"><ele>31.5</ele><time>2026-03-22T13:05:50Z</time></trkpt><trkpt lat="53.86265413840679" lon="11.179623284128574"><ele>31.333333333333336</ele><time>2026-03-22T13:05:52Z</time></trkpt><trkpt lat="53.86260098612077" lon="11.179719156370307"><ele>31.166666666666668</ele><time>2026-03-22T13:05:53Z</time></trkpt><trkpt lat="53.8625315036953" lon="11.179794677220025"><ele>31.0</ele><time>2026-03-22T13:05:54Z</time></trkpt><trkpt lat="53.862463782865035" lon="11.179865062865852"><ele>31.833333333333336</ele><time>2026-03-22T13:05:55Z</time></trkpt><trkpt lat="53.862405397286345" lon="11.179934974220728"><ele>32.66666666666667</ele><time>2026-03-22T13:05:56Z</time></trkpt><trkpt lat="53.86233929679953" lon="11.179947073696937"><ele>33.5</ele><time>2026-03-22T13:05:57Z</time></trkpt><trkpt lat="53.86224356073633" lon="11.180009622285077"><ele>34.333333333333336</ele><time>2026-03-22T13:05:59Z</time></trkpt><trkpt lat="53.86214526752158" lon="11.180080932106065"><ele>35.166666666666664</ele><time>2026-03-22T13:06:01Z</time></trkpt><trkpt lat="53.862062528713345" lon="11.180161120216813"><ele>36.0</ele><time>2026-03-22T13:06:02.999Z</time></trkpt><trkpt lat="53.86197095943159" lon="11.180249287970803"><ele>36.0</ele><time>2026-03-22T13:06:04.999Z</time></trkpt><trkpt lat="53.861928326333604" lon="11.180082186300476"><ele>36.0</ele><time>2026-03-22T13:06:05.999Z</time></trkpt><trkpt lat="53.8618682399079" lon="11.180019528707202"><ele>36.0</ele><time>2026-03-22T13:06:06.999Z</time></trkpt><trkpt lat="53.861807467160205" lon="11.179956155065263"><ele>36.0</ele><time>2026-03-22T13:06:07.999Z</time></trkpt><trkpt lat="53.86174841324423" lon="11.179895230615317"><ele>36.0</ele><time>2026-03-22T13:06:08.999Z</time></trkpt><trkpt lat="53.86169098431629" lon="11.179836802281047"><ele>36.0</ele><time>2026-03-22T13:06:09.999Z</time></trkpt><trkpt lat="53.86163302355013" lon="11.179777832929176"><ele>36.6</ele><time>2026-03-22T13:06:10.999Z</time></trkpt><trkpt lat="53.86157858350642" lon="11.179722445490226"><ele>37.2</ele><time>2026-03-22T13:06:11.999Z</time></trkpt><trkpt lat="53.861483696541356" lon="11.179622616515347"><ele>37.8</ele><time>2026-03-22T13:06:13.999Z</time></trkpt><trkpt lat="53.86139771111107" lon="11.179527135486097"><ele>38.4</ele><time>2026-03-22T13:06:15.999Z</time></trkpt><trkpt lat="53.861310361475496" lon="11.179425700042088"><ele>39.0</ele><time>2026-03-22T13:06:17.999Z</time></trkpt><trkpt lat="53.86118117036435" lon="11.179517295451117"><ele>39.0</ele><time>2026-03-22T13:06:18.999Z</time></trkpt><trkpt lat="53.861131235955824" lon="11.179607988898285"><ele>39.0</ele><time>2026-03-22T13:06:19.999Z</time></trkpt><trkpt lat="53.86106948590808" lon="11.179683662497714"><ele>39.0</ele><time>2026-03-22T13:06:20.999Z</time></trkpt><trkpt lat="53.86100328510865" lon="11.17974388647569"><ele>39.0</ele><time>2026-03-22T13:06:21.999Z</time></trkpt><trkpt lat="53.860933142146074" lon="11.179811941815062"><ele>39.0</ele><time>2026-03-22T13:06:22.999Z</time></trkpt><trkpt lat="53.86085773149192" lon="11.179880919317121"><ele>39.0</ele><time>2026-03-22T13:06:23.999Z</time></trkpt><trkpt lat="53.860787487966704" lon="11.179955267081324"><ele>39.0</ele><time>2026-03-22T13:06:24.999Z</time></trkpt><trkpt lat="53.86071870473107" lon="11.180024091154719"><ele>39.0</ele><time>2026-03-22T13:06:25.999Z</time></trkpt><trkpt lat="53.86065183244206" lon="11.180106487547231"><ele>39.0</ele><time>2026-03-22T13:06:26.999Z</time></trkpt><trkpt lat="53.86058335331676" lon="11.180187087149003"><ele>39.0</ele><time>2026-03-22T13:06:27.999Z</time></trkpt><trkpt lat="53.86051653353897" lon="11.180269129185378"><ele>39.0</ele><time>2026-03-22T13:06:28.999Z</time></trkpt><trkpt lat="53.86045327250534" lon="11.180354178382744"><ele>39.0</ele><time>2026-03-22T13:06:29.999Z</time></trkpt><trkpt lat="53.86038889345519" lon="11.180433891130484"><ele>39.0</ele><time>2026-03-22T13:06:30.999Z</time></trkpt><trkpt lat="53.860322670609406" lon="11.180514373822044"><ele>39.0</ele><time>2026-03-22T13:06:31.999Z</time></trkpt><trkpt lat="53.86025368414664" lon="11.180595735700797"><ele>39.0</ele><time>2026-03-22T13:06:32.999Z</time></trkpt><trkpt lat="53.86018383503097" lon="11.180680250541569"><ele>39.0</ele><time>2026-03-22T13:06:33.999Z</time></trkpt><trkpt lat="53.86011980142267" lon="11.180774756452161"><ele>39.0</ele><time>2026-03-22T13:06:34.999Z</time></trkpt><trkpt lat="53.86005464100319" lon="11.18086490561551"><ele>39.0</ele><time>2026-03-22T13:06:35.999Z</time></trkpt><trkpt lat="53.85999298333073" lon="11.180944887819543"><ele>38.714285714285715</ele><time>2026-03-22T13:06:36.999Z</time></trkpt><trkpt lat="53.85993455147129" lon="11.181012887591187"><ele>38.42857142857142</ele><time>2026-03-22T13:06:37.999Z</time></trkpt><trkpt lat="53.859885601355785" lon="11.181087356425284"><ele>38.14285714285714</ele><time>2026-03-22T13:06:38.999Z</time></trkpt><trkpt lat="53.85983112723025" lon="11.18116317879632"><ele>37.85714285714286</ele><time>2026-03-22T13:06:39.999Z</time></trkpt><trkpt lat="53.8597716071819" lon="11.181236864309795"><ele>37.57142857142857</ele><time>2026-03-22T13:06:40.999Z</time></trkpt><trkpt lat="53.859717516068876" lon="11.181327768766982"><ele>37.285714285714285</ele><time>2026-03-22T13:06:41.999Z</time></trkpt><trkpt lat="53.85965919817852" lon="11.181407898214717"><ele>37.0</ele><time>2026-03-22T13:06:42.999Z</time></trkpt><trkpt lat="53.859593632286135" lon="11.18146584488789"><ele>37.0</ele><time>2026-03-22T13:06:43.999Z</time></trkpt><trkpt lat="53.85953560027039" lon="11.181536308007818"><ele>37.0</ele><time>2026-03-22T13:06:44.999Z</time></trkpt><trkpt lat="53.859477071485344" lon="11.181607374232906"><ele>37.0</ele><time>2026-03-22T13:06:45.999Z</time></trkpt><trkpt lat="53.85941516930182" lon="11.18168153402134"><ele>37.0</ele><time>2026-03-22T13:06:46.999Z</time></trkpt><trkpt lat="53.8593510032522" lon="11.181756929899203"><ele>37.0</ele><time>2026-03-22T13:06:47.999Z</time></trkpt><trkpt lat="53.859284562067515" lon="11.181831307637035"><ele>37.0</ele><time>2026-03-22T13:06:48.999Z</time></trkpt><trkpt lat="53.85921456810184" lon="11.181909650834703"><ele>36.66666666666667</ele><time>2026-03-22T13:06:49.999Z</time></trkpt><trkpt lat="53.85914157237779" lon="11.18198752670653"><ele>36.333333333333336</ele><time>2026-03-22T13:06:50.999Z</time></trkpt><trkpt lat="53.859068326451194" lon="11.182063213187778"><ele>36.0</ele><time>2026-03-22T13:06:51.999Z</time></trkpt><trkpt lat="53.85899396970744" lon="11.182137229413431"><ele>35.666666666666664</ele><time>2026-03-22T13:06:52.999Z</time></trkpt><trkpt lat="53.85892206944588" lon="11.182208968828274"><ele>35.33333333333333</ele><time>2026-03-22T13:06:53.999Z</time></trkpt><trkpt lat="53.858850017108615" lon="11.182280649368959"><ele>35.0</ele><time>2026-03-22T13:06:54.999Z</time></trkpt><trkpt lat="53.85877994425172" lon="11.182350360677315"><ele>35.0</ele><time>2026-03-22T13:06:55.999Z</time></trkpt><trkpt lat="53.85871323697919" lon="11.182416723784476"><ele>35.0</ele><time>2026-03-22T13:06:56.999Z</time></trkpt><trkpt lat="53.85865005772181" lon="11.182479577017402"><ele>35.0</ele><time>2026-03-22T13:06:57.999Z</time></trkpt><trkpt lat="53.85859008587543" lon="11.182539234506779"><ele>35.0</ele><time>2026-03-22T13:06:58.999Z</time></trkpt><trkpt lat="53.85849517339495" lon="11.182633645832704"><ele>35.0</ele><time>2026-03-22T13:07:00.999Z</time></trkpt><trkpt lat="53.85842274519701" lon="11.182705524279523"><ele>35.0</ele><time>2026-03-22T13:07:02.999Z</time></trkpt><trkpt lat="53.85835849198779" lon="11.182858478059348"><ele>34.6</ele><time>2026-03-22T13:07:04.999Z</time></trkpt><trkpt lat="53.858257678005046" lon="11.182894002386023"><ele>34.2</ele><time>2026-03-22T13:07:06.999Z</time></trkpt><trkpt lat="53.8581063266821" lon="11.182820763914258"><ele>33.8</ele><time>2026-03-22T13:07:08.999Z</time></trkpt><trkpt lat="53.85807371925279" lon="11.182961571113177"><ele>33.4</ele><time>2026-03-22T13:07:09.999Z</time></trkpt><trkpt lat="53.85799903925279" lon="11.182975516160564"><ele>33.0</ele><time>2026-03-22T13:07:10.999Z</time></trkpt><trkpt lat="53.85791890100893" lon="11.182973264344179"><ele>33.0</ele><time>2026-03-22T13:07:11.999Z</time></trkpt><trkpt lat="53.85783381292763" lon="11.18297839959396"><ele>33.0</ele><time>2026-03-22T13:07:12.999Z</time></trkpt><trkpt lat="53.85773684272965" lon="11.182723383449513"><ele>33.0</ele><time>2026-03-22T13:07:13.999Z</time></trkpt><trkpt lat="53.85764089205426" lon="11.182722824178942"><ele>33.0</ele><time>2026-03-22T13:07:14.999Z</time></trkpt><trkpt lat="53.85755221776394" lon="11.182710837772587"><ele>33.0</ele><time>2026-03-22T13:07:15.999Z</time></trkpt><trkpt lat="53.85745849116945" lon="11.182689707653415"><ele>32.833333333333336</ele><time>2026-03-22T13:07:16.999Z</time></trkpt><trkpt lat="53.8573691897288" lon="11.182668081913244"><ele>32.666666666666664</ele><time>2026-03-22T13:07:17.999Z</time></trkpt><trkpt lat="53.857275043589375" lon="11.182644216494712"><ele>32.5</ele><time>2026-03-22T13:07:18.999Z</time></trkpt><trkpt lat="53.85718329047701" lon="11.182629486316484"><ele>32.33333333333333</ele><time>2026-03-22T13:07:19.999Z</time></trkpt><trkpt lat="53.857117128681075" lon="11.18262948631786"><ele>32.166666666666664</ele><time>2026-03-22T13:07:20.999Z</time></trkpt><trkpt lat="53.85702649696957" lon="11.182629486321062"><ele>32.0</ele><time>2026-03-22T13:07:22.999Z</time></trkpt><trkpt lat="53.85703225588621" lon="11.183069444314011"><ele>32.0</ele><time>2026-03-22T13:07:23.999Z</time></trkpt><trkpt lat="53.85703174729113" lon="11.183219506814304"><ele>32.0</ele><time>2026-03-22T13:07:24.999Z</time></trkpt><trkpt lat="53.85703108145095" lon="11.183415962653099"><ele>32.0</ele><time>2026-03-22T13:07:25.999Z</time></trkpt><trkpt lat="53.85701858621328" lon="11.183624914209966"><ele>32.0</ele><time>2026-03-22T13:07:26.999Z</time></trkpt><trkpt lat="53.857032609549286" lon="11.18384335795954"><ele>32.25</ele><time>2026-03-22T13:07:27.999Z</time></trkpt><trkpt lat="53.85702076455907" lon="11.184074045353153"><ele>32.5</ele><time>2026-03-22T13:07:28.999Z</time></trkpt><trkpt lat="53.85701917333855" lon="11.184315849614118"><ele>32.75</ele><time>2026-03-22T13:07:29.999Z</time></trkpt><trkpt lat="53.85701532213736" lon="11.184570800576065"><ele>33.0</ele><time>2026-03-22T13:07:30.999Z</time></trkpt><trkpt lat="53.85702380701279" lon="11.184834208561162"><ele>33.0</ele><time>2026-03-22T13:07:31.999Z</time></trkpt><trkpt lat="53.85704155765974" lon="11.1851031681538"><ele>33.0</ele><time>2026-03-22T13:07:32.999Z</time></trkpt><trkpt lat="53.857061418651554" lon="11.185387401067318"><ele>33.0</ele><time>2026-03-22T13:07:33.999Z</time></trkpt><trkpt lat="53.857076520801584" lon="11.185686478112201"><ele>32.333333333333336</ele><time>2026-03-22T13:07:34.999Z</time></trkpt><trkpt lat="53.85708281495942" lon="11.185983330354775"><ele>31.666666666666668</ele><time>2026-03-22T13:07:35.999Z</time></trkpt><trkpt lat="53.85708678873074" lon="11.186287684869267"><ele>31.0</ele><time>2026-03-22T13:07:36.999Z</time></trkpt><trkpt lat="53.85709368859807" lon="11.18657552767391"><ele>31.0</ele><time>2026-03-22T13:07:37.999Z</time></trkpt><trkpt lat="53.8570772425085" lon="11.186865949056681"><ele>31.0</ele><time>2026-03-22T13:07:38.999Z</time></trkpt><trkpt lat="53.85704740601285" lon="11.187156616414594"><ele>31.0</ele><time>2026-03-22T13:07:39.999Z</time></trkpt><trkpt lat="53.85700427761785" lon="11.187397068859296"><ele>31.0</ele><time>2026-03-22T13:07:40.999Z</time></trkpt><trkpt lat="53.856960068697504" lon="11.18762168543136"><ele>31.0</ele><time>2026-03-22T13:07:41.999Z</time></trkpt><trkpt lat="53.85690959818163" lon="11.187836824291418"><ele>31.0</ele><time>2026-03-22T13:07:42.999Z</time></trkpt><trkpt lat="53.856864279128246" lon="11.188044757020384"><ele>31.0</ele><time>2026-03-22T13:07:43.999Z</time></trkpt><trkpt lat="53.8568271279298" lon="11.18821859805821"><ele>31.666666666666668</ele><time>2026-03-22T13:07:44.999Z</time></trkpt><trkpt lat="53.85675893606657" lon="11.188339008117927"><ele>32.333333333333336</ele><time>2026-03-22T13:07:45.999Z</time></trkpt><trkpt lat="53.8567284112661" lon="11.188493012333362"><ele>33.0</ele><time>2026-03-22T13:07:46.999Z</time></trkpt><trkpt lat="53.85668416527192" lon="11.188594347804711"><ele>33.666666666666664</ele><time>2026-03-22T13:07:47.999Z</time></trkpt><trkpt lat="53.856645870983776" lon="11.188693848494047"><ele>34.33333333333333</ele><time>2026-03-22T13:07:48.999Z</time></trkpt><trkpt lat="53.856615820888855" lon="11.188799520515998"><ele>35.0</ele><time>2026-03-22T13:07:49.999Z</time></trkpt><trkpt lat="53.85654426875946" lon="11.188858811944296"><ele>35.0</ele><time>2026-03-22T13:07:50.999Z</time></trkpt><trkpt lat="53.85649440148834" lon="11.188957517734401"><ele>35.0</ele><time>2026-03-22T13:07:51.999Z</time></trkpt><trkpt lat="53.85643927024994" lon="11.18906422903621"><ele>35.0</ele><time>2026-03-22T13:07:52.999Z</time></trkpt><trkpt lat="53.85638360385814" lon="11.189170694498369"><ele>35.0</ele><time>2026-03-22T13:07:53.999Z</time></trkpt><trkpt lat="53.85631923546958" lon="11.189286483369953"><ele>35.0</ele><time>2026-03-22T13:07:54.999Z</time></trkpt><trkpt lat="53.856247738093614" lon="11.18939905522715"><ele>35.0</ele><time>2026-03-22T13:07:55.999Z</time></trkpt><trkpt lat="53.856164094126434" lon="11.189512232528926"><ele>35.0</ele><time>2026-03-22T13:07:56.999Z</time></trkpt><trkpt lat="53.85611476628123" lon="11.189645934958621"><ele>35.0</ele><time>2026-03-22T13:07:57.999Z</time></trkpt><trkpt lat="53.85607231004325" lon="11.189810939396427"><ele>35.0</ele><time>2026-03-22T13:07:58.999Z</time></trkpt><trkpt lat="53.85605634625269" lon="11.18999116465736"><ele>35.0</ele><time>2026-03-22T13:07:59.999Z</time></trkpt><trkpt lat="53.856046251517974" lon="11.190166451273658"><ele>35.0</ele><time>2026-03-22T13:08:00.999Z</time></trkpt><trkpt lat="53.85607554457225" lon="11.19032356685946"><ele>35.0</ele><time>2026-03-22T13:08:01.999Z</time></trkpt><trkpt lat="53.856119302179735" lon="11.19043672234448"><ele>35.0</ele><time>2026-03-22T13:08:02.999Z</time></trkpt><trkpt lat="53.85617630387638" lon="11.190559475037894"><ele>35.0</ele><time>2026-03-22T13:08:03.999Z</time></trkpt><trkpt lat="53.856245630439886" lon="11.19066892519986"><ele>35.0</ele><time>2026-03-22T13:08:04.999Z</time></trkpt><trkpt lat="53.85632961356327" lon="11.190782408994085"><ele>35.0</ele><time>2026-03-22T13:08:05.999Z</time></trkpt><trkpt lat="53.85641512317733" lon="11.190863623522858"><ele>34.666666666666664</ele><time>2026-03-22T13:08:06.999Z</time></trkpt><trkpt lat="53.85649235197069" lon="11.190961045976778"><ele>34.33333333333333</ele><time>2026-03-22T13:08:07.999Z</time></trkpt><trkpt lat="53.85656148346726" lon="11.191054106174594"><ele>34.0</ele><time>2026-03-22T13:08:08.998Z</time></trkpt><trkpt lat="53.85662057647308" lon="11.191154785771795"><ele>33.666666666666664</ele><time>2026-03-22T13:08:09.998Z</time></trkpt><trkpt lat="53.85669161034994" lon="11.19124887987051"><ele>33.333333333333336</ele><time>2026-03-22T13:08:10.998Z</time></trkpt><trkpt lat="53.856763836480575" lon="11.191323209127368"><ele>33.0</ele><time>2026-03-22T13:08:11.998Z</time></trkpt><trkpt lat="53.85681949219359" lon="11.19144305371803"><ele>32.8</ele><time>2026-03-22T13:08:12.998Z</time></trkpt><trkpt lat="53.85687742853063" lon="11.191566448963528"><ele>32.599999999999994</ele><time>2026-03-22T13:08:13.998Z</time></trkpt><trkpt lat="53.856947687719455" lon="11.191669340793073"><ele>32.400000000000006</ele><time>2026-03-22T13:08:14.998Z</time></trkpt><trkpt lat="53.85702168667458" lon="11.191730529565543"><ele>32.2</ele><time>2026-03-22T13:08:15.998Z</time></trkpt><trkpt lat="53.85709917190426" lon="11.191865620303195"><ele>32.0</ele><time>2026-03-22T13:08:17.998Z</time></trkpt><trkpt lat="53.857163207434674" lon="11.19205267408226"><ele>31.999999999999996</ele><time>2026-03-22T13:08:19.998Z</time></trkpt><trkpt lat="53.8571674375518" lon="11.192163242103874"><ele>32.0</ele><time>2026-03-22T13:08:20.998Z</time></trkpt><trkpt lat="53.857115405108594" lon="11.192276960113878"><ele>32.0</ele><time>2026-03-22T13:08:21.998Z</time></trkpt><trkpt lat="53.857072705825374" lon="11.192402187823225"><ele>32.0</ele><time>2026-03-22T13:08:22.998Z</time></trkpt><trkpt lat="53.85705089469579" lon="11.19253033551863"><ele>31.999999999999996</ele><time>2026-03-22T13:08:23.998Z</time></trkpt><trkpt lat="53.85699927437314" lon="11.19269080856011"><ele>32.0</ele><time>2026-03-22T13:08:24.998Z</time></trkpt><trkpt lat="53.85699989994751" lon="11.192880912258792"><ele>32.0</ele><time>2026-03-22T13:08:25.998Z</time></trkpt><trkpt lat="53.8570460698895" lon="11.193103574232664"><ele>32.0</ele><time>2026-03-22T13:08:26.998Z</time></trkpt><trkpt lat="53.85704634285081" lon="11.19332114147765"><ele>32.0</ele><time>2026-03-22T13:08:27.998Z</time></trkpt><trkpt lat="53.857049308494744" lon="11.193571481450682"><ele>32.0</ele><time>2026-03-22T13:08:28.998Z</time></trkpt><trkpt lat="53.857058509279184" lon="11.193818080412267"><ele>32.0</ele><time>2026-03-22T13:08:29.998Z</time></trkpt><trkpt lat="53.85706241776425" lon="11.194061188542404"><ele>32.0</ele><time>2026-03-22T13:08:30.998Z</time></trkpt><trkpt lat="53.85705817441181" lon="11.194280077518002"><ele>32.0</ele><time>2026-03-22T13:08:31.998Z</time></trkpt><trkpt lat="53.85700814208519" lon="11.194497166767395"><ele>32.0</ele><time>2026-03-22T13:08:32.998Z</time></trkpt><trkpt lat="53.85707572872183" lon="11.194708208344661"><ele>31.25</ele><time>2026-03-22T13:08:33.998Z</time></trkpt><trkpt lat="53.85708232305846" lon="11.194919346860482"><ele>30.5</ele><time>2026-03-22T13:08:34.998Z</time></trkpt><trkpt lat="53.85706924024417" lon="11.195130715167943"><ele>29.75</ele><time>2026-03-22T13:08:35.998Z</time></trkpt><trkpt lat="53.857067591326924" lon="11.195347193870392"><ele>29.0</ele><time>2026-03-22T13:08:36.998Z</time></trkpt><trkpt lat="53.85705223419152" lon="11.19556557319063"><ele>29.0</ele><time>2026-03-22T13:08:37.998Z</time></trkpt><trkpt lat="53.857046907768044" lon="11.195787170179958"><ele>29.0</ele><time>2026-03-22T13:08:38.998Z</time></trkpt><trkpt lat="53.857052369422846" lon="11.195990416889462"><ele>29.0</ele><time>2026-03-22T13:08:39.998Z</time></trkpt><trkpt lat="53.85708750189461" lon="11.196171563677467"><ele>29.0</ele><time>2026-03-22T13:08:40.998Z</time></trkpt><trkpt lat="53.857093699511864" lon="11.196354781589818"><ele>29.0</ele><time>2026-03-22T13:08:41.998Z</time></trkpt><trkpt lat="53.857078017065646" lon="11.196547768660869"><ele>29.0</ele><time>2026-03-22T13:08:42.998Z</time></trkpt><trkpt lat="53.85705845641286" lon="11.196724329724203"><ele>29.0</ele><time>2026-03-22T13:08:43.998Z</time></trkpt><trkpt lat="53.85704388534085" lon="11.196906158239536"><ele>29.0</ele><time>2026-03-22T13:08:44.998Z</time></trkpt><trkpt lat="53.85702697020994" lon="11.197072288836385"><ele>29.0</ele><time>2026-03-22T13:08:45.998Z</time></trkpt><trkpt lat="53.85702072857453" lon="11.197239874262888"><ele>28.799999999999997</ele><time>2026-03-22T13:08:46.998Z</time></trkpt><trkpt lat="53.85698000961056" lon="11.197399108236702"><ele>28.599999999999998</ele><time>2026-03-22T13:08:47.998Z</time></trkpt><trkpt lat="53.856955418211605" lon="11.197560936832005"><ele>28.4</ele><time>2026-03-22T13:08:48.998Z</time></trkpt><trkpt lat="53.85692502699027" lon="11.197716171260199"><ele>28.2</ele><time>2026-03-22T13:08:49.998Z</time></trkpt><trkpt lat="53.85687189142312" lon="11.197881943224067"><ele>28.0</ele><time>2026-03-22T13:08:50.998Z</time></trkpt><trkpt lat="53.85680856234033" lon="11.198040641509058"><ele>27.5</ele><time>2026-03-22T13:08:51.998Z</time></trkpt><trkpt lat="53.85671579936084" lon="11.198183653744579"><ele>27.0</ele><time>2026-03-22T13:08:52.998Z</time></trkpt><trkpt lat="53.85662093809695" lon="11.198300330852293"><ele>26.5</ele><time>2026-03-22T13:08:53.998Z</time></trkpt><trkpt lat="53.85653740363417" lon="11.198422918265834"><ele>26.0</ele><time>2026-03-22T13:08:54.998Z</time></trkpt><trkpt lat="53.85645057891084" lon="11.198550333892687"><ele>26.0</ele><time>2026-03-22T13:08:55.998Z</time></trkpt><trkpt lat="53.856363607947856" lon="11.198664237273992"><ele>26.0</ele><time>2026-03-22T13:08:56.998Z</time></trkpt><trkpt lat="53.856267046298115" lon="11.198779248314016"><ele>26.0</ele><time>2026-03-22T13:08:57.998Z</time></trkpt><trkpt lat="53.856179772826266" lon="11.198879230554883"><ele>26.0</ele><time>2026-03-22T13:08:58.998Z</time></trkpt><trkpt lat="53.85608582228307" lon="11.198985818087236"><ele>26.0</ele><time>2026-03-22T13:08:59.998Z</time></trkpt><trkpt lat="53.8559950107329" lon="11.199088844376327"><ele>26.0</ele><time>2026-03-22T13:09:00.999Z</time></trkpt><trkpt lat="53.85590874105646" lon="11.199186718078707"><ele>26.0</ele><time>2026-03-22T13:09:01.999Z</time></trkpt><trkpt lat="53.85580645719081" lon="11.199302759646212"><ele>26.0</ele><time>2026-03-22T13:09:02.999Z</time></trkpt><trkpt lat="53.855708097496795" lon="11.199414348896733"><ele>26.0</ele><time>2026-03-22T13:09:03.999Z</time></trkpt><trkpt lat="53.855605585737436" lon="11.19952846987412"><ele>26.0</ele><time>2026-03-22T13:09:04.999Z</time></trkpt><trkpt lat="53.855505314555586" lon="11.1996388446946"><ele>26.0</ele><time>2026-03-22T13:09:05.999Z</time></trkpt><trkpt lat="53.85539962563496" lon="11.199754364464486"><ele>26.0</ele><time>2026-03-22T13:09:06.999Z</time></trkpt><trkpt lat="53.85530258989908" lon="11.199863464144638"><ele>26.0</ele><time>2026-03-22T13:09:07.999Z</time></trkpt><trkpt lat="53.85519844426152" lon="11.199983398191627"><ele>26.0</ele><time>2026-03-22T13:09:08.999Z</time></trkpt><trkpt lat="53.855084199989214" lon="11.200115867612432"><ele>26.0</ele><time>2026-03-22T13:09:09.999Z</time></trkpt><trkpt lat="53.85497342506715" lon="11.200251113977936"><ele>26.0</ele><time>2026-03-22T13:09:10.999Z</time></trkpt><trkpt lat="53.85486944167908" lon="11.200380339016474"><ele>26.0</ele><time>2026-03-22T13:09:11.999Z</time></trkpt><trkpt lat="53.85475828959805" lon="11.20052397302706"><ele>26.0</ele><time>2026-03-22T13:09:12.999Z</time></trkpt><trkpt lat="53.85465047812534" lon="11.200664930494064"><ele>26.0</ele><time>2026-03-22T13:09:13.999Z</time></trkpt><trkpt lat="53.854538897590004" lon="11.20081655474923"><ele>26.0</ele><time>2026-03-22T13:09:14.999Z</time></trkpt><trkpt lat="53.85442699923082" lon="11.200976128501608"><ele>26.0</ele><time>2026-03-22T13:09:15.999Z</time></trkpt><trkpt lat="53.85432872785657" lon="11.201117778125647"><ele>25.5</ele><time>2026-03-22T13:09:16.999Z</time></trkpt><trkpt lat="53.85423345875576" lon="11.201259565159138"><ele>25.0</ele><time>2026-03-22T13:09:17.999Z</time></trkpt><trkpt lat="53.85414547189618" lon="11.201395306855368"><ele>24.5</ele><time>2026-03-22T13:09:18.999Z</time></trkpt><trkpt lat="53.8540532930309" lon="11.201536243205497"><ele>24.0</ele><time>2026-03-22T13:09:19.999Z</time></trkpt><trkpt lat="53.85395018530382" lon="11.201682195389251"><ele>24.0</ele><time>2026-03-22T13:09:20.999Z</time></trkpt><trkpt lat="53.85384841100657" lon="11.201840606877164"><ele>24.0</ele><time>2026-03-22T13:09:21.999Z</time></trkpt><trkpt lat="53.853735584721214" lon="11.201967430324872"><ele>24.0</ele><time>2026-03-22T13:09:22.999Z</time></trkpt><trkpt lat="53.85362025344284" lon="11.202106771375265"><ele>24.0</ele><time>2026-03-22T13:09:23.999Z</time></trkpt><trkpt lat="53.85349225485946" lon="11.202247057277754"><ele>23.25</ele><time>2026-03-22T13:09:24.999Z</time></trkpt><trkpt lat="53.853358733008484" lon="11.202368345755996"><ele>22.5</ele><time>2026-03-22T13:09:25.999Z</time></trkpt><trkpt lat="53.85321977005502" lon="11.20246332906463"><ele>21.75</ele><time>2026-03-22T13:09:26.999Z</time></trkpt><trkpt lat="53.85309450671083" lon="11.2025652324856"><ele>21.0</ele><time>2026-03-22T13:09:27.999Z</time></trkpt><trkpt lat="53.85297757366655" lon="11.202652122295957"><ele>21.0</ele><time>2026-03-22T13:09:28.999Z</time></trkpt><trkpt lat="53.852859713933185" lon="11.202734164189106"><ele>21.0</ele><time>2026-03-22T13:09:29.999Z</time></trkpt><trkpt lat="53.85273661705644" lon="11.202811940352472"><ele>21.0</ele><time>2026-03-22T13:09:30.999Z</time></trkpt><trkpt lat="53.852619011097495" lon="11.202882689422214"><ele>21.0</ele><time>2026-03-22T13:09:31.999Z</time></trkpt><trkpt lat="53.85249121255037" lon="11.202956228642774"><ele>21.25</ele><time>2026-03-22T13:09:32.999Z</time></trkpt><trkpt lat="53.852351160961724" lon="11.203027893557335"><ele>21.5</ele><time>2026-03-22T13:09:33.999Z</time></trkpt><trkpt lat="53.8522157710232" lon="11.203093726534313"><ele>21.75</ele><time>2026-03-22T13:09:34.999Z</time></trkpt><trkpt lat="53.85209013934609" lon="11.203152618384776"><ele>22.0</ele><time>2026-03-22T13:09:35.999Z</time></trkpt><trkpt lat="53.85194879813331" lon="11.203218258717692"><ele>22.0</ele><time>2026-03-22T13:09:36.999Z</time></trkpt><trkpt lat="53.85181364896313" lon="11.203277221561851"><ele>22.0</ele><time>2026-03-22T13:09:37.999Z</time></trkpt><trkpt lat="53.85168051127249" lon="11.203337674860329"><ele>22.0</ele><time>2026-03-22T13:09:38.999Z</time></trkpt><trkpt lat="53.85155270104078" lon="11.203399737845833"><ele>22.0</ele><time>2026-03-22T13:09:39.999Z</time></trkpt><trkpt lat="53.85143090823023" lon="11.203469953068018"><ele>22.0</ele><time>2026-03-22T13:09:40.999Z</time></trkpt><trkpt lat="53.85132330529161" lon="11.203539967266462"><ele>22.0</ele><time>2026-03-22T13:09:41.999Z</time></trkpt><trkpt lat="53.85122182842148" lon="11.203608050525865"><ele>22.0</ele><time>2026-03-22T13:09:42.999Z</time></trkpt><trkpt lat="53.85110510291781" lon="11.203691403628785"><ele>22.0</ele><time>2026-03-22T13:09:43.999Z</time></trkpt><trkpt lat="53.85099970901206" lon="11.203778290209128"><ele>22.25</ele><time>2026-03-22T13:09:44.999Z</time></trkpt><trkpt lat="53.85089340598524" lon="11.2038728389414"><ele>22.5</ele><time>2026-03-22T13:09:45.999Z</time></trkpt><trkpt lat="53.85079835622036" lon="11.203987996753002"><ele>22.75</ele><time>2026-03-22T13:09:46.999Z</time></trkpt><trkpt lat="53.850693216883606" lon="11.204054468749604"><ele>23.0</ele><time>2026-03-22T13:09:47.999Z</time></trkpt><trkpt lat="53.8506005009014" lon="11.204174346059071"><ele>22.666666666666668</ele><time>2026-03-22T13:09:48.999Z</time></trkpt><trkpt lat="53.85051358490528" lon="11.20426921179883"><ele>22.333333333333336</ele><time>2026-03-22T13:09:49.999Z</time></trkpt><trkpt lat="53.850435437843124" lon="11.204365651506576"><ele>22.0</ele><time>2026-03-22T13:09:50.999Z</time></trkpt><trkpt lat="53.8503776004678" lon="11.204476749778642"><ele>21.666666666666668</ele><time>2026-03-22T13:09:51.999Z</time></trkpt><trkpt lat="53.85033698490515" lon="11.204619387935221"><ele>21.333333333333332</ele><time>2026-03-22T13:09:52.999Z</time></trkpt><trkpt lat="53.85031740954073" lon="11.204727976190696"><ele>21.0</ele><time>2026-03-22T13:09:53.999Z</time></trkpt><trkpt lat="53.85029871231541" lon="11.20491061889322"><ele>20.8</ele><time>2026-03-22T13:09:55.999Z</time></trkpt><trkpt lat="53.85029869605338" lon="11.205080849396746"><ele>20.6</ele><time>2026-03-22T13:09:57.999Z</time></trkpt><trkpt lat="53.85024253917164" lon="11.205219382608664"><ele>20.4</ele><time>2026-03-22T13:09:59.999Z</time></trkpt><trkpt lat="53.8501850590541" lon="11.205303260521124"><ele>20.2</ele><time>2026-03-22T13:10:00.999Z</time></trkpt><trkpt lat="53.850097947568486" lon="11.20532568978624"><ele>20.0</ele><time>2026-03-22T13:10:01.999Z</time></trkpt><trkpt lat="53.849990477737684" lon="11.20536158152823"><ele>20.75</ele><time>2026-03-22T13:10:02.999Z</time></trkpt><trkpt lat="53.849874738356284" lon="11.205359551037965"><ele>21.5</ele><time>2026-03-22T13:10:03.999Z</time></trkpt><trkpt lat="53.849751190113984" lon="11.2053550688676"><ele>22.25</ele><time>2026-03-22T13:10:04.999Z</time></trkpt><trkpt lat="53.8496329884379" lon="11.20537236724056"><ele>23.0</ele><time>2026-03-22T13:10:05.999Z</time></trkpt><trkpt lat="53.849512975530246" lon="11.205388524408036"><ele>23.0</ele><time>2026-03-22T13:10:06.999Z</time></trkpt><trkpt lat="53.84939041968262" lon="11.20544305892018"><ele>23.0</ele><time>2026-03-22T13:10:07.999Z</time></trkpt><trkpt lat="53.849254039816564" lon="11.205485666054159"><ele>23.0</ele><time>2026-03-22T13:10:08.999Z</time></trkpt><trkpt lat="53.84911755897386" lon="11.205537471176811"><ele>23.0</ele><time>2026-03-22T13:10:09.999Z</time></trkpt><trkpt lat="53.8489812829979" lon="11.205572102914052"><ele>23.333333333333336</ele><time>2026-03-22T13:10:10.999Z</time></trkpt><trkpt lat="53.84882985092445" lon="11.205631943292248"><ele>23.666666666666668</ele><time>2026-03-22T13:10:11.999Z</time></trkpt><trkpt lat="53.84868621579773" lon="11.205710035937749"><ele>24.0</ele><time>2026-03-22T13:10:12.999Z</time></trkpt><trkpt lat="53.84854002134274" lon="11.205782281545034"><ele>24.666666666666664</ele><time>2026-03-22T13:10:13.999Z</time></trkpt><trkpt lat="53.84840156419198" lon="11.205836062253573"><ele>25.333333333333332</ele><time>2026-03-22T13:10:14.999Z</time></trkpt><trkpt lat="53.848253252058086" lon="11.205932029663071"><ele>26.0</ele><time>2026-03-22T13:10:15.999Z</time></trkpt><trkpt lat="53.84811560723594" lon="11.206032383177696"><ele>26.0</ele><time>2026-03-22T13:10:16.999Z</time></trkpt><trkpt lat="53.847967114239125" lon="11.206141348894683"><ele>26.0</ele><time>2026-03-22T13:10:17.998Z</time></trkpt><trkpt lat="53.847816961477605" lon="11.206245123292183"><ele>26.0</ele><time>2026-03-22T13:10:18.998Z</time></trkpt><trkpt lat="53.84766278282851" lon="11.20634499278124"><ele>26.333333333333332</ele><time>2026-03-22T13:10:19.998Z</time></trkpt><trkpt lat="53.84750734466877" lon="11.206459705554858"><ele>26.666666666666664</ele><time>2026-03-22T13:10:20.998Z</time></trkpt><trkpt lat="53.84734262032254" lon="11.2065460057356"><ele>27.0</ele><time>2026-03-22T13:10:21.998Z</time></trkpt><trkpt lat="53.84718466514595" lon="11.206645493151154"><ele>27.0</ele><time>2026-03-22T13:10:22.998Z</time></trkpt><trkpt lat="53.84702065734593" lon="11.206751610478154"><ele>27.0</ele><time>2026-03-22T13:10:23.998Z</time></trkpt><trkpt lat="53.846852564146836" lon="11.20684050905894"><ele>27.0</ele><time>2026-03-22T13:10:24.998Z</time></trkpt><trkpt lat="53.84668035823106" lon="11.206928993324988"><ele>27.0</ele><time>2026-03-22T13:10:25.998Z</time></trkpt><trkpt lat="53.84650377026298" lon="11.207026378514227"><ele>27.0</ele><time>2026-03-22T13:10:26.998Z</time></trkpt><trkpt lat="53.846336030092104" lon="11.20713530214518"><ele>27.0</ele><time>2026-03-22T13:10:27.998Z</time></trkpt><trkpt lat="53.84617941772096" lon="11.207231922785208"><ele>28.0</ele><time>2026-03-22T13:10:28.998Z</time></trkpt><trkpt lat="53.84601266096549" lon="11.207330544121092"><ele>29.0</ele><time>2026-03-22T13:10:29.998Z</time></trkpt><trkpt lat="53.84583580706534" lon="11.207413728225644"><ele>30.0</ele><time>2026-03-22T13:10:30.998Z</time></trkpt><trkpt lat="53.84567615214047" lon="11.207481485248918"><ele>30.666666666666664</ele><time>2026-03-22T13:10:31.998Z</time></trkpt><trkpt lat="53.845523012490716" lon="11.20757092022732"><ele>31.333333333333332</ele><time>2026-03-22T13:10:32.998Z</time></trkpt><trkpt lat="53.845383540034426" lon="11.207658687994376"><ele>32.0</ele><time>2026-03-22T13:10:33.998Z</time></trkpt><trkpt lat="53.84523810976909" lon="11.207738623488943"><ele>34.0</ele><time>2026-03-22T13:10:34.998Z</time></trkpt><trkpt lat="53.8450827988921" lon="11.207842278669968"><ele>36.0</ele><time>2026-03-22T13:10:35.998Z</time></trkpt><trkpt lat="53.84494030160655" lon="11.207917031558893"><ele>38.0</ele><time>2026-03-22T13:10:36.998Z</time></trkpt><trkpt lat="53.84479936890407" lon="11.20801045736879"><ele>38.0</ele><time>2026-03-22T13:10:37.998Z</time></trkpt><trkpt lat="53.84464906463102" lon="11.208071770466177"><ele>38.0</ele><time>2026-03-22T13:10:38.998Z</time></trkpt><trkpt lat="53.84450980768289" lon="11.208172726620587"><ele>38.0</ele><time>2026-03-22T13:10:39.998Z</time></trkpt><trkpt lat="53.844361771832524" lon="11.2082628640549"><ele>39.0</ele><time>2026-03-22T13:10:40.998Z</time></trkpt><trkpt lat="53.84420766457233" lon="11.208331645462886"><ele>40.0</ele><time>2026-03-22T13:10:41.998Z</time></trkpt><trkpt lat="53.84405686927562" lon="11.208445954131072"><ele>41.0</ele><time>2026-03-22T13:10:42.998Z</time></trkpt><trkpt lat="53.84390166586597" lon="11.208516296353595"><ele>41.0</ele><time>2026-03-22T13:10:43.998Z</time></trkpt><trkpt lat="53.84375651054668" lon="11.20862404177109"><ele>41.0</ele><time>2026-03-22T13:10:44.998Z</time></trkpt><trkpt lat="53.84360061600459" lon="11.208705387879956"><ele>41.0</ele><time>2026-03-22T13:10:45.998Z</time></trkpt><trkpt lat="53.84343959640443" lon="11.208804996941767"><ele>41.33333333333333</ele><time>2026-03-22T13:10:46.998Z</time></trkpt><trkpt lat="53.84327505748866" lon="11.208917801707532"><ele>41.666666666666664</ele><time>2026-03-22T13:10:47.998Z</time></trkpt><trkpt lat="53.8431093006439" lon="11.208989973319563"><ele>42.0</ele><time>2026-03-22T13:10:48.998Z</time></trkpt><trkpt lat="53.842956538573134" lon="11.209055812789542"><ele>42.333333333333336</ele><time>2026-03-22T13:10:49.998Z</time></trkpt><trkpt lat="53.84279454421193" lon="11.209088985231224"><ele>42.66666666666667</ele><time>2026-03-22T13:10:50.998Z</time></trkpt><trkpt lat="53.84260923859983" lon="11.209101480275457"><ele>43.0</ele><time>2026-03-22T13:10:51.998Z</time></trkpt><trkpt lat="53.84243448876078" lon="11.209101711460878"><ele>43.333333333333336</ele><time>2026-03-22T13:10:52.998Z</time></trkpt><trkpt lat="53.84226011310225" lon="11.209091804961698"><ele>43.666666666666664</ele><time>2026-03-22T13:10:53.998Z</time></trkpt><trkpt lat="53.842084391477826" lon="11.209074367549619"><ele>44.0</ele><time>2026-03-22T13:10:54.998Z</time></trkpt><trkpt lat="53.841910850795955" lon="11.209056326185664"><ele>44.33333333333333</ele><time>2026-03-22T13:10:55.998Z</time></trkpt><trkpt lat="53.841742807770515" lon="11.209037490874252"><ele>44.666666666666664</ele><time>2026-03-22T13:10:56.998Z</time></trkpt><trkpt lat="53.84156435167181" lon="11.209015310639762"><ele>45.0</ele><time>2026-03-22T13:10:57.998Z</time></trkpt><trkpt lat="53.84140356095146" lon="11.20899532604021"><ele>45.0</ele><time>2026-03-22T13:10:58.998Z</time></trkpt><trkpt lat="53.841239972846495" lon="11.208960622373938"><ele>45.0</ele><time>2026-03-22T13:10:59.998Z</time></trkpt><trkpt lat="53.841082764140616" lon="11.208912256732365"><ele>45.0</ele><time>2026-03-22T13:11:00.998Z</time></trkpt><trkpt lat="53.840919792447764" lon="11.20889057374021"><ele>45.0</ele><time>2026-03-22T13:11:01.998Z</time></trkpt><trkpt lat="53.84075621143581" lon="11.208847145148608"><ele>45.0</ele><time>2026-03-22T13:11:02.998Z</time></trkpt><trkpt lat="53.84058598138726" lon="11.208848023367864"><ele>45.0</ele><time>2026-03-22T13:11:03.998Z</time></trkpt><trkpt lat="53.840412773278345" lon="11.208847121891843"><ele>45.0</ele><time>2026-03-22T13:11:04.998Z</time></trkpt><trkpt lat="53.84024212048271" lon="11.20885084124317"><ele>45.0</ele><time>2026-03-22T13:11:05.998Z</time></trkpt><trkpt lat="53.84006415459094" lon="11.208836555418978"><ele>45.0</ele><time>2026-03-22T13:11:06.998Z</time></trkpt><trkpt lat="53.83988981932419" lon="11.20882177227693"><ele>44.666666666666664</ele><time>2026-03-22T13:11:07.998Z</time></trkpt><trkpt lat="53.83972316959035" lon="11.208810716343006"><ele>44.33333333333333</ele><time>2026-03-22T13:11:08.998Z</time></trkpt><trkpt lat="53.83955403457331" lon="11.208800890374361"><ele>44.0</ele><time>2026-03-22T13:11:09.998Z</time></trkpt><trkpt lat="53.83938389829313" lon="11.208758957902976"><ele>44.0</ele><time>2026-03-22T13:11:10.998Z</time></trkpt><trkpt lat="53.839224945882194" lon="11.20865387433719"><ele>44.0</ele><time>2026-03-22T13:11:11.998Z</time></trkpt><trkpt lat="53.83906388099914" lon="11.208559625264062"><ele>44.0</ele><time>2026-03-22T13:11:12.998Z</time></trkpt><trkpt lat="53.838902193939674" lon="11.208453506929857"><ele>44.0</ele><time>2026-03-22T13:11:13.998Z</time></trkpt><trkpt lat="53.83874283306728" lon="11.208322681650133"><ele>44.0</ele><time>2026-03-22T13:11:14.998Z</time></trkpt><trkpt lat="53.838583350241194" lon="11.208175936579815"><ele>44.0</ele><time>2026-03-22T13:11:15.998Z</time></trkpt><trkpt lat="53.83842764989423" lon="11.208025573983232"><ele>44.0</ele><time>2026-03-22T13:11:16.998Z</time></trkpt><trkpt lat="53.838274111546056" lon="11.207877960431256"><ele>44.0</ele><time>2026-03-22T13:11:17.998Z</time></trkpt><trkpt lat="53.838123236616575" lon="11.207734908342514"><ele>44.0</ele><time>2026-03-22T13:11:18.998Z</time></trkpt><trkpt lat="53.83796903041663" lon="11.207609146278907"><ele>44.0</ele><time>2026-03-22T13:11:19.998Z</time></trkpt><trkpt lat="53.83783156838719" lon="11.20743016574925"><ele>44.0</ele><time>2026-03-22T13:11:20.998Z</time></trkpt><trkpt lat="53.83767791692884" lon="11.207322971956202"><ele>44.0</ele><time>2026-03-22T13:11:21.998Z</time></trkpt><trkpt lat="53.83752118451724" lon="11.20723711689358"><ele>44.0</ele><time>2026-03-22T13:11:22.998Z</time></trkpt><trkpt lat="53.83734694787041" lon="11.207158331713206"><ele>44.0</ele><time>2026-03-22T13:11:23.998Z</time></trkpt><trkpt lat="53.83717441919353" lon="11.207105121489704"><ele>44.0</ele><time>2026-03-22T13:11:24.998Z</time></trkpt><trkpt lat="53.83700169039599" lon="11.207043857089738"><ele>44.0</ele><time>2026-03-22T13:11:25.998Z</time></trkpt><trkpt lat="53.83681108671003" lon="11.207046596262423"><ele>44.0</ele><time>2026-03-22T13:11:26.998Z</time></trkpt><trkpt lat="53.83665176297459" lon="11.20705601957756"><ele>44.0</ele><time>2026-03-22T13:11:27.998Z</time></trkpt><trkpt lat="53.83650105367926" lon="11.207079902995318"><ele>44.0</ele><time>2026-03-22T13:11:28.998Z</time></trkpt><trkpt lat="53.8363387193285" lon="11.207126325249941"><ele>44.0</ele><time>2026-03-22T13:11:29.998Z</time></trkpt><trkpt lat="53.83617275140502" lon="11.207148398250219"><ele>44.0</ele><time>2026-03-22T13:11:30.998Z</time></trkpt><trkpt lat="53.83599726963919" lon="11.207221331899888"><ele>43.666666666666664</ele><time>2026-03-22T13:11:31.998Z</time></trkpt><trkpt lat="53.83583452027575" lon="11.207297154852945"><ele>43.333333333333336</ele><time>2026-03-22T13:11:32.998Z</time></trkpt><trkpt lat="53.83565041359986" lon="11.207374309887802"><ele>43.0</ele><time>2026-03-22T13:11:33.998Z</time></trkpt><trkpt lat="53.83547180307672" lon="11.207485796844344"><ele>43.0</ele><time>2026-03-22T13:11:34.998Z</time></trkpt><trkpt lat="53.83530155478671" lon="11.207575541299002"><ele>43.0</ele><time>2026-03-22T13:11:35.998Z</time></trkpt><trkpt lat="53.835144022082645" lon="11.207618468734864"><ele>43.0</ele><time>2026-03-22T13:11:36.998Z</time></trkpt><trkpt lat="53.835004241599414" lon="11.207706499039505"><ele>43.333333333333336</ele><time>2026-03-22T13:11:37.998Z</time></trkpt><trkpt lat="53.834849950739766" lon="11.207762400324665"><ele>43.666666666666664</ele><time>2026-03-22T13:11:38.998Z</time></trkpt><trkpt lat="53.834695199019855" lon="11.207853336378797"><ele>44.0</ele><time>2026-03-22T13:11:39.998Z</time></trkpt><trkpt lat="53.834542421056355" lon="11.207927365653964"><ele>44.0</ele><time>2026-03-22T13:11:40.998Z</time></trkpt><trkpt lat="53.83438121714247" lon="11.208006962475057"><ele>44.0</ele><time>2026-03-22T13:11:41.998Z</time></trkpt><trkpt lat="53.83422465467279" lon="11.208100012252787"><ele>44.0</ele><time>2026-03-22T13:11:42.998Z</time></trkpt><trkpt lat="53.83406189892771" lon="11.208176706173447"><ele>44.0</ele><time>2026-03-22T13:11:43.998Z</time></trkpt><trkpt lat="53.8338967981423" lon="11.208246073886707"><ele>44.0</ele><time>2026-03-22T13:11:44.998Z</time></trkpt><trkpt lat="53.83372376679152" lon="11.20833139288146"><ele>44.0</ele><time>2026-03-22T13:11:45.998Z</time></trkpt><trkpt lat="53.833551140149886" lon="11.208415934558463"><ele>44.33333333333333</ele><time>2026-03-22T13:11:46.998Z</time></trkpt><trkpt lat="53.83338393483643" lon="11.208497065444654"><ele>44.666666666666664</ele><time>2026-03-22T13:11:47.998Z</time></trkpt><trkpt lat="53.83323049522572" lon="11.208571655995307"><ele>45.0</ele><time>2026-03-22T13:11:48.998Z</time></trkpt><trkpt lat="53.833066953405456" lon="11.208651661553802"><ele>45.0</ele><time>2026-03-22T13:11:49.998Z</time></trkpt><trkpt lat="53.83290648595767" lon="11.208759090959584"><ele>45.0</ele><time>2026-03-22T13:11:50.998Z</time></trkpt><trkpt lat="53.83274348892395" lon="11.208837056176382"><ele>45.0</ele><time>2026-03-22T13:11:51.998Z</time></trkpt><trkpt lat="53.832569134313815" lon="11.208891199725334"><ele>45.333333333333336</ele><time>2026-03-22T13:11:52.998Z</time></trkpt><trkpt lat="53.83240821591979" lon="11.208967164069186"><ele>45.66666666666667</ele><time>2026-03-22T13:11:53.998Z</time></trkpt><trkpt lat="53.83223125910896" lon="11.209052575342753"><ele>46.0</ele><time>2026-03-22T13:11:54.998Z</time></trkpt><trkpt lat="53.83206763691732" lon="11.209132041814813"><ele>46.0</ele><time>2026-03-22T13:11:55.998Z</time></trkpt><trkpt lat="53.83189700166857" lon="11.209214998431223"><ele>46.0</ele><time>2026-03-22T13:11:56.998Z</time></trkpt><trkpt lat="53.831747944132935" lon="11.209287464712677"><ele>46.0</ele><time>2026-03-22T13:11:57.998Z</time></trkpt><trkpt lat="53.83160368040275" lon="11.209357327693587"><ele>46.0</ele><time>2026-03-22T13:11:58.998Z</time></trkpt><trkpt lat="53.83145634520604" lon="11.209427129597211"><ele>46.0</ele><time>2026-03-22T13:11:59.998Z</time></trkpt><trkpt lat="53.83132755245966" lon="11.20947039279077"><ele>46.0</ele><time>2026-03-22T13:12:00.998Z</time></trkpt><trkpt lat="53.831205358709475" lon="11.209497252405964"><ele>46.0</ele><time>2026-03-22T13:12:01.998Z</time></trkpt><trkpt lat="53.83110704254446" lon="11.209534526299974"><ele>46.0</ele><time>2026-03-22T13:12:02.998Z</time></trkpt><trkpt lat="53.831029978601435" lon="11.209619340528251"><ele>46.0</ele><time>2026-03-22T13:12:03.998Z</time></trkpt><trkpt lat="53.830957744339145" lon="11.20966460996377"><ele>46.0</ele><time>2026-03-22T13:12:04.998Z</time></trkpt><trkpt lat="53.83085002802326" lon="11.209680494404662"><ele>46.0</ele><time>2026-03-22T13:12:06.998Z</time></trkpt><trkpt lat="53.83079005945775" lon="11.209740860505704"><ele>46.0</ele><time>2026-03-22T13:12:08.998Z</time></trkpt><trkpt lat="53.830727201718354" lon="11.20977623748001"><ele>46.0</ele><time>2026-03-22T13:12:17Z</time></trkpt><trkpt lat="53.830571728457166" lon="11.209833392086646"><ele>46.0</ele><time>2026-03-22T13:12:32Z</time></trkpt><trkpt lat="53.83050431956203" lon="11.209864676144793"><ele>46.0</ele><time>2026-03-22T13:12:33Z</time></trkpt><trkpt lat="53.83043052465" lon="11.20989955237294"><ele>46.0</ele><time>2026-03-22T13:12:34Z</time></trkpt><trkpt lat="53.83035673104382" lon="11.209934045428051"><ele>46.0</ele><time>2026-03-22T13:12:35Z</time></trkpt><trkpt lat="53.830286846177415" lon="11.209966712333589"><ele>46.0</ele><time>2026-03-22T13:12:36Z</time></trkpt><trkpt lat="53.830218791703224" lon="11.209997800037891"><ele>46.0</ele><time>2026-03-22T13:12:37Z</time></trkpt><trkpt lat="53.830131861576" lon="11.210038009522195"><ele>46.0</ele><time>2026-03-22T13:12:38Z</time></trkpt><trkpt lat="53.830040955013416" lon="11.210080058378525"><ele>46.0</ele><time>2026-03-22T13:12:39Z</time></trkpt><trkpt lat="53.829933743427496" lon="11.21012965219702"><ele>46.0</ele><time>2026-03-22T13:12:40Z</time></trkpt><trkpt lat="53.82980970671033" lon="11.210186971579532"><ele>46.0</ele><time>2026-03-22T13:12:41Z</time></trkpt><trkpt lat="53.8296796939017" lon="11.210245986091103"><ele>46.0</ele><time>2026-03-22T13:12:42Z</time></trkpt><trkpt lat="53.82954193774666" lon="11.210308515321481"><ele>46.0</ele><time>2026-03-22T13:12:43Z</time></trkpt><trkpt lat="53.82941132377026" lon="11.210367802893378"><ele>46.0</ele><time>2026-03-22T13:12:44Z</time></trkpt><trkpt lat="53.82928814442998" lon="11.210424559823826"><ele>46.0</ele><time>2026-03-22T13:12:45Z</time></trkpt><trkpt lat="53.82917829632077" lon="11.21047476179175"><ele>46.0</ele><time>2026-03-22T13:12:46Z</time></trkpt><trkpt lat="53.829070915672794" lon="11.210523836088445"><ele>46.0</ele><time>2026-03-22T13:12:47Z</time></trkpt><trkpt lat="53.82895675930647" lon="11.21057600694972"><ele>46.0</ele><time>2026-03-22T13:12:48Z</time></trkpt><trkpt lat="53.82883043347771" lon="11.21063373946923"><ele>46.0</ele><time>2026-03-22T13:12:49Z</time></trkpt><trkpt lat="53.828707243157744" lon="11.21068962089075"><ele>46.0</ele><time>2026-03-22T13:12:50Z</time></trkpt><trkpt lat="53.82857623177338" lon="11.210748179002785"><ele>46.0</ele><time>2026-03-22T13:12:51Z</time></trkpt><trkpt lat="53.828438012002515" lon="11.210809959027506"><ele>46.0</ele><time>2026-03-22T13:12:52Z</time></trkpt><trkpt lat="53.82829865518259" lon="11.210872247351585"><ele>46.0</ele><time>2026-03-22T13:12:53Z</time></trkpt><trkpt lat="53.828163699452695" lon="11.210932568428946"><ele>45.5</ele><time>2026-03-22T13:12:54Z</time></trkpt><trkpt lat="53.828035936719175" lon="11.210990764538415"><ele>45.0</ele><time>2026-03-22T13:12:55Z</time></trkpt><trkpt lat="53.82790142078006" lon="11.211053053626214"><ele>44.5</ele><time>2026-03-22T13:12:56Z</time></trkpt><trkpt lat="53.827762132657796" lon="11.211117552662166"><ele>44.0</ele><time>2026-03-22T13:12:57Z</time></trkpt><trkpt lat="53.827618385621" lon="11.211184416403263"><ele>43.33333333333333</ele><time>2026-03-22T13:12:58Z</time></trkpt><trkpt lat="53.82745996388947" lon="11.21125820139958"><ele>42.666666666666664</ele><time>2026-03-22T13:12:59Z</time></trkpt><trkpt lat="53.82730636688987" lon="11.211329739362359"><ele>42.0</ele><time>2026-03-22T13:13:00Z</time></trkpt><trkpt lat="53.82714631637028" lon="11.21140463910674"><ele>42.0</ele><time>2026-03-22T13:13:01Z</time></trkpt><trkpt lat="53.82699265888677" lon="11.211479073396962"><ele>42.0</ele><time>2026-03-22T13:13:02Z</time></trkpt><trkpt lat="53.82685501777723" lon="11.21154574888933"><ele>42.0</ele><time>2026-03-22T13:13:03Z</time></trkpt><trkpt lat="53.82672041437432" lon="11.211610953004358"><ele>42.0</ele><time>2026-03-22T13:13:04Z</time></trkpt><trkpt lat="53.82658223809894" lon="11.211677778421937"><ele>41.666666666666664</ele><time>2026-03-22T13:13:05Z</time></trkpt><trkpt lat="53.82644597805154" lon="11.211742344327277"><ele>41.33333333333333</ele><time>2026-03-22T13:13:06Z</time></trkpt><trkpt lat="53.82629959576867" lon="11.211811706675782"><ele>41.0</ele><time>2026-03-22T13:13:07Z</time></trkpt><trkpt lat="53.82614409280867" lon="11.211885391795324"><ele>41.0</ele><time>2026-03-22T13:13:08Z</time></trkpt><trkpt lat="53.8259836571932" lon="11.21195704053455"><ele>41.0</ele><time>2026-03-22T13:13:09Z</time></trkpt><trkpt lat="53.82583549077995" lon="11.212020083212106"><ele>41.0</ele><time>2026-03-22T13:13:10Z</time></trkpt><trkpt lat="53.82568087070645" lon="11.212083358434885"><ele>40.666666666666664</ele><time>2026-03-22T13:13:11Z</time></trkpt><trkpt lat="53.82551970006136" lon="11.212148429513418"><ele>40.333333333333336</ele><time>2026-03-22T13:13:12Z</time></trkpt><trkpt lat="53.82535965492585" lon="11.212218700595026"><ele>40.0</ele><time>2026-03-22T13:13:13Z</time></trkpt><trkpt lat="53.82520082557453" lon="11.212291846963588"><ele>39.66666666666667</ele><time>2026-03-22T13:13:14Z</time></trkpt><trkpt lat="53.825041260629824" lon="11.212366028256792"><ele>39.333333333333336</ele><time>2026-03-22T13:13:15Z</time></trkpt><trkpt lat="53.82488719813878" lon="11.212437723395762"><ele>39.0</ele><time>2026-03-22T13:13:16Z</time></trkpt><trkpt lat="53.82473032851702" lon="11.212510754116067"><ele>39.0</ele><time>2026-03-22T13:13:17Z</time></trkpt><trkpt lat="53.82456853907131" lon="11.212585899875403"><ele>39.0</ele><time>2026-03-22T13:13:18Z</time></trkpt><trkpt lat="53.82439124088735" lon="11.212667756185281"><ele>39.0</ele><time>2026-03-22T13:13:19Z</time></trkpt><trkpt lat="53.82421608026388" lon="11.212748895780873"><ele>39.0</ele><time>2026-03-22T13:13:20Z</time></trkpt><trkpt lat="53.82404777351665" lon="11.21282742537223"><ele>39.0</ele><time>2026-03-22T13:13:21Z</time></trkpt><trkpt lat="53.823900898884624" lon="11.212900222975117"><ele>39.0</ele><time>2026-03-22T13:13:22Z</time></trkpt><trkpt lat="53.823762359827796" lon="11.212977543709153"><ele>39.0</ele><time>2026-03-22T13:13:23Z</time></trkpt><trkpt lat="53.82363174175949" lon="11.213061403405915"><ele>39.0</ele><time>2026-03-22T13:13:24Z</time></trkpt><trkpt lat="53.8235179243695" lon="11.21314050200054"><ele>39.0</ele><time>2026-03-22T13:13:25Z</time></trkpt><trkpt lat="53.82341816252305" lon="11.21321052017844"><ele>39.0</ele><time>2026-03-22T13:13:26Z</time></trkpt><trkpt lat="53.8233251629699" lon="11.213291832702259"><ele>38.8</ele><time>2026-03-22T13:13:27Z</time></trkpt><trkpt lat="53.82323744668941" lon="11.213366367620408"><ele>38.599999999999994</ele><time>2026-03-22T13:13:28Z</time></trkpt><trkpt lat="53.82314897415602" lon="11.213400018412443"><ele>38.4</ele><time>2026-03-22T13:13:29Z</time></trkpt><trkpt lat="53.82305552006216" lon="11.213496547731783"><ele>38.199999999999996</ele><time>2026-03-22T13:13:30Z</time></trkpt><trkpt lat="53.82295590798622" lon="11.21353776302312"><ele>38.0</ele><time>2026-03-22T13:13:31Z</time></trkpt><trkpt lat="53.82287769874328" lon="11.213593562090491"><ele>38.0</ele><time>2026-03-22T13:13:32Z</time></trkpt><trkpt lat="53.82279564149433" lon="11.213652106502126"><ele>38.0</ele><time>2026-03-22T13:13:33Z</time></trkpt><trkpt lat="53.822722791771476" lon="11.213703760540664"><ele>38.0</ele><time>2026-03-22T13:13:34Z</time></trkpt><trkpt lat="53.822658757502865" lon="11.213748489160013"><ele>38.0</ele><time>2026-03-22T13:13:35Z</time></trkpt><trkpt lat="53.822547058212045" lon="11.213825802001114"><ele>38.0</ele><time>2026-03-22T13:13:37Z</time></trkpt><trkpt lat="53.82245253235781" lon="11.213889615080323"><ele>38.0</ele><time>2026-03-22T13:13:39Z</time></trkpt><trkpt lat="53.822344984090904" lon="11.21396221916885"><ele>38.0</ele><time>2026-03-22T13:13:41Z</time></trkpt><trkpt lat="53.82227806838733" lon="11.214007392975175"><ele>38.0</ele><time>2026-03-22T13:13:42Z</time></trkpt><trkpt lat="53.82221379197157" lon="11.21406502163781"><ele>38.0</ele><time>2026-03-22T13:13:43Z</time></trkpt><trkpt lat="53.822125353328246" lon="11.214106987167133"><ele>38.0</ele><time>2026-03-22T13:13:44Z</time></trkpt><trkpt lat="53.8220416897431" lon="11.214159275604539"><ele>38.0</ele><time>2026-03-22T13:13:45Z</time></trkpt><trkpt lat="53.82209767056328" lon="11.2144998777824"><ele>38.0</ele><time>2026-03-22T13:13:46Z</time></trkpt><trkpt lat="53.82210381167392" lon="11.214697803234424"><ele>38.0</ele><time>2026-03-22T13:13:47Z</time></trkpt><trkpt lat="53.8221309191566" lon="11.214892760289857"><ele>38.0</ele><time>2026-03-22T13:13:48Z</time></trkpt><trkpt lat="53.82217108398393" lon="11.215064988560195"><ele>38.0</ele><time>2026-03-22T13:13:49Z</time></trkpt><trkpt lat="53.82223564178892" lon="11.215200499178101"><ele>38.0</ele><time>2026-03-22T13:13:50Z</time></trkpt><trkpt lat="53.82231682021573" lon="11.215297142935821"><ele>38.0</ele><time>2026-03-22T13:13:51Z</time></trkpt><trkpt lat="53.82239378827198" lon="11.215380241644423"><ele>38.0</ele><time>2026-03-22T13:13:52Z</time></trkpt><trkpt lat="53.822485228114246" lon="11.215641094286322"><ele>38.0</ele><time>2026-03-22T13:13:53Z</time></trkpt><trkpt lat="53.82247687343311" lon="11.215821553489505"><ele>38.0</ele><time>2026-03-22T13:13:54Z</time></trkpt><trkpt lat="53.82245440860156" lon="11.216003893771704"><ele>38.0</ele><time>2026-03-22T13:13:55Z</time></trkpt><trkpt lat="53.82245521177376" lon="11.216215513044956"><ele>38.0</ele><time>2026-03-22T13:13:56Z</time></trkpt><trkpt lat="53.82246743564013" lon="11.216451976348113"><ele>38.0</ele><time>2026-03-22T13:13:57Z</time></trkpt><trkpt lat="53.82244899638494" lon="11.21670386742838"><ele>38.0</ele><time>2026-03-22T13:13:58Z</time></trkpt><trkpt lat="53.82244636140424" lon="11.21696593720957"><ele>38.0</ele><time>2026-03-22T13:13:59Z</time></trkpt><trkpt lat="53.822436067566464" lon="11.217233365275707"><ele>38.0</ele><time>2026-03-22T13:14:00Z</time></trkpt><trkpt lat="53.822390481703465" lon="11.217510781432132"><ele>38.0</ele><time>2026-03-22T13:14:01Z</time></trkpt><trkpt lat="53.822367002757446" lon="11.21778663982109"><ele>37.666666666666664</ele><time>2026-03-22T13:14:02Z</time></trkpt><trkpt lat="53.82236220832573" lon="11.218075258774064"><ele>37.333333333333336</ele><time>2026-03-22T13:14:03Z</time></trkpt><trkpt lat="53.82234688514982" lon="11.21837825540589"><ele>37.0</ele><time>2026-03-22T13:14:04Z</time></trkpt><trkpt lat="53.82233048770687" lon="11.218686903522103"><ele>36.333333333333336</ele><time>2026-03-22T13:14:05Z</time></trkpt><trkpt lat="53.82230149529082" lon="11.218974789217276"><ele>35.666666666666664</ele><time>2026-03-22T13:14:06Z</time></trkpt><trkpt lat="53.82228169570857" lon="11.219288089460855"><ele>35.0</ele><time>2026-03-22T13:14:07Z</time></trkpt><trkpt lat="53.82227883093651" lon="11.219623282430259"><ele>34.33333333333333</ele><time>2026-03-22T13:14:08Z</time></trkpt><trkpt lat="53.82225876262547" lon="11.219922697413725"><ele>33.666666666666664</ele><time>2026-03-22T13:14:09Z</time></trkpt><trkpt lat="53.822239194746764" lon="11.22021498690916"><ele>33.0</ele><time>2026-03-22T13:14:10Z</time></trkpt><trkpt lat="53.82222252960482" lon="11.220487425884556"><ele>32.666666666666664</ele><time>2026-03-22T13:14:11Z</time></trkpt><trkpt lat="53.822195584311004" lon="11.220740698347441"><ele>32.33333333333333</ele><time>2026-03-22T13:14:12Z</time></trkpt><trkpt lat="53.822186208141986" lon="11.220996875109975"><ele>32.0</ele><time>2026-03-22T13:14:13Z</time></trkpt><trkpt lat="53.82215771858428" lon="11.221260667900955"><ele>32.0</ele><time>2026-03-22T13:14:14Z</time></trkpt><trkpt lat="53.822143077213816" lon="11.221560498314288"><ele>32.0</ele><time>2026-03-22T13:14:15Z</time></trkpt><trkpt lat="53.82212765287582" lon="11.221853096395108"><ele>32.0</ele><time>2026-03-22T13:14:16Z</time></trkpt><trkpt lat="53.82211409609628" lon="11.222146252695342"><ele>32.666666666666664</ele><time>2026-03-22T13:14:17Z</time></trkpt><trkpt lat="53.82210381050792" lon="11.22244026263471"><ele>33.333333333333336</ele><time>2026-03-22T13:14:18Z</time></trkpt><trkpt lat="53.822079526624485" lon="11.22273339415448"><ele>34.0</ele><time>2026-03-22T13:14:19Z</time></trkpt><trkpt lat="53.82205868679618" lon="11.223019030913715"><ele>34.333333333333336</ele><time>2026-03-22T13:14:20Z</time></trkpt><trkpt lat="53.82203882011814" lon="11.22331117789297"><ele>34.666666666666664</ele><time>2026-03-22T13:14:21Z</time></trkpt><trkpt lat="53.82201936047227" lon="11.223606278056174"><ele>35.0</ele><time>2026-03-22T13:14:21.999Z</time></trkpt><trkpt lat="53.82198954804814" lon="11.223904185769143"><ele>35.33333333333333</ele><time>2026-03-22T13:14:22.999Z</time></trkpt><trkpt lat="53.82196747699812" lon="11.224210666138877"><ele>35.666666666666664</ele><time>2026-03-22T13:14:23.999Z</time></trkpt><trkpt lat="53.821953401142366" lon="11.22452120005113"><ele>36.0</ele><time>2026-03-22T13:14:24.999Z</time></trkpt><trkpt lat="53.82192456069413" lon="11.224833080033326"><ele>36.0</ele><time>2026-03-22T13:14:25.999Z</time></trkpt><trkpt lat="53.82190481569444" lon="11.225142809955617"><ele>36.0</ele><time>2026-03-22T13:14:26.999Z</time></trkpt><trkpt lat="53.82188256145672" lon="11.225449927083941"><ele>36.0</ele><time>2026-03-22T13:14:27.999Z</time></trkpt><trkpt lat="53.82186270186615" lon="11.225744542208638"><ele>36.333333333333336</ele><time>2026-03-22T13:14:28.999Z</time></trkpt><trkpt lat="53.82185829293477" lon="11.22604424955941"><ele>36.66666666666667</ele><time>2026-03-22T13:14:29.999Z</time></trkpt><trkpt lat="53.82183845948831" lon="11.22632332814883"><ele>37.0</ele><time>2026-03-22T13:14:30.999Z</time></trkpt><trkpt lat="53.82181869586292" lon="11.226599734782445"><ele>36.66666666666667</ele><time>2026-03-22T13:14:31.999Z</time></trkpt><trkpt lat="53.82179841237682" lon="11.226883301683674"><ele>36.333333333333336</ele><time>2026-03-22T13:14:32.999Z</time></trkpt><trkpt lat="53.8217773541239" lon="11.227177700273927"><ele>36.0</ele><time>2026-03-22T13:14:33.999Z</time></trkpt><trkpt lat="53.821755960585456" lon="11.227478253923977"><ele>35.666666666666664</ele><time>2026-03-22T13:14:34.999Z</time></trkpt><trkpt lat="53.82173539224072" lon="11.227776137441813"><ele>35.33333333333333</ele><time>2026-03-22T13:14:35.999Z</time></trkpt><trkpt lat="53.821716014585576" lon="11.228055461025635"><ele>35.0</ele><time>2026-03-22T13:14:36.999Z</time></trkpt><trkpt lat="53.82169476651009" lon="11.228351965321696"><ele>35.0</ele><time>2026-03-22T13:14:37.999Z</time></trkpt><trkpt lat="53.821674164331526" lon="11.228639455721641"><ele>35.0</ele><time>2026-03-22T13:14:38.999Z</time></trkpt><trkpt lat="53.82165286097519" lon="11.228942867021363"><ele>35.0</ele><time>2026-03-22T13:14:39.999Z</time></trkpt><trkpt lat="53.821631722572164" lon="11.229244690707429"><ele>35.666666666666664</ele><time>2026-03-22T13:14:40.999Z</time></trkpt><trkpt lat="53.82159461469737" lon="11.229534132236788"><ele>36.333333333333336</ele><time>2026-03-22T13:14:41.999Z</time></trkpt><trkpt lat="53.82158226695067" lon="11.22983508623164"><ele>37.0</ele><time>2026-03-22T13:14:42.999Z</time></trkpt><trkpt lat="53.821563620925865" lon="11.230144205501114"><ele>37.333333333333336</ele><time>2026-03-22T13:14:43.999Z</time></trkpt><trkpt lat="53.82154128234458" lon="11.230434909916536"><ele>37.666666666666664</ele><time>2026-03-22T13:14:44.999Z</time></trkpt><trkpt lat="53.82152162383486" lon="11.230732913385312"><ele>38.0</ele><time>2026-03-22T13:14:45.999Z</time></trkpt><trkpt lat="53.8214890101123" lon="11.231022261548414"><ele>38.33333333333333</ele><time>2026-03-22T13:14:46.999Z</time></trkpt><trkpt lat="53.821484583799325" lon="11.23129826011145"><ele>38.666666666666664</ele><time>2026-03-22T13:14:47.999Z</time></trkpt><trkpt lat="53.82146464110412" lon="11.231575496775868"><ele>39.0</ele><time>2026-03-22T13:14:48.999Z</time></trkpt><trkpt lat="53.82144474175555" lon="11.231852130912134"><ele>39.333333333333336</ele><time>2026-03-22T13:14:49.999Z</time></trkpt><trkpt lat="53.82142422170391" lon="11.232138277319939"><ele>39.66666666666667</ele><time>2026-03-22T13:14:50.999Z</time></trkpt><trkpt lat="53.82140430742237" lon="11.232423566449992"><ele>40.0</ele><time>2026-03-22T13:14:51.999Z</time></trkpt><trkpt lat="53.82138580673908" lon="11.232706504916772"><ele>40.0</ele><time>2026-03-22T13:14:52.999Z</time></trkpt><trkpt lat="53.82136629158362" lon="11.23299087712387"><ele>40.0</ele><time>2026-03-22T13:14:53.999Z</time></trkpt><trkpt lat="53.82134233905507" lon="11.23326442049785"><ele>40.0</ele><time>2026-03-22T13:14:54.999Z</time></trkpt><trkpt lat="53.82131816890875" lon="11.233539010902595"><ele>40.333333333333336</ele><time>2026-03-22T13:14:55.999Z</time></trkpt><trkpt lat="53.82128563482079" lon="11.233808887680722"><ele>40.666666666666664</ele><time>2026-03-22T13:14:56.999Z</time></trkpt><trkpt lat="53.82124882161674" lon="11.234085130502496"><ele>41.0</ele><time>2026-03-22T13:14:57.999Z</time></trkpt><trkpt lat="53.8212037843876" lon="11.234358671820779"><ele>41.0</ele><time>2026-03-22T13:14:58.999Z</time></trkpt><trkpt lat="53.82112779902419" lon="11.234627160504893"><ele>41.0</ele><time>2026-03-22T13:14:59.999Z</time></trkpt><trkpt lat="53.821049212209644" lon="11.234908478233017"><ele>41.0</ele><time>2026-03-22T13:15:00.999Z</time></trkpt><trkpt lat="53.82096341848228" lon="11.235178159272314"><ele>40.0</ele><time>2026-03-22T13:15:01.999Z</time></trkpt><trkpt lat="53.82086985192904" lon="11.23545068805417"><ele>39.0</ele><time>2026-03-22T13:15:02.999Z</time></trkpt><trkpt lat="53.82077725760809" lon="11.235703919136881"><ele>38.0</ele><time>2026-03-22T13:15:03.999Z</time></trkpt><trkpt lat="53.82067929708075" lon="11.23596634748293"><ele>37.666666666666664</ele><time>2026-03-22T13:15:04.999Z</time></trkpt><trkpt lat="53.82057952686951" lon="11.23623450103951"><ele>37.333333333333336</ele><time>2026-03-22T13:15:05.999Z</time></trkpt><trkpt lat="53.82049221711988" lon="11.23651485245278"><ele>37.0</ele><time>2026-03-22T13:15:06.999Z</time></trkpt><trkpt lat="53.820376586515955" lon="11.236750617107836"><ele>37.0</ele><time>2026-03-22T13:15:07.999Z</time></trkpt><trkpt lat="53.820263815344276" lon="11.236986648226667"><ele>37.0</ele><time>2026-03-22T13:15:08.999Z</time></trkpt><trkpt lat="53.82018401493486" lon="11.237268143891397"><ele>37.0</ele><time>2026-03-22T13:15:09.999Z</time></trkpt><trkpt lat="53.82010271018804" lon="11.237541968863379"><ele>37.0</ele><time>2026-03-22T13:15:10.999Z</time></trkpt><trkpt lat="53.820034208919736" lon="11.237825492531368"><ele>37.0</ele><time>2026-03-22T13:15:11.999Z</time></trkpt><trkpt lat="53.81997694531653" lon="11.238117841913917"><ele>37.0</ele><time>2026-03-22T13:15:12.999Z</time></trkpt><trkpt lat="53.819922033847895" lon="11.23841155831619"><ele>37.0</ele><time>2026-03-22T13:15:13.999Z</time></trkpt><trkpt lat="53.81986943834838" lon="11.238709636044547"><ele>37.0</ele><time>2026-03-22T13:15:14.999Z</time></trkpt><trkpt lat="53.81981690206084" lon="11.239007434173645"><ele>37.0</ele><time>2026-03-22T13:15:15.999Z</time></trkpt><trkpt lat="53.8197669628051" lon="11.239292074987342"><ele>37.333333333333336</ele><time>2026-03-22T13:15:16.999Z</time></trkpt><trkpt lat="53.81970637221382" lon="11.239569840601058"><ele>37.666666666666664</ele><time>2026-03-22T13:15:17.999Z</time></trkpt><trkpt lat="53.81966136445407" lon="11.239857125407724"><ele>38.0</ele><time>2026-03-22T13:15:18.999Z</time></trkpt><trkpt lat="53.81962223708134" lon="11.240137023775842"><ele>38.0</ele><time>2026-03-22T13:15:19.999Z</time></trkpt><trkpt lat="53.81957394253632" lon="11.240419794133787"><ele>38.0</ele><time>2026-03-22T13:15:20.999Z</time></trkpt><trkpt lat="53.81952222607554" lon="11.240722464855967"><ele>38.0</ele><time>2026-03-22T13:15:21.999Z</time></trkpt><trkpt lat="53.81947296548075" lon="11.241009172909523"><ele>38.0</ele><time>2026-03-22T13:15:22.999Z</time></trkpt><trkpt lat="53.81942781796299" lon="11.241272514749571"><ele>38.0</ele><time>2026-03-22T13:15:23.999Z</time></trkpt><trkpt lat="53.81938656516917" lon="11.241513138659489"><ele>38.0</ele><time>2026-03-22T13:15:24.999Z</time></trkpt><trkpt lat="53.819347973505096" lon="11.241738238650642"><ele>38.0</ele><time>2026-03-22T13:15:25.999Z</time></trkpt><trkpt lat="53.81930786821286" lon="11.241969302560594"><ele>37.75</ele><time>2026-03-22T13:15:26.999Z</time></trkpt><trkpt lat="53.81927118379934" lon="11.242184973497855"><ele>37.5</ele><time>2026-03-22T13:15:27.999Z</time></trkpt><trkpt lat="53.81923473721961" lon="11.242401058095693"><ele>37.25</ele><time>2026-03-22T13:15:28.999Z</time></trkpt><trkpt lat="53.81918719704481" lon="11.24260861468833"><ele>37.0</ele><time>2026-03-22T13:15:29.999Z</time></trkpt><trkpt lat="53.81915194931956" lon="11.24281838019513"><ele>37.0</ele><time>2026-03-22T13:15:30.999Z</time></trkpt><trkpt lat="53.81915128203851" lon="11.243053411818764"><ele>37.0</ele><time>2026-03-22T13:15:31.999Z</time></trkpt><trkpt lat="53.81909925211081" lon="11.243271274109109"><ele>37.0</ele><time>2026-03-22T13:15:32.999Z</time></trkpt><trkpt lat="53.81906251193037" lon="11.243484198890082"><ele>37.0</ele><time>2026-03-22T13:15:33.999Z</time></trkpt><trkpt lat="53.81902777484807" lon="11.24368551438539"><ele>37.0</ele><time>2026-03-22T13:15:34.999Z</time></trkpt><trkpt lat="53.8190038497845" lon="11.243910358885248"><ele>37.0</ele><time>2026-03-22T13:15:35.999Z</time></trkpt><trkpt lat="53.81896895166875" lon="11.244121212955644"><ele>37.0</ele><time>2026-03-22T13:15:36.999Z</time></trkpt><trkpt lat="53.8189155543423" lon="11.244335878979452"><ele>37.0</ele><time>2026-03-22T13:15:37.999Z</time></trkpt><trkpt lat="53.81887670465873" lon="11.244556293902292"><ele>37.25</ele><time>2026-03-22T13:15:38.999Z</time></trkpt><trkpt lat="53.81883736443755" lon="11.244780986744486"><ele>37.5</ele><time>2026-03-22T13:15:39.999Z</time></trkpt><trkpt lat="53.81878121807899" lon="11.245016389056094"><ele>37.75</ele><time>2026-03-22T13:15:40.999Z</time></trkpt><trkpt lat="53.81873443492683" lon="11.245229570641659"><ele>38.0</ele><time>2026-03-22T13:15:41.999Z</time></trkpt><trkpt lat="53.818692636694585" lon="11.245442301007328"><ele>38.75</ele><time>2026-03-22T13:15:42.999Z</time></trkpt><trkpt lat="53.818659962500824" lon="11.245668446815355"><ele>39.5</ele><time>2026-03-22T13:15:43.999Z</time></trkpt><trkpt lat="53.81863587573755" lon="11.245888503327954"><ele>40.25</ele><time>2026-03-22T13:15:44.999Z</time></trkpt><trkpt lat="53.81861787345164" lon="11.246104558770252"><ele>41.0</ele><time>2026-03-22T13:15:45.999Z</time></trkpt><trkpt lat="53.818580969916496" lon="11.246318091449819"><ele>41.0</ele><time>2026-03-22T13:15:46.999Z</time></trkpt><trkpt lat="53.81853545990403" lon="11.246538045427691"><ele>41.0</ele><time>2026-03-22T13:15:47.999Z</time></trkpt><trkpt lat="53.81848236113078" lon="11.246777496305429"><ele>41.0</ele><time>2026-03-22T13:15:48.999Z</time></trkpt><trkpt lat="53.81843653332065" lon="11.247001617851069"><ele>41.0</ele><time>2026-03-22T13:15:49.999Z</time></trkpt><trkpt lat="53.81839789101236" lon="11.247232205348174"><ele>39.33333333333333</ele><time>2026-03-22T13:15:50.999Z</time></trkpt><trkpt lat="53.81834646893928" lon="11.247471401351161"><ele>37.666666666666664</ele><time>2026-03-22T13:15:51.999Z</time></trkpt><trkpt lat="53.81831086462765" lon="11.247701619075505"><ele>36.0</ele><time>2026-03-22T13:15:52.999Z</time></trkpt><trkpt lat="53.818265551580694" lon="11.247976290843765"><ele>36.666666666666664</ele><time>2026-03-22T13:15:53.999Z</time></trkpt><trkpt lat="53.81822181739375" lon="11.248224271800574"><ele>37.33333333333333</ele><time>2026-03-22T13:15:54.999Z</time></trkpt><trkpt lat="53.81816340787681" lon="11.248480575554467"><ele>38.0</ele><time>2026-03-22T13:15:55.999Z</time></trkpt><trkpt lat="53.81813208856919" lon="11.248746988310767"><ele>38.33333333333333</ele><time>2026-03-22T13:15:56.999Z</time></trkpt><trkpt lat="53.8180781811711" lon="11.24899243281161"><ele>38.666666666666664</ele><time>2026-03-22T13:15:57.999Z</time></trkpt><trkpt lat="53.81805220614786" lon="11.249249201236188"><ele>39.0</ele><time>2026-03-22T13:15:58.999Z</time></trkpt><trkpt lat="53.818015821614196" lon="11.249505232580251"><ele>39.0</ele><time>2026-03-22T13:15:59.999Z</time></trkpt><trkpt lat="53.81798134224587" lon="11.249772157006936"><ele>39.0</ele><time>2026-03-22T13:16:00.999Z</time></trkpt><trkpt lat="53.81797973158738" lon="11.25007752248494"><ele>39.0</ele><time>2026-03-22T13:16:01.999Z</time></trkpt><trkpt lat="53.817967928202165" lon="11.250372894625416"><ele>39.0</ele><time>2026-03-22T13:16:02.999Z</time></trkpt><trkpt lat="53.81795663296596" lon="11.250668878800747"><ele>39.0</ele><time>2026-03-22T13:16:03.999Z</time></trkpt><trkpt lat="53.817946296087904" lon="11.250955143677901"><ele>39.0</ele><time>2026-03-22T13:16:04.999Z</time></trkpt><trkpt lat="53.81793524564191" lon="11.251261170332699"><ele>39.333333333333336</ele><time>2026-03-22T13:16:05.999Z</time></trkpt><trkpt lat="53.81792384283601" lon="11.25157648030075"><ele>39.66666666666667</ele><time>2026-03-22T13:16:06.999Z</time></trkpt><trkpt lat="53.817911697509835" lon="11.251890633844745"><ele>40.0</ele><time>2026-03-22T13:16:07.999Z</time></trkpt><trkpt lat="53.817899955254276" lon="11.252194363949807"><ele>39.66666666666667</ele><time>2026-03-22T13:16:08.999Z</time></trkpt><trkpt lat="53.81788132049946" lon="11.25250191933563"><ele>39.333333333333336</ele><time>2026-03-22T13:16:09.999Z</time></trkpt><trkpt lat="53.817874521636845" lon="11.252811141528653"><ele>39.0</ele><time>2026-03-22T13:16:10.999Z</time></trkpt><trkpt lat="53.81786824877998" lon="11.253106754045403"><ele>39.0</ele><time>2026-03-22T13:16:11.999Z</time></trkpt><trkpt lat="53.81785062359775" lon="11.253429253840164"><ele>39.0</ele><time>2026-03-22T13:16:12.999Z</time></trkpt><trkpt lat="53.81784034913949" lon="11.253736152801114"><ele>39.0</ele><time>2026-03-22T13:16:13.999Z</time></trkpt><trkpt lat="53.81781386175363" lon="11.254022182213244"><ele>39.333333333333336</ele><time>2026-03-22T13:16:14.999Z</time></trkpt><trkpt lat="53.8178177774196" lon="11.254329810192125"><ele>39.66666666666667</ele><time>2026-03-22T13:16:15.999Z</time></trkpt><trkpt lat="53.817806822879604" lon="11.254618993220982"><ele>40.0</ele><time>2026-03-22T13:16:16.999Z</time></trkpt><trkpt lat="53.81779564947081" lon="11.254913953699532"><ele>40.0</ele><time>2026-03-22T13:16:17.999Z</time></trkpt><trkpt lat="53.817784361912004" lon="11.255211927886366"><ele>40.0</ele><time>2026-03-22T13:16:18.999Z</time></trkpt><trkpt lat="53.817773375160336" lon="11.255501970438807"><ele>40.0</ele><time>2026-03-22T13:16:19.999Z</time></trkpt><trkpt lat="53.81776220525283" lon="11.255789659379207"><ele>39.66666666666667</ele><time>2026-03-22T13:16:20.999Z</time></trkpt><trkpt lat="53.81773747596459" lon="11.256069413604724"><ele>39.333333333333336</ele><time>2026-03-22T13:16:21.999Z</time></trkpt><trkpt lat="53.81773083635812" lon="11.256328272207124"><ele>39.0</ele><time>2026-03-22T13:16:22.999Z</time></trkpt><trkpt lat="53.817723621432634" lon="11.256562544040678"><ele>39.0</ele><time>2026-03-22T13:16:23.999Z</time></trkpt><trkpt lat="53.81772085587047" lon="11.256790656194092"><ele>39.0</ele><time>2026-03-22T13:16:24.999Z</time></trkpt><trkpt lat="53.81770573866366" lon="11.256991922124834"><ele>39.0</ele><time>2026-03-22T13:16:25.999Z</time></trkpt><trkpt lat="53.81771094719589" lon="11.257169352281636"><ele>39.0</ele><time>2026-03-22T13:16:26.999Z</time></trkpt><trkpt lat="53.81772176267331" lon="11.257307313604255"><ele>39.0</ele><time>2026-03-22T13:16:27.999Z</time></trkpt><trkpt lat="53.817759362117016" lon="11.25742300873725"><ele>39.25</ele><time>2026-03-22T13:16:28.999Z</time></trkpt><trkpt lat="53.81787326424157" lon="11.25757959465033"><ele>39.5</ele><time>2026-03-22T13:16:30.999Z</time></trkpt><trkpt lat="53.817968151285434" lon="11.257667668957472"><ele>39.75</ele><time>2026-03-22T13:16:31.998Z</time></trkpt><trkpt lat="53.81808403863302" lon="11.257762666365927"><ele>40.0</ele><time>2026-03-22T13:16:32.998Z</time></trkpt><trkpt lat="53.818231208183136" lon="11.257862957175526"><ele>40.0</ele><time>2026-03-22T13:16:33.998Z</time></trkpt><trkpt lat="53.818374048239825" lon="11.257968423135322"><ele>40.0</ele><time>2026-03-22T13:16:34.998Z</time></trkpt><trkpt lat="53.81850939191118" lon="11.258078773614512"><ele>40.0</ele><time>2026-03-22T13:16:35.998Z</time></trkpt><trkpt lat="53.81864933457618" lon="11.258193756892323"><ele>40.333333333333336</ele><time>2026-03-22T13:16:36.998Z</time></trkpt><trkpt lat="53.81878996066796" lon="11.258301335513847"><ele>40.666666666666664</ele><time>2026-03-22T13:16:37.998Z</time></trkpt><trkpt lat="53.81892013731208" lon="11.258438840490939"><ele>41.0</ele><time>2026-03-22T13:16:38.998Z</time></trkpt><trkpt lat="53.819054776547404" lon="11.258563724270317"><ele>41.0</ele><time>2026-03-22T13:16:39.998Z</time></trkpt><trkpt lat="53.81919442554894" lon="11.258668498060901"><ele>41.0</ele><time>2026-03-22T13:16:40.998Z</time></trkpt><trkpt lat="53.81933293501576" lon="11.258796619898025"><ele>41.0</ele><time>2026-03-22T13:16:41.998Z</time></trkpt><trkpt lat="53.81945428762487" lon="11.258953886875284"><ele>41.666666666666664</ele><time>2026-03-22T13:16:42.998Z</time></trkpt><trkpt lat="53.81958453165716" lon="11.259116022106978"><ele>42.333333333333336</ele><time>2026-03-22T13:16:43.998Z</time></trkpt><trkpt lat="53.81973265059074" lon="11.259227157343467"><ele>43.0</ele><time>2026-03-22T13:16:44.998Z</time></trkpt><trkpt lat="53.81986531936883" lon="11.259377746511538"><ele>43.0</ele><time>2026-03-22T13:16:45.998Z</time></trkpt><trkpt lat="53.82000626186617" lon="11.259470829608997"><ele>43.0</ele><time>2026-03-22T13:16:46.998Z</time></trkpt><trkpt lat="53.82013084951086" lon="11.259611347843567"><ele>43.0</ele><time>2026-03-22T13:16:47.998Z</time></trkpt><trkpt lat="53.8202660821608" lon="11.259737851334235"><ele>43.0</ele><time>2026-03-22T13:16:48.998Z</time></trkpt><trkpt lat="53.82040973012759" lon="11.259839922044051"><ele>43.0</ele><time>2026-03-22T13:16:49.998Z</time></trkpt><trkpt lat="53.82054173024122" lon="11.25998329488514"><ele>43.0</ele><time>2026-03-22T13:16:50.998Z</time></trkpt><trkpt lat="53.82068289953218" lon="11.260102679665845"><ele>43.0</ele><time>2026-03-22T13:16:51.998Z</time></trkpt><trkpt lat="53.82083537066417" lon="11.260218230976838"><ele>43.0</ele><time>2026-03-22T13:16:52.998Z</time></trkpt><trkpt lat="53.82099071680467" lon="11.260315963744391"><ele>43.0</ele><time>2026-03-22T13:16:53.998Z</time></trkpt><trkpt lat="53.82112870923417" lon="11.260463249638544"><ele>43.0</ele><time>2026-03-22T13:16:54.998Z</time></trkpt><trkpt lat="53.82126459979498" lon="11.260586143189661"><ele>43.0</ele><time>2026-03-22T13:16:55.998Z</time></trkpt><trkpt lat="53.821402541217125" lon="11.260693961285305"><ele>43.0</ele><time>2026-03-22T13:16:56.998Z</time></trkpt><trkpt lat="53.821542482756854" lon="11.260844961114035"><ele>43.0</ele><time>2026-03-22T13:16:57.998Z</time></trkpt><trkpt lat="53.82168962983246" lon="11.2610151487592"><ele>43.0</ele><time>2026-03-22T13:16:58.998Z</time></trkpt><trkpt lat="53.821809811741346" lon="11.261231570389818"><ele>43.0</ele><time>2026-03-22T13:16:59.998Z</time></trkpt><trkpt lat="53.82192867316176" lon="11.261495902898899"><ele>42.333333333333336</ele><time>2026-03-22T13:17:00.998Z</time></trkpt><trkpt lat="53.82205256992592" lon="11.26175434835479"><ele>41.666666666666664</ele><time>2026-03-22T13:17:01.998Z</time></trkpt><trkpt lat="53.82218696687631" lon="11.261980538236907"><ele>41.0</ele><time>2026-03-22T13:17:02.998Z</time></trkpt><trkpt lat="53.82230788400653" lon="11.262204317568104"><ele>41.0</ele><time>2026-03-22T13:17:03.998Z</time></trkpt><trkpt lat="53.82243685929164" lon="11.262426570696363"><ele>41.0</ele><time>2026-03-22T13:17:04.998Z</time></trkpt><trkpt lat="53.82258736437083" lon="11.262610859158501"><ele>41.0</ele><time>2026-03-22T13:17:05.998Z</time></trkpt><trkpt lat="53.82272544931803" lon="11.262820319955033"><ele>41.0</ele><time>2026-03-22T13:17:06.998Z</time></trkpt><trkpt lat="53.8228792271524" lon="11.262961050182646"><ele>41.0</ele><time>2026-03-22T13:17:07.998Z</time></trkpt><trkpt lat="53.823023952467274" lon="11.263151119412829"><ele>41.0</ele><time>2026-03-22T13:17:08.998Z</time></trkpt><trkpt lat="53.82317289202451" lon="11.263293143074916"><ele>41.0</ele><time>2026-03-22T13:17:09.998Z</time></trkpt><trkpt lat="53.82331154589502" lon="11.263492911002887"><ele>41.0</ele><time>2026-03-22T13:17:10.998Z</time></trkpt><trkpt lat="53.82346069604033" lon="11.263678729843935"><ele>41.0</ele><time>2026-03-22T13:17:11.998Z</time></trkpt><trkpt lat="53.823603191705" lon="11.263849780539406"><ele>40.666666666666664</ele><time>2026-03-22T13:17:12.998Z</time></trkpt><trkpt lat="53.823738807727636" lon="11.26401993956497"><ele>40.333333333333336</ele><time>2026-03-22T13:17:13.998Z</time></trkpt><trkpt lat="53.823889987678605" lon="11.264199464107408"><ele>40.0</ele><time>2026-03-22T13:17:14.998Z</time></trkpt><trkpt lat="53.824038693453794" lon="11.264381123917904"><ele>40.0</ele><time>2026-03-22T13:17:15.998Z</time></trkpt><trkpt lat="53.824181938206" lon="11.264558055260657"><ele>40.0</ele><time>2026-03-22T13:17:16.998Z</time></trkpt><trkpt lat="53.824323432234635" lon="11.264727517018049"><ele>40.0</ele><time>2026-03-22T13:17:17.998Z</time></trkpt><trkpt lat="53.82447130513308" lon="11.264901366374627"><ele>40.66666666666667</ele><time>2026-03-22T13:17:18.998Z</time></trkpt><trkpt lat="53.82460976756036" lon="11.265064152160434"><ele>41.333333333333336</ele><time>2026-03-22T13:17:19.998Z</time></trkpt><trkpt lat="53.824747478673274" lon="11.265229368024686"><ele>42.0</ele><time>2026-03-22T13:17:20.998Z</time></trkpt><trkpt lat="53.82488817354588" lon="11.265400531817486"><ele>42.0</ele><time>2026-03-22T13:17:21.998Z</time></trkpt><trkpt lat="53.82502506318868" lon="11.265561089706816"><ele>42.0</ele><time>2026-03-22T13:17:22.998Z</time></trkpt><trkpt lat="53.82517151737569" lon="11.265732865806992"><ele>42.0</ele><time>2026-03-22T13:17:23.998Z</time></trkpt><trkpt lat="53.82531327299165" lon="11.26590046226233"><ele>43.0</ele><time>2026-03-22T13:17:24.998Z</time></trkpt><trkpt lat="53.82545322013782" lon="11.266066125865242"><ele>44.0</ele><time>2026-03-22T13:17:25.998Z</time></trkpt><trkpt lat="53.82559195630751" lon="11.266196116339568"><ele>45.0</ele><time>2026-03-22T13:17:26.998Z</time></trkpt><trkpt lat="53.82571712043254" lon="11.26638055722381"><ele>45.333333333333336</ele><time>2026-03-22T13:17:27.998Z</time></trkpt><trkpt lat="53.82585850154073" lon="11.26655310410791"><ele>45.66666666666667</ele><time>2026-03-22T13:17:28.998Z</time></trkpt><trkpt lat="53.825998020750816" lon="11.266723378849706"><ele>46.0</ele><time>2026-03-22T13:17:29.998Z</time></trkpt><trkpt lat="53.82613668986947" lon="11.266891861654234"><ele>46.0</ele><time>2026-03-22T13:17:30.998Z</time></trkpt><trkpt lat="53.826279734995275" lon="11.267067603609014"><ele>46.0</ele><time>2026-03-22T13:17:31.998Z</time></trkpt><trkpt lat="53.82642204270917" lon="11.267244021337275"><ele>46.0</ele><time>2026-03-22T13:17:32.998Z</time></trkpt><trkpt lat="53.82656791708852" lon="11.267424860639203"><ele>46.66666666666667</ele><time>2026-03-22T13:17:33.998Z</time></trkpt><trkpt lat="53.82671685061332" lon="11.267579482926612"><ele>47.333333333333336</ele><time>2026-03-22T13:17:34.998Z</time></trkpt><trkpt lat="53.82685437735998" lon="11.267739080997988"><ele>48.0</ele><time>2026-03-22T13:17:35.998Z</time></trkpt><trkpt lat="53.82698941120018" lon="11.267910053325975"><ele>48.0</ele><time>2026-03-22T13:17:36.998Z</time></trkpt><trkpt lat="53.82712973572244" lon="11.26808649281794"><ele>48.0</ele><time>2026-03-22T13:17:37.998Z</time></trkpt><trkpt lat="53.82726802360732" lon="11.268247492254703"><ele>48.0</ele><time>2026-03-22T13:17:38.998Z</time></trkpt><trkpt lat="53.827409821421696" lon="11.268404733226717"><ele>48.0</ele><time>2026-03-22T13:17:39.998Z</time></trkpt><trkpt lat="53.82754696929669" lon="11.268599115773076"><ele>48.0</ele><time>2026-03-22T13:17:40.998Z</time></trkpt><trkpt lat="53.827698041899275" lon="11.268733229533082"><ele>48.0</ele><time>2026-03-22T13:17:41.998Z</time></trkpt><trkpt lat="53.82786189568608" lon="11.268847434032432"><ele>48.0</ele><time>2026-03-22T13:17:42.998Z</time></trkpt><trkpt lat="53.828011417027746" lon="11.268994561758594"><ele>48.0</ele><time>2026-03-22T13:17:43.998Z</time></trkpt><trkpt lat="53.82815974874334" lon="11.269170418124645"><ele>48.0</ele><time>2026-03-22T13:17:44.998Z</time></trkpt><trkpt lat="53.828305217077705" lon="11.269324710317244"><ele>48.0</ele><time>2026-03-22T13:17:45.998Z</time></trkpt><trkpt lat="53.82845217092984" lon="11.269493760463071"><ele>48.0</ele><time>2026-03-22T13:17:46.998Z</time></trkpt><trkpt lat="53.82859740214132" lon="11.269678185211598"><ele>48.0</ele><time>2026-03-22T13:17:47.998Z</time></trkpt><trkpt lat="53.82874132060098" lon="11.269876864958189"><ele>47.666666666666664</ele><time>2026-03-22T13:17:48.998Z</time></trkpt><trkpt lat="53.82887384100861" lon="11.270076453274289"><ele>47.33333333333333</ele><time>2026-03-22T13:17:49.998Z</time></trkpt><trkpt lat="53.82899449473948" lon="11.270271280439852"><ele>47.0</ele><time>2026-03-22T13:17:50.998Z</time></trkpt><trkpt lat="53.82913070052464" lon="11.270487775391786"><ele>47.33333333333333</ele><time>2026-03-22T13:17:51.998Z</time></trkpt><trkpt lat="53.829278668399056" lon="11.270700538881892"><ele>47.666666666666664</ele><time>2026-03-22T13:17:52.998Z</time></trkpt><trkpt lat="53.829438723628975" lon="11.270902057619773"><ele>48.0</ele><time>2026-03-22T13:17:53.998Z</time></trkpt><trkpt lat="53.82959107569072" lon="11.271083327905865"><ele>47.333333333333336</ele><time>2026-03-22T13:17:54.998Z</time></trkpt><trkpt lat="53.829748680096685" lon="11.271273319766907"><ele>46.66666666666667</ele><time>2026-03-22T13:17:55.998Z</time></trkpt><trkpt lat="53.829902292684764" lon="11.27145836802146"><ele>46.0</ele><time>2026-03-22T13:17:56.998Z</time></trkpt><trkpt lat="53.830053917515116" lon="11.27163894013915"><ele>45.333333333333336</ele><time>2026-03-22T13:17:57.998Z</time></trkpt><trkpt lat="53.830179627341295" lon="11.271790261092505"><ele>44.666666666666664</ele><time>2026-03-22T13:17:58.998Z</time></trkpt><trkpt lat="53.830301354531784" lon="11.271940705696773"><ele>44.0</ele><time>2026-03-22T13:17:59.998Z</time></trkpt><trkpt lat="53.8304213655323" lon="11.272086976585456"><ele>44.0</ele><time>2026-03-22T13:18:00.998Z</time></trkpt><trkpt lat="53.830536101066514" lon="11.27222210342333"><ele>44.0</ele><time>2026-03-22T13:18:01.998Z</time></trkpt><trkpt lat="53.83064402116536" lon="11.272341886214894"><ele>44.0</ele><time>2026-03-22T13:18:02.998Z</time></trkpt><trkpt lat="53.830752173810254" lon="11.272458097227288"><ele>44.0</ele><time>2026-03-22T13:18:03.998Z</time></trkpt><trkpt lat="53.83083507587184" lon="11.272554826610984"><ele>44.2</ele><time>2026-03-22T13:18:04.998Z</time></trkpt><trkpt lat="53.83091669530143" lon="11.272645232783438"><ele>44.400000000000006</ele><time>2026-03-22T13:18:05.998Z</time></trkpt><trkpt lat="53.83098768635258" lon="11.272712873087059"><ele>44.6</ele><time>2026-03-22T13:18:06.998Z</time></trkpt><trkpt lat="53.831085388872175" lon="11.272725902095914"><ele>44.8</ele><time>2026-03-22T13:18:07.998Z</time></trkpt><trkpt lat="53.83114549644041" lon="11.272649060877924"><ele>45.0</ele><time>2026-03-22T13:18:08.998Z</time></trkpt><trkpt lat="53.83126623246432" lon="11.272586527926878"><ele>45.0</ele><time>2026-03-22T13:18:10.998Z</time></trkpt><trkpt lat="53.831336489574326" lon="11.272526968278399"><ele>45.0</ele><time>2026-03-22T13:18:11.998Z</time></trkpt><trkpt lat="53.83140974246542" lon="11.27248180668631"><ele>45.0</ele><time>2026-03-22T13:18:12.998Z</time></trkpt><trkpt lat="53.83146944693227" lon="11.272362063049503"><ele>45.0</ele><time>2026-03-22T13:18:13.998Z</time></trkpt><trkpt lat="53.831543261401194" lon="11.272284069736942"><ele>45.0</ele><time>2026-03-22T13:18:14.998Z</time></trkpt><trkpt lat="53.83160445030953" lon="11.2721950236937"><ele>45.0</ele><time>2026-03-22T13:18:15.998Z</time></trkpt><trkpt lat="53.83167853079633" lon="11.272110258532788"><ele>45.166666666666664</ele><time>2026-03-22T13:18:16.998Z</time></trkpt><trkpt lat="53.83174934886918" lon="11.272034357824142"><ele>45.333333333333336</ele><time>2026-03-22T13:18:17.998Z</time></trkpt><trkpt lat="53.831820035270425" lon="11.271949574318304"><ele>45.5</ele><time>2026-03-22T13:18:18.998Z</time></trkpt><trkpt lat="53.831883586989406" lon="11.271846331876931"><ele>45.66666666666667</ele><time>2026-03-22T13:18:19.998Z</time></trkpt><trkpt lat="53.831954749758914" lon="11.271757066572821"><ele>45.833333333333336</ele><time>2026-03-22T13:18:20.998Z</time></trkpt><trkpt lat="53.83202601680527" lon="11.27166606959945"><ele>46.0</ele><time>2026-03-22T13:18:21.998Z</time></trkpt><trkpt lat="53.832098612261376" lon="11.27155758918185"><ele>45.599999999999994</ele><time>2026-03-22T13:18:22.998Z</time></trkpt><trkpt lat="53.832173637799436" lon="11.271453246239796"><ele>45.2</ele><time>2026-03-22T13:18:23.998Z</time></trkpt><trkpt lat="53.8322514755468" lon="11.271366969261948"><ele>44.8</ele><time>2026-03-22T13:18:24.998Z</time></trkpt><trkpt lat="53.832331625263926" lon="11.2712795533519"><ele>44.400000000000006</ele><time>2026-03-22T13:18:25.998Z</time></trkpt><trkpt lat="53.83242168609017" lon="11.271161847590555"><ele>44.0</ele><time>2026-03-22T13:18:26.998Z</time></trkpt><trkpt lat="53.83252033047116" lon="11.271078253584255"><ele>44.0</ele><time>2026-03-22T13:18:27.998Z</time></trkpt><trkpt lat="53.832609407480064" lon="11.270973523188708"><ele>44.0</ele><time>2026-03-22T13:18:28.998Z</time></trkpt><trkpt lat="53.83270406546559" lon="11.27086219880111"><ele>44.0</ele><time>2026-03-22T13:18:29.998Z</time></trkpt><trkpt lat="53.832797363460436" lon="11.270752473879135"><ele>44.0</ele><time>2026-03-22T13:18:30.998Z</time></trkpt><trkpt lat="53.83289648776153" lon="11.270639085496489"><ele>42.800000000000004</ele><time>2026-03-22T13:18:31.998Z</time></trkpt><trkpt lat="53.83299612048535" lon="11.270525579518647"><ele>41.6</ele><time>2026-03-22T13:18:32.998Z</time></trkpt><trkpt lat="53.83307729331781" lon="11.270433103862052"><ele>40.4</ele><time>2026-03-22T13:18:33.998Z</time></trkpt><trkpt lat="53.83315559964632" lon="11.270325367411692"><ele>39.2</ele><time>2026-03-22T13:18:34.998Z</time></trkpt><trkpt lat="53.83324624213931" lon="11.27024515667805"><ele>38.0</ele><time>2026-03-22T13:18:35.998Z</time></trkpt><trkpt lat="53.833327987774574" lon="11.270151612527163"><ele>38.0</ele><time>2026-03-22T13:18:36.998Z</time></trkpt><trkpt lat="53.83341421752456" lon="11.270029592952252"><ele>38.0</ele><time>2026-03-22T13:18:37.998Z</time></trkpt><trkpt lat="53.83349907485474" lon="11.269898258863867"><ele>38.0</ele><time>2026-03-22T13:18:38.998Z</time></trkpt><trkpt lat="53.83357700434545" lon="11.269743806285803"><ele>38.0</ele><time>2026-03-22T13:18:39.998Z</time></trkpt><trkpt lat="53.83364202073536" lon="11.269580972616339"><ele>37.0</ele><time>2026-03-22T13:18:40.997Z</time></trkpt><trkpt lat="53.833686349025044" lon="11.26939201242448"><ele>36.0</ele><time>2026-03-22T13:18:41.997Z</time></trkpt><trkpt lat="53.83373581560705" lon="11.269211150404379"><ele>35.0</ele><time>2026-03-22T13:18:42.997Z</time></trkpt><trkpt lat="53.83378337553535" lon="11.269019371489913"><ele>34.0</ele><time>2026-03-22T13:18:43.997Z</time></trkpt><trkpt lat="53.83380506580571" lon="11.268830835320697"><ele>34.0</ele><time>2026-03-22T13:18:44.997Z</time></trkpt><trkpt lat="53.833837762983194" lon="11.268653818374124"><ele>34.0</ele><time>2026-03-22T13:18:45.997Z</time></trkpt><trkpt lat="53.833885131288916" lon="11.268486173114466"><ele>34.0</ele><time>2026-03-22T13:18:46.997Z</time></trkpt><trkpt lat="53.833922497017426" lon="11.26829319618301"><ele>34.0</ele><time>2026-03-22T13:18:47.997Z</time></trkpt><trkpt lat="53.834005310433064" lon="11.268258398377943"><ele>34.0</ele><time>2026-03-22T13:18:48.997Z</time></trkpt><trkpt lat="53.83408965471513" lon="11.2682200524075"><ele>34.0</ele><time>2026-03-22T13:18:49.997Z</time></trkpt><trkpt lat="53.83418257721074" lon="11.268192231530064"><ele>34.0</ele><time>2026-03-22T13:18:50.997Z</time></trkpt><trkpt lat="53.8342885115929" lon="11.26816862846778"><ele>34.0</ele><time>2026-03-22T13:18:51.997Z</time></trkpt><trkpt lat="53.83439059996144" lon="11.268160151922975"><ele>34.0</ele><time>2026-03-22T13:18:52.997Z</time></trkpt><trkpt lat="53.83449948886242" lon="11.268174416544017"><ele>34.0</ele><time>2026-03-22T13:18:53.997Z</time></trkpt><trkpt lat="53.8346363012188" lon="11.268192544216562"><ele>34.0</ele><time>2026-03-22T13:18:54.997Z</time></trkpt><trkpt lat="53.834747762025344" lon="11.268252307990776"><ele>34.0</ele><time>2026-03-22T13:18:55.997Z</time></trkpt><trkpt lat="53.83487061867225" lon="11.268295722255688"><ele>34.0</ele><time>2026-03-22T13:18:56.997Z</time></trkpt><trkpt lat="53.834986185729" lon="11.268336514482584"><ele>34.0</ele><time>2026-03-22T13:18:57.997Z</time></trkpt><trkpt lat="53.835101831013304" lon="11.268374718195876"><ele>34.4</ele><time>2026-03-22T13:18:58.997Z</time></trkpt><trkpt lat="53.835204039061104" lon="11.26840848286653"><ele>34.8</ele><time>2026-03-22T13:18:59.997Z</time></trkpt><trkpt lat="53.83530899243508" lon="11.268439022024895"><ele>35.2</ele><time>2026-03-22T13:19:00.997Z</time></trkpt><trkpt lat="53.835412732751394" lon="11.268476077820692"><ele>35.6</ele><time>2026-03-22T13:19:01.997Z</time></trkpt><trkpt lat="53.835506922640846" lon="11.2685254511676"><ele>36.0</ele><time>2026-03-22T13:19:02.997Z</time></trkpt><trkpt lat="53.83560003316948" lon="11.268589340765953"><ele>36.0</ele><time>2026-03-22T13:19:03.997Z</time></trkpt><trkpt lat="53.83569984109052" lon="11.268665774179935"><ele>36.0</ele><time>2026-03-22T13:19:04.997Z</time></trkpt><trkpt lat="53.83580286826104" lon="11.268749254682357"><ele>36.0</ele><time>2026-03-22T13:19:05.997Z</time></trkpt><trkpt lat="53.83589862066192" lon="11.26882837255763"><ele>36.0</ele><time>2026-03-22T13:19:06.997Z</time></trkpt><trkpt lat="53.83599475911328" lon="11.268907809278527"><ele>36.0</ele><time>2026-03-22T13:19:07.997Z</time></trkpt><trkpt lat="53.83608775890821" lon="11.268984652675597"><ele>35.833333333333336</ele><time>2026-03-22T13:19:08.997Z</time></trkpt><trkpt lat="53.83617252034012" lon="11.269052576563489"><ele>35.666666666666664</ele><time>2026-03-22T13:19:09.997Z</time></trkpt><trkpt lat="53.83626566056705" lon="11.269122126433237"><ele>35.5</ele><time>2026-03-22T13:19:10.997Z</time></trkpt><trkpt lat="53.83634080212535" lon="11.26917738643279"><ele>35.33333333333333</ele><time>2026-03-22T13:19:11.997Z</time></trkpt><trkpt lat="53.83640525333809" lon="11.269224784446793"><ele>35.166666666666664</ele><time>2026-03-22T13:19:12.997Z</time></trkpt><trkpt lat="53.83646571998781" lon="11.269265564642122"><ele>35.0</ele><time>2026-03-22T13:19:13.997Z</time></trkpt><trkpt lat="53.83654273315568" lon="11.269315680714131"><ele>35.0</ele><time>2026-03-22T13:19:15.997Z</time></trkpt><trkpt lat="53.83669274876365" lon="11.268955756284216"><ele>35.0</ele><time>2026-03-22T13:20:11Z</time></trkpt><trkpt lat="53.83663690526375" lon="11.269013187022294"><ele>35.0</ele><time>2026-03-22T13:26:14.998Z</time></trkpt><trkpt lat="53.83657934936138" lon="11.268963373555163"><ele>35.0</ele><time>2026-03-22T13:34:29Z</time></trkpt><trkpt lat="53.83662361457809" lon="11.268876235404278"><ele>35.0</ele><time>2026-03-22T13:35:28.999Z</time></trkpt><trkpt lat="53.83660198113866" lon="11.268770547172792"><ele>35.0</ele><time>2026-03-22T13:42:29Z</time></trkpt><trkpt lat="53.83658096966923" lon="11.268893096201527"><ele>35.0</ele><time>2026-03-22T13:42:59Z</time></trkpt><trkpt lat="53.83654644490426" lon="11.269002440456257"><ele>35.0</ele><time>2026-03-22T13:43:07Z</time></trkpt><trkpt lat="53.83661526377415" lon="11.269017030748682"><ele>35.0</ele><time>2026-03-22T13:47:22.999Z</time></trkpt><trkpt lat="53.83665792850934" lon="11.268928241089297"><ele>35.0</ele><time>2026-03-22T13:51:26.999Z</time></trkpt><trkpt lat="53.83666758708573" lon="11.269034749576749"><ele>35.0</ele><time>2026-03-22T13:52:58.999Z</time></trkpt><trkpt lat="53.83672381697655" lon="11.268964439345257"><ele>35.0</ele><time>2026-03-22T14:00:56.999Z</time></trkpt><trkpt lat="53.836703484742415" lon="11.268849085639042"><ele>35.0</ele><time>2026-03-22T14:01:06.999Z</time></trkpt><trkpt lat="53.83671374585156" lon="11.268742240533705"><ele>35.0</ele><time>2026-03-22T14:01:28.999Z</time></trkpt><trkpt lat="53.83673340312211" lon="11.268638516648181"><ele>35.0</ele><time>2026-03-22T14:01:54.999Z</time></trkpt><trkpt lat="53.83677453658888" lon="11.268732536511449"><ele>35.0</ele><time>2026-03-22T14:02:29Z</time></trkpt><trkpt lat="53.83673774360243" lon="11.268849332859581"><ele>35.0</ele><time>2026-03-22T14:02:45Z</time></trkpt><trkpt lat="53.83667857185077" lon="11.268900952641633"><ele>35.0</ele><time>2026-03-22T14:02:47Z</time></trkpt><trkpt lat="53.83659355798394" lon="11.268914376288258"><ele>35.0</ele><time>2026-03-22T14:02:50Z</time></trkpt><trkpt lat="53.836476373327685" lon="11.268841178492643"><ele>35.0</ele><time>2026-03-22T14:02:52Z</time></trkpt><trkpt lat="53.83640345182878" lon="11.268781774181287"><ele>35.0</ele><time>2026-03-22T14:02:53Z</time></trkpt><trkpt lat="53.83631601241603" lon="11.26874425149625"><ele>35.0</ele><time>2026-03-22T14:02:54Z</time></trkpt><trkpt lat="53.8362117139388" lon="11.268698410446776"><ele>35.0</ele><time>2026-03-22T14:02:55Z</time></trkpt><trkpt lat="53.83610268640387" lon="11.26865529394309"><ele>35.0</ele><time>2026-03-22T14:02:56Z</time></trkpt><trkpt lat="53.83599956490151" lon="11.268573964797651"><ele>35.0</ele><time>2026-03-22T14:02:57Z</time></trkpt><trkpt lat="53.835831345358734" lon="11.268678958621841"><ele>35.0</ele><time>2026-03-22T14:02:58Z</time></trkpt><trkpt lat="53.83571472821975" lon="11.26858438040144"><ele>35.0</ele><time>2026-03-22T14:02:59Z</time></trkpt><trkpt lat="53.835646786103176" lon="11.268350571168572"><ele>35.25</ele><time>2026-03-22T14:03:00Z</time></trkpt><trkpt lat="53.8355359699925" lon="11.268291914453526"><ele>35.5</ele><time>2026-03-22T14:03:01Z</time></trkpt><trkpt lat="53.835428558410975" lon="11.268231734830893"><ele>35.75</ele><time>2026-03-22T14:03:02Z</time></trkpt><trkpt lat="53.83529349082464" lon="11.268348973263942"><ele>36.0</ele><time>2026-03-22T14:03:03Z</time></trkpt><trkpt lat="53.83516647507765" lon="11.268310183412616"><ele>35.5</ele><time>2026-03-22T14:03:04Z</time></trkpt><trkpt lat="53.8350171555838" lon="11.26829668878922"><ele>35.0</ele><time>2026-03-22T14:03:05Z</time></trkpt><trkpt lat="53.83489737416161" lon="11.268265012864592"><ele>34.5</ele><time>2026-03-22T14:03:06Z</time></trkpt><trkpt lat="53.83477878766049" lon="11.268229831711754"><ele>34.0</ele><time>2026-03-22T14:03:07Z</time></trkpt><trkpt lat="53.83466111756768" lon="11.26818924642156"><ele>34.0</ele><time>2026-03-22T14:03:08Z</time></trkpt><trkpt lat="53.83454572090961" lon="11.268135572258453"><ele>34.0</ele><time>2026-03-22T14:03:09Z</time></trkpt><trkpt lat="53.834428086540015" lon="11.268102487371175"><ele>34.0</ele><time>2026-03-22T14:03:10Z</time></trkpt><trkpt lat="53.8343105790529" lon="11.268081513129436"><ele>34.0</ele><time>2026-03-22T14:03:11Z</time></trkpt><trkpt lat="53.83419082648494" lon="11.268083954923455"><ele>34.0</ele><time>2026-03-22T14:03:12Z</time></trkpt><trkpt lat="53.83407568709223" lon="11.268116099535698"><ele>34.0</ele><time>2026-03-22T14:03:13Z</time></trkpt><trkpt lat="53.833968944170884" lon="11.268166740081467"><ele>34.0</ele><time>2026-03-22T14:03:14Z</time></trkpt><trkpt lat="53.833879777505814" lon="11.268275810153899"><ele>34.0</ele><time>2026-03-22T14:03:15Z</time></trkpt><trkpt lat="53.83381798040634" lon="11.26840997700301"><ele>34.0</ele><time>2026-03-22T14:03:16Z</time></trkpt><trkpt lat="53.83378448645044" lon="11.268549652640226"><ele>34.0</ele><time>2026-03-22T14:03:17Z</time></trkpt><trkpt lat="53.8337609902331" lon="11.268693611386565"><ele>34.0</ele><time>2026-03-22T14:03:18Z</time></trkpt><trkpt lat="53.83374633355344" lon="11.268908691121187"><ele>34.0</ele><time>2026-03-22T14:03:19Z</time></trkpt><trkpt lat="53.83369583766176" lon="11.269108844641401"><ele>34.0</ele><time>2026-03-22T14:03:20Z</time></trkpt><trkpt lat="53.83364906177584" lon="11.2693177251894"><ele>33.25</ele><time>2026-03-22T14:03:21Z</time></trkpt><trkpt lat="53.8335898239926" lon="11.26952283692937"><ele>32.5</ele><time>2026-03-22T14:03:22Z</time></trkpt><trkpt lat="53.83352021814371" lon="11.269716874252838"><ele>31.75</ele><time>2026-03-22T14:03:23Z</time></trkpt><trkpt lat="53.83343083343513" lon="11.269897538768536"><ele>31.0</ele><time>2026-03-22T14:03:24Z</time></trkpt><trkpt lat="53.83333099218328" lon="11.270057054177633"><ele>32.0</ele><time>2026-03-22T14:03:25Z</time></trkpt><trkpt lat="53.83321564784336" lon="11.270199449265554"><ele>33.0</ele><time>2026-03-22T14:03:26Z</time></trkpt><trkpt lat="53.83309384829872" lon="11.270345183520698"><ele>34.0</ele><time>2026-03-22T14:03:27Z</time></trkpt><trkpt lat="53.83296980334109" lon="11.270487794131212"><ele>35.0</ele><time>2026-03-22T14:03:28Z</time></trkpt><trkpt lat="53.832848872762966" lon="11.270625563585913"><ele>35.0</ele><time>2026-03-22T14:03:29Z</time></trkpt><trkpt lat="53.832730073601205" lon="11.270763152761232"><ele>35.0</ele><time>2026-03-22T14:03:30Z</time></trkpt><trkpt lat="53.832614933340984" lon="11.270898565717765"><ele>35.0</ele><time>2026-03-22T14:03:31Z</time></trkpt><trkpt lat="53.83250192308236" lon="11.271031473577468"><ele>35.0</ele><time>2026-03-22T14:03:32Z</time></trkpt><trkpt lat="53.83240026470216" lon="11.271181534442487"><ele>36.5</ele><time>2026-03-22T14:03:33Z</time></trkpt><trkpt lat="53.832291947803974" lon="11.271301796926974"><ele>38.0</ele><time>2026-03-22T14:03:34Z</time></trkpt><trkpt lat="53.832181876482004" lon="11.271424067999495"><ele>39.5</ele><time>2026-03-22T14:03:35Z</time></trkpt><trkpt lat="53.83207436725536" lon="11.2715494907282"><ele>41.0</ele><time>2026-03-22T14:03:36Z</time></trkpt><trkpt lat="53.831968634438354" lon="11.27167883489762"><ele>41.0</ele><time>2026-03-22T14:03:37Z</time></trkpt><trkpt lat="53.831849256260035" lon="11.27178379623917"><ele>41.0</ele><time>2026-03-22T14:03:38Z</time></trkpt><trkpt lat="53.831739214559875" lon="11.271912311250022"><ele>41.0</ele><time>2026-03-22T14:03:39Z</time></trkpt><trkpt lat="53.83163622014891" lon="11.272036872148334"><ele>41.0</ele><time>2026-03-22T14:03:40Z</time></trkpt><trkpt lat="53.8315414862112" lon="11.272153352699881"><ele>41.8</ele><time>2026-03-22T14:03:41Z</time></trkpt><trkpt lat="53.83145601313875" lon="11.272271918660534"><ele>42.599999999999994</ele><time>2026-03-22T14:03:42Z</time></trkpt><trkpt lat="53.831388286481605" lon="11.272406771587152"><ele>43.4</ele><time>2026-03-22T14:03:43Z</time></trkpt><trkpt lat="53.831306697841654" lon="11.27249810690585"><ele>44.2</ele><time>2026-03-22T14:03:44Z</time></trkpt><trkpt lat="53.83121285816208" lon="11.272528577514358"><ele>45.0</ele><time>2026-03-22T14:03:45Z</time></trkpt><trkpt lat="53.83113911987474" lon="11.272615562443594"><ele>45.0</ele><time>2026-03-22T14:03:46Z</time></trkpt><trkpt lat="53.83105211799968" lon="11.27268362843084"><ele>45.0</ele><time>2026-03-22T14:03:47Z</time></trkpt><trkpt lat="53.83096069362891" lon="11.272654382892915"><ele>45.0</ele><time>2026-03-22T14:03:48Z</time></trkpt><trkpt lat="53.83087657659595" lon="11.272548235705704"><ele>45.0</ele><time>2026-03-22T14:03:49Z</time></trkpt><trkpt lat="53.83078271568964" lon="11.272423092867239"><ele>45.0</ele><time>2026-03-22T14:03:50Z</time></trkpt><trkpt lat="53.8306744138061" lon="11.27231448300255"><ele>44.75</ele><time>2026-03-22T14:03:51Z</time></trkpt><trkpt lat="53.8305681100869" lon="11.272188935527543"><ele>44.5</ele><time>2026-03-22T14:03:52Z</time></trkpt><trkpt lat="53.830456839186986" lon="11.272061386048389"><ele>44.25</ele><time>2026-03-22T14:03:53Z</time></trkpt><trkpt lat="53.83033915761603" lon="11.271929881662848"><ele>44.0</ele><time>2026-03-22T14:03:54Z</time></trkpt><trkpt lat="53.83021942609339" lon="11.271783832693643"><ele>44.0</ele><time>2026-03-22T14:03:55Z</time></trkpt><trkpt lat="53.83009439524505" lon="11.271636513926389"><ele>44.0</ele><time>2026-03-22T14:03:56Z</time></trkpt><trkpt lat="53.82996760283032" lon="11.2714836223398"><ele>44.0</ele><time>2026-03-22T14:03:57Z</time></trkpt><trkpt lat="53.829839433629715" lon="11.271332383234416"><ele>44.0</ele><time>2026-03-22T14:03:58Z</time></trkpt><trkpt lat="53.829674811833705" lon="11.271250837995309"><ele>44.0</ele><time>2026-03-22T14:03:59Z</time></trkpt><trkpt lat="53.829541327854955" lon="11.271104487885657"><ele>44.0</ele><time>2026-03-22T14:04:00Z</time></trkpt><trkpt lat="53.82940883796612" lon="11.270944461397315"><ele>45.0</ele><time>2026-03-22T14:04:01Z</time></trkpt><trkpt lat="53.82928111480948" lon="11.270776745367975"><ele>46.0</ele><time>2026-03-22T14:04:02Z</time></trkpt><trkpt lat="53.829190502397" lon="11.270502130935425"><ele>47.0</ele><time>2026-03-22T14:04:03Z</time></trkpt><trkpt lat="53.82906779936254" lon="11.270315176411273"><ele>47.0</ele><time>2026-03-22T14:04:04Z</time></trkpt><trkpt lat="53.82894417485995" lon="11.270110095021565"><ele>47.0</ele><time>2026-03-22T14:04:05Z</time></trkpt><trkpt lat="53.828817989835606" lon="11.269915158413838"><ele>47.0</ele><time>2026-03-22T14:04:06Z</time></trkpt><trkpt lat="53.82868496967409" lon="11.26972570559508"><ele>47.0</ele><time>2026-03-22T14:04:07Z</time></trkpt><trkpt lat="53.82854896631174" lon="11.269543597715211"><ele>47.0</ele><time>2026-03-22T14:04:08Z</time></trkpt><trkpt lat="53.82840681790572" lon="11.26937206009801"><ele>47.0</ele><time>2026-03-22T14:04:09Z</time></trkpt><trkpt lat="53.82826705613989" lon="11.269216279586892"><ele>47.33333333333333</ele><time>2026-03-22T14:04:10Z</time></trkpt><trkpt lat="53.828115876196044" lon="11.26908861182729"><ele>47.666666666666664</ele><time>2026-03-22T14:04:11Z</time></trkpt><trkpt lat="53.82797435073011" lon="11.268932856569403"><ele>48.0</ele><time>2026-03-22T14:04:12Z</time></trkpt><trkpt lat="53.827820696490335" lon="11.268782479695282"><ele>48.0</ele><time>2026-03-22T14:04:13Z</time></trkpt><trkpt lat="53.82767595735808" lon="11.268648202785933"><ele>48.0</ele><time>2026-03-22T14:04:14Z</time></trkpt><trkpt lat="53.82752957571496" lon="11.26849949090302"><ele>48.0</ele><time>2026-03-22T14:04:15Z</time></trkpt><trkpt lat="53.827383101080265" lon="11.26834057601752"><ele>48.0</ele><time>2026-03-22T14:04:16Z</time></trkpt><trkpt lat="53.8272387890112" lon="11.268159156050087"><ele>48.0</ele><time>2026-03-22T14:04:17Z</time></trkpt><trkpt lat="53.827074577596655" lon="11.267968356638924"><ele>48.0</ele><time>2026-03-22T14:04:18Z</time></trkpt><trkpt lat="53.82692358618825" lon="11.267787356599017"><ele>48.33333333333333</ele><time>2026-03-22T14:04:19Z</time></trkpt><trkpt lat="53.82676825677873" lon="11.267600116603804"><ele>48.666666666666664</ele><time>2026-03-22T14:04:20Z</time></trkpt><trkpt lat="53.82662047479515" lon="11.267420039866149"><ele>49.0</ele><time>2026-03-22T14:04:21Z</time></trkpt><trkpt lat="53.826476810637374" lon="11.26724223607971"><ele>48.0</ele><time>2026-03-22T14:04:22Z</time></trkpt><trkpt lat="53.82633462015353" lon="11.267065963852904"><ele>47.0</ele><time>2026-03-22T14:04:23Z</time></trkpt><trkpt lat="53.82618285555944" lon="11.266878715765394"><ele>46.0</ele><time>2026-03-22T14:04:24Z</time></trkpt><trkpt lat="53.82602789076102" lon="11.26669052967499"><ele>46.0</ele><time>2026-03-22T14:04:25Z</time></trkpt><trkpt lat="53.82588704800176" lon="11.266518639693633"><ele>46.0</ele><time>2026-03-22T14:04:26Z</time></trkpt><trkpt lat="53.825733285286745" lon="11.266330981786496"><ele>46.0</ele><time>2026-03-22T14:04:27Z</time></trkpt><trkpt lat="53.82557824625112" lon="11.266143033930096"><ele>45.66666666666667</ele><time>2026-03-22T14:04:28Z</time></trkpt><trkpt lat="53.825417709397726" lon="11.265956773062076"><ele>45.333333333333336</ele><time>2026-03-22T14:04:29Z</time></trkpt><trkpt lat="53.82526270715034" lon="11.265771432067135"><ele>45.0</ele><time>2026-03-22T14:04:30Z</time></trkpt><trkpt lat="53.82510962516288" lon="11.265591882181123"><ele>44.0</ele><time>2026-03-22T14:04:31Z</time></trkpt><trkpt lat="53.82496110867601" lon="11.265417686022925"><ele>43.0</ele><time>2026-03-22T14:04:32Z</time></trkpt><trkpt lat="53.82481168947028" lon="11.265239381083454"><ele>42.0</ele><time>2026-03-22T14:04:33Z</time></trkpt><trkpt lat="53.82465421826417" lon="11.265047967774457"><ele>42.0</ele><time>2026-03-22T14:04:34Z</time></trkpt><trkpt lat="53.82449076255679" lon="11.26485579952554"><ele>42.0</ele><time>2026-03-22T14:04:35Z</time></trkpt><trkpt lat="53.82433421969985" lon="11.264671756908545"><ele>42.0</ele><time>2026-03-22T14:04:36Z</time></trkpt><trkpt lat="53.8241674115974" lon="11.264470939495862"><ele>41.333333333333336</ele><time>2026-03-22T14:04:37Z</time></trkpt><trkpt lat="53.824011428113494" lon="11.264277674775526"><ele>40.66666666666667</ele><time>2026-03-22T14:04:38Z</time></trkpt><trkpt lat="53.823852704850964" lon="11.264086463704515"><ele>40.0</ele><time>2026-03-22T14:04:39Z</time></trkpt><trkpt lat="53.823710679141996" lon="11.263913906160543"><ele>39.66666666666667</ele><time>2026-03-22T14:04:40Z</time></trkpt><trkpt lat="53.82355708780952" lon="11.263726341063267"><ele>39.333333333333336</ele><time>2026-03-22T14:04:41Z</time></trkpt><trkpt lat="53.823400721077235" lon="11.26353420834456"><ele>39.0</ele><time>2026-03-22T14:04:42Z</time></trkpt><trkpt lat="53.82325030989756" lon="11.26334892160269"><ele>39.666666666666664</ele><time>2026-03-22T14:04:43Z</time></trkpt><trkpt lat="53.82309595621524" lon="11.263167360612146"><ele>40.33333333333333</ele><time>2026-03-22T14:04:44Z</time></trkpt><trkpt lat="53.82294395791846" lon="11.262988570100985"><ele>41.0</ele><time>2026-03-22T14:04:45Z</time></trkpt><trkpt lat="53.82279239706633" lon="11.262810296569068"><ele>41.0</ele><time>2026-03-22T14:04:46Z</time></trkpt><trkpt lat="53.822643386240046" lon="11.262632466506975"><ele>41.0</ele><time>2026-03-22T14:04:47Z</time></trkpt><trkpt lat="53.82250688611746" lon="11.262451798941369"><ele>41.0</ele><time>2026-03-22T14:04:48Z</time></trkpt><trkpt lat="53.82237286029466" lon="11.26225085004893"><ele>41.0</ele><time>2026-03-22T14:04:49Z</time></trkpt><trkpt lat="53.82223958495567" lon="11.262021554120546"><ele>41.0</ele><time>2026-03-22T14:04:50Z</time></trkpt><trkpt lat="53.82211666597815" lon="11.261796016555017"><ele>41.0</ele><time>2026-03-22T14:04:51Z</time></trkpt><trkpt lat="53.82199096399674" lon="11.261539702375062"><ele>41.0</ele><time>2026-03-22T14:04:52Z</time></trkpt><trkpt lat="53.82187985570991" lon="11.261291262166843"><ele>41.0</ele><time>2026-03-22T14:04:53Z</time></trkpt><trkpt lat="53.82177215070275" lon="11.261070890914496"><ele>41.0</ele><time>2026-03-22T14:04:54Z</time></trkpt><trkpt lat="53.821618995989496" lon="11.260849822745385"><ele>41.33333333333333</ele><time>2026-03-22T14:04:55Z</time></trkpt><trkpt lat="53.82146494145148" lon="11.260703604555264"><ele>41.666666666666664</ele><time>2026-03-22T14:04:56Z</time></trkpt><trkpt lat="53.82130742548307" lon="11.260561154043538"><ele>42.0</ele><time>2026-03-22T14:04:57Z</time></trkpt><trkpt lat="53.82115016438828" lon="11.260418933934094"><ele>42.0</ele><time>2026-03-22T14:04:58Z</time></trkpt><trkpt lat="53.8209915763063" lon="11.260275019936135"><ele>42.0</ele><time>2026-03-22T14:04:59Z</time></trkpt><trkpt lat="53.82084424267285" lon="11.260140595871771"><ele>42.0</ele><time>2026-03-22T14:05:00Z</time></trkpt><trkpt lat="53.82068451149595" lon="11.259994860545053"><ele>42.0</ele><time>2026-03-22T14:05:01Z</time></trkpt><trkpt lat="53.82051491347816" lon="11.259840122866253"><ele>42.0</ele><time>2026-03-22T14:05:02Z</time></trkpt><trkpt lat="53.82035102651918" lon="11.259690595817034"><ele>42.0</ele><time>2026-03-22T14:05:03Z</time></trkpt><trkpt lat="53.820176535266285" lon="11.259531393739481"><ele>42.333333333333336</ele><time>2026-03-22T14:05:04Z</time></trkpt><trkpt lat="53.820015543839915" lon="11.259383963512715"><ele>42.66666666666667</ele><time>2026-03-22T14:05:04.999Z</time></trkpt><trkpt lat="53.819857326133445" lon="11.259244052977959"><ele>43.0</ele><time>2026-03-22T14:05:05.999Z</time></trkpt><trkpt lat="53.81970115913822" lon="11.259103248055576"><ele>43.0</ele><time>2026-03-22T14:05:06.999Z</time></trkpt><trkpt lat="53.81954460890785" lon="11.258960172231438"><ele>43.0</ele><time>2026-03-22T14:05:07.999Z</time></trkpt><trkpt lat="53.819385648594874" lon="11.25881181710387"><ele>43.0</ele><time>2026-03-22T14:05:08.999Z</time></trkpt><trkpt lat="53.81921733187462" lon="11.258652709186519"><ele>42.333333333333336</ele><time>2026-03-22T14:05:09.999Z</time></trkpt><trkpt lat="53.819037328837695" lon="11.258478172042416"><ele>41.666666666666664</ele><time>2026-03-22T14:05:10.999Z</time></trkpt><trkpt lat="53.818869875517" lon="11.258293267419372"><ele>41.0</ele><time>2026-03-22T14:05:11.999Z</time></trkpt><trkpt lat="53.81869780956959" lon="11.25814430676818"><ele>41.0</ele><time>2026-03-22T14:05:12.999Z</time></trkpt><trkpt lat="53.81854404511276" lon="11.257999081491569"><ele>41.0</ele><time>2026-03-22T14:05:13.999Z</time></trkpt><trkpt lat="53.818396488998964" lon="11.257870861855226"><ele>41.0</ele><time>2026-03-22T14:05:14.999Z</time></trkpt><trkpt lat="53.8182625118075" lon="11.257783647060226"><ele>40.75</ele><time>2026-03-22T14:05:15.999Z</time></trkpt><trkpt lat="53.81813970617167" lon="11.257662233106485"><ele>40.5</ele><time>2026-03-22T14:05:16.999Z</time></trkpt><trkpt lat="53.81801780629387" lon="11.25757644802311"><ele>40.25</ele><time>2026-03-22T14:05:17.999Z</time></trkpt><trkpt lat="53.81792235890953" lon="11.257466900280745"><ele>40.0</ele><time>2026-03-22T14:05:18.999Z</time></trkpt><trkpt lat="53.81780430758692" lon="11.257401317622989"><ele>40.0</ele><time>2026-03-22T14:05:19.999Z</time></trkpt><trkpt lat="53.81777741684292" lon="11.257288349323254"><ele>40.0</ele><time>2026-03-22T14:05:20.999Z</time></trkpt><trkpt lat="53.817763797216365" lon="11.257043300881122"><ele>40.0</ele><time>2026-03-22T14:05:22.999Z</time></trkpt><trkpt lat="53.81777177163635" lon="11.256851861914631"><ele>40.0</ele><time>2026-03-22T14:05:23.999Z</time></trkpt><trkpt lat="53.81778005471689" lon="11.256653012179914"><ele>40.0</ele><time>2026-03-22T14:05:24.999Z</time></trkpt><trkpt lat="53.81778780298147" lon="11.256458728108766"><ele>40.0</ele><time>2026-03-22T14:05:25.999Z</time></trkpt><trkpt lat="53.81779578075225" lon="11.256239617629099"><ele>40.0</ele><time>2026-03-22T14:05:26.999Z</time></trkpt><trkpt lat="53.81780400129414" lon="11.256013839970377"><ele>40.0</ele><time>2026-03-22T14:05:27.999Z</time></trkpt><trkpt lat="53.81781285853302" lon="11.255770573738776"><ele>40.0</ele><time>2026-03-22T14:05:28.999Z</time></trkpt><trkpt lat="53.817822534067474" lon="11.255504831177253"><ele>40.0</ele><time>2026-03-22T14:05:29.999Z</time></trkpt><trkpt lat="53.817833348709634" lon="11.255237783972614"><ele>40.0</ele><time>2026-03-22T14:05:30.999Z</time></trkpt><trkpt lat="53.81784285482391" lon="11.254986837335721"><ele>40.0</ele><time>2026-03-22T14:05:31.999Z</time></trkpt><trkpt lat="53.817852944156265" lon="11.254720494206385"><ele>40.0</ele><time>2026-03-22T14:05:32.999Z</time></trkpt><trkpt lat="53.81786336503083" lon="11.254445399711104"><ele>40.0</ele><time>2026-03-22T14:05:33.999Z</time></trkpt><trkpt lat="53.81787412509315" lon="11.254161350833144"><ele>40.0</ele><time>2026-03-22T14:05:34.999Z</time></trkpt><trkpt lat="53.81788447806404" lon="11.253888048320603"><ele>39.66666666666667</ele><time>2026-03-22T14:05:35.999Z</time></trkpt><trkpt lat="53.817886400142434" lon="11.253611367817568"><ele>39.333333333333336</ele><time>2026-03-22T14:05:36.999Z</time></trkpt><trkpt lat="53.817898593593014" lon="11.253339070709716"><ele>39.0</ele><time>2026-03-22T14:05:37.999Z</time></trkpt><trkpt lat="53.817917650631536" lon="11.253080773072796"><ele>39.0</ele><time>2026-03-22T14:05:38.999Z</time></trkpt><trkpt lat="53.81792507215859" lon="11.252794432765834"><ele>39.0</ele><time>2026-03-22T14:05:39.999Z</time></trkpt><trkpt lat="53.81793738505545" lon="11.252518744675797"><ele>39.0</ele><time>2026-03-22T14:05:40.999Z</time></trkpt><trkpt lat="53.817947681635935" lon="11.252252410354044"><ele>39.0</ele><time>2026-03-22T14:05:41.999Z</time></trkpt><trkpt lat="53.817957886936156" lon="11.25198843701288"><ele>39.0</ele><time>2026-03-22T14:05:42.999Z</time></trkpt><trkpt lat="53.81796890607495" lon="11.251703412620705"><ele>39.0</ele><time>2026-03-22T14:05:43.999Z</time></trkpt><trkpt lat="53.81797939018766" lon="11.251422136026175"><ele>39.0</ele><time>2026-03-22T14:05:44.999Z</time></trkpt><trkpt lat="53.81798947144252" lon="11.251142950014103"><ele>39.0</ele><time>2026-03-22T14:05:45.999Z</time></trkpt><trkpt lat="53.81799935488983" lon="11.250869241889959"><ele>39.0</ele><time>2026-03-22T14:05:46.999Z</time></trkpt><trkpt lat="53.81800893139186" lon="11.25060578172399"><ele>39.0</ele><time>2026-03-22T14:05:47.999Z</time></trkpt><trkpt lat="53.818019127460744" lon="11.250340957038654"><ele>39.0</ele><time>2026-03-22T14:05:48.999Z</time></trkpt><trkpt lat="53.81801529611952" lon="11.250063376520027"><ele>39.0</ele><time>2026-03-22T14:05:49.999Z</time></trkpt><trkpt lat="53.81804641310713" lon="11.24978900033414"><ele>39.0</ele><time>2026-03-22T14:05:50.999Z</time></trkpt><trkpt lat="53.81807055409528" lon="11.249509412603567"><ele>39.0</ele><time>2026-03-22T14:05:51.999Z</time></trkpt><trkpt lat="53.818105833241006" lon="11.249238809730539"><ele>39.0</ele><time>2026-03-22T14:05:52.999Z</time></trkpt><trkpt lat="53.818147473450296" lon="11.248967199625884"><ele>38.666666666666664</ele><time>2026-03-22T14:05:53.999Z</time></trkpt><trkpt lat="53.81819234236872" lon="11.2486985758268"><ele>38.33333333333333</ele><time>2026-03-22T14:05:54.999Z</time></trkpt><trkpt lat="53.81823940457988" lon="11.248424929333318"><ele>38.0</ele><time>2026-03-22T14:05:55.999Z</time></trkpt><trkpt lat="53.81828274616426" lon="11.248172915566476"><ele>37.33333333333333</ele><time>2026-03-22T14:05:56.999Z</time></trkpt><trkpt lat="53.818329220639086" lon="11.247910307714296"><ele>36.666666666666664</ele><time>2026-03-22T14:05:57.999Z</time></trkpt><trkpt lat="53.81837523628994" lon="11.247649396502663"><ele>36.0</ele><time>2026-03-22T14:05:58.999Z</time></trkpt><trkpt lat="53.818416494790775" lon="11.247396839562224"><ele>36.333333333333336</ele><time>2026-03-22T14:05:59.999Z</time></trkpt><trkpt lat="53.81846400605111" lon="11.247126398883378"><ele>36.66666666666667</ele><time>2026-03-22T14:06:00.999Z</time></trkpt><trkpt lat="53.81850090391387" lon="11.246865133155334"><ele>37.0</ele><time>2026-03-22T14:06:01.999Z</time></trkpt><trkpt lat="53.81854606163096" lon="11.246615680420469"><ele>38.333333333333336</ele><time>2026-03-22T14:06:02.999Z</time></trkpt><trkpt lat="53.81860212963533" lon="11.246370214830641"><ele>39.666666666666664</ele><time>2026-03-22T14:06:03.999Z</time></trkpt><trkpt lat="53.818646441931705" lon="11.246094184805008"><ele>41.0</ele><time>2026-03-22T14:06:04.999Z</time></trkpt><trkpt lat="53.818695111539434" lon="11.245819251804235"><ele>40.0</ele><time>2026-03-22T14:06:05.999Z</time></trkpt><trkpt lat="53.81874982014272" lon="11.24555596331889"><ele>39.0</ele><time>2026-03-22T14:06:06.999Z</time></trkpt><trkpt lat="53.81880713032167" lon="11.245306344655727"><ele>38.0</ele><time>2026-03-22T14:06:07.999Z</time></trkpt><trkpt lat="53.818857665095386" lon="11.245052998116082"><ele>38.0</ele><time>2026-03-22T14:06:08.999Z</time></trkpt><trkpt lat="53.81890364642554" lon="11.244774445522017"><ele>38.0</ele><time>2026-03-22T14:06:09.999Z</time></trkpt><trkpt lat="53.8189494113758" lon="11.24452280811216"><ele>38.0</ele><time>2026-03-22T14:06:10.999Z</time></trkpt><trkpt lat="53.8189859214837" lon="11.244281274063352"><ele>38.0</ele><time>2026-03-22T14:06:11.999Z</time></trkpt><trkpt lat="53.819026883210135" lon="11.244028797361603"><ele>38.0</ele><time>2026-03-22T14:06:12.999Z</time></trkpt><trkpt lat="53.81905841956935" lon="11.24376700388581"><ele>38.0</ele><time>2026-03-22T14:06:13.999Z</time></trkpt><trkpt lat="53.819099904906054" lon="11.24350173469708"><ele>37.666666666666664</ele><time>2026-03-22T14:06:14.999Z</time></trkpt><trkpt lat="53.819149624706874" lon="11.243237437181723"><ele>37.333333333333336</ele><time>2026-03-22T14:06:15.999Z</time></trkpt><trkpt lat="53.819186787407055" lon="11.242979010194043"><ele>37.0</ele><time>2026-03-22T14:06:16.999Z</time></trkpt><trkpt lat="53.81922591746642" lon="11.242704670102706"><ele>37.0</ele><time>2026-03-22T14:06:17.999Z</time></trkpt><trkpt lat="53.8192726959879" lon="11.242440893227634"><ele>37.0</ele><time>2026-03-22T14:06:18.999Z</time></trkpt><trkpt lat="53.81933067412253" lon="11.242194880674898"><ele>37.0</ele><time>2026-03-22T14:06:19.999Z</time></trkpt><trkpt lat="53.819394630041884" lon="11.241947506928184"><ele>37.0</ele><time>2026-03-22T14:06:20.999Z</time></trkpt><trkpt lat="53.819432287193926" lon="11.241674416227514"><ele>37.0</ele><time>2026-03-22T14:06:21.999Z</time></trkpt><trkpt lat="53.81947025233475" lon="11.241394049822619"><ele>37.0</ele><time>2026-03-22T14:06:22.999Z</time></trkpt><trkpt lat="53.81951505900258" lon="11.241107177966354"><ele>37.0</ele><time>2026-03-22T14:06:23.999Z</time></trkpt><trkpt lat="53.81955568140829" lon="11.24081901180642"><ele>37.0</ele><time>2026-03-22T14:06:24.999Z</time></trkpt><trkpt lat="53.81960807941239" lon="11.240536573082961"><ele>37.0</ele><time>2026-03-22T14:06:25.999Z</time></trkpt><trkpt lat="53.81965373894662" lon="11.240254371055064"><ele>37.333333333333336</ele><time>2026-03-22T14:06:26.999Z</time></trkpt><trkpt lat="53.81970977807823" lon="11.239966626239337"><ele>37.666666666666664</ele><time>2026-03-22T14:06:27.999Z</time></trkpt><trkpt lat="53.819767707118935" lon="11.239677106703"><ele>38.0</ele><time>2026-03-22T14:06:28.999Z</time></trkpt><trkpt lat="53.81981450454245" lon="11.23939004770883"><ele>38.0</ele><time>2026-03-22T14:06:29.999Z</time></trkpt><trkpt lat="53.81985675604245" lon="11.239103155023246"><ele>38.0</ele><time>2026-03-22T14:06:30.999Z</time></trkpt><trkpt lat="53.81990785655705" lon="11.23882359771108"><ele>38.0</ele><time>2026-03-22T14:06:31.999Z</time></trkpt><trkpt lat="53.819959183967" lon="11.238524595107375"><ele>37.666666666666664</ele><time>2026-03-22T14:06:32.999Z</time></trkpt><trkpt lat="53.82002269865244" lon="11.238230636488721"><ele>37.333333333333336</ele><time>2026-03-22T14:06:33.999Z</time></trkpt><trkpt lat="53.8200842778279" lon="11.23791851869069"><ele>37.0</ele><time>2026-03-22T14:06:34.999Z</time></trkpt><trkpt lat="53.82015219473705" lon="11.237604494020083"><ele>37.0</ele><time>2026-03-22T14:06:35.999Z</time></trkpt><trkpt lat="53.82021589899866" lon="11.237301876261638"><ele>37.0</ele><time>2026-03-22T14:06:36.999Z</time></trkpt><trkpt lat="53.82032190896191" lon="11.237035701116211"><ele>37.0</ele><time>2026-03-22T14:06:37.999Z</time></trkpt><trkpt lat="53.82042228411643" lon="11.236763462928508"><ele>37.0</ele><time>2026-03-22T14:06:38.999Z</time></trkpt><trkpt lat="53.82052432253622" lon="11.23648859548537"><ele>37.0</ele><time>2026-03-22T14:06:39.999Z</time></trkpt><trkpt lat="53.820628145588735" lon="11.23620932686017"><ele>37.0</ele><time>2026-03-22T14:06:40.999Z</time></trkpt><trkpt lat="53.820723142475266" lon="11.235917746393616"><ele>37.0</ele><time>2026-03-22T14:06:41.999Z</time></trkpt><trkpt lat="53.82082726571657" lon="11.235653588517074"><ele>37.0</ele><time>2026-03-22T14:06:42.999Z</time></trkpt><trkpt lat="53.82092365348579" lon="11.235381195949362"><ele>37.0</ele><time>2026-03-22T14:06:43.999Z</time></trkpt><trkpt lat="53.82102752771064" lon="11.23514492986648"><ele>38.333333333333336</ele><time>2026-03-22T14:06:44.999Z</time></trkpt><trkpt lat="53.821112615038324" lon="11.234883124677637"><ele>39.666666666666664</ele><time>2026-03-22T14:06:45.999Z</time></trkpt><trkpt lat="53.82118785780729" lon="11.234604262064028"><ele>41.0</ele><time>2026-03-22T14:06:46.999Z</time></trkpt><trkpt lat="53.82125196393313" lon="11.234341282934011"><ele>41.0</ele><time>2026-03-22T14:06:47.999Z</time></trkpt><trkpt lat="53.821305054188464" lon="11.23406152133168"><ele>41.0</ele><time>2026-03-22T14:06:48.999Z</time></trkpt><trkpt lat="53.821353187102275" lon="11.23375784728783"><ele>41.0</ele><time>2026-03-22T14:06:49.999Z</time></trkpt><trkpt lat="53.821393279019176" lon="11.233436254650119"><ele>40.666666666666664</ele><time>2026-03-22T14:06:50.999Z</time></trkpt><trkpt lat="53.82141153294323" lon="11.23312760336457"><ele>40.333333333333336</ele><time>2026-03-22T14:06:51.999Z</time></trkpt><trkpt lat="53.82143067725782" lon="11.232801524163344"><ele>40.0</ele><time>2026-03-22T14:06:52.999Z</time></trkpt><trkpt lat="53.8214439671215" lon="11.232468022328556"><ele>40.0</ele><time>2026-03-22T14:06:53.999Z</time></trkpt><trkpt lat="53.821459903674565" lon="11.232127436189549"><ele>40.0</ele><time>2026-03-22T14:06:54.999Z</time></trkpt><trkpt lat="53.821486158899425" lon="11.231801955982482"><ele>40.0</ele><time>2026-03-22T14:06:55.999Z</time></trkpt><trkpt lat="53.82150663431967" lon="11.23146638852696"><ele>39.66666666666667</ele><time>2026-03-22T14:06:56.999Z</time></trkpt><trkpt lat="53.821547845765934" lon="11.231141451096521"><ele>39.333333333333336</ele><time>2026-03-22T14:06:57.999Z</time></trkpt><trkpt lat="53.82159030230205" lon="11.230810854862659"><ele>39.0</ele><time>2026-03-22T14:06:58.999Z</time></trkpt><trkpt lat="53.8216160381834" lon="11.230472636222286"><ele>38.666666666666664</ele><time>2026-03-22T14:06:59.999Z</time></trkpt><trkpt lat="53.82163415926807" lon="11.230131130484093"><ele>38.33333333333333</ele><time>2026-03-22T14:07:00.999Z</time></trkpt><trkpt lat="53.82166566482624" lon="11.229788680846495"><ele>38.0</ele><time>2026-03-22T14:07:01.999Z</time></trkpt><trkpt lat="53.82169115197066" lon="11.229455944088027"><ele>37.666666666666664</ele><time>2026-03-22T14:07:02.999Z</time></trkpt><trkpt lat="53.82171837691732" lon="11.229102201681798"><ele>37.333333333333336</ele><time>2026-03-22T14:07:03.999Z</time></trkpt><trkpt lat="53.821747086182576" lon="11.228781014313897"><ele>37.0</ele><time>2026-03-22T14:07:04.999Z</time></trkpt><trkpt lat="53.82176441533665" lon="11.228456672184425"><ele>37.0</ele><time>2026-03-22T14:07:05.999Z</time></trkpt><trkpt lat="53.82177674563705" lon="11.228142541613895"><ele>37.0</ele><time>2026-03-22T14:07:06.999Z</time></trkpt><trkpt lat="53.82179910363743" lon="11.227812292687785"><ele>37.0</ele><time>2026-03-22T14:07:07.999Z</time></trkpt><trkpt lat="53.821837886156054" lon="11.227499602459767"><ele>37.333333333333336</ele><time>2026-03-22T14:07:08.999Z</time></trkpt><trkpt lat="53.82184470574085" lon="11.227172359167685"><ele>37.666666666666664</ele><time>2026-03-22T14:07:09.999Z</time></trkpt><trkpt lat="53.8218671465976" lon="11.226858632406927"><ele>38.0</ele><time>2026-03-22T14:07:10.999Z</time></trkpt><trkpt lat="53.821897960812386" lon="11.226536726579925"><ele>37.666666666666664</ele><time>2026-03-22T14:07:11.999Z</time></trkpt><trkpt lat="53.82190762576602" lon="11.226218599657045"><ele>37.333333333333336</ele><time>2026-03-22T14:07:12.999Z</time></trkpt><trkpt lat="53.82193742248059" lon="11.225917334589711"><ele>37.0</ele><time>2026-03-22T14:07:13.999Z</time></trkpt><trkpt lat="53.821960013062814" lon="11.22558175649837"><ele>36.66666666666667</ele><time>2026-03-22T14:07:14.999Z</time></trkpt><trkpt lat="53.82197062416402" lon="11.225258621412635"><ele>36.333333333333336</ele><time>2026-03-22T14:07:15.999Z</time></trkpt><trkpt lat="53.82198276246009" lon="11.224933128274058"><ele>36.0</ele><time>2026-03-22T14:07:16.999Z</time></trkpt><trkpt lat="53.82200234249354" lon="11.224634884009935"><ele>36.0</ele><time>2026-03-22T14:07:17.999Z</time></trkpt><trkpt lat="53.82202315165928" lon="11.224317177973555"><ele>36.0</ele><time>2026-03-22T14:07:18.999Z</time></trkpt><trkpt lat="53.82204369599881" lon="11.22400116380968"><ele>36.0</ele><time>2026-03-22T14:07:19.999Z</time></trkpt><trkpt lat="53.82205163117048" lon="11.223670746276065"><ele>35.666666666666664</ele><time>2026-03-22T14:07:20.999Z</time></trkpt><trkpt lat="53.82208520994316" lon="11.223364760757317"><ele>35.33333333333333</ele><time>2026-03-22T14:07:21.999Z</time></trkpt><trkpt lat="53.82209762720945" lon="11.223034893490386"><ele>35.0</ele><time>2026-03-22T14:07:22.999Z</time></trkpt><trkpt lat="53.82212944634515" lon="11.222697714862647"><ele>34.666666666666664</ele><time>2026-03-22T14:07:23.999Z</time></trkpt><trkpt lat="53.82215122586489" lon="11.222367435255315"><ele>34.333333333333336</ele><time>2026-03-22T14:07:24.999Z</time></trkpt><trkpt lat="53.82217239391452" lon="11.222043129926476"><ele>34.0</ele><time>2026-03-22T14:07:25.999Z</time></trkpt><trkpt lat="53.822195520398864" lon="11.221687773141852"><ele>33.333333333333336</ele><time>2026-03-22T14:07:26.999Z</time></trkpt><trkpt lat="53.822203887969565" lon="11.221365714440045"><ele>32.666666666666664</ele><time>2026-03-22T14:07:27.999Z</time></trkpt><trkpt lat="53.82223798600346" lon="11.221035255980993"><ele>32.0</ele><time>2026-03-22T14:07:28.999Z</time></trkpt><trkpt lat="53.82224943452131" lon="11.22073541383962"><ele>32.33333333333333</ele><time>2026-03-22T14:07:29.999Z</time></trkpt><trkpt lat="53.822279616939625" lon="11.220420552439961"><ele>32.666666666666664</ele><time>2026-03-22T14:07:30.999Z</time></trkpt><trkpt lat="53.822306681505744" lon="11.220101064236735"><ele>33.0</ele><time>2026-03-22T14:07:31.999Z</time></trkpt><trkpt lat="53.822318109815924" lon="11.219754965987077"><ele>33.0</ele><time>2026-03-22T14:07:32.999Z</time></trkpt><trkpt lat="53.822327186692426" lon="11.219420643276736"><ele>33.0</ele><time>2026-03-22T14:07:33.999Z</time></trkpt><trkpt lat="53.82234687864549" lon="11.219106454768863"><ele>33.0</ele><time>2026-03-22T14:07:34.999Z</time></trkpt><trkpt lat="53.822372001334735" lon="11.218798301235001"><ele>33.666666666666664</ele><time>2026-03-22T14:07:35.999Z</time></trkpt><trkpt lat="53.82238182204548" lon="11.218498099761199"><ele>34.33333333333333</ele><time>2026-03-22T14:07:36.999Z</time></trkpt><trkpt lat="53.82240662244463" lon="11.218186622491162"><ele>35.0</ele><time>2026-03-22T14:07:37.999Z</time></trkpt><trkpt lat="53.82242049122423" lon="11.217912384257508"><ele>35.666666666666664</ele><time>2026-03-22T14:07:38.999Z</time></trkpt><trkpt lat="53.82243391328156" lon="11.217646979354141"><ele>36.333333333333336</ele><time>2026-03-22T14:07:39.999Z</time></trkpt><trkpt lat="53.822446830839226" lon="11.217391561125103"><ele>37.0</ele><time>2026-03-22T14:07:40.999Z</time></trkpt><trkpt lat="53.82246036643458" lon="11.217127407186174"><ele>37.0</ele><time>2026-03-22T14:07:41.999Z</time></trkpt><trkpt lat="53.82247382438579" lon="11.216869066794477"><ele>37.0</ele><time>2026-03-22T14:07:42.999Z</time></trkpt><trkpt lat="53.822486584027196" lon="11.216618339150195"><ele>37.0</ele><time>2026-03-22T14:07:43.999Z</time></trkpt><trkpt lat="53.82249703151805" lon="11.216401398494943"><ele>37.0</ele><time>2026-03-22T14:07:44.999Z</time></trkpt><trkpt lat="53.82250680805156" lon="11.216198390190915"><ele>37.0</ele><time>2026-03-22T14:07:45.999Z</time></trkpt><trkpt lat="53.822509248100154" lon="11.216006559474614"><ele>37.0</ele><time>2026-03-22T14:07:46.999Z</time></trkpt><trkpt lat="53.82253033294828" lon="11.215809991957926"><ele>37.0</ele><time>2026-03-22T14:07:47.999Z</time></trkpt><trkpt lat="53.8225320774822" lon="11.215602691833624"><ele>37.0</ele><time>2026-03-22T14:07:48.999Z</time></trkpt><trkpt lat="53.822541201401854" lon="11.21543516966893"><ele>37.25</ele><time>2026-03-22T14:07:49.999Z</time></trkpt><trkpt lat="53.82250343866362" lon="11.215308947451332"><ele>37.5</ele><time>2026-03-22T14:07:50.999Z</time></trkpt><trkpt lat="53.82239858980819" lon="11.215251704443634"><ele>37.75</ele><time>2026-03-22T14:07:51.999Z</time></trkpt><trkpt lat="53.822292171713656" lon="11.215137162938783"><ele>38.0</ele><time>2026-03-22T14:07:52.999Z</time></trkpt><trkpt lat="53.822210814628555" lon="11.214938921720446"><ele>38.0</ele><time>2026-03-22T14:07:53.999Z</time></trkpt><trkpt lat="53.822183314003304" lon="11.214760242910826"><ele>38.0</ele><time>2026-03-22T14:07:54.999Z</time></trkpt><trkpt lat="53.822161666672244" lon="11.214613192341387"><ele>38.0</ele><time>2026-03-22T14:07:55.999Z</time></trkpt><trkpt lat="53.822148357751445" lon="11.214453632413454"><ele>38.0</ele><time>2026-03-22T14:07:56.999Z</time></trkpt><trkpt lat="53.822163792668384" lon="11.214334978238"><ele>38.0</ele><time>2026-03-22T14:07:57.999Z</time></trkpt><trkpt lat="53.8221600550908" lon="11.214173736877472"><ele>38.0</ele><time>2026-03-22T14:07:59.999Z</time></trkpt><trkpt lat="53.82201115983718" lon="11.214127195583846"><ele>38.0</ele><time>2026-03-22T14:08:20.999Z</time></trkpt><trkpt lat="53.82193379189038" lon="11.214202082847978"><ele>38.0</ele><time>2026-03-22T14:08:21.999Z</time></trkpt><trkpt lat="53.82186021252389" lon="11.214258741864535"><ele>38.0</ele><time>2026-03-22T14:08:22.999Z</time></trkpt><trkpt lat="53.821777932906166" lon="11.214300198900505"><ele>38.0</ele><time>2026-03-22T14:08:23.999Z</time></trkpt><trkpt lat="53.82169692891195" lon="11.214374097943999"><ele>38.0</ele><time>2026-03-22T14:08:24.999Z</time></trkpt><trkpt lat="53.821595359994305" lon="11.214437385672863"><ele>38.0</ele><time>2026-03-22T14:08:25.999Z</time></trkpt><trkpt lat="53.82148130220582" lon="11.214536463409413"><ele>38.0</ele><time>2026-03-22T14:08:26.998Z</time></trkpt><trkpt lat="53.821351198434215" lon="11.214606678715185"><ele>38.0</ele><time>2026-03-22T14:08:27.998Z</time></trkpt><trkpt lat="53.821221716825455" lon="11.214677510650223"><ele>38.0</ele><time>2026-03-22T14:08:28.998Z</time></trkpt><trkpt lat="53.82108883361451" lon="11.214750087751213"><ele>38.0</ele><time>2026-03-22T14:08:29.998Z</time></trkpt><trkpt lat="53.82095153551873" lon="11.214815553152457"><ele>38.0</ele><time>2026-03-22T14:08:30.998Z</time></trkpt><trkpt lat="53.820804006651194" lon="11.214912871215482"><ele>38.0</ele><time>2026-03-22T14:08:31.998Z</time></trkpt><trkpt lat="53.82065327978584" lon="11.214948345301025"><ele>37.33333333333333</ele><time>2026-03-22T14:08:32.998Z</time></trkpt><trkpt lat="53.82050484551295" lon="11.215001686002612"><ele>36.666666666666664</ele><time>2026-03-22T14:08:33.998Z</time></trkpt><trkpt lat="53.82035754953729" lon="11.215049246995195"><ele>36.0</ele><time>2026-03-22T14:08:34.998Z</time></trkpt><trkpt lat="53.82020493170554" lon="11.215101444180101"><ele>35.333333333333336</ele><time>2026-03-22T14:08:35.998Z</time></trkpt><trkpt lat="53.8200416272642" lon="11.215120045395924"><ele>34.66666666666667</ele><time>2026-03-22T14:08:36.998Z</time></trkpt><trkpt lat="53.819889675806465" lon="11.215148395334621"><ele>34.0</ele><time>2026-03-22T14:08:37.998Z</time></trkpt><trkpt lat="53.819727846201296" lon="11.215212165325479"><ele>34.0</ele><time>2026-03-22T14:08:38.998Z</time></trkpt><trkpt lat="53.81956443034497" lon="11.21527956837721"><ele>34.0</ele><time>2026-03-22T14:08:39.998Z</time></trkpt><trkpt lat="53.819409412014124" lon="11.215351070173694"><ele>34.0</ele><time>2026-03-22T14:08:40.998Z</time></trkpt><trkpt lat="53.81925499878268" lon="11.215451866898597"><ele>33.66666666666667</ele><time>2026-03-22T14:08:41.998Z</time></trkpt><trkpt lat="53.81909931317611" lon="11.215517306039471"><ele>33.333333333333336</ele><time>2026-03-22T14:08:42.998Z</time></trkpt><trkpt lat="53.81894389419925" lon="11.21561294784615"><ele>33.0</ele><time>2026-03-22T14:08:43.998Z</time></trkpt><trkpt lat="53.81877498036662" lon="11.21567949216066"><ele>33.0</ele><time>2026-03-22T14:08:44.998Z</time></trkpt><trkpt lat="53.81861348338219" lon="11.215751655553039"><ele>33.0</ele><time>2026-03-22T14:08:45.998Z</time></trkpt><trkpt lat="53.81845759830188" lon="11.21582274828766"><ele>33.0</ele><time>2026-03-22T14:08:46.998Z</time></trkpt><trkpt lat="53.81830580659017" lon="11.215892310686334"><ele>33.333333333333336</ele><time>2026-03-22T14:08:47.998Z</time></trkpt><trkpt lat="53.81814871329956" lon="11.215964947098756"><ele>33.66666666666667</ele><time>2026-03-22T14:08:48.998Z</time></trkpt><trkpt lat="53.81798880377507" lon="11.216044012435473"><ele>34.0</ele><time>2026-03-22T14:08:49.998Z</time></trkpt><trkpt lat="53.81784248243126" lon="11.216124571908551"><ele>34.0</ele><time>2026-03-22T14:08:50.998Z</time></trkpt><trkpt lat="53.81769730776134" lon="11.216216984100443"><ele>34.0</ele><time>2026-03-22T14:08:51.998Z</time></trkpt><trkpt lat="53.81754237341353" lon="11.216320647361508"><ele>34.0</ele><time>2026-03-22T14:08:52.998Z</time></trkpt><trkpt lat="53.81739480128852" lon="11.216412376654077"><ele>33.0</ele><time>2026-03-22T14:08:53.998Z</time></trkpt><trkpt lat="53.817240564271444" lon="11.216495701127474"><ele>32.0</ele><time>2026-03-22T14:08:54.998Z</time></trkpt><trkpt lat="53.81708728957812" lon="11.216629009058146"><ele>31.0</ele><time>2026-03-22T14:08:55.998Z</time></trkpt><trkpt lat="53.816940923988234" lon="11.216744551595426"><ele>30.333333333333336</ele><time>2026-03-22T14:08:56.998Z</time></trkpt><trkpt lat="53.816783190915686" lon="11.216826391175614"><ele>29.666666666666664</ele><time>2026-03-22T14:08:57.998Z</time></trkpt><trkpt lat="53.81661176624059" lon="11.216868734596328"><ele>29.0</ele><time>2026-03-22T14:08:58.998Z</time></trkpt><trkpt lat="53.816436336111856" lon="11.216856773426574"><ele>29.0</ele><time>2026-03-22T14:08:59.998Z</time></trkpt><trkpt lat="53.81625527412402" lon="11.216810558379024"><ele>29.0</ele><time>2026-03-22T14:09:01Z</time></trkpt><trkpt lat="53.816072920672525" lon="11.216758706582963"><ele>29.0</ele><time>2026-03-22T14:09:02Z</time></trkpt><trkpt lat="53.8158991041402" lon="11.216712190431261"><ele>28.333333333333332</ele><time>2026-03-22T14:09:03Z</time></trkpt><trkpt lat="53.815720960399844" lon="11.216664516249756"><ele>27.666666666666664</ele><time>2026-03-22T14:09:04Z</time></trkpt><trkpt lat="53.81555070234248" lon="11.216624744559725"><ele>27.0</ele><time>2026-03-22T14:09:05Z</time></trkpt><trkpt lat="53.81537852672095" lon="11.216564607335116"><ele>27.0</ele><time>2026-03-22T14:09:06Z</time></trkpt><trkpt lat="53.81521244849947" lon="11.216498155242473"><ele>27.0</ele><time>2026-03-22T14:09:07Z</time></trkpt><trkpt lat="53.815045946049715" lon="11.216434827347458"><ele>27.0</ele><time>2026-03-22T14:09:08Z</time></trkpt><trkpt lat="53.81488326257702" lon="11.216385336256277"><ele>27.333333333333336</ele><time>2026-03-22T14:09:09Z</time></trkpt><trkpt lat="53.81472769363537" lon="11.216350838832641"><ele>27.666666666666668</ele><time>2026-03-22T14:09:10Z</time></trkpt><trkpt lat="53.814568968245126" lon="11.216289209808565"><ele>28.0</ele><time>2026-03-22T14:09:11Z</time></trkpt><trkpt lat="53.81440912980762" lon="11.216222753202986"><ele>28.666666666666668</ele><time>2026-03-22T14:09:12Z</time></trkpt><trkpt lat="53.81424610584145" lon="11.216155182709146"><ele>29.333333333333336</ele><time>2026-03-22T14:09:13Z</time></trkpt><trkpt lat="53.814076634995146" lon="11.21608816271278"><ele>30.0</ele><time>2026-03-22T14:09:14Z</time></trkpt><trkpt lat="53.813915525690604" lon="11.215991182343156"><ele>30.0</ele><time>2026-03-22T14:09:15Z</time></trkpt><trkpt lat="53.813752764978986" lon="11.215877457425577"><ele>30.0</ele><time>2026-03-22T14:09:16Z</time></trkpt><trkpt lat="53.81358489528375" lon="11.215766767830488"><ele>30.0</ele><time>2026-03-22T14:09:17Z</time></trkpt><trkpt lat="53.813446869465885" lon="11.215593775018347"><ele>30.666666666666664</ele><time>2026-03-22T14:09:18Z</time></trkpt><trkpt lat="53.813303258591596" lon="11.215427441679342"><ele>31.333333333333332</ele><time>2026-03-22T14:09:19Z</time></trkpt><trkpt lat="53.81315067593901" lon="11.215296391672755"><ele>32.0</ele><time>2026-03-22T14:09:20Z</time></trkpt><trkpt lat="53.8129988772002" lon="11.215157440485948"><ele>32.0</ele><time>2026-03-22T14:09:21Z</time></trkpt><trkpt lat="53.81284574737799" lon="11.215017549319988"><ele>32.0</ele><time>2026-03-22T14:09:22Z</time></trkpt><trkpt lat="53.81269263591597" lon="11.21487672297164"><ele>32.0</ele><time>2026-03-22T14:09:23Z</time></trkpt><trkpt lat="53.8125381810441" lon="11.214736221205637"><ele>32.0</ele><time>2026-03-22T14:09:24Z</time></trkpt><trkpt lat="53.81237325895291" lon="11.214603364116549"><ele>32.0</ele><time>2026-03-22T14:09:25Z</time></trkpt><trkpt lat="53.812190506939054" lon="11.214480852963277"><ele>32.0</ele><time>2026-03-22T14:09:26Z</time></trkpt><trkpt lat="53.812026722542406" lon="11.214330943708667"><ele>32.0</ele><time>2026-03-22T14:09:27Z</time></trkpt><trkpt lat="53.811880057017476" lon="11.214170389588402"><ele>32.0</ele><time>2026-03-22T14:09:28Z</time></trkpt><trkpt lat="53.81173802449482" lon="11.213989384187308"><ele>32.0</ele><time>2026-03-22T14:09:29Z</time></trkpt><trkpt lat="53.8115751484067" lon="11.213821282803893"><ele>31.333333333333332</ele><time>2026-03-22T14:09:30Z</time></trkpt><trkpt lat="53.81141765941967" lon="11.21367430154517"><ele>30.666666666666664</ele><time>2026-03-22T14:09:31Z</time></trkpt><trkpt lat="53.811252879568876" lon="11.213503610721805"><ele>30.0</ele><time>2026-03-22T14:09:32Z</time></trkpt><trkpt lat="53.81109018863159" lon="11.213323583025762"><ele>30.0</ele><time>2026-03-22T14:09:33Z</time></trkpt><trkpt lat="53.810911968870236" lon="11.213193500309254"><ele>30.0</ele><time>2026-03-22T14:09:34Z</time></trkpt><trkpt lat="53.81071875491424" lon="11.213067902102324"><ele>30.0</ele><time>2026-03-22T14:09:35Z</time></trkpt><trkpt lat="53.81053304491651" lon="11.212967040483218"><ele>30.333333333333336</ele><time>2026-03-22T14:09:36Z</time></trkpt><trkpt lat="53.810361850183334" lon="11.212891161723961"><ele>30.666666666666668</ele><time>2026-03-22T14:09:37Z</time></trkpt><trkpt lat="53.81017986529905" lon="11.21282800819654"><ele>31.0</ele><time>2026-03-22T14:09:38Z</time></trkpt><trkpt lat="53.80999157151556" lon="11.212791295499057"><ele>31.0</ele><time>2026-03-22T14:09:39Z</time></trkpt><trkpt lat="53.809805315883324" lon="11.212772243591244"><ele>31.0</ele><time>2026-03-22T14:09:40Z</time></trkpt><trkpt lat="53.80961476303891" lon="11.212772978724399"><ele>31.0</ele><time>2026-03-22T14:09:41Z</time></trkpt><trkpt lat="53.809429542891955" lon="11.212796610413971"><ele>30.333333333333336</ele><time>2026-03-22T14:09:42Z</time></trkpt><trkpt lat="53.80924531719912" lon="11.212836838022815"><ele>29.666666666666664</ele><time>2026-03-22T14:09:43Z</time></trkpt><trkpt lat="53.80906929385514" lon="11.212893412301206"><ele>29.0</ele><time>2026-03-22T14:09:44Z</time></trkpt><trkpt lat="53.80888995723441" lon="11.212970051071583"><ele>29.0</ele><time>2026-03-22T14:09:45Z</time></trkpt><trkpt lat="53.80872229728382" lon="11.213058123474022"><ele>29.0</ele><time>2026-03-22T14:09:46Z</time></trkpt><trkpt lat="53.80853862656622" lon="11.213165952555437"><ele>29.0</ele><time>2026-03-22T14:09:47Z</time></trkpt><trkpt lat="53.80835502388204" lon="11.213350661224803"><ele>29.666666666666664</ele><time>2026-03-22T14:09:48Z</time></trkpt><trkpt lat="53.8081954744452" lon="11.213472064792914"><ele>30.333333333333336</ele><time>2026-03-22T14:09:49Z</time></trkpt><trkpt lat="53.80803420427697" lon="11.213538487361541"><ele>31.0</ele><time>2026-03-22T14:09:50Z</time></trkpt><trkpt lat="53.80789034686465" lon="11.213622553481581"><ele>31.0</ele><time>2026-03-22T14:09:51Z</time></trkpt><trkpt lat="53.80777361703223" lon="11.213711738412053"><ele>31.0</ele><time>2026-03-22T14:09:52Z</time></trkpt><trkpt lat="53.80767471978375" lon="11.213753084973607"><ele>31.0</ele><time>2026-03-22T14:09:53Z</time></trkpt><trkpt lat="53.80759112223653" lon="11.213797026045457"><ele>31.0</ele><time>2026-03-22T14:09:54Z</time></trkpt><trkpt lat="53.807518974728865" lon="11.213860336236262"><ele>31.0</ele><time>2026-03-22T14:09:55Z</time></trkpt><trkpt lat="53.807405305961524" lon="11.21386059602875"><ele>31.166666666666668</ele><time>2026-03-22T14:09:57Z</time></trkpt><trkpt lat="53.80737546410344" lon="11.21372847677968"><ele>31.333333333333336</ele><time>2026-03-22T14:09:59Z</time></trkpt><trkpt lat="53.807362074404075" lon="11.213591198347391"><ele>31.5</ele><time>2026-03-22T14:10:01Z</time></trkpt><trkpt lat="53.80741941376343" lon="11.213540387664667"><ele>31.666666666666664</ele><time>2026-03-22T14:10:10Z</time></trkpt><trkpt lat="53.807392323360844" lon="11.213413120892987"><ele>31.833333333333332</ele><time>2026-03-22T14:10:55.999Z</time></trkpt><trkpt lat="53.80738554644037" lon="11.213298608032016"><ele>32.0</ele><time>2026-03-22T14:11:02.999Z</time></trkpt><trkpt lat="53.80737922144392" lon="11.21315134496095"><ele>31.999999999999996</ele><time>2026-03-22T14:11:56.999Z</time></trkpt><trkpt lat="53.80729335595107" lon="11.213211836388549"><ele>32.0</ele><time>2026-03-22T14:25:38.999Z</time></trkpt><trkpt lat="53.80723375970757" lon="11.21314988268558"><ele>32.0</ele><time>2026-03-22T14:25:59.999Z</time></trkpt><trkpt lat="53.80737334035054" lon="11.213123318913581"><ele>32.0</ele><time>2026-03-22T14:38:07Z</time></trkpt><trkpt lat="53.80742278533352" lon="11.213201729989889"><ele>31.999999999999996</ele><time>2026-03-22T14:38:18Z</time></trkpt><trkpt lat="53.80739758343539" lon="11.213301968079083"><ele>32.0</ele><time>2026-03-22T14:38:25Z</time></trkpt><trkpt lat="53.807345090463414" lon="11.21339436587656"><ele>32.0</ele><time>2026-03-22T14:38:28Z</time></trkpt><trkpt lat="53.80729648353492" lon="11.213478025728568"><ele>32.0</ele><time>2026-03-22T14:38:31Z</time></trkpt><trkpt lat="53.80724535569595" lon="11.213568602920693"><ele>32.0</ele><time>2026-03-22T14:38:36Z</time></trkpt><trkpt lat="53.80714967247442" lon="11.213276423748214"><ele>32.0</ele><time>2026-03-22T14:42:50.999Z</time></trkpt><trkpt lat="53.807188469337284" lon="11.213070030040987"><ele>31.999999999999996</ele><time>2026-03-22T14:43:43.999Z</time></trkpt><trkpt lat="53.807249358234834" lon="11.213143601473197"><ele>32.0</ele><time>2026-03-22T14:46:15.999Z</time></trkpt><trkpt lat="53.80730774345949" lon="11.213249961889945"><ele>32.0</ele><time>2026-03-22T14:46:20.999Z</time></trkpt><trkpt lat="53.807279964760724" lon="11.213394714502913"><ele>32.0</ele><time>2026-03-22T14:47:50.999Z</time></trkpt><trkpt lat="53.80728699216313" lon="11.213511741741378"><ele>31.999999999999996</ele><time>2026-03-22T14:47:55.999Z</time></trkpt><trkpt lat="53.80733086335852" lon="11.213660929438088"><ele>32.0</ele><time>2026-03-22T14:47:57.999Z</time></trkpt><trkpt lat="53.80736070233771" lon="11.213782937591759"><ele>32.0</ele><time>2026-03-22T14:47:59.999Z</time></trkpt><trkpt lat="53.80742540264341" lon="11.21384608869965"><ele>32.0</ele><time>2026-03-22T14:48:02.999Z</time></trkpt><trkpt lat="53.8075138700185" lon="11.213814232292865"><ele>32.0</ele><time>2026-03-22T14:48:04.999Z</time></trkpt><trkpt lat="53.80760988217462" lon="11.213763827167949"><ele>32.0</ele><time>2026-03-22T14:48:06.999Z</time></trkpt><trkpt lat="53.80771231490592" lon="11.213726366037152"><ele>32.0</ele><time>2026-03-22T14:48:08.999Z</time></trkpt><trkpt lat="53.80780523749111" lon="11.213686417153678"><ele>31.8</ele><time>2026-03-22T14:48:10.999Z</time></trkpt><trkpt lat="53.80790631452667" lon="11.21362922869013"><ele>31.6</ele><time>2026-03-22T14:48:12.999Z</time></trkpt><trkpt lat="53.807975850029656" lon="11.21358168040556"><ele>31.400000000000002</ele><time>2026-03-22T14:48:14.999Z</time></trkpt><trkpt lat="53.80802343808418" lon="11.213477232853304"><ele>31.200000000000003</ele><time>2026-03-22T14:48:16.999Z</time></trkpt><trkpt lat="53.80806107129193" lon="11.213260041839213"><ele>31.0</ele><time>2026-03-22T14:48:18.999Z</time></trkpt><trkpt lat="53.80808341855482" lon="11.213062862251544"><ele>30.333333333333336</ele><time>2026-03-22T14:48:19.999Z</time></trkpt><trkpt lat="53.80809608469156" lon="11.212851541969298"><ele>29.666666666666664</ele><time>2026-03-22T14:48:20.999Z</time></trkpt><trkpt lat="53.808064918729606" lon="11.212615235193226"><ele>29.0</ele><time>2026-03-22T14:48:21.999Z</time></trkpt><trkpt lat="53.80799994193012" lon="11.212321098593211"><ele>29.0</ele><time>2026-03-22T14:48:22.999Z</time></trkpt><trkpt lat="53.80793115555556" lon="11.212020075562087"><ele>29.0</ele><time>2026-03-22T14:48:23.999Z</time></trkpt><trkpt lat="53.80784211097129" lon="11.211730709450794"><ele>29.0</ele><time>2026-03-22T14:48:24.999Z</time></trkpt><trkpt lat="53.807739021577454" lon="11.211427342357393"><ele>29.0</ele><time>2026-03-22T14:48:25.999Z</time></trkpt><trkpt lat="53.80765027919733" lon="11.211133575066745"><ele>29.0</ele><time>2026-03-22T14:48:26.999Z</time></trkpt><trkpt lat="53.80756702508236" lon="11.210851356417344"><ele>29.0</ele><time>2026-03-22T14:48:27.999Z</time></trkpt><trkpt lat="53.807454115255254" lon="11.210589954043298"><ele>29.0</ele><time>2026-03-22T14:48:28.999Z</time></trkpt><trkpt lat="53.80737230702822" lon="11.210325127750991"><ele>29.0</ele><time>2026-03-22T14:48:29.999Z</time></trkpt><trkpt lat="53.80729095552025" lon="11.210021207471392"><ele>29.0</ele><time>2026-03-22T14:48:30.999Z</time></trkpt><trkpt lat="53.80720476653053" lon="11.209749287546288"><ele>29.0</ele><time>2026-03-22T14:48:31.999Z</time></trkpt><trkpt lat="53.807101580299296" lon="11.209484794298227"><ele>29.0</ele><time>2026-03-22T14:48:32.999Z</time></trkpt><trkpt lat="53.807017244504564" lon="11.209189787842107"><ele>29.0</ele><time>2026-03-22T14:48:33.999Z</time></trkpt><trkpt lat="53.80692825901204" lon="11.208909530717913"><ele>29.0</ele><time>2026-03-22T14:48:34.999Z</time></trkpt><trkpt lat="53.806833271352815" lon="11.2086217011261"><ele>29.0</ele><time>2026-03-22T14:48:35.999Z</time></trkpt><trkpt lat="53.80673567214014" lon="11.20833971487148"><ele>29.0</ele><time>2026-03-22T14:48:36.999Z</time></trkpt><trkpt lat="53.80664570282605" lon="11.208049094823847"><ele>29.0</ele><time>2026-03-22T14:48:37.999Z</time></trkpt><trkpt lat="53.806552904966594" lon="11.207785569707577"><ele>29.0</ele><time>2026-03-22T14:48:38.999Z</time></trkpt><trkpt lat="53.806478715175054" lon="11.207500386840847"><ele>29.0</ele><time>2026-03-22T14:48:39.999Z</time></trkpt><trkpt lat="53.806397312431486" lon="11.207199527027665"><ele>28.666666666666664</ele><time>2026-03-22T14:48:40.999Z</time></trkpt><trkpt lat="53.80631956542679" lon="11.206884087821177"><ele>28.333333333333336</ele><time>2026-03-22T14:48:41.999Z</time></trkpt><trkpt lat="53.80626692665755" lon="11.206553327837497"><ele>28.0</ele><time>2026-03-22T14:48:42.999Z</time></trkpt><trkpt lat="53.806189555488295" lon="11.206266155975134"><ele>28.0</ele><time>2026-03-22T14:48:43.999Z</time></trkpt><trkpt lat="53.80613969504506" lon="11.206005289314763"><ele>28.0</ele><time>2026-03-22T14:48:44.999Z</time></trkpt><trkpt lat="53.80608964493865" lon="11.205795017904151"><ele>28.0</ele><time>2026-03-22T14:48:45.999Z</time></trkpt><trkpt lat="53.80604738693606" lon="11.20561611645575"><ele>28.0</ele><time>2026-03-22T14:48:46.999Z</time></trkpt><trkpt lat="53.80600991876506" lon="11.205450274308939"><ele>28.0</ele><time>2026-03-22T14:48:47.999Z</time></trkpt><trkpt lat="53.80597827655924" lon="11.205272510886985"><ele>27.999999999999996</ele><time>2026-03-22T14:48:48.999Z</time></trkpt><trkpt lat="53.8059707404666" lon="11.205113433019127"><ele>27.999999999999996</ele><time>2026-03-22T14:48:49.999Z</time></trkpt><trkpt lat="53.80595679466804" lon="11.204942891571921"><ele>28.0</ele><time>2026-03-22T14:48:50.999Z</time></trkpt><trkpt lat="53.80592670931538" lon="11.204799972181805"><ele>28.0</ele><time>2026-03-22T14:48:51.999Z</time></trkpt><trkpt lat="53.80590565878234" lon="11.204647175259224"><ele>28.000000000000004</ele><time>2026-03-22T14:48:52.999Z</time></trkpt><trkpt lat="53.80585767039877" lon="11.204524887251852"><ele>28.0</ele><time>2026-03-22T14:48:53.999Z</time></trkpt><trkpt lat="53.80578608350001" lon="11.204415077022068"><ele>28.0</ele><time>2026-03-22T14:48:54.999Z</time></trkpt><trkpt lat="53.80570533770333" lon="11.204397136864944"><ele>28.0</ele><time>2026-03-22T14:48:55.999Z</time></trkpt><trkpt lat="53.805636718075306" lon="11.204386513926712"><ele>28.000000000000004</ele><time>2026-03-22T14:48:56.999Z</time></trkpt><trkpt lat="53.805574786893146" lon="11.204341365678324"><ele>28.0</ele><time>2026-03-22T14:48:57.999Z</time></trkpt><trkpt lat="53.80554092338595" lon="11.20425125854691"><ele>28.0</ele><time>2026-03-22T14:48:58.999Z</time></trkpt><trkpt lat="53.8056053145035" lon="11.20416257829563"><ele>27.999999999999996</ele><time>2026-03-22T14:48:59.999Z</time></trkpt><trkpt lat="53.80564243649096" lon="11.204052359442075"><ele>27.999999999999996</ele><time>2026-03-22T14:49:00.999Z</time></trkpt><trkpt lat="53.80569952476026" lon="11.203935088063268"><ele>28.0</ele><time>2026-03-22T14:49:01.999Z</time></trkpt><trkpt lat="53.805774849386346" lon="11.203814920286197"><ele>28.0</ele><time>2026-03-22T14:49:02.999Z</time></trkpt><trkpt lat="53.80586507361772" lon="11.203704966884985"><ele>28.25</ele><time>2026-03-22T14:49:03.999Z</time></trkpt><trkpt lat="53.805964792666366" lon="11.20360144838535"><ele>28.5</ele><time>2026-03-22T14:49:04.999Z</time></trkpt><trkpt lat="53.8060769403574" lon="11.203456311682555"><ele>28.75</ele><time>2026-03-22T14:49:05.999Z</time></trkpt><trkpt lat="53.80614517957014" lon="11.20321844675687"><ele>29.0</ele><time>2026-03-22T14:49:06.999Z</time></trkpt><trkpt lat="53.806152049475315" lon="11.20295550257297"><ele>29.5</ele><time>2026-03-22T14:49:07.999Z</time></trkpt><trkpt lat="53.806122720380195" lon="11.202723620898693"><ele>30.0</ele><time>2026-03-22T14:49:08.999Z</time></trkpt><trkpt lat="53.80608457743129" lon="11.202497560690809"><ele>30.5</ele><time>2026-03-22T14:49:09.999Z</time></trkpt><trkpt lat="53.80604424554519" lon="11.202258133015626"><ele>31.0</ele><time>2026-03-22T14:49:10.999Z</time></trkpt><trkpt lat="53.80599846372711" lon="11.202037155573716"><ele>31.0</ele><time>2026-03-22T14:49:11.999Z</time></trkpt><trkpt lat="53.805978739327585" lon="11.201811185452241"><ele>31.0</ele><time>2026-03-22T14:49:12.999Z</time></trkpt><trkpt lat="53.80596978368477" lon="11.201559926978078"><ele>31.0</ele><time>2026-03-22T14:49:13.999Z</time></trkpt><trkpt lat="53.80598919835421" lon="11.201316849300337"><ele>31.0</ele><time>2026-03-22T14:49:14.999Z</time></trkpt><trkpt lat="53.806025582739935" lon="11.201055487561046"><ele>31.0</ele><time>2026-03-22T14:49:15.999Z</time></trkpt><trkpt lat="53.80606441437316" lon="11.200804234177255"><ele>31.0</ele><time>2026-03-22T14:49:16.999Z</time></trkpt><trkpt lat="53.80610332772148" lon="11.200525657822848"><ele>31.0</ele><time>2026-03-22T14:49:17.999Z</time></trkpt><trkpt lat="53.806136127464825" lon="11.200261519145712"><ele>31.0</ele><time>2026-03-22T14:49:18.999Z</time></trkpt><trkpt lat="53.806157126202805" lon="11.199998281597647"><ele>31.0</ele><time>2026-03-22T14:49:19.999Z</time></trkpt><trkpt lat="53.80616914964657" lon="11.199739519955028"><ele>31.0</ele><time>2026-03-22T14:49:21Z</time></trkpt><trkpt lat="53.80617152570377" lon="11.19948053823503"><ele>30.75</ele><time>2026-03-22T14:49:21.999Z</time></trkpt><trkpt lat="53.80617250956773" lon="11.19921404321834"><ele>30.5</ele><time>2026-03-22T14:49:22.999Z</time></trkpt><trkpt lat="53.80622132786625" lon="11.198987437606515"><ele>30.25</ele><time>2026-03-22T14:49:23.999Z</time></trkpt><trkpt lat="53.80627846853872" lon="11.198804305322781"><ele>30.0</ele><time>2026-03-22T14:49:24.999Z</time></trkpt><trkpt lat="53.806357062046644" lon="11.198612574303848"><ele>30.0</ele><time>2026-03-22T14:49:25.999Z</time></trkpt><trkpt lat="53.80644753486072" lon="11.19839876538052"><ele>30.0</ele><time>2026-03-22T14:49:26.999Z</time></trkpt><trkpt lat="53.80654132921395" lon="11.19817280965304"><ele>30.0</ele><time>2026-03-22T14:49:27.999Z</time></trkpt><trkpt lat="53.806629289845596" lon="11.197937933440098"><ele>30.333333333333336</ele><time>2026-03-22T14:49:28.999Z</time></trkpt><trkpt lat="53.80669938171901" lon="11.19767962212675"><ele>30.666666666666668</ele><time>2026-03-22T14:49:29.999Z</time></trkpt><trkpt lat="53.806747200302546" lon="11.197396627624187"><ele>31.0</ele><time>2026-03-22T14:49:30.999Z</time></trkpt><trkpt lat="53.80681303271514" lon="11.197139864425495"><ele>31.0</ele><time>2026-03-22T14:49:31.999Z</time></trkpt><trkpt lat="53.806873227729696" lon="11.196907733385569"><ele>31.0</ele><time>2026-03-22T14:49:32.999Z</time></trkpt><trkpt lat="53.80692098528007" lon="11.196720613122654"><ele>31.0</ele><time>2026-03-22T14:49:33.999Z</time></trkpt><trkpt lat="53.80697265145134" lon="11.196568430892516"><ele>31.0</ele><time>2026-03-22T14:49:34.999Z</time></trkpt><trkpt lat="53.807001079977866" lon="11.196395094966666"><ele>31.0</ele><time>2026-03-22T14:49:35.999Z</time></trkpt><trkpt lat="53.80702471056593" lon="11.196213748393475"><ele>31.0</ele><time>2026-03-22T14:49:36.999Z</time></trkpt><trkpt lat="53.807047546207016" lon="11.196023739190265"><ele>31.0</ele><time>2026-03-22T14:49:37.999Z</time></trkpt><trkpt lat="53.80707010230966" lon="11.195830685513322"><ele>31.0</ele><time>2026-03-22T14:49:38.999Z</time></trkpt><trkpt lat="53.80709991485125" lon="11.195633861625488"><ele>31.25</ele><time>2026-03-22T14:49:39.999Z</time></trkpt><trkpt lat="53.80711356969338" lon="11.195429244750256"><ele>31.5</ele><time>2026-03-22T14:49:40.999Z</time></trkpt><trkpt lat="53.807125352996394" lon="11.19519052914767"><ele>31.75</ele><time>2026-03-22T14:49:41.999Z</time></trkpt><trkpt lat="53.80712178777296" lon="11.19495577526149"><ele>32.0</ele><time>2026-03-22T14:49:42.999Z</time></trkpt><trkpt lat="53.807140619059226" lon="11.194696806336266"><ele>32.0</ele><time>2026-03-22T14:49:43.999Z</time></trkpt><trkpt lat="53.80713565186792" lon="11.194437239782834"><ele>32.0</ele><time>2026-03-22T14:49:44.999Z</time></trkpt><trkpt lat="53.80714059984945" lon="11.194161906330468"><ele>32.0</ele><time>2026-03-22T14:49:45.999Z</time></trkpt><trkpt lat="53.80714103519065" lon="11.193911930458434"><ele>32.25</ele><time>2026-03-22T14:49:46.999Z</time></trkpt><trkpt lat="53.80717887978426" lon="11.193681905753596"><ele>32.5</ele><time>2026-03-22T14:49:47.999Z</time></trkpt><trkpt lat="53.80725045368874" lon="11.193482461415806"><ele>32.75</ele><time>2026-03-22T14:49:48.999Z</time></trkpt><trkpt lat="53.807329208638144" lon="11.19326721161541"><ele>33.0</ele><time>2026-03-22T14:49:49.999Z</time></trkpt><trkpt lat="53.807409878869606" lon="11.193032001978587"><ele>33.5</ele><time>2026-03-22T14:49:50.999Z</time></trkpt><trkpt lat="53.80748682822963" lon="11.19279500617176"><ele>34.0</ele><time>2026-03-22T14:49:51.999Z</time></trkpt><trkpt lat="53.807542902243455" lon="11.192574084319245"><ele>34.5</ele><time>2026-03-22T14:49:52.999Z</time></trkpt><trkpt lat="53.80757156663147" lon="11.192338526561624"><ele>35.0</ele><time>2026-03-22T14:49:53.999Z</time></trkpt><trkpt lat="53.8075873654627" lon="11.19206654950438"><ele>35.33333333333333</ele><time>2026-03-22T14:49:54.999Z</time></trkpt><trkpt lat="53.8075858474547" lon="11.191803934965668"><ele>35.666666666666664</ele><time>2026-03-22T14:49:55.999Z</time></trkpt><trkpt lat="53.80758197889252" lon="11.191526852899486"><ele>36.0</ele><time>2026-03-22T14:49:56.999Z</time></trkpt><trkpt lat="53.80759060351594" lon="11.191232117571841"><ele>36.0</ele><time>2026-03-22T14:49:57.999Z</time></trkpt><trkpt lat="53.807610386364644" lon="11.190937833732281"><ele>36.0</ele><time>2026-03-22T14:49:58.999Z</time></trkpt><trkpt lat="53.80766186507985" lon="11.190636797867493"><ele>36.0</ele><time>2026-03-22T14:49:59.999Z</time></trkpt><trkpt lat="53.80769529519809" lon="11.190326038998263"><ele>36.0</ele><time>2026-03-22T14:50:00.999Z</time></trkpt><trkpt lat="53.80774113148368" lon="11.19005282752207"><ele>36.0</ele><time>2026-03-22T14:50:01.999Z</time></trkpt><trkpt lat="53.80779339599813" lon="11.189767282638037"><ele>36.0</ele><time>2026-03-22T14:50:02.999Z</time></trkpt><trkpt lat="53.80784157392568" lon="11.18948310093765"><ele>36.0</ele><time>2026-03-22T14:50:03.999Z</time></trkpt><trkpt lat="53.80791491861621" lon="11.189225764797957"><ele>36.0</ele><time>2026-03-22T14:50:04.999Z</time></trkpt><trkpt lat="53.80797907562305" lon="11.188937473236095"><ele>36.0</ele><time>2026-03-22T14:50:05.999Z</time></trkpt><trkpt lat="53.8080193300155" lon="11.188674224235276"><ele>36.5</ele><time>2026-03-22T14:50:06.999Z</time></trkpt><trkpt lat="53.80807833725471" lon="11.188426779720883"><ele>37.0</ele><time>2026-03-22T14:50:07.999Z</time></trkpt><trkpt lat="53.808088770482726" lon="11.188194952456044"><ele>37.5</ele><time>2026-03-22T14:50:08.999Z</time></trkpt><trkpt lat="53.80811192748515" lon="11.187967073990368"><ele>38.0</ele><time>2026-03-22T14:50:09.999Z</time></trkpt><trkpt lat="53.80814588720971" lon="11.187753515753508"><ele>38.25</ele><time>2026-03-22T14:50:10.999Z</time></trkpt><trkpt lat="53.8081620574345" lon="11.187558969885405"><ele>38.5</ele><time>2026-03-22T14:50:11.999Z</time></trkpt><trkpt lat="53.80819375699281" lon="11.18740292849958"><ele>38.75</ele><time>2026-03-22T14:50:12.999Z</time></trkpt><trkpt lat="53.80820300193321" lon="11.187203007090456"><ele>39.0</ele><time>2026-03-22T14:50:13.999Z</time></trkpt><trkpt lat="53.80821961794573" lon="11.186995203298245"><ele>39.0</ele><time>2026-03-22T14:50:14.999Z</time></trkpt><trkpt lat="53.8082370657054" lon="11.186806344468176"><ele>39.0</ele><time>2026-03-22T14:50:15.999Z</time></trkpt><trkpt lat="53.808257563849864" lon="11.18660595101954"><ele>39.0</ele><time>2026-03-22T14:50:16.999Z</time></trkpt><trkpt lat="53.80827780096978" lon="11.186413078029085"><ele>39.0</ele><time>2026-03-22T14:50:17.999Z</time></trkpt><trkpt lat="53.80830170945457" lon="11.18619524424588"><ele>39.0</ele><time>2026-03-22T14:50:18.999Z</time></trkpt><trkpt lat="53.808328888850305" lon="11.185979328377753"><ele>39.0</ele><time>2026-03-22T14:50:19.999Z</time></trkpt><trkpt lat="53.80836044566036" lon="11.185752030472754"><ele>39.0</ele><time>2026-03-22T14:50:20.999Z</time></trkpt><trkpt lat="53.808397746647394" lon="11.185507878594617"><ele>39.0</ele><time>2026-03-22T14:50:21.999Z</time></trkpt><trkpt lat="53.80843351650631" lon="11.185285065994709"><ele>39.0</ele><time>2026-03-22T14:50:22.999Z</time></trkpt><trkpt lat="53.808472522075796" lon="11.185037521549194"><ele>39.0</ele><time>2026-03-22T14:50:23.999Z</time></trkpt><trkpt lat="53.808516460085656" lon="11.184759583703935"><ele>39.0</ele><time>2026-03-22T14:50:24.999Z</time></trkpt><trkpt lat="53.80855701776604" lon="11.18450339863173"><ele>39.0</ele><time>2026-03-22T14:50:25.999Z</time></trkpt><trkpt lat="53.80859829132143" lon="11.184239891353844"><ele>39.0</ele><time>2026-03-22T14:50:26.999Z</time></trkpt><trkpt lat="53.8086425001437" lon="11.18396555163233"><ele>39.0</ele><time>2026-03-22T14:50:27.999Z</time></trkpt><trkpt lat="53.808683484592564" lon="11.183696440838835"><ele>39.333333333333336</ele><time>2026-03-22T14:50:28.999Z</time></trkpt><trkpt lat="53.80873083390434" lon="11.183432887290603"><ele>39.66666666666667</ele><time>2026-03-22T14:50:29.999Z</time></trkpt><trkpt lat="53.80875475069492" lon="11.183141332729782"><ele>40.0</ele><time>2026-03-22T14:50:30.999Z</time></trkpt><trkpt lat="53.808811131092966" lon="11.182856176947555"><ele>40.0</ele><time>2026-03-22T14:50:31.999Z</time></trkpt><trkpt lat="53.80885453774424" lon="11.182560714846982"><ele>40.0</ele><time>2026-03-22T14:50:32.999Z</time></trkpt><trkpt lat="53.80889999033477" lon="11.182269828886213"><ele>40.0</ele><time>2026-03-22T14:50:33.999Z</time></trkpt><trkpt lat="53.80894957454777" lon="11.181955283869737"><ele>40.0</ele><time>2026-03-22T14:50:34.999Z</time></trkpt><trkpt lat="53.80899816722321" lon="11.18163678847956"><ele>40.0</ele><time>2026-03-22T14:50:35.999Z</time></trkpt><trkpt lat="53.809043486554025" lon="11.181331876753475"><ele>40.0</ele><time>2026-03-22T14:50:36.999Z</time></trkpt><trkpt lat="53.80908617449485" lon="11.181044669979636"><ele>39.333333333333336</ele><time>2026-03-22T14:50:37.999Z</time></trkpt><trkpt lat="53.80912364907693" lon="11.180814878045917"><ele>38.666666666666664</ele><time>2026-03-22T14:50:38.999Z</time></trkpt><trkpt lat="53.8091277789674" lon="11.180547187959645"><ele>38.0</ele><time>2026-03-22T14:50:39.999Z</time></trkpt><trkpt lat="53.8090497274754" lon="11.180310849364988"><ele>37.33333333333333</ele><time>2026-03-22T14:50:40.999Z</time></trkpt><trkpt lat="53.80899462149116" lon="11.180058727018833"><ele>36.666666666666664</ele><time>2026-03-22T14:50:41.999Z</time></trkpt><trkpt lat="53.808934540982555" lon="11.179806755565833"><ele>36.0</ele><time>2026-03-22T14:50:42.999Z</time></trkpt><trkpt lat="53.80886453614627" lon="11.179535544079203"><ele>36.0</ele><time>2026-03-22T14:50:43.999Z</time></trkpt><trkpt lat="53.80878150636646" lon="11.17927478546361"><ele>36.0</ele><time>2026-03-22T14:50:44.999Z</time></trkpt><trkpt lat="53.80872946996109" lon="11.179010150860389"><ele>36.0</ele><time>2026-03-22T14:50:45.999Z</time></trkpt><trkpt lat="53.808653309189324" lon="11.178723106489848"><ele>36.0</ele><time>2026-03-22T14:50:46.999Z</time></trkpt><trkpt lat="53.80859082165524" lon="11.178487596034895"><ele>36.0</ele><time>2026-03-22T14:50:47.999Z</time></trkpt><trkpt lat="53.80852144330442" lon="11.17823071837826"><ele>36.0</ele><time>2026-03-22T14:50:48.999Z</time></trkpt><trkpt lat="53.808453029714116" lon="11.177979028267313"><ele>36.25</ele><time>2026-03-22T14:50:49.999Z</time></trkpt><trkpt lat="53.808388168621384" lon="11.177752239505233"><ele>36.5</ele><time>2026-03-22T14:50:50.999Z</time></trkpt><trkpt lat="53.80833605562395" lon="11.17756528057148"><ele>36.75</ele><time>2026-03-22T14:50:51.999Z</time></trkpt><trkpt lat="53.80829486467224" lon="11.177410562737196"><ele>37.0</ele><time>2026-03-22T14:50:52.999Z</time></trkpt><trkpt lat="53.808255434061294" lon="11.177265806913425"><ele>37.0</ele><time>2026-03-22T14:50:53.999Z</time></trkpt><trkpt lat="53.80840301511277" lon="11.177163817175728"><ele>37.0</ele><time>2026-03-22T14:50:56.999Z</time></trkpt><trkpt lat="53.80850354106709" lon="11.17704051427685"><ele>37.0</ele><time>2026-03-22T14:50:57.999Z</time></trkpt><trkpt lat="53.808614699916085" lon="11.176905364524075"><ele>37.0</ele><time>2026-03-22T14:50:58.999Z</time></trkpt><trkpt lat="53.808737723723304" lon="11.176753537355655"><ele>36.66666666666667</ele><time>2026-03-22T14:50:59.999Z</time></trkpt><trkpt lat="53.80886451841067" lon="11.176594214675546"><ele>36.333333333333336</ele><time>2026-03-22T14:51:00.999Z</time></trkpt><trkpt lat="53.8090129074124" lon="11.176407652591587"><ele>36.0</ele><time>2026-03-22T14:51:01.999Z</time></trkpt><trkpt lat="53.80915998241432" lon="11.176228124162407"><ele>35.666666666666664</ele><time>2026-03-22T14:51:02.999Z</time></trkpt><trkpt lat="53.809317058917195" lon="11.176049313846663"><ele>35.33333333333333</ele><time>2026-03-22T14:51:03.999Z</time></trkpt><trkpt lat="53.80947299475435" lon="11.175872542025262"><ele>35.0</ele><time>2026-03-22T14:51:04.999Z</time></trkpt><trkpt lat="53.80962408449726" lon="11.175703136086183"><ele>35.33333333333333</ele><time>2026-03-22T14:51:05.999Z</time></trkpt><trkpt lat="53.809784273924265" lon="11.175515887524183"><ele>35.666666666666664</ele><time>2026-03-22T14:51:06.999Z</time></trkpt><trkpt lat="53.80992655326164" lon="11.175258222018883"><ele>36.0</ele><time>2026-03-22T14:51:07.999Z</time></trkpt><trkpt lat="53.81002953084782" lon="11.174995072180456"><ele>36.333333333333336</ele><time>2026-03-22T14:51:08.999Z</time></trkpt><trkpt lat="53.81013134266856" lon="11.174711254587123"><ele>36.66666666666667</ele><time>2026-03-22T14:51:09.999Z</time></trkpt><trkpt lat="53.81022199395463" lon="11.17445265615206"><ele>37.0</ele><time>2026-03-22T14:51:10.999Z</time></trkpt><trkpt lat="53.81031868113975" lon="11.174190594191332"><ele>36.333333333333336</ele><time>2026-03-22T14:51:11.999Z</time></trkpt><trkpt lat="53.81042323780525" lon="11.173906832398483"><ele>35.666666666666664</ele><time>2026-03-22T14:51:12.999Z</time></trkpt><trkpt lat="53.81053210532635" lon="11.173616772024111"><ele>35.0</ele><time>2026-03-22T14:51:13.999Z</time></trkpt><trkpt lat="53.81062635310658" lon="11.17335247248735"><ele>35.33333333333333</ele><time>2026-03-22T14:51:14.999Z</time></trkpt><trkpt lat="53.81073182135026" lon="11.173094544701724"><ele>35.666666666666664</ele><time>2026-03-22T14:51:15.999Z</time></trkpt><trkpt lat="53.810829626012776" lon="11.17284098167889"><ele>36.0</ele><time>2026-03-22T14:51:16.999Z</time></trkpt><trkpt lat="53.8109165019265" lon="11.172598778835086"><ele>35.75</ele><time>2026-03-22T14:51:17.999Z</time></trkpt><trkpt lat="53.81099118382534" lon="11.172392025904147"><ele>35.5</ele><time>2026-03-22T14:51:18.999Z</time></trkpt><trkpt lat="53.81106426634143" lon="11.172192044734363"><ele>35.25</ele><time>2026-03-22T14:51:19.999Z</time></trkpt><trkpt lat="53.81113169556699" lon="11.172019881155347"><ele>35.0</ele><time>2026-03-22T14:51:20.999Z</time></trkpt><trkpt lat="53.81119129332559" lon="11.171887461875146"><ele>35.33333333333333</ele><time>2026-03-22T14:51:21.999Z</time></trkpt><trkpt lat="53.81123752362336" lon="11.17179340181706"><ele>35.666666666666664</ele><time>2026-03-22T14:51:22.999Z</time></trkpt><trkpt lat="53.81127768829251" lon="11.171706845653265"><ele>36.0</ele><time>2026-03-22T14:51:25.999Z</time></trkpt><trkpt lat="53.81121340772191" lon="11.171646831177402"><ele>36.333333333333336</ele><time>2026-03-22T14:51:28.999Z</time></trkpt><trkpt lat="53.811169247788904" lon="11.171568106182765"><ele>36.66666666666667</ele><time>2026-03-22T14:51:29.999Z</time></trkpt><trkpt lat="53.81107976647822" lon="11.171502477821841"><ele>37.0</ele><time>2026-03-22T14:51:30.999Z</time></trkpt><trkpt lat="53.81099503590206" lon="11.171426080252193"><ele>37.4</ele><time>2026-03-22T14:51:31.999Z</time></trkpt><trkpt lat="53.81090155257243" lon="11.171323706971869"><ele>37.800000000000004</ele><time>2026-03-22T14:51:32.999Z</time></trkpt><trkpt lat="53.810807386248676" lon="11.171220523937887"><ele>38.2</ele><time>2026-03-22T14:51:33.999Z</time></trkpt><trkpt lat="53.810699972485686" lon="11.171123433983153"><ele>38.6</ele><time>2026-03-22T14:51:34.999Z</time></trkpt><trkpt lat="53.81062255645505" lon="11.171018467675978"><ele>39.0</ele><time>2026-03-22T14:51:36.001Z</time></trkpt><trkpt lat="53.81051511553644" lon="11.170916850383426"><ele>39.0</ele><time>2026-03-22T14:51:37.001Z</time></trkpt><trkpt lat="53.81040041743341" lon="11.170789084642356"><ele>39.0</ele><time>2026-03-22T14:51:38.001Z</time></trkpt><trkpt lat="53.810275968830226" lon="11.170601411070837"><ele>39.0</ele><time>2026-03-22T14:51:39.001Z</time></trkpt><trkpt lat="53.810163894395686" lon="11.170429441165426"><ele>39.0</ele><time>2026-03-22T14:51:40.001Z</time></trkpt><trkpt lat="53.81003497260896" lon="11.170303428026122"><ele>39.0</ele><time>2026-03-22T14:51:41.001Z</time></trkpt><trkpt lat="53.809894546203914" lon="11.170145277377172"><ele>39.0</ele><time>2026-03-22T14:51:42.001Z</time></trkpt><trkpt lat="53.80974364211667" lon="11.170024787443232"><ele>39.0</ele><time>2026-03-22T14:51:43.001Z</time></trkpt><trkpt lat="53.80957745820992" lon="11.16995435608099"><ele>39.0</ele><time>2026-03-22T14:51:44.001Z</time></trkpt><trkpt lat="53.809406604541905" lon="11.169969621587292"><ele>39.0</ele><time>2026-03-22T14:51:45.001Z</time></trkpt><trkpt lat="53.80924855460206" lon="11.169999739993155"><ele>39.25</ele><time>2026-03-22T14:51:46.001Z</time></trkpt><trkpt lat="53.809103654656774" lon="11.170017985064712"><ele>39.5</ele><time>2026-03-22T14:51:47.001Z</time></trkpt><trkpt lat="53.80896297773466" lon="11.170011388881395"><ele>39.75</ele><time>2026-03-22T14:51:48.001Z</time></trkpt><trkpt lat="53.80882565982572" lon="11.16998035829956"><ele>40.0</ele><time>2026-03-22T14:51:49.001Z</time></trkpt><trkpt lat="53.80868539818217" lon="11.16991548037441"><ele>40.0</ele><time>2026-03-22T14:51:50.001Z</time></trkpt><trkpt lat="53.80857066814842" lon="11.16980754138333"><ele>40.0</ele><time>2026-03-22T14:51:51.001Z</time></trkpt><trkpt lat="53.80846384162199" lon="11.169699718008703"><ele>40.0</ele><time>2026-03-22T14:51:52.001Z</time></trkpt><trkpt lat="53.808390840236456" lon="11.169563453238899"><ele>40.0</ele><time>2026-03-22T14:51:53.001Z</time></trkpt><trkpt lat="53.80832933078871" lon="11.169384178039818"><ele>40.0</ele><time>2026-03-22T14:51:54.001Z</time></trkpt><trkpt lat="53.80832541204232" lon="11.169202305641353"><ele>40.0</ele><time>2026-03-22T14:51:55Z</time></trkpt><trkpt lat="53.808325853371656" lon="11.168980773587435"><ele>40.0</ele><time>2026-03-22T14:51:56Z</time></trkpt><trkpt lat="53.808328926844005" lon="11.168784150501121"><ele>40.0</ele><time>2026-03-22T14:51:57Z</time></trkpt><trkpt lat="53.808337007769936" lon="11.168602474886367"><ele>40.0</ele><time>2026-03-22T14:51:58Z</time></trkpt><trkpt lat="53.80836570560742" lon="11.168377469955358"><ele>40.0</ele><time>2026-03-22T14:51:59Z</time></trkpt><trkpt lat="53.808414238789375" lon="11.16817005550444"><ele>40.0</ele><time>2026-03-22T14:52:00Z</time></trkpt><trkpt lat="53.808478709154755" lon="11.167925787586443"><ele>40.0</ele><time>2026-03-22T14:52:01Z</time></trkpt><trkpt lat="53.80853866790813" lon="11.167665350503084"><ele>40.0</ele><time>2026-03-22T14:52:02Z</time></trkpt><trkpt lat="53.808582406220644" lon="11.167372045421773"><ele>40.0</ele><time>2026-03-22T14:52:03Z</time></trkpt><trkpt lat="53.80862790040174" lon="11.16709956974489"><ele>40.0</ele><time>2026-03-22T14:52:04Z</time></trkpt><trkpt lat="53.80866262030411" lon="11.166827020043085"><ele>40.0</ele><time>2026-03-22T14:52:05Z</time></trkpt><trkpt lat="53.808671569578244" lon="11.166546046526692"><ele>40.0</ele><time>2026-03-22T14:52:06Z</time></trkpt><trkpt lat="53.808689089039504" lon="11.166257558382625"><ele>40.0</ele><time>2026-03-22T14:52:07Z</time></trkpt><trkpt lat="53.80870323016114" lon="11.165966847628479"><ele>39.333333333333336</ele><time>2026-03-22T14:52:08Z</time></trkpt><trkpt lat="53.80873338773648" lon="11.165673420965883"><ele>38.666666666666664</ele><time>2026-03-22T14:52:09Z</time></trkpt><trkpt lat="53.8087753421727" lon="11.165372323008242"><ele>38.0</ele><time>2026-03-22T14:52:10Z</time></trkpt><trkpt lat="53.808783814117106" lon="11.165080158753536"><ele>38.33333333333333</ele><time>2026-03-22T14:52:11Z</time></trkpt><trkpt lat="53.808804919525556" lon="11.164784948881938"><ele>38.666666666666664</ele><time>2026-03-22T14:52:12Z</time></trkpt><trkpt lat="53.80883900320296" lon="11.164481723130868"><ele>39.0</ele><time>2026-03-22T14:52:13Z</time></trkpt><trkpt lat="53.80885211011644" lon="11.164176760836158"><ele>39.333333333333336</ele><time>2026-03-22T14:52:14Z</time></trkpt><trkpt lat="53.808868089488534" lon="11.163862802068115"><ele>39.66666666666667</ele><time>2026-03-22T14:52:15Z</time></trkpt><trkpt lat="53.8088893555043" lon="11.163563967773388"><ele>40.0</ele><time>2026-03-22T14:52:16Z</time></trkpt><trkpt lat="53.80890535123677" lon="11.163276687161435"><ele>39.66666666666667</ele><time>2026-03-22T14:52:17Z</time></trkpt><trkpt lat="53.80889511017688" lon="11.162965468054814"><ele>39.333333333333336</ele><time>2026-03-22T14:52:18Z</time></trkpt><trkpt lat="53.80884987827978" lon="11.162690204378297"><ele>39.0</ele><time>2026-03-22T14:52:19Z</time></trkpt><trkpt lat="53.80876798944193" lon="11.162426870796335"><ele>39.333333333333336</ele><time>2026-03-22T14:52:20Z</time></trkpt><trkpt lat="53.80865094984135" lon="11.162171173027158"><ele>39.66666666666667</ele><time>2026-03-22T14:52:21Z</time></trkpt><trkpt lat="53.80851191246324" lon="11.161945387101943"><ele>40.0</ele><time>2026-03-22T14:52:22Z</time></trkpt><trkpt lat="53.80836285797968" lon="11.161741896608646"><ele>40.0</ele><time>2026-03-22T14:52:23Z</time></trkpt><trkpt lat="53.80821283078201" lon="11.161545922158773"><ele>40.0</ele><time>2026-03-22T14:52:24Z</time></trkpt><trkpt lat="53.808066638794706" lon="11.161351010952773"><ele>40.0</ele><time>2026-03-22T14:52:25Z</time></trkpt><trkpt lat="53.80790994588272" lon="11.16109992758929"><ele>39.66666666666667</ele><time>2026-03-22T14:52:26Z</time></trkpt><trkpt lat="53.807751380235146" lon="11.16087737640965"><ele>39.333333333333336</ele><time>2026-03-22T14:52:27Z</time></trkpt><trkpt lat="53.80761096278613" lon="11.160645319908904"><ele>39.0</ele><time>2026-03-22T14:52:28Z</time></trkpt><trkpt lat="53.8074783584816" lon="11.160417506944901"><ele>39.0</ele><time>2026-03-22T14:52:29Z</time></trkpt><trkpt lat="53.80734733254324" lon="11.160221705606281"><ele>39.0</ele><time>2026-03-22T14:52:30Z</time></trkpt><trkpt lat="53.80720668787879" lon="11.159993542981454"><ele>39.0</ele><time>2026-03-22T14:52:31Z</time></trkpt><trkpt lat="53.80706936890913" lon="11.159792510105007"><ele>39.0</ele><time>2026-03-22T14:52:32Z</time></trkpt><trkpt lat="53.806934166465915" lon="11.159589845529215"><ele>39.0</ele><time>2026-03-22T14:52:33Z</time></trkpt><trkpt lat="53.80681176873754" lon="11.15935052583154"><ele>39.0</ele><time>2026-03-22T14:52:34Z</time></trkpt><trkpt lat="53.80669101363559" lon="11.159147267900314"><ele>39.333333333333336</ele><time>2026-03-22T14:52:35Z</time></trkpt><trkpt lat="53.80659054410445" lon="11.158885663121989"><ele>39.66666666666667</ele><time>2026-03-22T14:52:36Z</time></trkpt><trkpt lat="53.80650522036137" lon="11.1586197583338"><ele>40.0</ele><time>2026-03-22T14:52:37Z</time></trkpt><trkpt lat="53.80643442633042" lon="11.158341275111866"><ele>40.0</ele><time>2026-03-22T14:52:38Z</time></trkpt><trkpt lat="53.806374658982975" lon="11.158038540667324"><ele>40.0</ele><time>2026-03-22T14:52:39Z</time></trkpt><trkpt lat="53.8063248801444" lon="11.15772841996793"><ele>40.0</ele><time>2026-03-22T14:52:40Z</time></trkpt><trkpt lat="53.80628793613067" lon="11.157405014377543"><ele>40.0</ele><time>2026-03-22T14:52:41Z</time></trkpt><trkpt lat="53.80625590857353" lon="11.157081123216571"><ele>40.0</ele><time>2026-03-22T14:52:42Z</time></trkpt><trkpt lat="53.80622735769203" lon="11.156753519273915"><ele>40.0</ele><time>2026-03-22T14:52:43Z</time></trkpt><trkpt lat="53.80621387882065" lon="11.15639138036354"><ele>40.0</ele><time>2026-03-22T14:52:44Z</time></trkpt><trkpt lat="53.80622051718579" lon="11.156056623673951"><ele>40.0</ele><time>2026-03-22T14:52:45Z</time></trkpt><trkpt lat="53.806239866601814" lon="11.15573597050854"><ele>40.0</ele><time>2026-03-22T14:52:46Z</time></trkpt><trkpt lat="53.80626657086065" lon="11.155405730973381"><ele>40.66666666666667</ele><time>2026-03-22T14:52:47Z</time></trkpt><trkpt lat="53.80629370593579" lon="11.155082977349759"><ele>41.333333333333336</ele><time>2026-03-22T14:52:48Z</time></trkpt><trkpt lat="53.80632031795815" lon="11.154766445086391"><ele>42.0</ele><time>2026-03-22T14:52:49Z</time></trkpt><trkpt lat="53.80633102182459" lon="11.154459868213223"><ele>42.0</ele><time>2026-03-22T14:52:50Z</time></trkpt><trkpt lat="53.80634907984694" lon="11.154139991095635"><ele>42.0</ele><time>2026-03-22T14:52:51Z</time></trkpt><trkpt lat="53.80637909133755" lon="11.15380701006335"><ele>42.0</ele><time>2026-03-22T14:52:52Z</time></trkpt><trkpt lat="53.80640555498954" lon="11.153480240547138"><ele>42.333333333333336</ele><time>2026-03-22T14:52:53Z</time></trkpt><trkpt lat="53.806418294196725" lon="11.153170535823946"><ele>42.66666666666667</ele><time>2026-03-22T14:52:54Z</time></trkpt><trkpt lat="53.80642307563036" lon="11.152872241430822"><ele>43.0</ele><time>2026-03-22T14:52:55Z</time></trkpt><trkpt lat="53.80640851535111" lon="11.152579572286335"><ele>43.333333333333336</ele><time>2026-03-22T14:52:56Z</time></trkpt><trkpt lat="53.80636651272245" lon="11.15228685225141"><ele>43.666666666666664</ele><time>2026-03-22T14:52:57Z</time></trkpt><trkpt lat="53.80632245330126" lon="11.152011427130102"><ele>44.0</ele><time>2026-03-22T14:52:58Z</time></trkpt><trkpt lat="53.806277607413314" lon="11.151731956382513"><ele>44.5</ele><time>2026-03-22T14:52:59Z</time></trkpt><trkpt lat="53.80621986260864" lon="11.151495914330852"><ele>45.0</ele><time>2026-03-22T14:53:00Z</time></trkpt><trkpt lat="53.80615551411402" lon="11.151293004983692"><ele>45.5</ele><time>2026-03-22T14:53:01Z</time></trkpt><trkpt lat="53.80608272685191" lon="11.151062711430361"><ele>46.0</ele><time>2026-03-22T14:53:02Z</time></trkpt><trkpt lat="53.806053703216975" lon="11.150841052088966"><ele>46.25</ele><time>2026-03-22T14:53:03Z</time></trkpt><trkpt lat="53.80600979730785" lon="11.150616927692395"><ele>46.5</ele><time>2026-03-22T14:53:04Z</time></trkpt><trkpt lat="53.80601093997561" lon="11.150416046877957"><ele>46.75</ele><time>2026-03-22T14:53:05Z</time></trkpt><trkpt lat="53.8060229792438" lon="11.1502315711803"><ele>47.0</ele><time>2026-03-22T14:53:06Z</time></trkpt><trkpt lat="53.806043361411156" lon="11.150038448359593"><ele>47.0</ele><time>2026-03-22T14:53:07Z</time></trkpt><trkpt lat="53.80606643040016" lon="11.14981986764747"><ele>47.0</ele><time>2026-03-22T14:53:08Z</time></trkpt><trkpt lat="53.80608855609818" lon="11.149611864587689"><ele>47.0</ele><time>2026-03-22T14:53:09Z</time></trkpt><trkpt lat="53.80611125434339" lon="11.149410855253354"><ele>47.0</ele><time>2026-03-22T14:53:10Z</time></trkpt><trkpt lat="53.806132703649006" lon="11.149220906193309"><ele>46.75</ele><time>2026-03-22T14:53:11Z</time></trkpt><trkpt lat="53.80615514335485" lon="11.149023958459102"><ele>46.5</ele><time>2026-03-22T14:53:12Z</time></trkpt><trkpt lat="53.80617723176425" lon="11.148830218757752"><ele>46.25</ele><time>2026-03-22T14:53:13Z</time></trkpt><trkpt lat="53.80619987665044" lon="11.148628402942453"><ele>46.0</ele><time>2026-03-22T14:53:14Z</time></trkpt><trkpt lat="53.80621925832013" lon="11.148431431433817"><ele>46.0</ele><time>2026-03-22T14:53:15Z</time></trkpt><trkpt lat="53.80622057321646" lon="11.148231468785694"><ele>46.0</ele><time>2026-03-22T14:53:16Z</time></trkpt><trkpt lat="53.80623418921228" lon="11.148003937854122"><ele>46.0</ele><time>2026-03-22T14:53:17Z</time></trkpt><trkpt lat="53.80621257476151" lon="11.147795541751808"><ele>46.0</ele><time>2026-03-22T14:53:18Z</time></trkpt><trkpt lat="53.806159107097244" lon="11.147611753163682"><ele>45.75</ele><time>2026-03-22T14:53:19Z</time></trkpt><trkpt lat="53.80607593608821" lon="11.147444284048214"><ele>45.5</ele><time>2026-03-22T14:53:20Z</time></trkpt><trkpt lat="53.80597057112197" lon="11.14733109067572"><ele>45.25</ele><time>2026-03-22T14:53:21Z</time></trkpt><trkpt lat="53.80586754405209" lon="11.147201836772831"><ele>45.0</ele><time>2026-03-22T14:53:22Z</time></trkpt><trkpt lat="53.805761896947146" lon="11.147093634757857"><ele>45.25</ele><time>2026-03-22T14:53:23Z</time></trkpt><trkpt lat="53.80565965699852" lon="11.1469430670615"><ele>45.5</ele><time>2026-03-22T14:53:24Z</time></trkpt><trkpt lat="53.805602896711804" lon="11.146747885756925"><ele>45.75</ele><time>2026-03-22T14:53:25Z</time></trkpt><trkpt lat="53.805551664287904" lon="11.146573099535303"><ele>46.0</ele><time>2026-03-22T14:53:26Z</time></trkpt><trkpt lat="53.80549661663072" lon="11.146376345890816"><ele>46.0</ele><time>2026-03-22T14:53:27Z</time></trkpt><trkpt lat="53.805441566416505" lon="11.146187006415811"><ele>46.0</ele><time>2026-03-22T14:53:28Z</time></trkpt><trkpt lat="53.80536391838491" lon="11.145998670096695"><ele>46.0</ele><time>2026-03-22T14:53:29Z</time></trkpt><trkpt lat="53.80529794384869" lon="11.145804208295651"><ele>46.0</ele><time>2026-03-22T14:53:30Z</time></trkpt><trkpt lat="53.805200280806716" lon="11.14564929178477"><ele>46.25</ele><time>2026-03-22T14:53:31Z</time></trkpt><trkpt lat="53.80506613360569" lon="11.145563322142028"><ele>46.5</ele><time>2026-03-22T14:53:32Z</time></trkpt><trkpt lat="53.80492469312138" lon="11.145533223204675"><ele>46.75</ele><time>2026-03-22T14:53:33Z</time></trkpt><trkpt lat="53.804774143261106" lon="11.145548620059124"><ele>47.0</ele><time>2026-03-22T14:53:34Z</time></trkpt><trkpt lat="53.804628625503874" lon="11.145591203951472"><ele>47.0</ele><time>2026-03-22T14:53:35Z</time></trkpt><trkpt lat="53.80449056322826" lon="11.145628747291136"><ele>47.0</ele><time>2026-03-22T14:53:36Z</time></trkpt><trkpt lat="53.80434450823362" lon="11.145637207269552"><ele>47.0</ele><time>2026-03-22T14:53:37Z</time></trkpt><trkpt lat="53.804194625160434" lon="11.145583382639424"><ele>47.0</ele><time>2026-03-22T14:53:38Z</time></trkpt><trkpt lat="53.80405535389727" lon="11.145572907308921"><ele>47.5</ele><time>2026-03-22T14:53:39Z</time></trkpt><trkpt lat="53.803917819390094" lon="11.14553094843475"><ele>48.0</ele><time>2026-03-22T14:53:40Z</time></trkpt><trkpt lat="53.80378077007169" lon="11.145488347207372"><ele>48.5</ele><time>2026-03-22T14:53:41Z</time></trkpt><trkpt lat="53.803641754086364" lon="11.14546600396135"><ele>49.0</ele><time>2026-03-22T14:53:42Z</time></trkpt><trkpt lat="53.80348933223655" lon="11.145431239321747"><ele>49.33333333333333</ele><time>2026-03-22T14:53:43Z</time></trkpt><trkpt lat="53.80333857240706" lon="11.145395758002323"><ele>49.66666666666667</ele><time>2026-03-22T14:53:44Z</time></trkpt><trkpt lat="53.803194181291566" lon="11.145359716260295"><ele>50.0</ele><time>2026-03-22T14:53:45Z</time></trkpt><trkpt lat="53.80303843195259" lon="11.145321194633205"><ele>50.0</ele><time>2026-03-22T14:53:46Z</time></trkpt><trkpt lat="53.802878254844124" lon="11.14528726005714"><ele>50.0</ele><time>2026-03-22T14:53:47Z</time></trkpt><trkpt lat="53.802710195332565" lon="11.145235745098631"><ele>50.0</ele><time>2026-03-22T14:53:48Z</time></trkpt><trkpt lat="53.80253198952308" lon="11.145202976869511"><ele>50.333333333333336</ele><time>2026-03-22T14:53:49Z</time></trkpt><trkpt lat="53.80236735874987" lon="11.145174632660831"><ele>50.66666666666667</ele><time>2026-03-22T14:53:50Z</time></trkpt><trkpt lat="53.80219800349195" lon="11.145089167966423"><ele>51.0</ele><time>2026-03-22T14:53:51Z</time></trkpt><trkpt lat="53.80203742513269" lon="11.145029587675197"><ele>51.0</ele><time>2026-03-22T14:53:52Z</time></trkpt><trkpt lat="53.801855858529166" lon="11.144968237066875"><ele>51.0</ele><time>2026-03-22T14:53:53Z</time></trkpt><trkpt lat="53.80169081847611" lon="11.144861195813773"><ele>51.0</ele><time>2026-03-22T14:53:54Z</time></trkpt><trkpt lat="53.80152445264843" lon="11.144748065065668"><ele>50.66666666666667</ele><time>2026-03-22T14:53:55Z</time></trkpt><trkpt lat="53.80136333260335" lon="11.14461573827601"><ele>50.333333333333336</ele><time>2026-03-22T14:53:56Z</time></trkpt><trkpt lat="53.80119621516932" lon="11.144492095265308"><ele>50.0</ele><time>2026-03-22T14:53:57Z</time></trkpt><trkpt lat="53.80102003326129" lon="11.144379914532674"><ele>50.66666666666667</ele><time>2026-03-22T14:53:58Z</time></trkpt><trkpt lat="53.80084966393696" lon="11.144248807017256"><ele>51.33333333333333</ele><time>2026-03-22T14:53:59Z</time></trkpt><trkpt lat="53.800687593727716" lon="11.144131391078322"><ele>52.0</ele><time>2026-03-22T14:54:00Z</time></trkpt><trkpt lat="53.80051865607271" lon="11.144044794579015"><ele>52.0</ele><time>2026-03-22T14:54:01Z</time></trkpt><trkpt lat="53.80034988339009" lon="11.143926185904842"><ele>52.0</ele><time>2026-03-22T14:54:02Z</time></trkpt><trkpt lat="53.80017685158985" lon="11.143810639884702"><ele>52.0</ele><time>2026-03-22T14:54:03Z</time></trkpt><trkpt lat="53.80000622762965" lon="11.143692324941833"><ele>52.33333333333333</ele><time>2026-03-22T14:54:04Z</time></trkpt><trkpt lat="53.7998324684099" lon="11.143550965213517"><ele>52.66666666666667</ele><time>2026-03-22T14:54:05Z</time></trkpt><trkpt lat="53.79967017115017" lon="11.14345244714251"><ele>53.0</ele><time>2026-03-22T14:54:06Z</time></trkpt><trkpt lat="53.799503687952814" lon="11.143344598108152"><ele>53.0</ele><time>2026-03-22T14:54:07Z</time></trkpt><trkpt lat="53.799330597272146" lon="11.143186346706829"><ele>53.0</ele><time>2026-03-22T14:54:08Z</time></trkpt><trkpt lat="53.79915887532514" lon="11.143057889053406"><ele>53.0</ele><time>2026-03-22T14:54:09Z</time></trkpt><trkpt lat="53.79898621356554" lon="11.142915087699082"><ele>53.0</ele><time>2026-03-22T14:54:10Z</time></trkpt><trkpt lat="53.79881463944446" lon="11.142792402703442"><ele>53.0</ele><time>2026-03-22T14:54:11Z</time></trkpt><trkpt lat="53.79864904555888" lon="11.142638789640639"><ele>53.0</ele><time>2026-03-22T14:54:12Z</time></trkpt><trkpt lat="53.7984918281866" lon="11.142489087942517"><ele>54.333333333333336</ele><time>2026-03-22T14:54:13Z</time></trkpt><trkpt lat="53.7983362474959" lon="11.142337787130524"><ele>55.66666666666667</ele><time>2026-03-22T14:54:14Z</time></trkpt><trkpt lat="53.798180614228386" lon="11.14218643588231"><ele>57.0</ele><time>2026-03-22T14:54:15Z</time></trkpt><trkpt lat="53.798028802332965" lon="11.142050190157816"><ele>57.0</ele><time>2026-03-22T14:54:16Z</time></trkpt><trkpt lat="53.79789170362654" lon="11.141901860987518"><ele>57.0</ele><time>2026-03-22T14:54:17Z</time></trkpt><trkpt lat="53.79775420763057" lon="11.14175904951745"><ele>57.0</ele><time>2026-03-22T14:54:18Z</time></trkpt><trkpt lat="53.79763577831774" lon="11.141623498436367"><ele>57.0</ele><time>2026-03-22T14:54:19Z</time></trkpt><trkpt lat="53.797506367645525" lon="11.141495254897304"><ele>57.0</ele><time>2026-03-22T14:54:20Z</time></trkpt><trkpt lat="53.79736099830252" lon="11.141400872290866"><ele>57.0</ele><time>2026-03-22T14:54:21Z</time></trkpt><trkpt lat="53.79722653749568" lon="11.141283982422417"><ele>57.0</ele><time>2026-03-22T14:54:22Z</time></trkpt><trkpt lat="53.797090906089025" lon="11.141186893937878"><ele>57.0</ele><time>2026-03-22T14:54:23Z</time></trkpt><trkpt lat="53.79695133770935" lon="11.141068829123807"><ele>57.0</ele><time>2026-03-22T14:54:24Z</time></trkpt><trkpt lat="53.796809298915534" lon="11.140962951700796"><ele>57.33333333333333</ele><time>2026-03-22T14:54:25Z</time></trkpt><trkpt lat="53.79665507111331" lon="11.140872793301693"><ele>57.666666666666664</ele><time>2026-03-22T14:54:26Z</time></trkpt><trkpt lat="53.79651846919899" lon="11.140750063554519"><ele>58.0</ele><time>2026-03-22T14:54:27Z</time></trkpt><trkpt lat="53.796379394350716" lon="11.140644237744832"><ele>58.0</ele><time>2026-03-22T14:54:28Z</time></trkpt><trkpt lat="53.79623050952773" lon="11.140520185787468"><ele>58.0</ele><time>2026-03-22T14:54:29Z</time></trkpt><trkpt lat="53.79609340696031" lon="11.140407911217132"><ele>58.0</ele><time>2026-03-22T14:54:30Z</time></trkpt><trkpt lat="53.795943363859564" lon="11.14028948662663"><ele>59.0</ele><time>2026-03-22T14:54:31Z</time></trkpt><trkpt lat="53.79579293295211" lon="11.14016613399168"><ele>60.0</ele><time>2026-03-22T14:54:32Z</time></trkpt><trkpt lat="53.79563365802454" lon="11.14005949944342"><ele>61.0</ele><time>2026-03-22T14:54:32.999Z</time></trkpt><trkpt lat="53.79549348018178" lon="11.139929617395842"><ele>61.33333333333333</ele><time>2026-03-22T14:54:33.999Z</time></trkpt><trkpt lat="53.79534464374124" lon="11.139816010451373"><ele>61.66666666666667</ele><time>2026-03-22T14:54:34.999Z</time></trkpt><trkpt lat="53.79519917881507" lon="11.139681174439389"><ele>62.0</ele><time>2026-03-22T14:54:35.999Z</time></trkpt><trkpt lat="53.795052358412946" lon="11.139563230851618"><ele>61.333333333333336</ele><time>2026-03-22T14:54:36.999Z</time></trkpt><trkpt lat="53.79489765353603" lon="11.139439267766445"><ele>60.66666666666667</ele><time>2026-03-22T14:54:37.999Z</time></trkpt><trkpt lat="53.794755688728316" lon="11.13930878143988"><ele>60.0</ele><time>2026-03-22T14:54:38.999Z</time></trkpt><trkpt lat="53.794607972252244" lon="11.139201974170293"><ele>60.0</ele><time>2026-03-22T14:54:39.999Z</time></trkpt><trkpt lat="53.794465983996616" lon="11.139114755309132"><ele>60.0</ele><time>2026-03-22T14:54:40.999Z</time></trkpt><trkpt lat="53.794310293164976" lon="11.139039338386368"><ele>60.0</ele><time>2026-03-22T14:54:41.999Z</time></trkpt><trkpt lat="53.79414961332532" lon="11.138980819759906"><ele>61.66666666666667</ele><time>2026-03-22T14:54:42.999Z</time></trkpt><trkpt lat="53.79397823060841" lon="11.138967996097369"><ele>63.333333333333336</ele><time>2026-03-22T14:54:43.999Z</time></trkpt><trkpt lat="53.793812055042046" lon="11.138959747191914"><ele>65.0</ele><time>2026-03-22T14:54:44.999Z</time></trkpt><trkpt lat="53.79365111573345" lon="11.138916499077258"><ele>65.0</ele><time>2026-03-22T14:54:45.999Z</time></trkpt><trkpt lat="53.79349242915642" lon="11.138836407076843"><ele>65.0</ele><time>2026-03-22T14:54:46.999Z</time></trkpt><trkpt lat="53.79335329327305" lon="11.138730768756307"><ele>65.0</ele><time>2026-03-22T14:54:47.999Z</time></trkpt><trkpt lat="53.79319165882984" lon="11.138609632333111"><ele>65.0</ele><time>2026-03-22T14:54:48.999Z</time></trkpt><trkpt lat="53.793053076232546" lon="11.138476886609988"><ele>65.0</ele><time>2026-03-22T14:54:49.999Z</time></trkpt><trkpt lat="53.79290195290068" lon="11.138325304686813"><ele>65.0</ele><time>2026-03-22T14:54:50.999Z</time></trkpt><trkpt lat="53.792746404172924" lon="11.138151195613043"><ele>65.33333333333334</ele><time>2026-03-22T14:54:51.999Z</time></trkpt><trkpt lat="53.792585233676" lon="11.138003645837989"><ele>65.66666666666667</ele><time>2026-03-22T14:54:52.999Z</time></trkpt><trkpt lat="53.79242132607777" lon="11.137840990493727"><ele>66.0</ele><time>2026-03-22T14:54:53.999Z</time></trkpt><trkpt lat="53.79225071670625" lon="11.137735073574158"><ele>66.0</ele><time>2026-03-22T14:54:54.999Z</time></trkpt><trkpt lat="53.792101935541424" lon="11.137562662894425"><ele>66.0</ele><time>2026-03-22T14:54:55.999Z</time></trkpt><trkpt lat="53.791955871671526" lon="11.137453951664062"><ele>66.0</ele><time>2026-03-22T14:54:56.999Z</time></trkpt><trkpt lat="53.79179274185014" lon="11.137324856930457"><ele>65.66666666666667</ele><time>2026-03-22T14:54:57.999Z</time></trkpt><trkpt lat="53.79163826418012" lon="11.137164319368097"><ele>65.33333333333334</ele><time>2026-03-22T14:54:58.999Z</time></trkpt><trkpt lat="53.79148427184817" lon="11.137000398066336"><ele>65.0</ele><time>2026-03-22T14:54:59.999Z</time></trkpt><trkpt lat="53.79132683674764" lon="11.136844592781596"><ele>65.0</ele><time>2026-03-22T14:55:00.999Z</time></trkpt><trkpt lat="53.79117930206009" lon="11.136699232336829"><ele>65.0</ele><time>2026-03-22T14:55:01.999Z</time></trkpt><trkpt lat="53.791021875556865" lon="11.136557651830953"><ele>65.0</ele><time>2026-03-22T14:55:02.999Z</time></trkpt><trkpt lat="53.79087599482744" lon="11.13639868281249"><ele>65.0</ele><time>2026-03-22T14:55:03.999Z</time></trkpt><trkpt lat="53.79073021509738" lon="11.13624042621346"><ele>65.0</ele><time>2026-03-22T14:55:04.999Z</time></trkpt><trkpt lat="53.79058170647912" lon="11.136091810662421"><ele>65.0</ele><time>2026-03-22T14:55:05.999Z</time></trkpt><trkpt lat="53.79042593162761" lon="11.135936968075669"><ele>65.0</ele><time>2026-03-22T14:55:06.999Z</time></trkpt><trkpt lat="53.79026279258955" lon="11.135772930556653"><ele>65.0</ele><time>2026-03-22T14:55:07.999Z</time></trkpt><trkpt lat="53.7901054233202" lon="11.13560655539029"><ele>65.0</ele><time>2026-03-22T14:55:08.999Z</time></trkpt><trkpt lat="53.78994139147278" lon="11.135467225742282"><ele>65.0</ele><time>2026-03-22T14:55:09.999Z</time></trkpt><trkpt lat="53.78979058414987" lon="11.135291929831793"><ele>65.0</ele><time>2026-03-22T14:55:10.999Z</time></trkpt><trkpt lat="53.7896465702674" lon="11.13513141921878"><ele>65.0</ele><time>2026-03-22T14:55:11.999Z</time></trkpt><trkpt lat="53.789489963484215" lon="11.134991749412196"><ele>65.0</ele><time>2026-03-22T14:55:12.999Z</time></trkpt><trkpt lat="53.78934051833856" lon="11.134830573713282"><ele>65.0</ele><time>2026-03-22T14:55:13.999Z</time></trkpt><trkpt lat="53.78917925202684" lon="11.134686827839714"><ele>65.0</ele><time>2026-03-22T14:55:14.999Z</time></trkpt><trkpt lat="53.78902477281027" lon="11.134523428628993"><ele>65.0</ele><time>2026-03-22T14:55:15.999Z</time></trkpt><trkpt lat="53.78887955873082" lon="11.13434011842557"><ele>65.0</ele><time>2026-03-22T14:55:16.999Z</time></trkpt><trkpt lat="53.788737704413144" lon="11.134138004605417"><ele>65.0</ele><time>2026-03-22T14:55:17.999Z</time></trkpt><trkpt lat="53.78858941521267" lon="11.133948105975628"><ele>64.66666666666667</ele><time>2026-03-22T14:55:18.999Z</time></trkpt><trkpt lat="53.78843654303418" lon="11.133782202833201"><ele>64.33333333333333</ele><time>2026-03-22T14:55:19.999Z</time></trkpt><trkpt lat="53.788299545419186" lon="11.133574483597716"><ele>64.0</ele><time>2026-03-22T14:55:20.999Z</time></trkpt><trkpt lat="53.78814809075804" lon="11.133387441781107"><ele>63.666666666666664</ele><time>2026-03-22T14:55:21.999Z</time></trkpt><trkpt lat="53.78801077154482" lon="11.133170841195925"><ele>63.33333333333333</ele><time>2026-03-22T14:55:22.999Z</time></trkpt><trkpt lat="53.787863744092526" lon="11.132963694469064"><ele>63.0</ele><time>2026-03-22T14:55:23.999Z</time></trkpt><trkpt lat="53.787709102042676" lon="11.132765050696534"><ele>63.0</ele><time>2026-03-22T14:55:24.999Z</time></trkpt><trkpt lat="53.78756542207729" lon="11.132557368075979"><ele>63.0</ele><time>2026-03-22T14:55:25.999Z</time></trkpt><trkpt lat="53.78743450619631" lon="11.132355623970069"><ele>63.0</ele><time>2026-03-22T14:55:26.999Z</time></trkpt><trkpt lat="53.78730000991668" lon="11.132137670462878"><ele>63.0</ele><time>2026-03-22T14:55:27.999Z</time></trkpt><trkpt lat="53.78715397703683" lon="11.131960595703255"><ele>63.0</ele><time>2026-03-22T14:55:28.999Z</time></trkpt><trkpt lat="53.78701097010747" lon="11.13175143217007"><ele>63.0</ele><time>2026-03-22T14:55:29.999Z</time></trkpt><trkpt lat="53.786855284676506" lon="11.131545536995665"><ele>62.33333333333333</ele><time>2026-03-22T14:55:30.999Z</time></trkpt><trkpt lat="53.786701467077286" lon="11.131364040015304"><ele>61.666666666666664</ele><time>2026-03-22T14:55:31.999Z</time></trkpt><trkpt lat="53.786539498740964" lon="11.131192556959395"><ele>61.0</ele><time>2026-03-22T14:55:32.999Z</time></trkpt><trkpt lat="53.78636032611784" lon="11.13107882426134"><ele>61.0</ele><time>2026-03-22T14:55:33.999Z</time></trkpt><trkpt lat="53.786184293056344" lon="11.131001550395908"><ele>61.0</ele><time>2026-03-22T14:55:34.999Z</time></trkpt><trkpt lat="53.78598868701201" lon="11.130933796970842"><ele>61.0</ele><time>2026-03-22T14:55:35.999Z</time></trkpt><trkpt lat="53.785802664460576" lon="11.13084498223934"><ele>60.666666666666664</ele><time>2026-03-22T14:55:36.999Z</time></trkpt><trkpt lat="53.78561522651278" lon="11.130740372172433"><ele>60.33333333333333</ele><time>2026-03-22T14:55:37.999Z</time></trkpt><trkpt lat="53.78542568714461" lon="11.13066696921007"><ele>60.0</ele><time>2026-03-22T14:55:38.999Z</time></trkpt><trkpt lat="53.78523097501124" lon="11.130567781035852"><ele>59.33333333333333</ele><time>2026-03-22T14:55:39.999Z</time></trkpt><trkpt lat="53.78504149363662" lon="11.130492613517935"><ele>58.666666666666664</ele><time>2026-03-22T14:55:40.999Z</time></trkpt><trkpt lat="53.784835349342394" lon="11.130456514091005"><ele>58.0</ele><time>2026-03-22T14:55:41.999Z</time></trkpt><trkpt lat="53.78464301315648" lon="11.130451346143891"><ele>58.0</ele><time>2026-03-22T14:55:42.999Z</time></trkpt><trkpt lat="53.78445628925423" lon="11.130474978298198"><ele>58.0</ele><time>2026-03-22T14:55:43.999Z</time></trkpt><trkpt lat="53.78426151832713" lon="11.130550583428061"><ele>58.0</ele><time>2026-03-22T14:55:44.999Z</time></trkpt><trkpt lat="53.78407311064902" lon="11.130584445427411"><ele>57.0</ele><time>2026-03-22T14:55:45.999Z</time></trkpt><trkpt lat="53.78388247088177" lon="11.130608150570838"><ele>56.0</ele><time>2026-03-22T14:55:46.999Z</time></trkpt><trkpt lat="53.78368666592824" lon="11.130611880077073"><ele>55.0</ele><time>2026-03-22T14:55:47.999Z</time></trkpt><trkpt lat="53.78350057390396" lon="11.130576243524924"><ele>54.0</ele><time>2026-03-22T14:55:48.999Z</time></trkpt><trkpt lat="53.783322905314115" lon="11.130507465374738"><ele>53.0</ele><time>2026-03-22T14:55:49.999Z</time></trkpt><trkpt lat="53.7831434659818" lon="11.130380406055643"><ele>52.0</ele><time>2026-03-22T14:55:50.999Z</time></trkpt><trkpt lat="53.782973596519774" lon="11.130252132474933"><ele>52.0</ele><time>2026-03-22T14:55:51.999Z</time></trkpt><trkpt lat="53.78280715240782" lon="11.130094710869253"><ele>52.0</ele><time>2026-03-22T14:55:52.999Z</time></trkpt><trkpt lat="53.782640323207666" lon="11.1299328606664"><ele>52.0</ele><time>2026-03-22T14:55:53.999Z</time></trkpt><trkpt lat="53.782467772167024" lon="11.129806640643615"><ele>52.0</ele><time>2026-03-22T14:55:54.999Z</time></trkpt><trkpt lat="53.78230537909706" lon="11.12963992757417"><ele>52.0</ele><time>2026-03-22T14:55:55.999Z</time></trkpt><trkpt lat="53.782142400544686" lon="11.129486915678648"><ele>52.0</ele><time>2026-03-22T14:55:56.999Z</time></trkpt><trkpt lat="53.78197585667192" lon="11.129298253448463"><ele>52.0</ele><time>2026-03-22T14:55:57.999Z</time></trkpt><trkpt lat="53.78178774962956" lon="11.129142356591732"><ele>52.0</ele><time>2026-03-22T14:55:58.999Z</time></trkpt><trkpt lat="53.781593902145495" lon="11.129007055047506"><ele>52.0</ele><time>2026-03-22T14:55:59.999Z</time></trkpt><trkpt lat="53.78142358109253" lon="11.128860077530742"><ele>52.0</ele><time>2026-03-22T14:56:00.999Z</time></trkpt><trkpt lat="53.781244413171606" lon="11.128731246872743"><ele>52.0</ele><time>2026-03-22T14:56:01.999Z</time></trkpt><trkpt lat="53.78108117235949" lon="11.128612918381405"><ele>52.0</ele><time>2026-03-22T14:56:02.999Z</time></trkpt><trkpt lat="53.78091088126626" lon="11.128468766914503"><ele>52.0</ele><time>2026-03-22T14:56:03.999Z</time></trkpt><trkpt lat="53.780756841389056" lon="11.12832821083432"><ele>52.0</ele><time>2026-03-22T14:56:04.999Z</time></trkpt><trkpt lat="53.780605980771895" lon="11.128161139837554"><ele>52.0</ele><time>2026-03-22T14:56:05.999Z</time></trkpt><trkpt lat="53.780452617616405" lon="11.127968119063642"><ele>52.0</ele><time>2026-03-22T14:56:06.999Z</time></trkpt><trkpt lat="53.78029961585353" lon="11.12779554616836"><ele>52.0</ele><time>2026-03-22T14:56:07.999Z</time></trkpt><trkpt lat="53.780155934773006" lon="11.127613350217588"><ele>52.0</ele><time>2026-03-22T14:56:08.999Z</time></trkpt><trkpt lat="53.78001998542741" lon="11.12740134423975"><ele>51.666666666666664</ele><time>2026-03-22T14:56:09.999Z</time></trkpt><trkpt lat="53.77987765043118" lon="11.127217172975204"><ele>51.33333333333333</ele><time>2026-03-22T14:56:10.999Z</time></trkpt><trkpt lat="53.77973727670929" lon="11.127014933733355"><ele>51.0</ele><time>2026-03-22T14:56:11.999Z</time></trkpt><trkpt lat="53.779584263642754" lon="11.126835114944463"><ele>51.0</ele><time>2026-03-22T14:56:12.999Z</time></trkpt><trkpt lat="53.77942962952949" lon="11.126676942117292"><ele>51.0</ele><time>2026-03-22T14:56:13.999Z</time></trkpt><trkpt lat="53.77928293356298" lon="11.126483473333513"><ele>51.0</ele><time>2026-03-22T14:56:14.999Z</time></trkpt><trkpt lat="53.77913091885604" lon="11.126323181247573"><ele>50.66666666666667</ele><time>2026-03-22T14:56:15.999Z</time></trkpt><trkpt lat="53.77896540044041" lon="11.126189288393702"><ele>50.333333333333336</ele><time>2026-03-22T14:56:16.999Z</time></trkpt><trkpt lat="53.778787016504914" lon="11.12611831578486"><ele>50.0</ele><time>2026-03-22T14:56:17.999Z</time></trkpt><trkpt lat="53.77859629431532" lon="11.12608094294534"><ele>49.66666666666667</ele><time>2026-03-22T14:56:18.999Z</time></trkpt><trkpt lat="53.778399340311694" lon="11.126070208877502"><ele>49.33333333333333</ele><time>2026-03-22T14:56:19.999Z</time></trkpt><trkpt lat="53.77820659253554" lon="11.126082755600718"><ele>49.0</ele><time>2026-03-22T14:56:20.999Z</time></trkpt><trkpt lat="53.77802805581488" lon="11.126060513167076"><ele>49.0</ele><time>2026-03-22T14:56:21.999Z</time></trkpt><trkpt lat="53.777852089205744" lon="11.126073689336458"><ele>49.0</ele><time>2026-03-22T14:56:22.999Z</time></trkpt><trkpt lat="53.77768038343546" lon="11.126078485032222"><ele>49.0</ele><time>2026-03-22T14:56:23.999Z</time></trkpt><trkpt lat="53.777523195875325" lon="11.12608188701599"><ele>48.666666666666664</ele><time>2026-03-22T14:56:24.999Z</time></trkpt><trkpt lat="53.77735636710081" lon="11.126099641369663"><ele>48.33333333333333</ele><time>2026-03-22T14:56:25.999Z</time></trkpt><trkpt lat="53.777190897057835" lon="11.12608873069422"><ele>48.0</ele><time>2026-03-22T14:56:26.999Z</time></trkpt><trkpt lat="53.77704152554454" lon="11.12604325433916"><ele>48.0</ele><time>2026-03-22T14:56:27.999Z</time></trkpt><trkpt lat="53.77691337741284" lon="11.125968573446578"><ele>48.0</ele><time>2026-03-22T14:56:28.999Z</time></trkpt><trkpt lat="53.77684634653945" lon="11.125851055825274"><ele>48.0</ele><time>2026-03-22T14:56:29.999Z</time></trkpt><trkpt lat="53.776775055046706" lon="11.12568024374091"><ele>48.0</ele><time>2026-03-22T14:56:30.999Z</time></trkpt><trkpt lat="53.776728688134384" lon="11.125463161935489"><ele>48.0</ele><time>2026-03-22T14:56:31.999Z</time></trkpt><trkpt lat="53.77670885290202" lon="11.125195187209417"><ele>48.0</ele><time>2026-03-22T14:56:32.999Z</time></trkpt><trkpt lat="53.77670249514975" lon="11.124932034807308"><ele>48.0</ele><time>2026-03-22T14:56:33.999Z</time></trkpt><trkpt lat="53.77669890574829" lon="11.124627304439931"><ele>48.0</ele><time>2026-03-22T14:56:34.999Z</time></trkpt><trkpt lat="53.776698411617744" lon="11.124313762502494"><ele>48.0</ele><time>2026-03-22T14:56:35.999Z</time></trkpt><trkpt lat="53.77669845090659" lon="11.124032246507648"><ele>48.0</ele><time>2026-03-22T14:56:36.999Z</time></trkpt><trkpt lat="53.776699418250516" lon="11.123767088570624"><ele>48.0</ele><time>2026-03-22T14:56:37.999Z</time></trkpt><trkpt lat="53.77670049759875" lon="11.12338385303864"><ele>48.0</ele><time>2026-03-22T14:56:38.999Z</time></trkpt><trkpt lat="53.77670139784162" lon="11.123038636617133"><ele>48.0</ele><time>2026-03-22T14:56:39.999Z</time></trkpt><trkpt lat="53.77670224212359" lon="11.12271487973093"><ele>48.33333333333333</ele><time>2026-03-22T14:56:40.999Z</time></trkpt><trkpt lat="53.77670305650555" lon="11.12240258852653"><ele>48.666666666666664</ele><time>2026-03-22T14:56:41.999Z</time></trkpt><trkpt lat="53.776703823259155" lon="11.122068129430504"><ele>49.0</ele><time>2026-03-22T14:56:42.999Z</time></trkpt><trkpt lat="53.77670428627762" lon="11.121774729506006"><ele>49.666666666666664</ele><time>2026-03-22T14:56:43.999Z</time></trkpt><trkpt lat="53.776704753705715" lon="11.121478535790901"><ele>50.33333333333333</ele><time>2026-03-22T14:56:44.999Z</time></trkpt><trkpt lat="53.776705250497855" lon="11.121163735656062"><ele>51.0</ele><time>2026-03-22T14:56:45.999Z</time></trkpt><trkpt lat="53.776706454448764" lon="11.120857427609032"><ele>51.0</ele><time>2026-03-22T14:56:46.999Z</time></trkpt><trkpt lat="53.77670762504816" lon="11.120535588031686"><ele>51.0</ele><time>2026-03-22T14:56:47.999Z</time></trkpt><trkpt lat="53.77670762504762" lon="11.120224985509017"><ele>51.0</ele><time>2026-03-22T14:56:48.999Z</time></trkpt><trkpt lat="53.7767089687853" lon="11.119929398239695"><ele>51.0</ele><time>2026-03-22T14:56:49.999Z</time></trkpt><trkpt lat="53.77671081438029" lon="11.119610820214573"><ele>51.0</ele><time>2026-03-22T14:56:50.999Z</time></trkpt><trkpt lat="53.776712450934305" lon="11.119309410357914"><ele>51.0</ele><time>2026-03-22T14:56:51.999Z</time></trkpt><trkpt lat="53.77671315489392" lon="11.118999794184619"><ele>51.33333333333333</ele><time>2026-03-22T14:56:52.999Z</time></trkpt><trkpt lat="53.776708212125406" lon="11.118696732955545"><ele>51.666666666666664</ele><time>2026-03-22T14:56:53.999Z</time></trkpt><trkpt lat="53.77667093579256" lon="11.118408623345413"><ele>52.0</ele><time>2026-03-22T14:56:54.999Z</time></trkpt><trkpt lat="53.77663543055444" lon="11.118128108640228"><ele>52.5</ele><time>2026-03-22T14:56:55.999Z</time></trkpt><trkpt lat="53.776546286447584" lon="11.117913129988189"><ele>53.0</ele><time>2026-03-22T14:56:56.999Z</time></trkpt><trkpt lat="53.77645617699693" lon="11.117718534709962"><ele>53.5</ele><time>2026-03-22T14:56:57.999Z</time></trkpt><trkpt lat="53.77638075257439" lon="11.117558255818565"><ele>54.0</ele><time>2026-03-22T14:56:58.999Z</time></trkpt><trkpt lat="53.776298251076625" lon="11.117340071113933"><ele>54.0</ele><time>2026-03-22T14:56:59.999Z</time></trkpt><trkpt lat="53.7762037180611" lon="11.117135604811693"><ele>54.0</ele><time>2026-03-22T14:57:00.999Z</time></trkpt><trkpt lat="53.77611344001316" lon="11.116906993651211"><ele>54.0</ele><time>2026-03-22T14:57:01.999Z</time></trkpt><trkpt lat="53.77603621536729" lon="11.116671163428396"><ele>53.75</ele><time>2026-03-22T14:57:02.999Z</time></trkpt><trkpt lat="53.775962761315135" lon="11.116478561785986"><ele>53.5</ele><time>2026-03-22T14:57:03.999Z</time></trkpt><trkpt lat="53.77588806820128" lon="11.116268224942162"><ele>53.25</ele><time>2026-03-22T14:57:04.999Z</time></trkpt><trkpt lat="53.775809514529925" lon="11.116064847987765"><ele>53.0</ele><time>2026-03-22T14:57:05.999Z</time></trkpt><trkpt lat="53.77571306292122" lon="11.115841929074717"><ele>52.333333333333336</ele><time>2026-03-22T14:57:06.999Z</time></trkpt><trkpt lat="53.77563127151269" lon="11.115653818896886"><ele>51.66666666666667</ele><time>2026-03-22T14:57:07.999Z</time></trkpt><trkpt lat="53.77553749960614" lon="11.115433463735947"><ele>51.0</ele><time>2026-03-22T14:57:08.999Z</time></trkpt><trkpt lat="53.77546090747236" lon="11.115207142717958"><ele>51.0</ele><time>2026-03-22T14:57:09.999Z</time></trkpt><trkpt lat="53.77538082801688" lon="11.1150142599943"><ele>51.0</ele><time>2026-03-22T14:57:10.999Z</time></trkpt><trkpt lat="53.775304413158096" lon="11.114807980339618"><ele>51.0</ele><time>2026-03-22T14:57:11.999Z</time></trkpt><trkpt lat="53.77521829462095" lon="11.114593869338611"><ele>51.0</ele><time>2026-03-22T14:57:12.999Z</time></trkpt><trkpt lat="53.77512573591427" lon="11.114390774105795"><ele>50.0</ele><time>2026-03-22T14:57:13.999Z</time></trkpt><trkpt lat="53.77502318149836" lon="11.114207615992324"><ele>49.0</ele><time>2026-03-22T14:57:14.999Z</time></trkpt><trkpt lat="53.774941677138294" lon="11.113975038689372"><ele>48.0</ele><time>2026-03-22T14:57:15.999Z</time></trkpt><trkpt lat="53.77485612417927" lon="11.11376028123742"><ele>48.0</ele><time>2026-03-22T14:57:16.999Z</time></trkpt><trkpt lat="53.77477410390088" lon="11.11353347964212"><ele>48.0</ele><time>2026-03-22T14:57:17.999Z</time></trkpt><trkpt lat="53.77472720578102" lon="11.113301983126352"><ele>48.0</ele><time>2026-03-22T14:57:18.999Z</time></trkpt><trkpt lat="53.774696448236746" lon="11.113035681794717"><ele>48.33333333333333</ele><time>2026-03-22T14:57:19.999Z</time></trkpt><trkpt lat="53.774731272006925" lon="11.112744065877225"><ele>48.666666666666664</ele><time>2026-03-22T14:57:20.999Z</time></trkpt><trkpt lat="53.77470433884594" lon="11.112470181865953"><ele>49.0</ele><time>2026-03-22T14:57:21.999Z</time></trkpt><trkpt lat="53.774684470265974" lon="11.112210207073158"><ele>49.666666666666664</ele><time>2026-03-22T14:57:22.999Z</time></trkpt><trkpt lat="53.774645415291786" lon="11.111906526039581"><ele>50.33333333333333</ele><time>2026-03-22T14:57:23.999Z</time></trkpt><trkpt lat="53.774610890001256" lon="11.111616194172592"><ele>51.0</ele><time>2026-03-22T14:57:24.999Z</time></trkpt><trkpt lat="53.77459974707392" lon="11.111331804965522"><ele>51.33333333333333</ele><time>2026-03-22T14:57:25.999Z</time></trkpt><trkpt lat="53.774605603553226" lon="11.111040889661975"><ele>51.666666666666664</ele><time>2026-03-22T14:57:26.999Z</time></trkpt><trkpt lat="53.77457558134948" lon="11.11078724794407"><ele>52.0</ele><time>2026-03-22T14:57:27.999Z</time></trkpt><trkpt lat="53.77454172667513" lon="11.110549428497949"><ele>53.0</ele><time>2026-03-22T14:57:28.999Z</time></trkpt><trkpt lat="53.77451681073175" lon="11.110293880216323"><ele>54.0</ele><time>2026-03-22T14:57:29.999Z</time></trkpt><trkpt lat="53.774526983074686" lon="11.110024417653209"><ele>55.0</ele><time>2026-03-22T14:57:30.999Z</time></trkpt><trkpt lat="53.77452744557227" lon="11.109772461143702"><ele>55.25</ele><time>2026-03-22T14:57:31.999Z</time></trkpt><trkpt lat="53.77451583154675" lon="11.109540648146638"><ele>55.5</ele><time>2026-03-22T14:57:32.999Z</time></trkpt><trkpt lat="53.774502973500375" lon="11.109299946932289"><ele>55.75</ele><time>2026-03-22T14:57:33.999Z</time></trkpt><trkpt lat="53.774480290106986" lon="11.109082001404602"><ele>56.0</ele><time>2026-03-22T14:57:34.999Z</time></trkpt><trkpt lat="53.77447572885946" lon="11.108844019878113"><ele>56.0</ele><time>2026-03-22T14:57:35.999Z</time></trkpt><trkpt lat="53.77445824188864" lon="11.108612173284753"><ele>56.0</ele><time>2026-03-22T14:57:36.998Z</time></trkpt><trkpt lat="53.77445145265493" lon="11.1083688444382"><ele>56.0</ele><time>2026-03-22T14:57:37.998Z</time></trkpt><trkpt lat="53.77442266530605" lon="11.108139419772142"><ele>56.0</ele><time>2026-03-22T14:57:38.998Z</time></trkpt><trkpt lat="53.7743890445659" lon="11.107889812647892"><ele>56.0</ele><time>2026-03-22T14:57:39.998Z</time></trkpt><trkpt lat="53.77437849148915" lon="11.107630823701848"><ele>56.0</ele><time>2026-03-22T14:57:40.998Z</time></trkpt><trkpt lat="53.77430179207852" lon="11.107419416368328"><ele>56.0</ele><time>2026-03-22T14:57:41.998Z</time></trkpt><trkpt lat="53.77422418962532" lon="11.107221282289732"><ele>56.0</ele><time>2026-03-22T14:57:42.998Z</time></trkpt><trkpt lat="53.77413454744327" lon="11.107013671540342"><ele>57.0</ele><time>2026-03-22T14:57:43.998Z</time></trkpt><trkpt lat="53.774001347477174" lon="11.106840097037658"><ele>58.0</ele><time>2026-03-22T14:57:44.998Z</time></trkpt><trkpt lat="53.77385814756361" lon="11.106691419324935"><ele>59.0</ele><time>2026-03-22T14:57:45.998Z</time></trkpt><trkpt lat="53.773701260385685" lon="11.106547202665197"><ele>58.66666666666667</ele><time>2026-03-22T14:57:46.998Z</time></trkpt><trkpt lat="53.773535329970656" lon="11.106406767420287"><ele>58.33333333333333</ele><time>2026-03-22T14:57:47.998Z</time></trkpt><trkpt lat="53.77338412449896" lon="11.106248900519885"><ele>58.0</ele><time>2026-03-22T14:57:48.998Z</time></trkpt><trkpt lat="53.773237886562036" lon="11.106063621161411"><ele>58.0</ele><time>2026-03-22T14:57:49.998Z</time></trkpt><trkpt lat="53.77308990996662" lon="11.105889864179588"><ele>58.0</ele><time>2026-03-22T14:57:50.998Z</time></trkpt><trkpt lat="53.77294417286051" lon="11.105709071740653"><ele>58.0</ele><time>2026-03-22T14:57:51.998Z</time></trkpt><trkpt lat="53.77278085751659" lon="11.105547822298739"><ele>58.33333333333333</ele><time>2026-03-22T14:57:52.998Z</time></trkpt><trkpt lat="53.77265771681576" lon="11.10537599178732"><ele>58.66666666666667</ele><time>2026-03-22T14:57:53.998Z</time></trkpt><trkpt lat="53.77252197248017" lon="11.105193567703333"><ele>59.0</ele><time>2026-03-22T14:57:54.998Z</time></trkpt><trkpt lat="53.772360587942615" lon="11.105018384727323"><ele>58.66666666666667</ele><time>2026-03-22T14:57:55.998Z</time></trkpt><trkpt lat="53.772205646391846" lon="11.104825680126622"><ele>58.33333333333333</ele><time>2026-03-22T14:57:56.998Z</time></trkpt><trkpt lat="53.77204284598896" lon="11.104658698346597"><ele>58.0</ele><time>2026-03-22T14:57:57.998Z</time></trkpt><trkpt lat="53.771876984578896" lon="11.104483318584423"><ele>57.0</ele><time>2026-03-22T14:57:58.998Z</time></trkpt><trkpt lat="53.77171216080778" lon="11.104318627618756"><ele>56.0</ele><time>2026-03-22T14:57:59.998Z</time></trkpt><trkpt lat="53.7715521346073" lon="11.104159192459731"><ele>55.0</ele><time>2026-03-22T14:58:00.998Z</time></trkpt><trkpt lat="53.771380147396926" lon="11.103981805879522"><ele>55.0</ele><time>2026-03-22T14:58:01.998Z</time></trkpt><trkpt lat="53.771208443695045" lon="11.103787150227042"><ele>55.0</ele><time>2026-03-22T14:58:02.998Z</time></trkpt><trkpt lat="53.771030259209155" lon="11.103601337065934"><ele>55.0</ele><time>2026-03-22T14:58:03.998Z</time></trkpt><trkpt lat="53.77085015886346" lon="11.103428993904508"><ele>53.0</ele><time>2026-03-22T14:58:04.998Z</time></trkpt><trkpt lat="53.77067594525026" lon="11.10321428261599"><ele>51.0</ele><time>2026-03-22T14:58:05.998Z</time></trkpt><trkpt lat="53.77050484153871" lon="11.103022452051297"><ele>49.0</ele><time>2026-03-22T14:58:06.998Z</time></trkpt><trkpt lat="53.77032238124181" lon="11.10281871266722"><ele>49.0</ele><time>2026-03-22T14:58:07.998Z</time></trkpt><trkpt lat="53.770150136860536" lon="11.102651258019966"><ele>49.0</ele><time>2026-03-22T14:58:08.998Z</time></trkpt><trkpt lat="53.769972467938686" lon="11.102465155342767"><ele>49.0</ele><time>2026-03-22T14:58:09.998Z</time></trkpt><trkpt lat="53.769831498891044" lon="11.102202520515338"><ele>49.0</ele><time>2026-03-22T14:58:10.998Z</time></trkpt><trkpt lat="53.76969256574227" lon="11.101946414563276"><ele>49.0</ele><time>2026-03-22T14:58:11.998Z</time></trkpt><trkpt lat="53.76956048027578" lon="11.101686660786024"><ele>49.0</ele><time>2026-03-22T14:58:12.998Z</time></trkpt><trkpt lat="53.769427860426276" lon="11.101430198382502"><ele>46.666666666666664</ele><time>2026-03-22T14:58:13.998Z</time></trkpt><trkpt lat="53.769295194495676" lon="11.101202517641656"><ele>44.33333333333333</ele><time>2026-03-22T14:58:14.998Z</time></trkpt><trkpt lat="53.769157963648965" lon="11.100990108215134"><ele>42.0</ele><time>2026-03-22T14:58:15.998Z</time></trkpt><trkpt lat="53.769031449968665" lon="11.100761667492874"><ele>43.0</ele><time>2026-03-22T14:58:16.998Z</time></trkpt><trkpt lat="53.76889576628517" lon="11.10055440814584"><ele>44.0</ele><time>2026-03-22T14:58:17.998Z</time></trkpt><trkpt lat="53.76875556808101" lon="11.10035844029977"><ele>45.0</ele><time>2026-03-22T14:58:18.998Z</time></trkpt><trkpt lat="53.76861227324953" lon="11.100161744190066"><ele>44.0</ele><time>2026-03-22T14:58:19.998Z</time></trkpt><trkpt lat="53.768467334922285" lon="11.099946549528578"><ele>43.0</ele><time>2026-03-22T14:58:20.998Z</time></trkpt><trkpt lat="53.76833360589777" lon="11.099723885760588"><ele>42.0</ele><time>2026-03-22T14:58:21.998Z</time></trkpt><trkpt lat="53.768172667138806" lon="11.099549158812215"><ele>42.0</ele><time>2026-03-22T14:58:22.998Z</time></trkpt><trkpt lat="53.76802508984018" lon="11.099327702539926"><ele>42.0</ele><time>2026-03-22T14:58:23.998Z</time></trkpt><trkpt lat="53.76786521630323" lon="11.099140626652513"><ele>42.0</ele><time>2026-03-22T14:58:24.998Z</time></trkpt><trkpt lat="53.76770951054252" lon="11.098930063199242"><ele>42.666666666666664</ele><time>2026-03-22T14:58:25.998Z</time></trkpt><trkpt lat="53.76755144837523" lon="11.098729280092156"><ele>43.33333333333333</ele><time>2026-03-22T14:58:26.998Z</time></trkpt><trkpt lat="53.767377692890854" lon="11.09860081869744"><ele>44.0</ele><time>2026-03-22T14:58:27.998Z</time></trkpt><trkpt lat="53.76720026642703" lon="11.098509412622457"><ele>44.0</ele><time>2026-03-22T14:58:28.998Z</time></trkpt><trkpt lat="53.76700297678506" lon="11.098436786157473"><ele>44.0</ele><time>2026-03-22T14:58:29.998Z</time></trkpt><trkpt lat="53.76682999682348" lon="11.098322326230301"><ele>44.0</ele><time>2026-03-22T14:58:30.998Z</time></trkpt><trkpt lat="53.7666643155778" lon="11.098213048527874"><ele>44.33333333333333</ele><time>2026-03-22T14:58:31.998Z</time></trkpt><trkpt lat="53.76649932359849" lon="11.098067673823325"><ele>44.666666666666664</ele><time>2026-03-22T14:58:32.998Z</time></trkpt><trkpt lat="53.766356533694385" lon="11.09785226125443"><ele>45.0</ele><time>2026-03-22T14:58:33.998Z</time></trkpt><trkpt lat="53.766263881228674" lon="11.097616609856289"><ele>45.0</ele><time>2026-03-22T14:58:34.998Z</time></trkpt><trkpt lat="53.76618263398988" lon="11.097354012090321"><ele>45.0</ele><time>2026-03-22T14:58:35.998Z</time></trkpt><trkpt lat="53.7660913460033" lon="11.097105656649283"><ele>45.0</ele><time>2026-03-22T14:58:36.998Z</time></trkpt><trkpt lat="53.76602363962816" lon="11.096854023296045"><ele>45.666666666666664</ele><time>2026-03-22T14:58:37.998Z</time></trkpt><trkpt lat="53.76595763977473" lon="11.096588709275563"><ele>46.33333333333333</ele><time>2026-03-22T14:58:38.998Z</time></trkpt><trkpt lat="53.765880664953876" lon="11.09632890639918"><ele>47.0</ele><time>2026-03-22T14:58:39.998Z</time></trkpt><trkpt lat="53.76579339147386" lon="11.096082532763514"><ele>47.0</ele><time>2026-03-22T14:58:41Z</time></trkpt><trkpt lat="53.765721612440615" lon="11.095845461851969"><ele>47.0</ele><time>2026-03-22T14:58:42Z</time></trkpt><trkpt lat="53.76567402854055" lon="11.095622618800213"><ele>47.0</ele><time>2026-03-22T14:58:43Z</time></trkpt><trkpt lat="53.765619195551444" lon="11.09544719224091"><ele>47.0</ele><time>2026-03-22T14:58:44Z</time></trkpt><trkpt lat="53.76556841182028" lon="11.09526769594474"><ele>46.8</ele><time>2026-03-22T14:58:45Z</time></trkpt><trkpt lat="53.76552776070884" lon="11.095128456514812"><ele>46.6</ele><time>2026-03-22T14:58:46Z</time></trkpt><trkpt lat="53.76552680560794" lon="11.095008114998903"><ele>46.4</ele><time>2026-03-22T14:58:47Z</time></trkpt><trkpt lat="53.76538488831825" lon="11.094977910260283"><ele>46.199999999999996</ele><time>2026-03-22T14:58:49Z</time></trkpt><trkpt lat="53.765319080186394" lon="11.09506256697048"><ele>46.0</ele><time>2026-03-22T14:58:50Z</time></trkpt><trkpt lat="53.76526179901222" lon="11.095169924644118"><ele>46.0</ele><time>2026-03-22T14:58:51Z</time></trkpt><trkpt lat="53.76520313863259" lon="11.095253093072714"><ele>46.0</ele><time>2026-03-22T14:58:52Z</time></trkpt><trkpt lat="53.7651294262228" lon="11.095364597300307"><ele>46.0</ele><time>2026-03-22T14:58:53Z</time></trkpt><trkpt lat="53.765074335189205" lon="11.095460214479882"><ele>46.0</ele><time>2026-03-22T14:58:54Z</time></trkpt><trkpt lat="53.76497777434767" lon="11.09556722540318"><ele>46.0</ele><time>2026-03-22T14:58:55Z</time></trkpt><trkpt lat="53.7648831941377" lon="11.09566197427472"><ele>46.599999999999994</ele><time>2026-03-22T14:58:56Z</time></trkpt><trkpt lat="53.76479452314395" lon="11.095762954981142"><ele>47.2</ele><time>2026-03-22T14:58:57Z</time></trkpt><trkpt lat="53.7647044715779" lon="11.095865507983683"><ele>47.8</ele><time>2026-03-22T14:58:58Z</time></trkpt><trkpt lat="53.764624515325856" lon="11.095956564109155"><ele>48.400000000000006</ele><time>2026-03-22T14:58:59Z</time></trkpt><trkpt lat="53.76455099501172" lon="11.09604286158565"><ele>49.0</ele><time>2026-03-22T14:59:00Z</time></trkpt><trkpt lat="53.76449377397207" lon="11.096110358161496"><ele>49.0</ele><time>2026-03-22T14:59:01Z</time></trkpt><trkpt lat="53.76455135446663" lon="11.09622057760746"><ele>49.0</ele><time>2026-03-22T14:59:02Z</time></trkpt><trkpt lat="53.76461024406789" lon="11.096312216450626"><ele>49.0</ele><time>2026-03-22T14:59:04Z</time></trkpt><trkpt lat="53.76470588788271" lon="11.09634738771962"><ele>49.0</ele><time>2026-03-22T14:59:05Z</time></trkpt><trkpt lat="53.76479993864285" lon="11.096367082866434"><ele>49.0</ele><time>2026-03-22T14:59:06Z</time></trkpt><trkpt lat="53.764893206898456" lon="11.096379590441177"><ele>49.0</ele><time>2026-03-22T14:59:07Z</time></trkpt><trkpt lat="53.76498884728035" lon="11.096391371530052"><ele>49.0</ele><time>2026-03-22T14:59:08Z</time></trkpt><trkpt lat="53.76510657471185" lon="11.096351803509096"><ele>49.0</ele><time>2026-03-22T14:59:09Z</time></trkpt><trkpt lat="53.765189427636265" lon="11.096362644547664"><ele>49.0</ele><time>2026-03-22T14:59:10Z</time></trkpt><trkpt lat="53.765262270656685" lon="11.096378698007799"><ele>49.0</ele><time>2026-03-22T14:59:11Z</time></trkpt><trkpt lat="53.76531986316755" lon="11.09647243487243"><ele>48.666666666666664</ele><time>2026-03-22T14:59:12Z</time></trkpt><trkpt lat="53.765359940423416" lon="11.096712716680132"><ele>48.33333333333333</ele><time>2026-03-22T14:59:14Z</time></trkpt><trkpt lat="53.76539690347659" lon="11.096817707736328"><ele>48.0</ele><time>2026-03-22T14:59:15Z</time></trkpt><trkpt lat="53.765415646423335" lon="11.096930878650413"><ele>47.666666666666664</ele><time>2026-03-22T14:59:16Z</time></trkpt><trkpt lat="53.76543780141729" lon="11.097053966542388"><ele>47.33333333333333</ele><time>2026-03-22T14:59:17Z</time></trkpt><trkpt lat="53.765465465083295" lon="11.097179957529514"><ele>47.0</ele><time>2026-03-22T14:59:18Z</time></trkpt><trkpt lat="53.765479839831" lon="11.097308610613984"><ele>47.0</ele><time>2026-03-22T14:59:19Z</time></trkpt><trkpt lat="53.765500095749346" lon="11.097452375169542"><ele>47.0</ele><time>2026-03-22T14:59:20Z</time></trkpt><trkpt lat="53.76546054420379" lon="11.09757868535197"><ele>47.0</ele><time>2026-03-22T14:59:22Z</time></trkpt><trkpt lat="53.76540268604652" lon="11.097626231108835"><ele>47.0</ele><time>2026-03-22T14:59:24Z</time></trkpt><trkpt lat="53.76533877285904" lon="11.09763069825718"><ele>47.0</ele><time>2026-03-22T14:59:25Z</time></trkpt><trkpt lat="53.765263289142254" lon="11.097630720098795"><ele>47.0</ele><time>2026-03-22T14:59:26Z</time></trkpt><trkpt lat="53.76518368557499" lon="11.097627743936755"><ele>47.5</ele><time>2026-03-22T14:59:27Z</time></trkpt><trkpt lat="53.765103390483446" lon="11.097629197202398"><ele>48.0</ele><time>2026-03-22T14:59:28Z</time></trkpt><trkpt lat="53.76501567691386" lon="11.097627802090162"><ele>48.5</ele><time>2026-03-22T14:59:29Z</time></trkpt><trkpt lat="53.764933027679625" lon="11.097636632226559"><ele>49.0</ele><time>2026-03-22T14:59:30Z</time></trkpt><trkpt lat="53.76484725813898" lon="11.097628370229014"><ele>49.50000000000001</ele><time>2026-03-22T14:59:31Z</time></trkpt><trkpt lat="53.76477120480129" lon="11.097613080267536"><ele>50.0</ele><time>2026-03-22T14:59:32Z</time></trkpt><trkpt lat="53.76470563775763" lon="11.097593464019463"><ele>50.0</ele><time>2026-03-22T14:59:33Z</time></trkpt><trkpt lat="53.76463385802014" lon="11.097593207129298"><ele>50.0</ele><time>2026-03-22T14:59:35Z</time></trkpt><trkpt lat="53.76456308579263" lon="11.09785482823113"><ele>50.0</ele><time>2026-03-22T14:59:38Z</time></trkpt><trkpt lat="53.76444165443248" lon="11.097712257925728"><ele>50.0</ele><time>2026-03-22T14:59:39Z</time></trkpt><trkpt lat="53.76440401163142" lon="11.097622194331919"><ele>50.0</ele><time>2026-03-22T14:59:40Z</time></trkpt><trkpt lat="53.76434560549741" lon="11.097575099394096"><ele>51.0</ele><time>2026-03-22T14:59:46Z</time></trkpt><trkpt lat="53.76427436844663" lon="11.097571465704993"><ele>51.0</ele><time>2026-03-22T14:59:52Z</time></trkpt><trkpt lat="53.76429816490437" lon="11.097838439346114"><ele>51.0</ele><time>2026-03-22T15:00:47.999Z</time></trkpt><trkpt lat="53.764233995135676" lon="11.097846249165196"><ele>51.0</ele><time>2026-03-22T15:00:53.999Z</time></trkpt></trkseg></trk></gpx>